<?xml version="1.0" encoding="UTF-8" standalone="no" ?>
<gpx xmlns="http://www.topografix.com/GPX/1/1" xmlns:xsi="http://www.w3.org/2001/XMLSchema-instance" xsi:schemaLocation="http://www.topografix.com/GPX/1/1 http://www.topografix.com/GPX/1/1/gpx.xsd" version="1.1" creator="VisuGPX - https://www.visugpx.com">
  <metadata>
    <name>MB. Sortie du 11/07/2019</name>
    <desc><![CDATA[Sortie VTT du jeudi 11 juillet 2019]]></desc>
  </metadata>
  <trk>
    <name><![CDATA[Pornichet Cyclisme]]></name>
    <trkseg>
      <trkpt lat="47.26406" lon="-2.31531">
        <ele>10.5</ele>
        <time>2019-07-11T07:27:21.000Z</time>
      </trkpt>
      <trkpt lat="47.26405" lon="-2.31534">
        <ele>10.4</ele>
        <time>2019-07-11T07:27:22.000Z</time>
      </trkpt>
      <trkpt lat="47.26405" lon="-2.31547">
        <ele>9.9</ele>
        <time>2019-07-11T07:27:25.000Z</time>
      </trkpt>
      <trkpt lat="47.26405" lon="-2.31553">
        <ele>0.20000000298023</ele>
        <time>2019-07-11T07:27:26.000Z</time>
      </trkpt>
      <trkpt lat="47.26405" lon="-2.31577">
        <ele>0.20000000298023</ele>
        <time>2019-07-11T07:27:30.000Z</time>
      </trkpt>
      <trkpt lat="47.26406" lon="-2.31616">
        <ele>0.20000000298023</ele>
        <time>2019-07-11T07:27:36.000Z</time>
      </trkpt>
      <trkpt lat="47.26406" lon="-2.31628">
        <ele>0.20000000298023</ele>
        <time>2019-07-11T07:27:38.000Z</time>
      </trkpt>
      <trkpt lat="47.26405" lon="-2.31637">
        <ele>0.20000000298023</ele>
        <time>2019-07-11T07:27:40.000Z</time>
      </trkpt>
      <trkpt lat="47.26402" lon="-2.31639">
        <ele>0.20000000298023</ele>
        <time>2019-07-11T07:27:41.000Z</time>
      </trkpt>
      <trkpt lat="47.2639" lon="-2.31646">
        <ele>0.20000000298023</ele>
        <time>2019-07-11T07:27:45.000Z</time>
      </trkpt>
      <trkpt lat="47.26386" lon="-2.31649">
        <ele>0.20000000298023</ele>
        <time>2019-07-11T07:27:46.000Z</time>
      </trkpt>
      <trkpt lat="47.26358" lon="-2.31666">
        <ele>0.20000000298023</ele>
        <time>2019-07-11T07:27:52.000Z</time>
      </trkpt>
      <trkpt lat="47.26349" lon="-2.31673">
        <ele>-0.20000000298023</ele>
        <time>2019-07-11T07:27:54.000Z</time>
      </trkpt>
      <trkpt lat="47.26344" lon="-2.31675">
        <ele>-0.60000002384186</ele>
        <time>2019-07-11T07:27:55.000Z</time>
      </trkpt>
      <trkpt lat="47.26338" lon="-2.31678">
        <ele>-1</ele>
        <time>2019-07-11T07:27:56.000Z</time>
      </trkpt>
      <trkpt lat="47.26333" lon="-2.3168">
        <ele>-1.6000000238419</ele>
        <time>2019-07-11T07:27:57.000Z</time>
      </trkpt>
      <trkpt lat="47.26327" lon="-2.31683">
        <ele>-2</ele>
        <time>2019-07-11T07:27:58.000Z</time>
      </trkpt>
      <trkpt lat="47.26302" lon="-2.31694">
        <ele>-2</ele>
        <time>2019-07-11T07:28:03.000Z</time>
      </trkpt>
      <trkpt lat="47.26298" lon="-2.31691">
        <ele>-2.4000000953674</ele>
        <time>2019-07-11T07:28:04.000Z</time>
      </trkpt>
      <trkpt lat="47.26296" lon="-2.31688">
        <ele>-2.7999999523163</ele>
        <time>2019-07-11T07:28:05.000Z</time>
      </trkpt>
      <trkpt lat="47.26293" lon="-2.31684">
        <ele>-3.2000000476837</ele>
        <time>2019-07-11T07:28:06.000Z</time>
      </trkpt>
      <trkpt lat="47.2629" lon="-2.31679">
        <ele>-3.5999999046326</ele>
        <time>2019-07-11T07:28:07.000Z</time>
      </trkpt>
      <trkpt lat="47.26287" lon="-2.31674">
        <ele>-4</ele>
        <time>2019-07-11T07:28:08.000Z</time>
      </trkpt>
      <trkpt lat="47.26281" lon="-2.31664">
        <ele>-4</ele>
        <time>2019-07-11T07:28:10.000Z</time>
      </trkpt>
      <trkpt lat="47.26277" lon="-2.31659">
        <ele>-4</ele>
        <time>2019-07-11T07:28:11.000Z</time>
      </trkpt>
      <trkpt lat="47.26274" lon="-2.31653">
        <ele>-4</ele>
        <time>2019-07-11T07:28:12.000Z</time>
      </trkpt>
      <trkpt lat="47.26268" lon="-2.31639">
        <ele>-4</ele>
        <time>2019-07-11T07:28:15.000Z</time>
      </trkpt>
      <trkpt lat="47.26265" lon="-2.31633">
        <ele>-4</ele>
        <time>2019-07-11T07:28:16.000Z</time>
      </trkpt>
      <trkpt lat="47.26253" lon="-2.31613">
        <ele>-4</ele>
        <time>2019-07-11T07:28:20.000Z</time>
      </trkpt>
      <trkpt lat="47.26243" lon="-2.31599">
        <ele>-4</ele>
        <time>2019-07-11T07:28:23.000Z</time>
      </trkpt>
      <trkpt lat="47.26234" lon="-2.31591">
        <ele>-4</ele>
        <time>2019-07-11T07:28:25.000Z</time>
      </trkpt>
      <trkpt lat="47.26219" lon="-2.31581">
        <ele>-4</ele>
        <time>2019-07-11T07:28:29.000Z</time>
      </trkpt>
      <trkpt lat="47.26199" lon="-2.31582">
        <ele>-4</ele>
        <time>2019-07-11T07:28:33.000Z</time>
      </trkpt>
      <trkpt lat="47.26184" lon="-2.31585">
        <ele>-4</ele>
        <time>2019-07-11T07:28:36.000Z</time>
      </trkpt>
      <trkpt lat="47.2617" lon="-2.31588">
        <ele>-4</ele>
        <time>2019-07-11T07:28:39.000Z</time>
      </trkpt>
      <trkpt lat="47.26142" lon="-2.31597">
        <ele>-4</ele>
        <time>2019-07-11T07:28:45.000Z</time>
      </trkpt>
      <trkpt lat="47.26138" lon="-2.31598">
        <ele>-4</ele>
        <time>2019-07-11T07:28:46.000Z</time>
      </trkpt>
      <trkpt lat="47.26125" lon="-2.31599">
        <ele>-4</ele>
        <time>2019-07-11T07:28:49.000Z</time>
      </trkpt>
      <trkpt lat="47.26111" lon="-2.31599">
        <ele>-4</ele>
        <time>2019-07-11T07:28:52.000Z</time>
      </trkpt>
      <trkpt lat="47.26097" lon="-2.3159">
        <ele>-4</ele>
        <time>2019-07-11T07:28:56.000Z</time>
      </trkpt>
      <trkpt lat="47.26085" lon="-2.31571">
        <ele>-4</ele>
        <time>2019-07-11T07:29:01.000Z</time>
      </trkpt>
      <trkpt lat="47.26074" lon="-2.31562">
        <ele>-4</ele>
        <time>2019-07-11T07:29:07.000Z</time>
      </trkpt>
      <trkpt lat="47.26067" lon="-2.31543">
        <ele>-4</ele>
        <time>2019-07-11T07:29:11.000Z</time>
      </trkpt>
      <trkpt lat="47.26055" lon="-2.31519">
        <ele>-4</ele>
        <time>2019-07-11T07:29:16.000Z</time>
      </trkpt>
      <trkpt lat="47.26052" lon="-2.31514">
        <ele>-4</ele>
        <time>2019-07-11T07:29:17.000Z</time>
      </trkpt>
      <trkpt lat="47.26042" lon="-2.31503">
        <ele>-4</ele>
        <time>2019-07-11T07:29:20.000Z</time>
      </trkpt>
      <trkpt lat="47.26039" lon="-2.31502">
        <ele>-3.5999999046326</ele>
        <time>2019-07-11T07:29:21.000Z</time>
      </trkpt>
      <trkpt lat="47.26037" lon="-2.31503">
        <ele>-3.2000000476837</ele>
        <time>2019-07-11T07:29:22.000Z</time>
      </trkpt>
      <trkpt lat="47.26034" lon="-2.31505">
        <ele>-2.5999999046326</ele>
        <time>2019-07-11T07:29:23.000Z</time>
      </trkpt>
      <trkpt lat="47.26032" lon="-2.31509">
        <ele>-2.2000000476837</ele>
        <time>2019-07-11T07:29:24.000Z</time>
      </trkpt>
      <trkpt lat="47.26031" lon="-2.31514">
        <ele>-1.7999999523163</ele>
        <time>2019-07-11T07:29:25.000Z</time>
      </trkpt>
      <trkpt lat="47.26027" lon="-2.31524">
        <ele>-1.7999999523163</ele>
        <time>2019-07-11T07:29:27.000Z</time>
      </trkpt>
      <trkpt lat="47.26023" lon="-2.31535">
        <ele>-1.7999999523163</ele>
        <time>2019-07-11T07:29:29.000Z</time>
      </trkpt>
      <trkpt lat="47.26018" lon="-2.31544">
        <ele>-1.7999999523163</ele>
        <time>2019-07-11T07:29:31.000Z</time>
      </trkpt>
      <trkpt lat="47.26011" lon="-2.3155">
        <ele>-1.7999999523163</ele>
        <time>2019-07-11T07:29:33.000Z</time>
      </trkpt>
      <trkpt lat="47.26001" lon="-2.31548">
        <ele>-1.7999999523163</ele>
        <time>2019-07-11T07:29:36.000Z</time>
      </trkpt>
      <trkpt lat="47.25999" lon="-2.31545">
        <ele>-1.7999999523163</ele>
        <time>2019-07-11T07:29:37.000Z</time>
      </trkpt>
      <trkpt lat="47.25988" lon="-2.31529">
        <ele>-1.7999999523163</ele>
        <time>2019-07-11T07:29:41.000Z</time>
      </trkpt>
      <trkpt lat="47.25981" lon="-2.31514">
        <ele>-1.7999999523163</ele>
        <time>2019-07-11T07:29:44.000Z</time>
      </trkpt>
      <trkpt lat="47.25971" lon="-2.31492">
        <ele>-1.7999999523163</ele>
        <time>2019-07-11T07:29:48.000Z</time>
      </trkpt>
      <trkpt lat="47.25964" lon="-2.31477">
        <ele>-1.7999999523163</ele>
        <time>2019-07-11T07:29:51.000Z</time>
      </trkpt>
      <trkpt lat="47.25954" lon="-2.31467">
        <ele>-1.7999999523163</ele>
        <time>2019-07-11T07:29:54.000Z</time>
      </trkpt>
      <trkpt lat="47.25937" lon="-2.31452">
        <ele>-1.7999999523163</ele>
        <time>2019-07-11T07:29:59.000Z</time>
      </trkpt>
      <trkpt lat="47.25929" lon="-2.31451">
        <ele>-1.7999999523163</ele>
        <time>2019-07-11T07:30:01.000Z</time>
      </trkpt>
      <trkpt lat="47.25924" lon="-2.31457">
        <ele>-1.7999999523163</ele>
        <time>2019-07-11T07:30:03.000Z</time>
      </trkpt>
      <trkpt lat="47.2592" lon="-2.31465">
        <ele>-1.7999999523163</ele>
        <time>2019-07-11T07:30:05.000Z</time>
      </trkpt>
      <trkpt lat="47.25917" lon="-2.31474">
        <ele>-1.3999999761581</ele>
        <time>2019-07-11T07:30:07.000Z</time>
      </trkpt>
      <trkpt lat="47.25915" lon="-2.31478">
        <ele>-1</ele>
        <time>2019-07-11T07:30:08.000Z</time>
      </trkpt>
      <trkpt lat="47.25914" lon="-2.31482">
        <ele>-0.60000002384186</ele>
        <time>2019-07-11T07:30:09.000Z</time>
      </trkpt>
      <trkpt lat="47.25912" lon="-2.31485">
        <ele>-0.20000000298023</ele>
        <time>2019-07-11T07:30:10.000Z</time>
      </trkpt>
      <trkpt lat="47.25911" lon="-2.31489">
        <ele>0.20000000298023</ele>
        <time>2019-07-11T07:30:11.000Z</time>
      </trkpt>
      <trkpt lat="47.25908" lon="-2.31494">
        <ele>0.20000000298023</ele>
        <time>2019-07-11T07:30:13.000Z</time>
      </trkpt>
      <trkpt lat="47.25908" lon="-2.31495">
        <ele>0.20000000298023</ele>
        <time>2019-07-11T07:30:14.000Z</time>
      </trkpt>
      <trkpt lat="47.25909" lon="-2.31496">
        <ele>0.20000000298023</ele>
        <time>2019-07-11T07:30:15.000Z</time>
      </trkpt>
      <trkpt lat="47.2591" lon="-2.31498">
        <ele>0.20000000298023</ele>
        <time>2019-07-11T07:30:17.000Z</time>
      </trkpt>
      <trkpt lat="47.25909" lon="-2.31499">
        <ele>0.20000000298023</ele>
        <time>2019-07-11T07:30:18.000Z</time>
      </trkpt>
      <trkpt lat="47.259" lon="-2.3151">
        <ele>0.20000000298023</ele>
        <time>2019-07-11T07:30:22.000Z</time>
      </trkpt>
      <trkpt lat="47.2589" lon="-2.3154">
        <ele>0.60000002384186</ele>
        <time>2019-07-11T07:30:28.000Z</time>
      </trkpt>
      <trkpt lat="47.25888" lon="-2.31545">
        <ele>1</ele>
        <time>2019-07-11T07:30:29.000Z</time>
      </trkpt>
      <trkpt lat="47.25886" lon="-2.3155">
        <ele>1.3999999761581</ele>
        <time>2019-07-11T07:30:30.000Z</time>
      </trkpt>
      <trkpt lat="47.25884" lon="-2.31554">
        <ele>1.7999999523163</ele>
        <time>2019-07-11T07:30:31.000Z</time>
      </trkpt>
      <trkpt lat="47.25882" lon="-2.31559">
        <ele>2.4000000953674</ele>
        <time>2019-07-11T07:30:32.000Z</time>
      </trkpt>
      <trkpt lat="47.25876" lon="-2.31566">
        <ele>2.4000000953674</ele>
        <time>2019-07-11T07:30:34.000Z</time>
      </trkpt>
      <trkpt lat="47.25854" lon="-2.31587">
        <ele>2.4000000953674</ele>
        <time>2019-07-11T07:30:41.000Z</time>
      </trkpt>
      <trkpt lat="47.25846" lon="-2.31597">
        <ele>2.7999999523163</ele>
        <time>2019-07-11T07:30:44.000Z</time>
      </trkpt>
      <trkpt lat="47.25843" lon="-2.316">
        <ele>3.2000000476837</ele>
        <time>2019-07-11T07:30:45.000Z</time>
      </trkpt>
      <trkpt lat="47.2584" lon="-2.31603">
        <ele>4</ele>
        <time>2019-07-11T07:30:46.000Z</time>
      </trkpt>
      <trkpt lat="47.25837" lon="-2.31606">
        <ele>4.4000000953674</ele>
        <time>2019-07-11T07:30:47.000Z</time>
      </trkpt>
      <trkpt lat="47.25833" lon="-2.31608">
        <ele>4.4000000953674</ele>
        <time>2019-07-11T07:30:48.000Z</time>
      </trkpt>
      <trkpt lat="47.25817" lon="-2.31625">
        <ele>4.4000000953674</ele>
        <time>2019-07-11T07:30:53.000Z</time>
      </trkpt>
      <trkpt lat="47.25797" lon="-2.31642">
        <ele>4.4000000953674</ele>
        <time>2019-07-11T07:30:58.000Z</time>
      </trkpt>
      <trkpt lat="47.25793" lon="-2.31646">
        <ele>4.4000000953674</ele>
        <time>2019-07-11T07:30:59.000Z</time>
      </trkpt>
      <trkpt lat="47.25756" lon="-2.31675">
        <ele>4.4000000953674</ele>
        <time>2019-07-11T07:31:07.000Z</time>
      </trkpt>
      <trkpt lat="47.25727" lon="-2.31697">
        <ele>4.4000000953674</ele>
        <time>2019-07-11T07:31:13.000Z</time>
      </trkpt>
      <trkpt lat="47.25713" lon="-2.31693">
        <ele>4.4000000953674</ele>
        <time>2019-07-11T07:31:16.000Z</time>
      </trkpt>
      <trkpt lat="47.25709" lon="-2.31691">
        <ele>4.4000000953674</ele>
        <time>2019-07-11T07:31:17.000Z</time>
      </trkpt>
      <trkpt lat="47.25685" lon="-2.31677">
        <ele>4.4000000953674</ele>
        <time>2019-07-11T07:31:23.000Z</time>
      </trkpt>
      <trkpt lat="47.25667" lon="-2.31678">
        <ele>4.4000000953674</ele>
        <time>2019-07-11T07:31:28.000Z</time>
      </trkpt>
      <trkpt lat="47.25652" lon="-2.31688">
        <ele>4.4000000953674</ele>
        <time>2019-07-11T07:31:32.000Z</time>
      </trkpt>
      <trkpt lat="47.25649" lon="-2.31693">
        <ele>5</ele>
        <time>2019-07-11T07:31:33.000Z</time>
      </trkpt>
      <trkpt lat="47.25646" lon="-2.31698">
        <ele>5.4000000953674</ele>
        <time>2019-07-11T07:31:34.000Z</time>
      </trkpt>
      <trkpt lat="47.25643" lon="-2.31702">
        <ele>6.1999998092651</ele>
        <time>2019-07-11T07:31:35.000Z</time>
      </trkpt>
      <trkpt lat="47.2564" lon="-2.31706">
        <ele>6.5999999046326</ele>
        <time>2019-07-11T07:31:36.000Z</time>
      </trkpt>
      <trkpt lat="47.25636" lon="-2.3171">
        <ele>6.5999999046326</ele>
        <time>2019-07-11T07:31:37.000Z</time>
      </trkpt>
      <trkpt lat="47.2563" lon="-2.31717">
        <ele>6.5999999046326</ele>
        <time>2019-07-11T07:31:39.000Z</time>
      </trkpt>
      <trkpt lat="47.25627" lon="-2.31722">
        <ele>7</ele>
        <time>2019-07-11T07:31:40.000Z</time>
      </trkpt>
      <trkpt lat="47.25625" lon="-2.31728">
        <ele>7.4000000953674</ele>
        <time>2019-07-11T07:31:41.000Z</time>
      </trkpt>
      <trkpt lat="47.25624" lon="-2.31734">
        <ele>7.8000001907349</ele>
        <time>2019-07-11T07:31:42.000Z</time>
      </trkpt>
      <trkpt lat="47.25623" lon="-2.31741">
        <ele>8.1999998092651</ele>
        <time>2019-07-11T07:31:43.000Z</time>
      </trkpt>
      <trkpt lat="47.25621" lon="-2.31748">
        <ele>8.6000003814697</ele>
        <time>2019-07-11T07:31:44.000Z</time>
      </trkpt>
      <trkpt lat="47.25616" lon="-2.31759">
        <ele>8.6000003814697</ele>
        <time>2019-07-11T07:31:46.000Z</time>
      </trkpt>
      <trkpt lat="47.25602" lon="-2.31766">
        <ele>8.6000003814697</ele>
        <time>2019-07-11T07:31:49.000Z</time>
      </trkpt>
      <trkpt lat="47.25592" lon="-2.31767">
        <ele>8.6000003814697</ele>
        <time>2019-07-11T07:31:51.000Z</time>
      </trkpt>
      <trkpt lat="47.25587" lon="-2.31768">
        <ele>8.6000003814697</ele>
        <time>2019-07-11T07:31:52.000Z</time>
      </trkpt>
      <trkpt lat="47.25577" lon="-2.31773">
        <ele>8.6000003814697</ele>
        <time>2019-07-11T07:31:54.000Z</time>
      </trkpt>
      <trkpt lat="47.25569" lon="-2.31778">
        <ele>8.6000003814697</ele>
        <time>2019-07-11T07:31:56.000Z</time>
      </trkpt>
      <trkpt lat="47.25565" lon="-2.31782">
        <ele>9</ele>
        <time>2019-07-11T07:31:57.000Z</time>
      </trkpt>
      <trkpt lat="47.25562" lon="-2.31786">
        <ele>9.3999996185303</ele>
        <time>2019-07-11T07:31:58.000Z</time>
      </trkpt>
      <trkpt lat="47.25561" lon="-2.31792">
        <ele>9.8000001907349</ele>
        <time>2019-07-11T07:31:59.000Z</time>
      </trkpt>
      <trkpt lat="47.25559" lon="-2.31798">
        <ele>10.60000038147</ele>
        <time>2019-07-11T07:32:00.000Z</time>
      </trkpt>
      <trkpt lat="47.25553" lon="-2.31804">
        <ele>10.60000038147</ele>
        <time>2019-07-11T07:32:02.000Z</time>
      </trkpt>
      <trkpt lat="47.25537" lon="-2.31809">
        <ele>10.60000038147</ele>
        <time>2019-07-11T07:32:06.000Z</time>
      </trkpt>
      <trkpt lat="47.25534" lon="-2.3181">
        <ele>11.199999809265</ele>
        <time>2019-07-11T07:32:07.000Z</time>
      </trkpt>
      <trkpt lat="47.25531" lon="-2.31811">
        <ele>11.60000038147</ele>
        <time>2019-07-11T07:32:08.000Z</time>
      </trkpt>
      <trkpt lat="47.25528" lon="-2.31812">
        <ele>12</ele>
        <time>2019-07-11T07:32:09.000Z</time>
      </trkpt>
      <trkpt lat="47.25525" lon="-2.31813">
        <ele>12.39999961853</ele>
        <time>2019-07-11T07:32:10.000Z</time>
      </trkpt>
      <trkpt lat="47.25523" lon="-2.31814">
        <ele>12.800000190735</ele>
        <time>2019-07-11T07:32:11.000Z</time>
      </trkpt>
      <trkpt lat="47.2552" lon="-2.31816">
        <ele>12.800000190735</ele>
        <time>2019-07-11T07:32:12.000Z</time>
      </trkpt>
      <trkpt lat="47.25519" lon="-2.31819">
        <ele>12.800000190735</ele>
        <time>2019-07-11T07:32:13.000Z</time>
      </trkpt>
      <trkpt lat="47.25514" lon="-2.3183">
        <ele>12.800000190735</ele>
        <time>2019-07-11T07:32:18.000Z</time>
      </trkpt>
      <trkpt lat="47.25514" lon="-2.3183">
        <ele>12.800000190735</ele>
        <time>2019-07-11T07:32:19.000Z</time>
      </trkpt>
      <trkpt lat="47.25513" lon="-2.3183">
        <ele>12.800000190735</ele>
        <time>2019-07-11T07:32:22.000Z</time>
      </trkpt>
      <trkpt lat="47.25518" lon="-2.31825">
        <ele>19</ele>
        <time>2019-07-11T07:37:55.000Z</time>
      </trkpt>
      <trkpt lat="47.2552" lon="-2.31818">
        <ele>19</ele>
        <time>2019-07-11T07:37:58.000Z</time>
      </trkpt>
      <trkpt lat="47.25529" lon="-2.31809">
        <ele>19</ele>
        <time>2019-07-11T07:38:03.000Z</time>
      </trkpt>
      <trkpt lat="47.25552" lon="-2.31801">
        <ele>19</ele>
        <time>2019-07-11T07:38:09.000Z</time>
      </trkpt>
      <trkpt lat="47.25564" lon="-2.31787">
        <ele>19</ele>
        <time>2019-07-11T07:38:14.000Z</time>
      </trkpt>
      <trkpt lat="47.2558" lon="-2.31759">
        <ele>19</ele>
        <time>2019-07-11T07:38:20.000Z</time>
      </trkpt>
      <trkpt lat="47.25583" lon="-2.31753">
        <ele>19</ele>
        <time>2019-07-11T07:38:21.000Z</time>
      </trkpt>
      <trkpt lat="47.2559" lon="-2.31734">
        <ele>19</ele>
        <time>2019-07-11T07:38:24.000Z</time>
      </trkpt>
      <trkpt lat="47.25599" lon="-2.31714">
        <ele>19</ele>
        <time>2019-07-11T07:38:28.000Z</time>
      </trkpt>
      <trkpt lat="47.25616" lon="-2.31708">
        <ele>19</ele>
        <time>2019-07-11T07:38:32.000Z</time>
      </trkpt>
      <trkpt lat="47.25621" lon="-2.31708">
        <ele>19</ele>
        <time>2019-07-11T07:38:33.000Z</time>
      </trkpt>
      <trkpt lat="47.25631" lon="-2.31706">
        <ele>19</ele>
        <time>2019-07-11T07:38:35.000Z</time>
      </trkpt>
      <trkpt lat="47.25641" lon="-2.31699">
        <ele>19</ele>
        <time>2019-07-11T07:38:37.000Z</time>
      </trkpt>
      <trkpt lat="47.25652" lon="-2.3168">
        <ele>18.60000038147</ele>
        <time>2019-07-11T07:38:40.000Z</time>
      </trkpt>
      <trkpt lat="47.25655" lon="-2.31673">
        <ele>18</ele>
        <time>2019-07-11T07:38:41.000Z</time>
      </trkpt>
      <trkpt lat="47.25658" lon="-2.31667">
        <ele>17.60000038147</ele>
        <time>2019-07-11T07:38:42.000Z</time>
      </trkpt>
      <trkpt lat="47.25661" lon="-2.31664">
        <ele>17.200000762939</ele>
        <time>2019-07-11T07:38:43.000Z</time>
      </trkpt>
      <trkpt lat="47.25665" lon="-2.31663">
        <ele>16.799999237061</ele>
        <time>2019-07-11T07:38:44.000Z</time>
      </trkpt>
      <trkpt lat="47.25679" lon="-2.31672">
        <ele>16.799999237061</ele>
        <time>2019-07-11T07:38:48.000Z</time>
      </trkpt>
      <trkpt lat="47.25693" lon="-2.31679">
        <ele>16.799999237061</ele>
        <time>2019-07-11T07:38:51.000Z</time>
      </trkpt>
      <trkpt lat="47.25698" lon="-2.31681">
        <ele>16.39999961853</ele>
        <time>2019-07-11T07:38:52.000Z</time>
      </trkpt>
      <trkpt lat="47.25703" lon="-2.31683">
        <ele>15.800000190735</ele>
        <time>2019-07-11T07:38:53.000Z</time>
      </trkpt>
      <trkpt lat="47.25707" lon="-2.31686">
        <ele>15.39999961853</ele>
        <time>2019-07-11T07:38:54.000Z</time>
      </trkpt>
      <trkpt lat="47.25712" lon="-2.31689">
        <ele>15</ele>
        <time>2019-07-11T07:38:55.000Z</time>
      </trkpt>
      <trkpt lat="47.25716" lon="-2.31693">
        <ele>14.60000038147</ele>
        <time>2019-07-11T07:38:56.000Z</time>
      </trkpt>
      <trkpt lat="47.25724" lon="-2.31699">
        <ele>14.60000038147</ele>
        <time>2019-07-11T07:38:58.000Z</time>
      </trkpt>
      <trkpt lat="47.25734" lon="-2.31698">
        <ele>14.60000038147</ele>
        <time>2019-07-11T07:39:01.000Z</time>
      </trkpt>
      <trkpt lat="47.2574" lon="-2.31693">
        <ele>14.60000038147</ele>
        <time>2019-07-11T07:39:03.000Z</time>
      </trkpt>
      <trkpt lat="47.25748" lon="-2.31687">
        <ele>14.60000038147</ele>
        <time>2019-07-11T07:39:05.000Z</time>
      </trkpt>
      <trkpt lat="47.25767" lon="-2.31669">
        <ele>14.60000038147</ele>
        <time>2019-07-11T07:39:10.000Z</time>
      </trkpt>
      <trkpt lat="47.258" lon="-2.31644">
        <ele>14.60000038147</ele>
        <time>2019-07-11T07:39:18.000Z</time>
      </trkpt>
      <trkpt lat="47.25829" lon="-2.31622">
        <ele>14.60000038147</ele>
        <time>2019-07-11T07:39:25.000Z</time>
      </trkpt>
      <trkpt lat="47.25832" lon="-2.31618">
        <ele>15</ele>
        <time>2019-07-11T07:39:26.000Z</time>
      </trkpt>
      <trkpt lat="47.25836" lon="-2.31614">
        <ele>15.39999961853</ele>
        <time>2019-07-11T07:39:27.000Z</time>
      </trkpt>
      <trkpt lat="47.25841" lon="-2.31609">
        <ele>15.800000190735</ele>
        <time>2019-07-11T07:39:28.000Z</time>
      </trkpt>
      <trkpt lat="47.25845" lon="-2.31605">
        <ele>16.200000762939</ele>
        <time>2019-07-11T07:39:29.000Z</time>
      </trkpt>
      <trkpt lat="47.25849" lon="-2.31601">
        <ele>16.60000038147</ele>
        <time>2019-07-11T07:39:30.000Z</time>
      </trkpt>
      <trkpt lat="47.25854" lon="-2.31597">
        <ele>16.60000038147</ele>
        <time>2019-07-11T07:39:31.000Z</time>
      </trkpt>
      <trkpt lat="47.25875" lon="-2.31579">
        <ele>16.60000038147</ele>
        <time>2019-07-11T07:39:35.000Z</time>
      </trkpt>
      <trkpt lat="47.2588" lon="-2.31573">
        <ele>16.60000038147</ele>
        <time>2019-07-11T07:39:36.000Z</time>
      </trkpt>
      <trkpt lat="47.25895" lon="-2.31542">
        <ele>16.200000762939</ele>
        <time>2019-07-11T07:39:40.000Z</time>
      </trkpt>
      <trkpt lat="47.25897" lon="-2.31536">
        <ele>15.800000190735</ele>
        <time>2019-07-11T07:39:41.000Z</time>
      </trkpt>
      <trkpt lat="47.25899" lon="-2.31531">
        <ele>15.39999961853</ele>
        <time>2019-07-11T07:39:42.000Z</time>
      </trkpt>
      <trkpt lat="47.25901" lon="-2.31527">
        <ele>15</ele>
        <time>2019-07-11T07:39:43.000Z</time>
      </trkpt>
      <trkpt lat="47.25903" lon="-2.31523">
        <ele>14.60000038147</ele>
        <time>2019-07-11T07:39:44.000Z</time>
      </trkpt>
      <trkpt lat="47.2591" lon="-2.31518">
        <ele>14.60000038147</ele>
        <time>2019-07-11T07:39:47.000Z</time>
      </trkpt>
      <trkpt lat="47.25912" lon="-2.31513">
        <ele>14.60000038147</ele>
        <time>2019-07-11T07:39:49.000Z</time>
      </trkpt>
      <trkpt lat="47.25913" lon="-2.31508">
        <ele>14.60000038147</ele>
        <time>2019-07-11T07:39:51.000Z</time>
      </trkpt>
      <trkpt lat="47.25913" lon="-2.31507">
        <ele>14.60000038147</ele>
        <time>2019-07-11T07:39:53.000Z</time>
      </trkpt>
      <trkpt lat="47.25914" lon="-2.31504">
        <ele>14.60000038147</ele>
        <time>2019-07-11T07:39:55.000Z</time>
      </trkpt>
      <trkpt lat="47.2592" lon="-2.31487">
        <ele>14.60000038147</ele>
        <time>2019-07-11T07:39:59.000Z</time>
      </trkpt>
      <trkpt lat="47.25929" lon="-2.31464">
        <ele>14.60000038147</ele>
        <time>2019-07-11T07:40:03.000Z</time>
      </trkpt>
      <trkpt lat="47.25932" lon="-2.31461">
        <ele>14.199999809265</ele>
        <time>2019-07-11T07:40:04.000Z</time>
      </trkpt>
      <trkpt lat="47.25935" lon="-2.31459">
        <ele>13.800000190735</ele>
        <time>2019-07-11T07:40:05.000Z</time>
      </trkpt>
      <trkpt lat="47.25938" lon="-2.3146">
        <ele>13.39999961853</ele>
        <time>2019-07-11T07:40:06.000Z</time>
      </trkpt>
      <trkpt lat="47.25942" lon="-2.31462">
        <ele>13</ele>
        <time>2019-07-11T07:40:07.000Z</time>
      </trkpt>
      <trkpt lat="47.25946" lon="-2.31466">
        <ele>12.60000038147</ele>
        <time>2019-07-11T07:40:08.000Z</time>
      </trkpt>
      <trkpt lat="47.25951" lon="-2.31469">
        <ele>12.60000038147</ele>
        <time>2019-07-11T07:40:09.000Z</time>
      </trkpt>
      <trkpt lat="47.25955" lon="-2.31473">
        <ele>12.60000038147</ele>
        <time>2019-07-11T07:40:10.000Z</time>
      </trkpt>
      <trkpt lat="47.25959" lon="-2.31477">
        <ele>12.60000038147</ele>
        <time>2019-07-11T07:40:11.000Z</time>
      </trkpt>
      <trkpt lat="47.25962" lon="-2.31481">
        <ele>12.60000038147</ele>
        <time>2019-07-11T07:40:12.000Z</time>
      </trkpt>
      <trkpt lat="47.25975" lon="-2.31505">
        <ele>12.60000038147</ele>
        <time>2019-07-11T07:40:16.000Z</time>
      </trkpt>
      <trkpt lat="47.25978" lon="-2.31511">
        <ele>12.60000038147</ele>
        <time>2019-07-11T07:40:17.000Z</time>
      </trkpt>
      <trkpt lat="47.25999" lon="-2.31551">
        <ele>12.60000038147</ele>
        <time>2019-07-11T07:40:24.000Z</time>
      </trkpt>
      <trkpt lat="47.26013" lon="-2.31564">
        <ele>12.60000038147</ele>
        <time>2019-07-11T07:40:28.000Z</time>
      </trkpt>
      <trkpt lat="47.26025" lon="-2.31552">
        <ele>12.60000038147</ele>
        <time>2019-07-11T07:40:31.000Z</time>
      </trkpt>
      <trkpt lat="47.26032" lon="-2.31532">
        <ele>12.60000038147</ele>
        <time>2019-07-11T07:40:35.000Z</time>
      </trkpt>
      <trkpt lat="47.26037" lon="-2.31531">
        <ele>12.60000038147</ele>
        <time>2019-07-11T07:40:37.000Z</time>
      </trkpt>
      <trkpt lat="47.26042" lon="-2.3153">
        <ele>12.60000038147</ele>
        <time>2019-07-11T07:40:38.000Z</time>
      </trkpt>
      <trkpt lat="47.26049" lon="-2.31532">
        <ele>12.60000038147</ele>
        <time>2019-07-11T07:40:40.000Z</time>
      </trkpt>
      <trkpt lat="47.26053" lon="-2.31535">
        <ele>12.60000038147</ele>
        <time>2019-07-11T07:40:41.000Z</time>
      </trkpt>
      <trkpt lat="47.26064" lon="-2.31558">
        <ele>12.60000038147</ele>
        <time>2019-07-11T07:40:45.000Z</time>
      </trkpt>
      <trkpt lat="47.26066" lon="-2.31564">
        <ele>12.60000038147</ele>
        <time>2019-07-11T07:40:46.000Z</time>
      </trkpt>
      <trkpt lat="47.26069" lon="-2.31569">
        <ele>12.60000038147</ele>
        <time>2019-07-11T07:40:47.000Z</time>
      </trkpt>
      <trkpt lat="47.26076" lon="-2.31574">
        <ele>12.60000038147</ele>
        <time>2019-07-11T07:40:49.000Z</time>
      </trkpt>
      <trkpt lat="47.26089" lon="-2.31587">
        <ele>12.60000038147</ele>
        <time>2019-07-11T07:40:53.000Z</time>
      </trkpt>
      <trkpt lat="47.26093" lon="-2.31592">
        <ele>12.60000038147</ele>
        <time>2019-07-11T07:40:54.000Z</time>
      </trkpt>
      <trkpt lat="47.26096" lon="-2.31596">
        <ele>12.60000038147</ele>
        <time>2019-07-11T07:40:55.000Z</time>
      </trkpt>
      <trkpt lat="47.26102" lon="-2.31607">
        <ele>12.60000038147</ele>
        <time>2019-07-11T07:40:57.000Z</time>
      </trkpt>
      <trkpt lat="47.26108" lon="-2.31622">
        <ele>12.60000038147</ele>
        <time>2019-07-11T07:40:59.000Z</time>
      </trkpt>
      <trkpt lat="47.26119" lon="-2.31659">
        <ele>12.60000038147</ele>
        <time>2019-07-11T07:41:04.000Z</time>
      </trkpt>
      <trkpt lat="47.2612" lon="-2.31668">
        <ele>12.60000038147</ele>
        <time>2019-07-11T07:41:05.000Z</time>
      </trkpt>
      <trkpt lat="47.26124" lon="-2.31698">
        <ele>12.60000038147</ele>
        <time>2019-07-11T07:41:09.000Z</time>
      </trkpt>
      <trkpt lat="47.26124" lon="-2.31704">
        <ele>12.60000038147</ele>
        <time>2019-07-11T07:41:10.000Z</time>
      </trkpt>
      <trkpt lat="47.26126" lon="-2.31716">
        <ele>12.60000038147</ele>
        <time>2019-07-11T07:41:12.000Z</time>
      </trkpt>
      <trkpt lat="47.26128" lon="-2.31722">
        <ele>12.199999809265</ele>
        <time>2019-07-11T07:41:13.000Z</time>
      </trkpt>
      <trkpt lat="47.26128" lon="-2.31729">
        <ele>11.60000038147</ele>
        <time>2019-07-11T07:41:14.000Z</time>
      </trkpt>
      <trkpt lat="47.26129" lon="-2.31736">
        <ele>11.199999809265</ele>
        <time>2019-07-11T07:41:15.000Z</time>
      </trkpt>
      <trkpt lat="47.26129" lon="-2.31743">
        <ele>10.800000190735</ele>
        <time>2019-07-11T07:41:16.000Z</time>
      </trkpt>
      <trkpt lat="47.2613" lon="-2.3175">
        <ele>10.39999961853</ele>
        <time>2019-07-11T07:41:17.000Z</time>
      </trkpt>
      <trkpt lat="47.2613" lon="-2.31757">
        <ele>10.39999961853</ele>
        <time>2019-07-11T07:41:18.000Z</time>
      </trkpt>
      <trkpt lat="47.26132" lon="-2.31778">
        <ele>10.39999961853</ele>
        <time>2019-07-11T07:41:21.000Z</time>
      </trkpt>
      <trkpt lat="47.26136" lon="-2.3182">
        <ele>10.39999961853</ele>
        <time>2019-07-11T07:41:27.000Z</time>
      </trkpt>
      <trkpt lat="47.26136" lon="-2.31833">
        <ele>10.39999961853</ele>
        <time>2019-07-11T07:41:29.000Z</time>
      </trkpt>
      <trkpt lat="47.26138" lon="-2.31852">
        <ele>10.39999961853</ele>
        <time>2019-07-11T07:41:32.000Z</time>
      </trkpt>
      <trkpt lat="47.26139" lon="-2.31858">
        <ele>10.39999961853</ele>
        <time>2019-07-11T07:41:33.000Z</time>
      </trkpt>
      <trkpt lat="47.26143" lon="-2.31891">
        <ele>10.39999961853</ele>
        <time>2019-07-11T07:41:38.000Z</time>
      </trkpt>
      <trkpt lat="47.26147" lon="-2.31921">
        <ele>10.39999961853</ele>
        <time>2019-07-11T07:41:42.000Z</time>
      </trkpt>
      <trkpt lat="47.26148" lon="-2.31934">
        <ele>10.39999961853</ele>
        <time>2019-07-11T07:41:44.000Z</time>
      </trkpt>
      <trkpt lat="47.26154" lon="-2.31969">
        <ele>10.39999961853</ele>
        <time>2019-07-11T07:41:49.000Z</time>
      </trkpt>
      <trkpt lat="47.26158" lon="-2.31988">
        <ele>10.39999961853</ele>
        <time>2019-07-11T07:41:52.000Z</time>
      </trkpt>
      <trkpt lat="47.26161" lon="-2.32002">
        <ele>10.39999961853</ele>
        <time>2019-07-11T07:41:54.000Z</time>
      </trkpt>
      <trkpt lat="47.26169" lon="-2.32016">
        <ele>10.39999961853</ele>
        <time>2019-07-11T07:41:57.000Z</time>
      </trkpt>
      <trkpt lat="47.26174" lon="-2.32018">
        <ele>10.39999961853</ele>
        <time>2019-07-11T07:42:00.000Z</time>
      </trkpt>
      <trkpt lat="47.26176" lon="-2.32018">
        <ele>10.39999961853</ele>
        <time>2019-07-11T07:42:01.000Z</time>
      </trkpt>
      <trkpt lat="47.26187" lon="-2.3202">
        <ele>10.39999961853</ele>
        <time>2019-07-11T07:42:06.000Z</time>
      </trkpt>
      <trkpt lat="47.26195" lon="-2.32018">
        <ele>10.39999961853</ele>
        <time>2019-07-11T07:42:10.000Z</time>
      </trkpt>
      <trkpt lat="47.26204" lon="-2.32008">
        <ele>10.39999961853</ele>
        <time>2019-07-11T07:42:15.000Z</time>
      </trkpt>
      <trkpt lat="47.26212" lon="-2.31994">
        <ele>10.39999961853</ele>
        <time>2019-07-11T07:42:20.000Z</time>
      </trkpt>
      <trkpt lat="47.26218" lon="-2.31986">
        <ele>10.39999961853</ele>
        <time>2019-07-11T07:42:23.000Z</time>
      </trkpt>
      <trkpt lat="47.26223" lon="-2.31984">
        <ele>10.39999961853</ele>
        <time>2019-07-11T07:42:25.000Z</time>
      </trkpt>
      <trkpt lat="47.26233" lon="-2.31969">
        <ele>10.39999961853</ele>
        <time>2019-07-11T07:42:30.000Z</time>
      </trkpt>
      <trkpt lat="47.26245" lon="-2.31946">
        <ele>10.39999961853</ele>
        <time>2019-07-11T07:42:35.000Z</time>
      </trkpt>
      <trkpt lat="47.26248" lon="-2.31942">
        <ele>10.39999961853</ele>
        <time>2019-07-11T07:42:36.000Z</time>
      </trkpt>
      <trkpt lat="47.26261" lon="-2.31924">
        <ele>10.39999961853</ele>
        <time>2019-07-11T07:42:41.000Z</time>
      </trkpt>
      <trkpt lat="47.2627" lon="-2.31914">
        <ele>10.800000190735</ele>
        <time>2019-07-11T07:42:44.000Z</time>
      </trkpt>
      <trkpt lat="47.26274" lon="-2.31911">
        <ele>11.199999809265</ele>
        <time>2019-07-11T07:42:45.000Z</time>
      </trkpt>
      <trkpt lat="47.26278" lon="-2.31909">
        <ele>11.60000038147</ele>
        <time>2019-07-11T07:42:46.000Z</time>
      </trkpt>
      <trkpt lat="47.26281" lon="-2.31908">
        <ele>12</ele>
        <time>2019-07-11T07:42:47.000Z</time>
      </trkpt>
      <trkpt lat="47.26283" lon="-2.31908">
        <ele>12.60000038147</ele>
        <time>2019-07-11T07:42:48.000Z</time>
      </trkpt>
      <trkpt lat="47.26284" lon="-2.31911">
        <ele>12.60000038147</ele>
        <time>2019-07-11T07:42:49.000Z</time>
      </trkpt>
      <trkpt lat="47.2629" lon="-2.31928">
        <ele>12.60000038147</ele>
        <time>2019-07-11T07:42:54.000Z</time>
      </trkpt>
      <trkpt lat="47.26292" lon="-2.31931">
        <ele>12.60000038147</ele>
        <time>2019-07-11T07:42:55.000Z</time>
      </trkpt>
      <trkpt lat="47.26296" lon="-2.31934">
        <ele>12.60000038147</ele>
        <time>2019-07-11T07:42:57.000Z</time>
      </trkpt>
      <trkpt lat="47.26308" lon="-2.31934">
        <ele>12.60000038147</ele>
        <time>2019-07-11T07:43:01.000Z</time>
      </trkpt>
      <trkpt lat="47.26325" lon="-2.31936">
        <ele>12.60000038147</ele>
        <time>2019-07-11T07:43:06.000Z</time>
      </trkpt>
      <trkpt lat="47.26334" lon="-2.31952">
        <ele>12.60000038147</ele>
        <time>2019-07-11T07:43:10.000Z</time>
      </trkpt>
      <trkpt lat="47.26339" lon="-2.31961">
        <ele>13</ele>
        <time>2019-07-11T07:43:12.000Z</time>
      </trkpt>
      <trkpt lat="47.26342" lon="-2.31966">
        <ele>13.39999961853</ele>
        <time>2019-07-11T07:43:13.000Z</time>
      </trkpt>
      <trkpt lat="47.26347" lon="-2.31971">
        <ele>13.800000190735</ele>
        <time>2019-07-11T07:43:14.000Z</time>
      </trkpt>
      <trkpt lat="47.26351" lon="-2.31974">
        <ele>14.199999809265</ele>
        <time>2019-07-11T07:43:15.000Z</time>
      </trkpt>
      <trkpt lat="47.26355" lon="-2.31976">
        <ele>14.60000038147</ele>
        <time>2019-07-11T07:43:16.000Z</time>
      </trkpt>
      <trkpt lat="47.26369" lon="-2.31979">
        <ele>14.60000038147</ele>
        <time>2019-07-11T07:43:19.000Z</time>
      </trkpt>
      <trkpt lat="47.26382" lon="-2.31981">
        <ele>15</ele>
        <time>2019-07-11T07:43:22.000Z</time>
      </trkpt>
      <trkpt lat="47.26386" lon="-2.31981">
        <ele>15.60000038147</ele>
        <time>2019-07-11T07:43:23.000Z</time>
      </trkpt>
      <trkpt lat="47.26389" lon="-2.31982">
        <ele>16</ele>
        <time>2019-07-11T07:43:24.000Z</time>
      </trkpt>
      <trkpt lat="47.26392" lon="-2.31983">
        <ele>16.39999961853</ele>
        <time>2019-07-11T07:43:25.000Z</time>
      </trkpt>
      <trkpt lat="47.26395" lon="-2.31984">
        <ele>16.799999237061</ele>
        <time>2019-07-11T07:43:26.000Z</time>
      </trkpt>
      <trkpt lat="47.26405" lon="-2.31986">
        <ele>16.799999237061</ele>
        <time>2019-07-11T07:43:29.000Z</time>
      </trkpt>
      <trkpt lat="47.26413" lon="-2.31987">
        <ele>17.60000038147</ele>
        <time>2019-07-11T07:43:31.000Z</time>
      </trkpt>
      <trkpt lat="47.26416" lon="-2.31988">
        <ele>18</ele>
        <time>2019-07-11T07:43:32.000Z</time>
      </trkpt>
      <trkpt lat="47.2642" lon="-2.31989">
        <ele>18.39999961853</ele>
        <time>2019-07-11T07:43:33.000Z</time>
      </trkpt>
      <trkpt lat="47.26424" lon="-2.3199">
        <ele>18.799999237061</ele>
        <time>2019-07-11T07:43:34.000Z</time>
      </trkpt>
      <trkpt lat="47.26446" lon="-2.31991">
        <ele>19.200000762939</ele>
        <time>2019-07-11T07:43:40.000Z</time>
      </trkpt>
      <trkpt lat="47.26449" lon="-2.31991">
        <ele>19.799999237061</ele>
        <time>2019-07-11T07:43:41.000Z</time>
      </trkpt>
      <trkpt lat="47.26452" lon="-2.31992">
        <ele>20.200000762939</ele>
        <time>2019-07-11T07:43:42.000Z</time>
      </trkpt>
      <trkpt lat="47.26455" lon="-2.31992">
        <ele>20.60000038147</ele>
        <time>2019-07-11T07:43:43.000Z</time>
      </trkpt>
      <trkpt lat="47.26458" lon="-2.31991">
        <ele>21</ele>
        <time>2019-07-11T07:43:44.000Z</time>
      </trkpt>
      <trkpt lat="47.26464" lon="-2.31991">
        <ele>21</ele>
        <time>2019-07-11T07:43:46.000Z</time>
      </trkpt>
      <trkpt lat="47.26478" lon="-2.31991">
        <ele>21.39999961853</ele>
        <time>2019-07-11T07:43:50.000Z</time>
      </trkpt>
      <trkpt lat="47.26482" lon="-2.31992">
        <ele>21.799999237061</ele>
        <time>2019-07-11T07:43:51.000Z</time>
      </trkpt>
      <trkpt lat="47.26485" lon="-2.31992">
        <ele>22.200000762939</ele>
        <time>2019-07-11T07:43:52.000Z</time>
      </trkpt>
      <trkpt lat="47.26489" lon="-2.31991">
        <ele>22.60000038147</ele>
        <time>2019-07-11T07:43:53.000Z</time>
      </trkpt>
      <trkpt lat="47.26492" lon="-2.31991">
        <ele>23</ele>
        <time>2019-07-11T07:43:54.000Z</time>
      </trkpt>
      <trkpt lat="47.26501" lon="-2.31992">
        <ele>23</ele>
        <time>2019-07-11T07:43:57.000Z</time>
      </trkpt>
      <trkpt lat="47.26508" lon="-2.3199">
        <ele>23.60000038147</ele>
        <time>2019-07-11T07:44:00.000Z</time>
      </trkpt>
      <trkpt lat="47.26511" lon="-2.31991">
        <ele>24</ele>
        <time>2019-07-11T07:44:01.000Z</time>
      </trkpt>
      <trkpt lat="47.26513" lon="-2.31991">
        <ele>24.39999961853</ele>
        <time>2019-07-11T07:44:02.000Z</time>
      </trkpt>
      <trkpt lat="47.26515" lon="-2.31992">
        <ele>25</ele>
        <time>2019-07-11T07:44:03.000Z</time>
      </trkpt>
      <trkpt lat="47.26518" lon="-2.31993">
        <ele>25.39999961853</ele>
        <time>2019-07-11T07:44:04.000Z</time>
      </trkpt>
      <trkpt lat="47.26527" lon="-2.31999">
        <ele>25.799999237061</ele>
        <time>2019-07-11T07:44:08.000Z</time>
      </trkpt>
      <trkpt lat="47.2653" lon="-2.32001">
        <ele>26.200000762939</ele>
        <time>2019-07-11T07:44:09.000Z</time>
      </trkpt>
      <trkpt lat="47.26531" lon="-2.32003">
        <ele>26.60000038147</ele>
        <time>2019-07-11T07:44:10.000Z</time>
      </trkpt>
      <trkpt lat="47.26533" lon="-2.32006">
        <ele>27</ele>
        <time>2019-07-11T07:44:11.000Z</time>
      </trkpt>
      <trkpt lat="47.26535" lon="-2.32009">
        <ele>27.39999961853</ele>
        <time>2019-07-11T07:44:12.000Z</time>
      </trkpt>
      <trkpt lat="47.26537" lon="-2.3201">
        <ele>27.39999961853</ele>
        <time>2019-07-11T07:44:13.000Z</time>
      </trkpt>
      <trkpt lat="47.26542" lon="-2.32019">
        <ele>27.39999961853</ele>
        <time>2019-07-11T07:44:16.000Z</time>
      </trkpt>
      <trkpt lat="47.26543" lon="-2.32027">
        <ele>27.39999961853</ele>
        <time>2019-07-11T07:44:18.000Z</time>
      </trkpt>
      <trkpt lat="47.26544" lon="-2.32028">
        <ele>27.39999961853</ele>
        <time>2019-07-11T07:44:19.000Z</time>
      </trkpt>
      <trkpt lat="47.26546" lon="-2.32031">
        <ele>27.799999237061</ele>
        <time>2019-07-11T07:44:21.000Z</time>
      </trkpt>
      <trkpt lat="47.26549" lon="-2.32031">
        <ele>28.39999961853</ele>
        <time>2019-07-11T07:44:22.000Z</time>
      </trkpt>
      <trkpt lat="47.26553" lon="-2.32031">
        <ele>28.799999237061</ele>
        <time>2019-07-11T07:44:23.000Z</time>
      </trkpt>
      <trkpt lat="47.26557" lon="-2.32031">
        <ele>29.200000762939</ele>
        <time>2019-07-11T07:44:24.000Z</time>
      </trkpt>
      <trkpt lat="47.2656" lon="-2.3203">
        <ele>29.60000038147</ele>
        <time>2019-07-11T07:44:25.000Z</time>
      </trkpt>
      <trkpt lat="47.26564" lon="-2.32029">
        <ele>29.60000038147</ele>
        <time>2019-07-11T07:44:26.000Z</time>
      </trkpt>
      <trkpt lat="47.26581" lon="-2.32024">
        <ele>29.60000038147</ele>
        <time>2019-07-11T07:44:31.000Z</time>
      </trkpt>
      <trkpt lat="47.26584" lon="-2.32022">
        <ele>30</ele>
        <time>2019-07-11T07:44:32.000Z</time>
      </trkpt>
      <trkpt lat="47.26587" lon="-2.32021">
        <ele>30.39999961853</ele>
        <time>2019-07-11T07:44:33.000Z</time>
      </trkpt>
      <trkpt lat="47.2659" lon="-2.3202">
        <ele>30.799999237061</ele>
        <time>2019-07-11T07:44:34.000Z</time>
      </trkpt>
      <trkpt lat="47.26594" lon="-2.32019">
        <ele>31.200000762939</ele>
        <time>2019-07-11T07:44:35.000Z</time>
      </trkpt>
      <trkpt lat="47.26597" lon="-2.32019">
        <ele>31.60000038147</ele>
        <time>2019-07-11T07:44:36.000Z</time>
      </trkpt>
      <trkpt lat="47.26609" lon="-2.32014">
        <ele>31.60000038147</ele>
        <time>2019-07-11T07:44:40.000Z</time>
      </trkpt>
      <trkpt lat="47.26629" lon="-2.3201">
        <ele>31.60000038147</ele>
        <time>2019-07-11T07:44:47.000Z</time>
      </trkpt>
      <trkpt lat="47.26639" lon="-2.32007">
        <ele>31.60000038147</ele>
        <time>2019-07-11T07:44:53.000Z</time>
      </trkpt>
      <trkpt lat="47.26641" lon="-2.32007">
        <ele>31.60000038147</ele>
        <time>2019-07-11T07:44:56.000Z</time>
      </trkpt>
      <trkpt lat="47.26643" lon="-2.32008">
        <ele>33.599998474121</ele>
        <time>2019-07-11T07:45:47.000Z</time>
      </trkpt>
      <trkpt lat="47.26644" lon="-2.32009">
        <ele>33.599998474121</ele>
        <time>2019-07-11T07:45:48.000Z</time>
      </trkpt>
      <trkpt lat="47.26647" lon="-2.32021">
        <ele>33.599998474121</ele>
        <time>2019-07-11T07:45:52.000Z</time>
      </trkpt>
      <trkpt lat="47.26652" lon="-2.32037">
        <ele>33.599998474121</ele>
        <time>2019-07-11T07:45:56.000Z</time>
      </trkpt>
      <trkpt lat="47.26655" lon="-2.32046">
        <ele>33.599998474121</ele>
        <time>2019-07-11T07:45:58.000Z</time>
      </trkpt>
      <trkpt lat="47.26665" lon="-2.32085">
        <ele>33.599998474121</ele>
        <time>2019-07-11T07:46:05.000Z</time>
      </trkpt>
      <trkpt lat="47.26676" lon="-2.32136">
        <ele>33.599998474121</ele>
        <time>2019-07-11T07:46:13.000Z</time>
      </trkpt>
      <trkpt lat="47.2669" lon="-2.3219">
        <ele>33.599998474121</ele>
        <time>2019-07-11T07:46:21.000Z</time>
      </trkpt>
      <trkpt lat="47.26693" lon="-2.32208">
        <ele>33.599998474121</ele>
        <time>2019-07-11T07:46:24.000Z</time>
      </trkpt>
      <trkpt lat="47.26693" lon="-2.32229">
        <ele>33.599998474121</ele>
        <time>2019-07-11T07:46:27.000Z</time>
      </trkpt>
      <trkpt lat="47.26687" lon="-2.32249">
        <ele>33.599998474121</ele>
        <time>2019-07-11T07:46:30.000Z</time>
      </trkpt>
      <trkpt lat="47.26685" lon="-2.32256">
        <ele>33.599998474121</ele>
        <time>2019-07-11T07:46:31.000Z</time>
      </trkpt>
      <trkpt lat="47.26689" lon="-2.32279">
        <ele>33.599998474121</ele>
        <time>2019-07-11T07:46:34.000Z</time>
      </trkpt>
      <trkpt lat="47.26698" lon="-2.32317">
        <ele>33.599998474121</ele>
        <time>2019-07-11T07:46:39.000Z</time>
      </trkpt>
      <trkpt lat="47.26706" lon="-2.32341">
        <ele>33.599998474121</ele>
        <time>2019-07-11T07:46:42.000Z</time>
      </trkpt>
      <trkpt lat="47.26717" lon="-2.32373">
        <ele>33.599998474121</ele>
        <time>2019-07-11T07:46:46.000Z</time>
      </trkpt>
      <trkpt lat="47.26725" lon="-2.32382">
        <ele>33.599998474121</ele>
        <time>2019-07-11T07:46:48.000Z</time>
      </trkpt>
      <trkpt lat="47.26743" lon="-2.3238">
        <ele>33.599998474121</ele>
        <time>2019-07-11T07:46:51.000Z</time>
      </trkpt>
      <trkpt lat="47.26764" lon="-2.32374">
        <ele>33.599998474121</ele>
        <time>2019-07-11T07:46:55.000Z</time>
      </trkpt>
      <trkpt lat="47.26769" lon="-2.32374">
        <ele>33.599998474121</ele>
        <time>2019-07-11T07:46:56.000Z</time>
      </trkpt>
      <trkpt lat="47.26773" lon="-2.32375">
        <ele>33.599998474121</ele>
        <time>2019-07-11T07:46:57.000Z</time>
      </trkpt>
      <trkpt lat="47.26779" lon="-2.32386">
        <ele>33.599998474121</ele>
        <time>2019-07-11T07:46:59.000Z</time>
      </trkpt>
      <trkpt lat="47.26783" lon="-2.32408">
        <ele>33.599998474121</ele>
        <time>2019-07-11T07:47:02.000Z</time>
      </trkpt>
      <trkpt lat="47.26783" lon="-2.32417">
        <ele>33.599998474121</ele>
        <time>2019-07-11T07:47:03.000Z</time>
      </trkpt>
      <trkpt lat="47.2679" lon="-2.3248">
        <ele>33.599998474121</ele>
        <time>2019-07-11T07:47:10.000Z</time>
      </trkpt>
      <trkpt lat="47.26793" lon="-2.32519">
        <ele>33.599998474121</ele>
        <time>2019-07-11T07:47:14.000Z</time>
      </trkpt>
      <trkpt lat="47.26795" lon="-2.32539">
        <ele>33.599998474121</ele>
        <time>2019-07-11T07:47:16.000Z</time>
      </trkpt>
      <trkpt lat="47.268" lon="-2.326">
        <ele>33.599998474121</ele>
        <time>2019-07-11T07:47:22.000Z</time>
      </trkpt>
      <trkpt lat="47.26804" lon="-2.32626">
        <ele>33.599998474121</ele>
        <time>2019-07-11T07:47:25.000Z</time>
      </trkpt>
      <trkpt lat="47.26807" lon="-2.32643">
        <ele>33.599998474121</ele>
        <time>2019-07-11T07:47:27.000Z</time>
      </trkpt>
      <trkpt lat="47.26809" lon="-2.32657">
        <ele>33.599998474121</ele>
        <time>2019-07-11T07:47:29.000Z</time>
      </trkpt>
      <trkpt lat="47.26808" lon="-2.32667">
        <ele>33.599998474121</ele>
        <time>2019-07-11T07:47:31.000Z</time>
      </trkpt>
      <trkpt lat="47.268" lon="-2.32684">
        <ele>33.599998474121</ele>
        <time>2019-07-11T07:47:35.000Z</time>
      </trkpt>
      <trkpt lat="47.26804" lon="-2.32703">
        <ele>33.599998474121</ele>
        <time>2019-07-11T07:47:38.000Z</time>
      </trkpt>
      <trkpt lat="47.26807" lon="-2.3271">
        <ele>33.599998474121</ele>
        <time>2019-07-11T07:47:39.000Z</time>
      </trkpt>
      <trkpt lat="47.26825" lon="-2.32753">
        <ele>33.200000762939</ele>
        <time>2019-07-11T07:47:45.000Z</time>
      </trkpt>
      <trkpt lat="47.26828" lon="-2.3276">
        <ele>32.799999237061</ele>
        <time>2019-07-11T07:47:46.000Z</time>
      </trkpt>
      <trkpt lat="47.26831" lon="-2.32768">
        <ele>32.400001525879</ele>
        <time>2019-07-11T07:47:47.000Z</time>
      </trkpt>
      <trkpt lat="47.26834" lon="-2.32776">
        <ele>32</ele>
        <time>2019-07-11T07:47:48.000Z</time>
      </trkpt>
      <trkpt lat="47.26836" lon="-2.32784">
        <ele>31.39999961853</ele>
        <time>2019-07-11T07:47:49.000Z</time>
      </trkpt>
      <trkpt lat="47.26839" lon="-2.32792">
        <ele>31</ele>
        <time>2019-07-11T07:47:50.000Z</time>
      </trkpt>
      <trkpt lat="47.26841" lon="-2.32801">
        <ele>30.39999961853</ele>
        <time>2019-07-11T07:47:51.000Z</time>
      </trkpt>
      <trkpt lat="47.26844" lon="-2.3281">
        <ele>29.799999237061</ele>
        <time>2019-07-11T07:47:52.000Z</time>
      </trkpt>
      <trkpt lat="47.26847" lon="-2.32818">
        <ele>29.200000762939</ele>
        <time>2019-07-11T07:47:53.000Z</time>
      </trkpt>
      <trkpt lat="47.26849" lon="-2.32825">
        <ele>28.60000038147</ele>
        <time>2019-07-11T07:47:54.000Z</time>
      </trkpt>
      <trkpt lat="47.26852" lon="-2.32833">
        <ele>28</ele>
        <time>2019-07-11T07:47:55.000Z</time>
      </trkpt>
      <trkpt lat="47.26855" lon="-2.32842">
        <ele>27.39999961853</ele>
        <time>2019-07-11T07:47:56.000Z</time>
      </trkpt>
      <trkpt lat="47.26858" lon="-2.32851">
        <ele>26.799999237061</ele>
        <time>2019-07-11T07:47:57.000Z</time>
      </trkpt>
      <trkpt lat="47.26861" lon="-2.32859">
        <ele>26.200000762939</ele>
        <time>2019-07-11T07:47:58.000Z</time>
      </trkpt>
      <trkpt lat="47.26863" lon="-2.32866">
        <ele>25.39999961853</ele>
        <time>2019-07-11T07:47:59.000Z</time>
      </trkpt>
      <trkpt lat="47.26863" lon="-2.32873">
        <ele>24.799999237061</ele>
        <time>2019-07-11T07:48:00.000Z</time>
      </trkpt>
      <trkpt lat="47.2686" lon="-2.32878">
        <ele>24</ele>
        <time>2019-07-11T07:48:01.000Z</time>
      </trkpt>
      <trkpt lat="47.26856" lon="-2.32881">
        <ele>23.200000762939</ele>
        <time>2019-07-11T07:48:02.000Z</time>
      </trkpt>
      <trkpt lat="47.26851" lon="-2.32883">
        <ele>22.39999961853</ele>
        <time>2019-07-11T07:48:03.000Z</time>
      </trkpt>
      <trkpt lat="47.26846" lon="-2.32884">
        <ele>21.60000038147</ele>
        <time>2019-07-11T07:48:04.000Z</time>
      </trkpt>
      <trkpt lat="47.26841" lon="-2.32886">
        <ele>21.60000038147</ele>
        <time>2019-07-11T07:48:05.000Z</time>
      </trkpt>
      <trkpt lat="47.26836" lon="-2.3289">
        <ele>21.60000038147</ele>
        <time>2019-07-11T07:48:06.000Z</time>
      </trkpt>
      <trkpt lat="47.2682" lon="-2.32902">
        <ele>21.60000038147</ele>
        <time>2019-07-11T07:48:09.000Z</time>
      </trkpt>
      <trkpt lat="47.26801" lon="-2.32919">
        <ele>21.60000038147</ele>
        <time>2019-07-11T07:48:13.000Z</time>
      </trkpt>
      <trkpt lat="47.26797" lon="-2.32922">
        <ele>21.60000038147</ele>
        <time>2019-07-11T07:48:14.000Z</time>
      </trkpt>
      <trkpt lat="47.26776" lon="-2.3294">
        <ele>21.60000038147</ele>
        <time>2019-07-11T07:48:18.000Z</time>
      </trkpt>
      <trkpt lat="47.26772" lon="-2.32946">
        <ele>21.60000038147</ele>
        <time>2019-07-11T07:48:19.000Z</time>
      </trkpt>
      <trkpt lat="47.26747" lon="-2.32972">
        <ele>21.60000038147</ele>
        <time>2019-07-11T07:48:24.000Z</time>
      </trkpt>
      <trkpt lat="47.26743" lon="-2.32978">
        <ele>21.60000038147</ele>
        <time>2019-07-11T07:48:25.000Z</time>
      </trkpt>
      <trkpt lat="47.26733" lon="-2.32999">
        <ele>21.60000038147</ele>
        <time>2019-07-11T07:48:28.000Z</time>
      </trkpt>
      <trkpt lat="47.26731" lon="-2.33006">
        <ele>21.60000038147</ele>
        <time>2019-07-11T07:48:29.000Z</time>
      </trkpt>
      <trkpt lat="47.26731" lon="-2.33019">
        <ele>21.60000038147</ele>
        <time>2019-07-11T07:48:31.000Z</time>
      </trkpt>
      <trkpt lat="47.26729" lon="-2.33032">
        <ele>21.200000762939</ele>
        <time>2019-07-11T07:48:33.000Z</time>
      </trkpt>
      <trkpt lat="47.26728" lon="-2.33039">
        <ele>20.799999237061</ele>
        <time>2019-07-11T07:48:34.000Z</time>
      </trkpt>
      <trkpt lat="47.26727" lon="-2.33045">
        <ele>20.39999961853</ele>
        <time>2019-07-11T07:48:35.000Z</time>
      </trkpt>
      <trkpt lat="47.26728" lon="-2.33052">
        <ele>20</ele>
        <time>2019-07-11T07:48:36.000Z</time>
      </trkpt>
      <trkpt lat="47.2673" lon="-2.33058">
        <ele>19.60000038147</ele>
        <time>2019-07-11T07:48:37.000Z</time>
      </trkpt>
      <trkpt lat="47.26737" lon="-2.33064">
        <ele>19.60000038147</ele>
        <time>2019-07-11T07:48:39.000Z</time>
      </trkpt>
      <trkpt lat="47.26739" lon="-2.33066">
        <ele>19.60000038147</ele>
        <time>2019-07-11T07:48:40.000Z</time>
      </trkpt>
      <trkpt lat="47.26745" lon="-2.33065">
        <ele>19.60000038147</ele>
        <time>2019-07-11T07:48:42.000Z</time>
      </trkpt>
      <trkpt lat="47.26748" lon="-2.33062">
        <ele>19.60000038147</ele>
        <time>2019-07-11T07:48:43.000Z</time>
      </trkpt>
      <trkpt lat="47.26765" lon="-2.33044">
        <ele>19.60000038147</ele>
        <time>2019-07-11T07:48:48.000Z</time>
      </trkpt>
      <trkpt lat="47.26769" lon="-2.3304">
        <ele>19.60000038147</ele>
        <time>2019-07-11T07:48:49.000Z</time>
      </trkpt>
      <trkpt lat="47.26794" lon="-2.33016">
        <ele>19.60000038147</ele>
        <time>2019-07-11T07:48:55.000Z</time>
      </trkpt>
      <trkpt lat="47.26814" lon="-2.32997">
        <ele>19.60000038147</ele>
        <time>2019-07-11T07:49:00.000Z</time>
      </trkpt>
      <trkpt lat="47.26827" lon="-2.32986">
        <ele>20</ele>
        <time>2019-07-11T07:49:03.000Z</time>
      </trkpt>
      <trkpt lat="47.26831" lon="-2.32981">
        <ele>20.39999961853</ele>
        <time>2019-07-11T07:49:04.000Z</time>
      </trkpt>
      <trkpt lat="47.26836" lon="-2.32977">
        <ele>20.799999237061</ele>
        <time>2019-07-11T07:49:05.000Z</time>
      </trkpt>
      <trkpt lat="47.2684" lon="-2.32972">
        <ele>21.200000762939</ele>
        <time>2019-07-11T07:49:06.000Z</time>
      </trkpt>
      <trkpt lat="47.26845" lon="-2.32968">
        <ele>21.60000038147</ele>
        <time>2019-07-11T07:49:07.000Z</time>
      </trkpt>
      <trkpt lat="47.26869" lon="-2.32948">
        <ele>21.60000038147</ele>
        <time>2019-07-11T07:49:12.000Z</time>
      </trkpt>
      <trkpt lat="47.26909" lon="-2.3291">
        <ele>21.60000038147</ele>
        <time>2019-07-11T07:49:21.000Z</time>
      </trkpt>
      <trkpt lat="47.26936" lon="-2.32886">
        <ele>21.60000038147</ele>
        <time>2019-07-11T07:49:27.000Z</time>
      </trkpt>
      <trkpt lat="47.26971" lon="-2.32853">
        <ele>21.60000038147</ele>
        <time>2019-07-11T07:49:35.000Z</time>
      </trkpt>
      <trkpt lat="47.26998" lon="-2.32829">
        <ele>21.60000038147</ele>
        <time>2019-07-11T07:49:41.000Z</time>
      </trkpt>
      <trkpt lat="47.27035" lon="-2.32795">
        <ele>22</ele>
        <time>2019-07-11T07:49:49.000Z</time>
      </trkpt>
      <trkpt lat="47.27039" lon="-2.32791">
        <ele>22.39999961853</ele>
        <time>2019-07-11T07:49:50.000Z</time>
      </trkpt>
      <trkpt lat="47.27044" lon="-2.32786">
        <ele>22.799999237061</ele>
        <time>2019-07-11T07:49:51.000Z</time>
      </trkpt>
      <trkpt lat="47.27048" lon="-2.32782">
        <ele>23.200000762939</ele>
        <time>2019-07-11T07:49:52.000Z</time>
      </trkpt>
      <trkpt lat="47.27053" lon="-2.32778">
        <ele>23.60000038147</ele>
        <time>2019-07-11T07:49:53.000Z</time>
      </trkpt>
      <trkpt lat="47.27067" lon="-2.32765">
        <ele>23.60000038147</ele>
        <time>2019-07-11T07:49:56.000Z</time>
      </trkpt>
      <trkpt lat="47.27104" lon="-2.3273">
        <ele>23.60000038147</ele>
        <time>2019-07-11T07:50:04.000Z</time>
      </trkpt>
      <trkpt lat="47.27131" lon="-2.32707">
        <ele>23.60000038147</ele>
        <time>2019-07-11T07:50:10.000Z</time>
      </trkpt>
      <trkpt lat="47.27133" lon="-2.32702">
        <ele>23.60000038147</ele>
        <time>2019-07-11T07:50:11.000Z</time>
      </trkpt>
      <trkpt lat="47.27136" lon="-2.32693">
        <ele>23.60000038147</ele>
        <time>2019-07-11T07:50:13.000Z</time>
      </trkpt>
      <trkpt lat="47.27146" lon="-2.32684">
        <ele>23.60000038147</ele>
        <time>2019-07-11T07:50:16.000Z</time>
      </trkpt>
      <trkpt lat="47.27153" lon="-2.32677">
        <ele>23.60000038147</ele>
        <time>2019-07-11T07:50:18.000Z</time>
      </trkpt>
      <trkpt lat="47.27168" lon="-2.32664">
        <ele>23.60000038147</ele>
        <time>2019-07-11T07:50:22.000Z</time>
      </trkpt>
      <trkpt lat="47.27172" lon="-2.3266">
        <ele>24</ele>
        <time>2019-07-11T07:50:23.000Z</time>
      </trkpt>
      <trkpt lat="47.27175" lon="-2.32656">
        <ele>24.39999961853</ele>
        <time>2019-07-11T07:50:24.000Z</time>
      </trkpt>
      <trkpt lat="47.27179" lon="-2.32653">
        <ele>24.799999237061</ele>
        <time>2019-07-11T07:50:25.000Z</time>
      </trkpt>
      <trkpt lat="47.27183" lon="-2.3265">
        <ele>25.200000762939</ele>
        <time>2019-07-11T07:50:26.000Z</time>
      </trkpt>
      <trkpt lat="47.27187" lon="-2.32646">
        <ele>25.60000038147</ele>
        <time>2019-07-11T07:50:27.000Z</time>
      </trkpt>
      <trkpt lat="47.27209" lon="-2.32626">
        <ele>25.60000038147</ele>
        <time>2019-07-11T07:50:32.000Z</time>
      </trkpt>
      <trkpt lat="47.27213" lon="-2.32621">
        <ele>25.60000038147</ele>
        <time>2019-07-11T07:50:33.000Z</time>
      </trkpt>
      <trkpt lat="47.27226" lon="-2.3261">
        <ele>25.60000038147</ele>
        <time>2019-07-11T07:50:36.000Z</time>
      </trkpt>
      <trkpt lat="47.2723" lon="-2.32605">
        <ele>25.60000038147</ele>
        <time>2019-07-11T07:50:37.000Z</time>
      </trkpt>
      <trkpt lat="47.27242" lon="-2.32593">
        <ele>25.60000038147</ele>
        <time>2019-07-11T07:50:40.000Z</time>
      </trkpt>
      <trkpt lat="47.27263" lon="-2.32572">
        <ele>25.60000038147</ele>
        <time>2019-07-11T07:50:45.000Z</time>
      </trkpt>
      <trkpt lat="47.27271" lon="-2.32563">
        <ele>25.60000038147</ele>
        <time>2019-07-11T07:50:47.000Z</time>
      </trkpt>
      <trkpt lat="47.27298" lon="-2.32526">
        <ele>25.60000038147</ele>
        <time>2019-07-11T07:50:54.000Z</time>
      </trkpt>
      <trkpt lat="47.27314" lon="-2.32498">
        <ele>25.60000038147</ele>
        <time>2019-07-11T07:50:59.000Z</time>
      </trkpt>
      <trkpt lat="47.27329" lon="-2.32471">
        <ele>25.60000038147</ele>
        <time>2019-07-11T07:51:04.000Z</time>
      </trkpt>
      <trkpt lat="47.27332" lon="-2.32467">
        <ele>25.60000038147</ele>
        <time>2019-07-11T07:51:05.000Z</time>
      </trkpt>
      <trkpt lat="47.2734" lon="-2.32447">
        <ele>25.60000038147</ele>
        <time>2019-07-11T07:51:08.000Z</time>
      </trkpt>
      <trkpt lat="47.27342" lon="-2.32441">
        <ele>25.60000038147</ele>
        <time>2019-07-11T07:51:09.000Z</time>
      </trkpt>
      <trkpt lat="47.27347" lon="-2.32427">
        <ele>25.60000038147</ele>
        <time>2019-07-11T07:51:11.000Z</time>
      </trkpt>
      <trkpt lat="47.27353" lon="-2.32407">
        <ele>25.60000038147</ele>
        <time>2019-07-11T07:51:14.000Z</time>
      </trkpt>
      <trkpt lat="47.27357" lon="-2.32388">
        <ele>25.60000038147</ele>
        <time>2019-07-11T07:51:17.000Z</time>
      </trkpt>
      <trkpt lat="47.2736" lon="-2.32374">
        <ele>25.60000038147</ele>
        <time>2019-07-11T07:51:19.000Z</time>
      </trkpt>
      <trkpt lat="47.27364" lon="-2.32353">
        <ele>25.60000038147</ele>
        <time>2019-07-11T07:51:23.000Z</time>
      </trkpt>
      <trkpt lat="47.27368" lon="-2.32336">
        <ele>25.60000038147</ele>
        <time>2019-07-11T07:51:26.000Z</time>
      </trkpt>
      <trkpt lat="47.27369" lon="-2.3233">
        <ele>25.60000038147</ele>
        <time>2019-07-11T07:51:27.000Z</time>
      </trkpt>
      <trkpt lat="47.27371" lon="-2.32323">
        <ele>25.60000038147</ele>
        <time>2019-07-11T07:51:28.000Z</time>
      </trkpt>
      <trkpt lat="47.27375" lon="-2.32303">
        <ele>25.60000038147</ele>
        <time>2019-07-11T07:51:31.000Z</time>
      </trkpt>
      <trkpt lat="47.27381" lon="-2.32281">
        <ele>25.60000038147</ele>
        <time>2019-07-11T07:51:34.000Z</time>
      </trkpt>
      <trkpt lat="47.27393" lon="-2.32236">
        <ele>25.60000038147</ele>
        <time>2019-07-11T07:51:39.000Z</time>
      </trkpt>
      <trkpt lat="47.27397" lon="-2.32215">
        <ele>25.60000038147</ele>
        <time>2019-07-11T07:51:41.000Z</time>
      </trkpt>
      <trkpt lat="47.274" lon="-2.32184">
        <ele>25.60000038147</ele>
        <time>2019-07-11T07:51:44.000Z</time>
      </trkpt>
      <trkpt lat="47.27406" lon="-2.32134">
        <ele>25.60000038147</ele>
        <time>2019-07-11T07:51:49.000Z</time>
      </trkpt>
      <trkpt lat="47.27407" lon="-2.32125">
        <ele>25.60000038147</ele>
        <time>2019-07-11T07:51:50.000Z</time>
      </trkpt>
      <trkpt lat="47.27409" lon="-2.32096">
        <ele>25.60000038147</ele>
        <time>2019-07-11T07:51:53.000Z</time>
      </trkpt>
      <trkpt lat="47.27406" lon="-2.32087">
        <ele>25.60000038147</ele>
        <time>2019-07-11T07:51:54.000Z</time>
      </trkpt>
      <trkpt lat="47.27394" lon="-2.32065">
        <ele>25.60000038147</ele>
        <time>2019-07-11T07:51:57.000Z</time>
      </trkpt>
      <trkpt lat="47.27369" lon="-2.32034">
        <ele>25.60000038147</ele>
        <time>2019-07-11T07:52:03.000Z</time>
      </trkpt>
      <trkpt lat="47.2735" lon="-2.32013">
        <ele>25.60000038147</ele>
        <time>2019-07-11T07:52:08.000Z</time>
      </trkpt>
      <trkpt lat="47.27349" lon="-2.32009">
        <ele>25.60000038147</ele>
        <time>2019-07-11T07:52:11.000Z</time>
      </trkpt>
      <trkpt lat="47.27348" lon="-2.3201">
        <ele>25.60000038147</ele>
        <time>2019-07-11T07:52:12.000Z</time>
      </trkpt>
      <trkpt lat="47.27348" lon="-2.32007">
        <ele>25.60000038147</ele>
        <time>2019-07-11T07:52:58.000Z</time>
      </trkpt>
      <trkpt lat="47.27351" lon="-2.32005">
        <ele>25.60000038147</ele>
        <time>2019-07-11T07:53:00.000Z</time>
      </trkpt>
      <trkpt lat="47.27357" lon="-2.3201">
        <ele>25.60000038147</ele>
        <time>2019-07-11T07:53:03.000Z</time>
      </trkpt>
      <trkpt lat="47.2736" lon="-2.32013">
        <ele>25.60000038147</ele>
        <time>2019-07-11T07:53:04.000Z</time>
      </trkpt>
      <trkpt lat="47.27374" lon="-2.32025">
        <ele>25.60000038147</ele>
        <time>2019-07-11T07:53:09.000Z</time>
      </trkpt>
      <trkpt lat="47.27383" lon="-2.32035">
        <ele>26</ele>
        <time>2019-07-11T07:53:12.000Z</time>
      </trkpt>
      <trkpt lat="47.27386" lon="-2.32039">
        <ele>26.60000038147</ele>
        <time>2019-07-11T07:53:13.000Z</time>
      </trkpt>
      <trkpt lat="47.27389" lon="-2.32043">
        <ele>27</ele>
        <time>2019-07-11T07:53:14.000Z</time>
      </trkpt>
      <trkpt lat="47.27393" lon="-2.32046">
        <ele>27.39999961853</ele>
        <time>2019-07-11T07:53:15.000Z</time>
      </trkpt>
      <trkpt lat="47.27396" lon="-2.3205">
        <ele>27.799999237061</ele>
        <time>2019-07-11T07:53:16.000Z</time>
      </trkpt>
      <trkpt lat="47.2741" lon="-2.32064">
        <ele>28.200000762939</ele>
        <time>2019-07-11T07:53:20.000Z</time>
      </trkpt>
      <trkpt lat="47.27414" lon="-2.32068">
        <ele>28.60000038147</ele>
        <time>2019-07-11T07:53:21.000Z</time>
      </trkpt>
      <trkpt lat="47.27418" lon="-2.32072">
        <ele>29</ele>
        <time>2019-07-11T07:53:22.000Z</time>
      </trkpt>
      <trkpt lat="47.27422" lon="-2.32075">
        <ele>29.39999961853</ele>
        <time>2019-07-11T07:53:23.000Z</time>
      </trkpt>
      <trkpt lat="47.27426" lon="-2.32079">
        <ele>30</ele>
        <time>2019-07-11T07:53:24.000Z</time>
      </trkpt>
      <trkpt lat="47.2744" lon="-2.32097">
        <ele>30.39999961853</ele>
        <time>2019-07-11T07:53:28.000Z</time>
      </trkpt>
      <trkpt lat="47.27443" lon="-2.32102">
        <ele>30.799999237061</ele>
        <time>2019-07-11T07:53:29.000Z</time>
      </trkpt>
      <trkpt lat="47.27447" lon="-2.32106">
        <ele>31.200000762939</ele>
        <time>2019-07-11T07:53:30.000Z</time>
      </trkpt>
      <trkpt lat="47.27451" lon="-2.32112">
        <ele>31.60000038147</ele>
        <time>2019-07-11T07:53:31.000Z</time>
      </trkpt>
      <trkpt lat="47.27454" lon="-2.32116">
        <ele>32</ele>
        <time>2019-07-11T07:53:32.000Z</time>
      </trkpt>
      <trkpt lat="47.2747" lon="-2.32137">
        <ele>32</ele>
        <time>2019-07-11T07:53:36.000Z</time>
      </trkpt>
      <trkpt lat="47.27498" lon="-2.32173">
        <ele>32</ele>
        <time>2019-07-11T07:53:43.000Z</time>
      </trkpt>
      <trkpt lat="47.27509" lon="-2.32186">
        <ele>32</ele>
        <time>2019-07-11T07:53:46.000Z</time>
      </trkpt>
      <trkpt lat="47.2752" lon="-2.322">
        <ele>32.400001525879</ele>
        <time>2019-07-11T07:53:49.000Z</time>
      </trkpt>
      <trkpt lat="47.27523" lon="-2.32205">
        <ele>33.400001525879</ele>
        <time>2019-07-11T07:53:50.000Z</time>
      </trkpt>
      <trkpt lat="47.27527" lon="-2.32209">
        <ele>33.799999237061</ele>
        <time>2019-07-11T07:53:51.000Z</time>
      </trkpt>
      <trkpt lat="47.2753" lon="-2.32212">
        <ele>34.200000762939</ele>
        <time>2019-07-11T07:53:52.000Z</time>
      </trkpt>
      <trkpt lat="47.27544" lon="-2.32227">
        <ele>34.200000762939</ele>
        <time>2019-07-11T07:53:56.000Z</time>
      </trkpt>
      <trkpt lat="47.27548" lon="-2.3223">
        <ele>34.599998474121</ele>
        <time>2019-07-11T07:53:57.000Z</time>
      </trkpt>
      <trkpt lat="47.27551" lon="-2.32233">
        <ele>35</ele>
        <time>2019-07-11T07:53:58.000Z</time>
      </trkpt>
      <trkpt lat="47.27555" lon="-2.32236">
        <ele>35.599998474121</ele>
        <time>2019-07-11T07:53:59.000Z</time>
      </trkpt>
      <trkpt lat="47.27559" lon="-2.32238">
        <ele>36</ele>
        <time>2019-07-11T07:54:00.000Z</time>
      </trkpt>
      <trkpt lat="47.27562" lon="-2.32242">
        <ele>36.400001525879</ele>
        <time>2019-07-11T07:54:01.000Z</time>
      </trkpt>
      <trkpt lat="47.27569" lon="-2.32248">
        <ele>36.400001525879</ele>
        <time>2019-07-11T07:54:03.000Z</time>
      </trkpt>
      <trkpt lat="47.27586" lon="-2.32264">
        <ele>36.799999237061</ele>
        <time>2019-07-11T07:54:08.000Z</time>
      </trkpt>
      <trkpt lat="47.2759" lon="-2.32267">
        <ele>37.200000762939</ele>
        <time>2019-07-11T07:54:09.000Z</time>
      </trkpt>
      <trkpt lat="47.27593" lon="-2.3227">
        <ele>37.599998474121</ele>
        <time>2019-07-11T07:54:10.000Z</time>
      </trkpt>
      <trkpt lat="47.27596" lon="-2.32273">
        <ele>38</ele>
        <time>2019-07-11T07:54:11.000Z</time>
      </trkpt>
      <trkpt lat="47.276" lon="-2.32275">
        <ele>38.599998474121</ele>
        <time>2019-07-11T07:54:12.000Z</time>
      </trkpt>
      <trkpt lat="47.27613" lon="-2.32291">
        <ele>39</ele>
        <time>2019-07-11T07:54:17.000Z</time>
      </trkpt>
      <trkpt lat="47.27613" lon="-2.32297">
        <ele>39.400001525879</ele>
        <time>2019-07-11T07:54:18.000Z</time>
      </trkpt>
      <trkpt lat="47.27612" lon="-2.32303">
        <ele>39.799999237061</ele>
        <time>2019-07-11T07:54:19.000Z</time>
      </trkpt>
      <trkpt lat="47.2761" lon="-2.32309">
        <ele>40.200000762939</ele>
        <time>2019-07-11T07:54:20.000Z</time>
      </trkpt>
      <trkpt lat="47.27607" lon="-2.32314">
        <ele>40.599998474121</ele>
        <time>2019-07-11T07:54:21.000Z</time>
      </trkpt>
      <trkpt lat="47.27605" lon="-2.3232">
        <ele>40.599998474121</ele>
        <time>2019-07-11T07:54:22.000Z</time>
      </trkpt>
      <trkpt lat="47.27601" lon="-2.32334">
        <ele>40.599998474121</ele>
        <time>2019-07-11T07:54:24.000Z</time>
      </trkpt>
      <trkpt lat="47.27595" lon="-2.32348">
        <ele>40.599998474121</ele>
        <time>2019-07-11T07:54:26.000Z</time>
      </trkpt>
      <trkpt lat="47.27581" lon="-2.3239">
        <ele>40.599998474121</ele>
        <time>2019-07-11T07:54:32.000Z</time>
      </trkpt>
      <trkpt lat="47.27583" lon="-2.32418">
        <ele>40.599998474121</ele>
        <time>2019-07-11T07:54:36.000Z</time>
      </trkpt>
      <trkpt lat="47.27595" lon="-2.32437">
        <ele>40.599998474121</ele>
        <time>2019-07-11T07:54:40.000Z</time>
      </trkpt>
      <trkpt lat="47.27602" lon="-2.32446">
        <ele>40.599998474121</ele>
        <time>2019-07-11T07:54:42.000Z</time>
      </trkpt>
      <trkpt lat="47.27615" lon="-2.32464">
        <ele>40.599998474121</ele>
        <time>2019-07-11T07:54:46.000Z</time>
      </trkpt>
      <trkpt lat="47.27629" lon="-2.32478">
        <ele>40.599998474121</ele>
        <time>2019-07-11T07:54:51.000Z</time>
      </trkpt>
      <trkpt lat="47.2764" lon="-2.32486">
        <ele>40.599998474121</ele>
        <time>2019-07-11T07:54:55.000Z</time>
      </trkpt>
      <trkpt lat="47.27653" lon="-2.32497">
        <ele>40.599998474121</ele>
        <time>2019-07-11T07:55:01.000Z</time>
      </trkpt>
      <trkpt lat="47.27659" lon="-2.32496">
        <ele>40.599998474121</ele>
        <time>2019-07-11T07:55:03.000Z</time>
      </trkpt>
      <trkpt lat="47.27662" lon="-2.32493">
        <ele>40.599998474121</ele>
        <time>2019-07-11T07:55:04.000Z</time>
      </trkpt>
      <trkpt lat="47.27677" lon="-2.32473">
        <ele>40.599998474121</ele>
        <time>2019-07-11T07:55:09.000Z</time>
      </trkpt>
      <trkpt lat="47.2768" lon="-2.32469">
        <ele>41</ele>
        <time>2019-07-11T07:55:10.000Z</time>
      </trkpt>
      <trkpt lat="47.27684" lon="-2.32464">
        <ele>41.400001525879</ele>
        <time>2019-07-11T07:55:11.000Z</time>
      </trkpt>
      <trkpt lat="47.27687" lon="-2.3246">
        <ele>41.799999237061</ele>
        <time>2019-07-11T07:55:12.000Z</time>
      </trkpt>
      <trkpt lat="47.2769" lon="-2.32458">
        <ele>42.200000762939</ele>
        <time>2019-07-11T07:55:13.000Z</time>
      </trkpt>
      <trkpt lat="47.27692" lon="-2.32456">
        <ele>42.799999237061</ele>
        <time>2019-07-11T07:55:14.000Z</time>
      </trkpt>
      <trkpt lat="47.27695" lon="-2.32452">
        <ele>42.799999237061</ele>
        <time>2019-07-11T07:55:18.000Z</time>
      </trkpt>
      <trkpt lat="47.27695" lon="-2.32452">
        <ele>42.799999237061</ele>
        <time>2019-07-11T07:55:19.000Z</time>
      </trkpt>
      <trkpt lat="47.27698" lon="-2.32451">
        <ele>42.799999237061</ele>
        <time>2019-07-11T07:55:30.000Z</time>
      </trkpt>
      <trkpt lat="47.277" lon="-2.32449">
        <ele>42.799999237061</ele>
        <time>2019-07-11T07:55:32.000Z</time>
      </trkpt>
      <trkpt lat="47.27701" lon="-2.32448">
        <ele>42.799999237061</ele>
        <time>2019-07-11T07:55:35.000Z</time>
      </trkpt>
      <trkpt lat="47.27706" lon="-2.32441">
        <ele>42.799999237061</ele>
        <time>2019-07-11T07:56:03.000Z</time>
      </trkpt>
      <trkpt lat="47.27708" lon="-2.32438">
        <ele>42.799999237061</ele>
        <time>2019-07-11T07:56:04.000Z</time>
      </trkpt>
      <trkpt lat="47.27718" lon="-2.32427">
        <ele>42.799999237061</ele>
        <time>2019-07-11T07:56:08.000Z</time>
      </trkpt>
      <trkpt lat="47.27732" lon="-2.32414">
        <ele>42.799999237061</ele>
        <time>2019-07-11T07:56:13.000Z</time>
      </trkpt>
      <trkpt lat="47.27744" lon="-2.32406">
        <ele>43.200000762939</ele>
        <time>2019-07-11T07:56:16.000Z</time>
      </trkpt>
      <trkpt lat="47.27747" lon="-2.32404">
        <ele>44</ele>
        <time>2019-07-11T07:56:17.000Z</time>
      </trkpt>
      <trkpt lat="47.27751" lon="-2.32401">
        <ele>44.400001525879</ele>
        <time>2019-07-11T07:56:18.000Z</time>
      </trkpt>
      <trkpt lat="47.27755" lon="-2.32399">
        <ele>44.799999237061</ele>
        <time>2019-07-11T07:56:19.000Z</time>
      </trkpt>
      <trkpt lat="47.27758" lon="-2.32396">
        <ele>44.799999237061</ele>
        <time>2019-07-11T07:56:20.000Z</time>
      </trkpt>
      <trkpt lat="47.27765" lon="-2.32393">
        <ele>44.799999237061</ele>
        <time>2019-07-11T07:56:22.000Z</time>
      </trkpt>
      <trkpt lat="47.27796" lon="-2.32387">
        <ele>44.799999237061</ele>
        <time>2019-07-11T07:56:29.000Z</time>
      </trkpt>
      <trkpt lat="47.27813" lon="-2.32385">
        <ele>44.799999237061</ele>
        <time>2019-07-11T07:56:33.000Z</time>
      </trkpt>
      <trkpt lat="47.27817" lon="-2.32383">
        <ele>44.799999237061</ele>
        <time>2019-07-11T07:56:34.000Z</time>
      </trkpt>
      <trkpt lat="47.27829" lon="-2.32379">
        <ele>44.799999237061</ele>
        <time>2019-07-11T07:56:37.000Z</time>
      </trkpt>
      <trkpt lat="47.27835" lon="-2.32377">
        <ele>44.799999237061</ele>
        <time>2019-07-11T07:56:40.000Z</time>
      </trkpt>
      <trkpt lat="47.27841" lon="-2.32379">
        <ele>44.799999237061</ele>
        <time>2019-07-11T07:56:46.000Z</time>
      </trkpt>
      <trkpt lat="47.27843" lon="-2.32379">
        <ele>44.400001525879</ele>
        <time>2019-07-11T07:56:47.000Z</time>
      </trkpt>
      <trkpt lat="47.27844" lon="-2.3238">
        <ele>44</ele>
        <time>2019-07-11T07:56:48.000Z</time>
      </trkpt>
      <trkpt lat="47.27845" lon="-2.32381">
        <ele>43.599998474121</ele>
        <time>2019-07-11T07:56:49.000Z</time>
      </trkpt>
      <trkpt lat="47.27845" lon="-2.32381">
        <ele>43.200000762939</ele>
        <time>2019-07-11T07:56:50.000Z</time>
      </trkpt>
      <trkpt lat="47.27845" lon="-2.32382">
        <ele>42.799999237061</ele>
        <time>2019-07-11T07:56:51.000Z</time>
      </trkpt>
      <trkpt lat="47.27846" lon="-2.32383">
        <ele>42.799999237061</ele>
        <time>2019-07-11T07:56:53.000Z</time>
      </trkpt>
      <trkpt lat="47.27851" lon="-2.32384">
        <ele>42.799999237061</ele>
        <time>2019-07-11T07:56:55.000Z</time>
      </trkpt>
      <trkpt lat="47.27855" lon="-2.32382">
        <ele>42.799999237061</ele>
        <time>2019-07-11T07:56:57.000Z</time>
      </trkpt>
      <trkpt lat="47.27855" lon="-2.32382">
        <ele>42.799999237061</ele>
        <time>2019-07-11T07:56:59.000Z</time>
      </trkpt>
      <trkpt lat="47.27868" lon="-2.32384">
        <ele>42.799999237061</ele>
        <time>2019-07-11T07:57:53.000Z</time>
      </trkpt>
      <trkpt lat="47.2787" lon="-2.32384">
        <ele>42.799999237061</ele>
        <time>2019-07-11T07:57:54.000Z</time>
      </trkpt>
      <trkpt lat="47.27878" lon="-2.3238">
        <ele>42.799999237061</ele>
        <time>2019-07-11T07:57:57.000Z</time>
      </trkpt>
      <trkpt lat="47.27881" lon="-2.32381">
        <ele>42.799999237061</ele>
        <time>2019-07-11T07:57:58.000Z</time>
      </trkpt>
      <trkpt lat="47.27889" lon="-2.32382">
        <ele>42.799999237061</ele>
        <time>2019-07-11T07:58:01.000Z</time>
      </trkpt>
      <trkpt lat="47.27896" lon="-2.32384">
        <ele>42.799999237061</ele>
        <time>2019-07-11T07:58:04.000Z</time>
      </trkpt>
      <trkpt lat="47.27899" lon="-2.32383">
        <ele>42.799999237061</ele>
        <time>2019-07-11T07:58:06.000Z</time>
      </trkpt>
      <trkpt lat="47.27901" lon="-2.32383">
        <ele>42.799999237061</ele>
        <time>2019-07-11T07:58:07.000Z</time>
      </trkpt>
      <trkpt lat="47.27909" lon="-2.32388">
        <ele>42.799999237061</ele>
        <time>2019-07-11T07:58:11.000Z</time>
      </trkpt>
      <trkpt lat="47.27911" lon="-2.32389">
        <ele>42.799999237061</ele>
        <time>2019-07-11T07:58:12.000Z</time>
      </trkpt>
      <trkpt lat="47.27913" lon="-2.32389">
        <ele>42.799999237061</ele>
        <time>2019-07-11T07:58:15.000Z</time>
      </trkpt>
      <trkpt lat="47.2792" lon="-2.32394">
        <ele>42.799999237061</ele>
        <time>2019-07-11T07:58:25.000Z</time>
      </trkpt>
      <trkpt lat="47.2792" lon="-2.32394">
        <ele>42.799999237061</ele>
        <time>2019-07-11T07:58:26.000Z</time>
      </trkpt>
      <trkpt lat="47.27923" lon="-2.32398">
        <ele>42.799999237061</ele>
        <time>2019-07-11T07:58:33.000Z</time>
      </trkpt>
      <trkpt lat="47.27927" lon="-2.32398">
        <ele>42.799999237061</ele>
        <time>2019-07-11T07:58:34.000Z</time>
      </trkpt>
      <trkpt lat="47.27944" lon="-2.32402">
        <ele>42.799999237061</ele>
        <time>2019-07-11T07:58:39.000Z</time>
      </trkpt>
      <trkpt lat="47.27949" lon="-2.32404">
        <ele>42.799999237061</ele>
        <time>2019-07-11T07:58:40.000Z</time>
      </trkpt>
      <trkpt lat="47.27965" lon="-2.32408">
        <ele>42.799999237061</ele>
        <time>2019-07-11T07:58:43.000Z</time>
      </trkpt>
      <trkpt lat="47.27971" lon="-2.3241">
        <ele>42.799999237061</ele>
        <time>2019-07-11T07:58:44.000Z</time>
      </trkpt>
      <trkpt lat="47.28003" lon="-2.32419">
        <ele>42.799999237061</ele>
        <time>2019-07-11T07:58:49.000Z</time>
      </trkpt>
      <trkpt lat="47.28009" lon="-2.32422">
        <ele>42.799999237061</ele>
        <time>2019-07-11T07:58:50.000Z</time>
      </trkpt>
      <trkpt lat="47.28021" lon="-2.32424">
        <ele>42.799999237061</ele>
        <time>2019-07-11T07:58:52.000Z</time>
      </trkpt>
      <trkpt lat="47.28033" lon="-2.32426">
        <ele>42.799999237061</ele>
        <time>2019-07-11T07:58:54.000Z</time>
      </trkpt>
      <trkpt lat="47.28071" lon="-2.32428">
        <ele>42.799999237061</ele>
        <time>2019-07-11T07:59:01.000Z</time>
      </trkpt>
      <trkpt lat="47.28096" lon="-2.32431">
        <ele>42.799999237061</ele>
        <time>2019-07-11T07:59:07.000Z</time>
      </trkpt>
      <trkpt lat="47.28099" lon="-2.32432">
        <ele>42.799999237061</ele>
        <time>2019-07-11T07:59:10.000Z</time>
      </trkpt>
      <trkpt lat="47.281" lon="-2.32435">
        <ele>42.799999237061</ele>
        <time>2019-07-11T07:59:31.000Z</time>
      </trkpt>
      <trkpt lat="47.28101" lon="-2.32441">
        <ele>42.799999237061</ele>
        <time>2019-07-11T07:59:35.000Z</time>
      </trkpt>
      <trkpt lat="47.28102" lon="-2.32443">
        <ele>42.799999237061</ele>
        <time>2019-07-11T07:59:36.000Z</time>
      </trkpt>
      <trkpt lat="47.28111" lon="-2.32448">
        <ele>42.799999237061</ele>
        <time>2019-07-11T07:59:40.000Z</time>
      </trkpt>
      <trkpt lat="47.28115" lon="-2.3245">
        <ele>42.799999237061</ele>
        <time>2019-07-11T07:59:41.000Z</time>
      </trkpt>
      <trkpt lat="47.28132" lon="-2.32451">
        <ele>42.799999237061</ele>
        <time>2019-07-11T07:59:45.000Z</time>
      </trkpt>
      <trkpt lat="47.28159" lon="-2.32447">
        <ele>42.799999237061</ele>
        <time>2019-07-11T07:59:51.000Z</time>
      </trkpt>
      <trkpt lat="47.2817" lon="-2.32445">
        <ele>42.799999237061</ele>
        <time>2019-07-11T07:59:53.000Z</time>
      </trkpt>
      <trkpt lat="47.28181" lon="-2.32447">
        <ele>42.799999237061</ele>
        <time>2019-07-11T07:59:55.000Z</time>
      </trkpt>
      <trkpt lat="47.28188" lon="-2.32449">
        <ele>42.799999237061</ele>
        <time>2019-07-11T07:59:56.000Z</time>
      </trkpt>
      <trkpt lat="47.28206" lon="-2.32455">
        <ele>42.799999237061</ele>
        <time>2019-07-11T07:59:59.000Z</time>
      </trkpt>
      <trkpt lat="47.28217" lon="-2.32462">
        <ele>42.799999237061</ele>
        <time>2019-07-11T08:00:01.000Z</time>
      </trkpt>
      <trkpt lat="47.28226" lon="-2.32471">
        <ele>42.799999237061</ele>
        <time>2019-07-11T08:00:03.000Z</time>
      </trkpt>
      <trkpt lat="47.28232" lon="-2.32475">
        <ele>42.799999237061</ele>
        <time>2019-07-11T08:00:04.000Z</time>
      </trkpt>
      <trkpt lat="47.28237" lon="-2.3248">
        <ele>42.799999237061</ele>
        <time>2019-07-11T08:00:05.000Z</time>
      </trkpt>
      <trkpt lat="47.28266" lon="-2.32513">
        <ele>42.799999237061</ele>
        <time>2019-07-11T08:00:11.000Z</time>
      </trkpt>
      <trkpt lat="47.2829" lon="-2.32519">
        <ele>42.799999237061</ele>
        <time>2019-07-11T08:00:15.000Z</time>
      </trkpt>
      <trkpt lat="47.28313" lon="-2.32522">
        <ele>42.799999237061</ele>
        <time>2019-07-11T08:00:19.000Z</time>
      </trkpt>
      <trkpt lat="47.28318" lon="-2.32523">
        <ele>42.799999237061</ele>
        <time>2019-07-11T08:00:20.000Z</time>
      </trkpt>
      <trkpt lat="47.2835" lon="-2.32522">
        <ele>42.799999237061</ele>
        <time>2019-07-11T08:00:26.000Z</time>
      </trkpt>
      <trkpt lat="47.28354" lon="-2.32523">
        <ele>42.799999237061</ele>
        <time>2019-07-11T08:00:27.000Z</time>
      </trkpt>
      <trkpt lat="47.28357" lon="-2.32533">
        <ele>42.799999237061</ele>
        <time>2019-07-11T08:00:29.000Z</time>
      </trkpt>
      <trkpt lat="47.28359" lon="-2.32541">
        <ele>42.799999237061</ele>
        <time>2019-07-11T08:00:31.000Z</time>
      </trkpt>
      <trkpt lat="47.28359" lon="-2.3255">
        <ele>42.799999237061</ele>
        <time>2019-07-11T08:00:33.000Z</time>
      </trkpt>
      <trkpt lat="47.28362" lon="-2.32562">
        <ele>42.799999237061</ele>
        <time>2019-07-11T08:00:35.000Z</time>
      </trkpt>
      <trkpt lat="47.28365" lon="-2.32573">
        <ele>42.799999237061</ele>
        <time>2019-07-11T08:00:37.000Z</time>
      </trkpt>
      <trkpt lat="47.28368" lon="-2.32576">
        <ele>42.799999237061</ele>
        <time>2019-07-11T08:00:38.000Z</time>
      </trkpt>
      <trkpt lat="47.28373" lon="-2.32577">
        <ele>42.799999237061</ele>
        <time>2019-07-11T08:00:40.000Z</time>
      </trkpt>
      <trkpt lat="47.2838" lon="-2.32576">
        <ele>42.799999237061</ele>
        <time>2019-07-11T08:00:42.000Z</time>
      </trkpt>
      <trkpt lat="47.28387" lon="-2.32577">
        <ele>42.799999237061</ele>
        <time>2019-07-11T08:00:44.000Z</time>
      </trkpt>
      <trkpt lat="47.28394" lon="-2.32586">
        <ele>42.799999237061</ele>
        <time>2019-07-11T08:00:47.000Z</time>
      </trkpt>
      <trkpt lat="47.28403" lon="-2.32606">
        <ele>42.799999237061</ele>
        <time>2019-07-11T08:00:51.000Z</time>
      </trkpt>
      <trkpt lat="47.28405" lon="-2.32619">
        <ele>42.799999237061</ele>
        <time>2019-07-11T08:00:53.000Z</time>
      </trkpt>
      <trkpt lat="47.28405" lon="-2.32625">
        <ele>42.799999237061</ele>
        <time>2019-07-11T08:00:54.000Z</time>
      </trkpt>
      <trkpt lat="47.284" lon="-2.32651">
        <ele>42.799999237061</ele>
        <time>2019-07-11T08:00:57.000Z</time>
      </trkpt>
      <trkpt lat="47.28398" lon="-2.3266">
        <ele>42.799999237061</ele>
        <time>2019-07-11T08:00:58.000Z</time>
      </trkpt>
      <trkpt lat="47.28381" lon="-2.32736">
        <ele>42.799999237061</ele>
        <time>2019-07-11T08:01:06.000Z</time>
      </trkpt>
      <trkpt lat="47.28367" lon="-2.32801">
        <ele>42.799999237061</ele>
        <time>2019-07-11T08:01:13.000Z</time>
      </trkpt>
      <trkpt lat="47.28363" lon="-2.32826">
        <ele>42.799999237061</ele>
        <time>2019-07-11T08:01:16.000Z</time>
      </trkpt>
      <trkpt lat="47.28363" lon="-2.32835">
        <ele>42.799999237061</ele>
        <time>2019-07-11T08:01:17.000Z</time>
      </trkpt>
      <trkpt lat="47.28365" lon="-2.32868">
        <ele>42.799999237061</ele>
        <time>2019-07-11T08:01:22.000Z</time>
      </trkpt>
      <trkpt lat="47.28365" lon="-2.32878">
        <ele>42.799999237061</ele>
        <time>2019-07-11T08:01:26.000Z</time>
      </trkpt>
      <trkpt lat="47.28363" lon="-2.3288">
        <ele>42.400001525879</ele>
        <time>2019-07-11T08:01:27.000Z</time>
      </trkpt>
      <trkpt lat="47.28362" lon="-2.32884">
        <ele>41.799999237061</ele>
        <time>2019-07-11T08:01:28.000Z</time>
      </trkpt>
      <trkpt lat="47.28361" lon="-2.32887">
        <ele>41.400001525879</ele>
        <time>2019-07-11T08:01:29.000Z</time>
      </trkpt>
      <trkpt lat="47.2836" lon="-2.32892">
        <ele>41</ele>
        <time>2019-07-11T08:01:30.000Z</time>
      </trkpt>
      <trkpt lat="47.2836" lon="-2.32897">
        <ele>40.599998474121</ele>
        <time>2019-07-11T08:01:31.000Z</time>
      </trkpt>
      <trkpt lat="47.28351" lon="-2.3292">
        <ele>40.599998474121</ele>
        <time>2019-07-11T08:01:35.000Z</time>
      </trkpt>
      <trkpt lat="47.28336" lon="-2.3294">
        <ele>40.599998474121</ele>
        <time>2019-07-11T08:01:38.000Z</time>
      </trkpt>
      <trkpt lat="47.28304" lon="-2.32969">
        <ele>40.599998474121</ele>
        <time>2019-07-11T08:01:43.000Z</time>
      </trkpt>
      <trkpt lat="47.28262" lon="-2.33008">
        <ele>40.599998474121</ele>
        <time>2019-07-11T08:01:50.000Z</time>
      </trkpt>
      <trkpt lat="47.28236" lon="-2.33031">
        <ele>40.599998474121</ele>
        <time>2019-07-11T08:01:55.000Z</time>
      </trkpt>
      <trkpt lat="47.28231" lon="-2.33037">
        <ele>40.599998474121</ele>
        <time>2019-07-11T08:01:56.000Z</time>
      </trkpt>
      <trkpt lat="47.28213" lon="-2.33069">
        <ele>40.599998474121</ele>
        <time>2019-07-11T08:02:01.000Z</time>
      </trkpt>
      <trkpt lat="47.28199" lon="-2.33105">
        <ele>40.599998474121</ele>
        <time>2019-07-11T08:02:06.000Z</time>
      </trkpt>
      <trkpt lat="47.28197" lon="-2.33114">
        <ele>40.599998474121</ele>
        <time>2019-07-11T08:02:07.000Z</time>
      </trkpt>
      <trkpt lat="47.28197" lon="-2.33147">
        <ele>40.599998474121</ele>
        <time>2019-07-11T08:02:11.000Z</time>
      </trkpt>
      <trkpt lat="47.28196" lon="-2.33193">
        <ele>40.599998474121</ele>
        <time>2019-07-11T08:02:17.000Z</time>
      </trkpt>
      <trkpt lat="47.28191" lon="-2.33243">
        <ele>40.599998474121</ele>
        <time>2019-07-11T08:02:23.000Z</time>
      </trkpt>
      <trkpt lat="47.28181" lon="-2.33296">
        <ele>41</ele>
        <time>2019-07-11T08:02:30.000Z</time>
      </trkpt>
      <trkpt lat="47.28178" lon="-2.33303">
        <ele>41.400001525879</ele>
        <time>2019-07-11T08:02:31.000Z</time>
      </trkpt>
      <trkpt lat="47.28176" lon="-2.3331">
        <ele>41.799999237061</ele>
        <time>2019-07-11T08:02:32.000Z</time>
      </trkpt>
      <trkpt lat="47.28173" lon="-2.33316">
        <ele>42.200000762939</ele>
        <time>2019-07-11T08:02:33.000Z</time>
      </trkpt>
      <trkpt lat="47.2817" lon="-2.33322">
        <ele>42.599998474121</ele>
        <time>2019-07-11T08:02:34.000Z</time>
      </trkpt>
      <trkpt lat="47.28165" lon="-2.33336">
        <ele>42.599998474121</ele>
        <time>2019-07-11T08:02:36.000Z</time>
      </trkpt>
      <trkpt lat="47.28159" lon="-2.33348">
        <ele>42.599998474121</ele>
        <time>2019-07-11T08:02:38.000Z</time>
      </trkpt>
      <trkpt lat="47.28144" lon="-2.33379">
        <ele>42.599998474121</ele>
        <time>2019-07-11T08:02:43.000Z</time>
      </trkpt>
      <trkpt lat="47.28136" lon="-2.33399">
        <ele>43</ele>
        <time>2019-07-11T08:02:46.000Z</time>
      </trkpt>
      <trkpt lat="47.28133" lon="-2.33405">
        <ele>43.599998474121</ele>
        <time>2019-07-11T08:02:47.000Z</time>
      </trkpt>
      <trkpt lat="47.28129" lon="-2.33412">
        <ele>44</ele>
        <time>2019-07-11T08:02:48.000Z</time>
      </trkpt>
      <trkpt lat="47.28126" lon="-2.33419">
        <ele>44.400001525879</ele>
        <time>2019-07-11T08:02:49.000Z</time>
      </trkpt>
      <trkpt lat="47.28123" lon="-2.33425">
        <ele>44.799999237061</ele>
        <time>2019-07-11T08:02:50.000Z</time>
      </trkpt>
      <trkpt lat="47.28117" lon="-2.33439">
        <ele>44.799999237061</ele>
        <time>2019-07-11T08:02:52.000Z</time>
      </trkpt>
      <trkpt lat="47.28096" lon="-2.33484">
        <ele>44.799999237061</ele>
        <time>2019-07-11T08:02:59.000Z</time>
      </trkpt>
      <trkpt lat="47.28084" lon="-2.33505">
        <ele>44.799999237061</ele>
        <time>2019-07-11T08:03:03.000Z</time>
      </trkpt>
      <trkpt lat="47.28078" lon="-2.33515">
        <ele>44.799999237061</ele>
        <time>2019-07-11T08:03:05.000Z</time>
      </trkpt>
      <trkpt lat="47.28077" lon="-2.33522">
        <ele>44.799999237061</ele>
        <time>2019-07-11T08:03:06.000Z</time>
      </trkpt>
      <trkpt lat="47.28074" lon="-2.33535">
        <ele>44.799999237061</ele>
        <time>2019-07-11T08:03:08.000Z</time>
      </trkpt>
      <trkpt lat="47.28077" lon="-2.33554">
        <ele>44.799999237061</ele>
        <time>2019-07-11T08:03:12.000Z</time>
      </trkpt>
      <trkpt lat="47.28084" lon="-2.33592">
        <ele>44.799999237061</ele>
        <time>2019-07-11T08:03:19.000Z</time>
      </trkpt>
      <trkpt lat="47.28088" lon="-2.33611">
        <ele>45.200000762939</ele>
        <time>2019-07-11T08:03:22.000Z</time>
      </trkpt>
      <trkpt lat="47.28088" lon="-2.33616">
        <ele>45.599998474121</ele>
        <time>2019-07-11T08:03:23.000Z</time>
      </trkpt>
      <trkpt lat="47.28089" lon="-2.33621">
        <ele>46</ele>
        <time>2019-07-11T08:03:24.000Z</time>
      </trkpt>
      <trkpt lat="47.2809" lon="-2.33625">
        <ele>46.400001525879</ele>
        <time>2019-07-11T08:03:25.000Z</time>
      </trkpt>
      <trkpt lat="47.28091" lon="-2.33629">
        <ele>46.799999237061</ele>
        <time>2019-07-11T08:03:26.000Z</time>
      </trkpt>
      <trkpt lat="47.28091" lon="-2.33638">
        <ele>46.799999237061</ele>
        <time>2019-07-11T08:03:30.000Z</time>
      </trkpt>
      <trkpt lat="47.28096" lon="-2.33659">
        <ele>46.799999237061</ele>
        <time>2019-07-11T08:03:36.000Z</time>
      </trkpt>
      <trkpt lat="47.28106" lon="-2.33674">
        <ele>46.799999237061</ele>
        <time>2019-07-11T08:03:40.000Z</time>
      </trkpt>
      <trkpt lat="47.28124" lon="-2.33696">
        <ele>46.799999237061</ele>
        <time>2019-07-11T08:03:45.000Z</time>
      </trkpt>
      <trkpt lat="47.28128" lon="-2.33702">
        <ele>46.799999237061</ele>
        <time>2019-07-11T08:03:46.000Z</time>
      </trkpt>
      <trkpt lat="47.28147" lon="-2.33735">
        <ele>46.799999237061</ele>
        <time>2019-07-11T08:03:52.000Z</time>
      </trkpt>
      <trkpt lat="47.28151" lon="-2.3374">
        <ele>46.799999237061</ele>
        <time>2019-07-11T08:03:53.000Z</time>
      </trkpt>
      <trkpt lat="47.28162" lon="-2.33751">
        <ele>46.799999237061</ele>
        <time>2019-07-11T08:03:56.000Z</time>
      </trkpt>
      <trkpt lat="47.2817" lon="-2.33759">
        <ele>47.200000762939</ele>
        <time>2019-07-11T08:03:58.000Z</time>
      </trkpt>
      <trkpt lat="47.28173" lon="-2.33764">
        <ele>47.599998474121</ele>
        <time>2019-07-11T08:03:59.000Z</time>
      </trkpt>
      <trkpt lat="47.28177" lon="-2.33768">
        <ele>48</ele>
        <time>2019-07-11T08:04:00.000Z</time>
      </trkpt>
      <trkpt lat="47.28181" lon="-2.33772">
        <ele>48.400001525879</ele>
        <time>2019-07-11T08:04:01.000Z</time>
      </trkpt>
      <trkpt lat="47.28185" lon="-2.33776">
        <ele>48.799999237061</ele>
        <time>2019-07-11T08:04:02.000Z</time>
      </trkpt>
      <trkpt lat="47.28208" lon="-2.33797">
        <ele>48.799999237061</ele>
        <time>2019-07-11T08:04:08.000Z</time>
      </trkpt>
      <trkpt lat="47.28234" lon="-2.33806">
        <ele>48.799999237061</ele>
        <time>2019-07-11T08:04:13.000Z</time>
      </trkpt>
      <trkpt lat="47.28252" lon="-2.33814">
        <ele>48.799999237061</ele>
        <time>2019-07-11T08:04:17.000Z</time>
      </trkpt>
      <trkpt lat="47.28256" lon="-2.33818">
        <ele>48.799999237061</ele>
        <time>2019-07-11T08:04:18.000Z</time>
      </trkpt>
      <trkpt lat="47.28266" lon="-2.33835">
        <ele>48.799999237061</ele>
        <time>2019-07-11T08:04:21.000Z</time>
      </trkpt>
      <trkpt lat="47.2827" lon="-2.33847">
        <ele>48.799999237061</ele>
        <time>2019-07-11T08:04:23.000Z</time>
      </trkpt>
      <trkpt lat="47.28277" lon="-2.33863">
        <ele>49.200000762939</ele>
        <time>2019-07-11T08:04:26.000Z</time>
      </trkpt>
      <trkpt lat="47.28279" lon="-2.33869">
        <ele>49.599998474121</ele>
        <time>2019-07-11T08:04:27.000Z</time>
      </trkpt>
      <trkpt lat="47.28281" lon="-2.33875">
        <ele>50</ele>
        <time>2019-07-11T08:04:28.000Z</time>
      </trkpt>
      <trkpt lat="47.28284" lon="-2.3388">
        <ele>50.799999237061</ele>
        <time>2019-07-11T08:04:29.000Z</time>
      </trkpt>
      <trkpt lat="47.28294" lon="-2.33909">
        <ele>50.799999237061</ele>
        <time>2019-07-11T08:04:34.000Z</time>
      </trkpt>
      <trkpt lat="47.28299" lon="-2.33919">
        <ele>50.799999237061</ele>
        <time>2019-07-11T08:04:36.000Z</time>
      </trkpt>
      <trkpt lat="47.28312" lon="-2.33952">
        <ele>50.799999237061</ele>
        <time>2019-07-11T08:04:43.000Z</time>
      </trkpt>
      <trkpt lat="47.28316" lon="-2.33962">
        <ele>50.799999237061</ele>
        <time>2019-07-11T08:04:45.000Z</time>
      </trkpt>
      <trkpt lat="47.28324" lon="-2.33984">
        <ele>50.799999237061</ele>
        <time>2019-07-11T08:04:49.000Z</time>
      </trkpt>
      <trkpt lat="47.28334" lon="-2.34006">
        <ele>51.200000762939</ele>
        <time>2019-07-11T08:04:54.000Z</time>
      </trkpt>
      <trkpt lat="47.28336" lon="-2.34008">
        <ele>51.599998474121</ele>
        <time>2019-07-11T08:04:55.000Z</time>
      </trkpt>
      <trkpt lat="47.28339" lon="-2.34008">
        <ele>52</ele>
        <time>2019-07-11T08:04:56.000Z</time>
      </trkpt>
      <trkpt lat="47.28342" lon="-2.34009">
        <ele>52.400001525879</ele>
        <time>2019-07-11T08:04:57.000Z</time>
      </trkpt>
      <trkpt lat="47.28344" lon="-2.34009">
        <ele>52.799999237061</ele>
        <time>2019-07-11T08:04:58.000Z</time>
      </trkpt>
      <trkpt lat="47.2835" lon="-2.34007">
        <ele>52.799999237061</ele>
        <time>2019-07-11T08:05:01.000Z</time>
      </trkpt>
      <trkpt lat="47.28362" lon="-2.34003">
        <ele>52.799999237061</ele>
        <time>2019-07-11T08:05:06.000Z</time>
      </trkpt>
      <trkpt lat="47.28379" lon="-2.33996">
        <ele>52.799999237061</ele>
        <time>2019-07-11T08:05:14.000Z</time>
      </trkpt>
      <trkpt lat="47.28391" lon="-2.33992">
        <ele>53.200000762939</ele>
        <time>2019-07-11T08:05:20.000Z</time>
      </trkpt>
      <trkpt lat="47.28392" lon="-2.33991">
        <ele>53.599998474121</ele>
        <time>2019-07-11T08:05:21.000Z</time>
      </trkpt>
      <trkpt lat="47.28394" lon="-2.3399">
        <ele>54</ele>
        <time>2019-07-11T08:05:22.000Z</time>
      </trkpt>
      <trkpt lat="47.28395" lon="-2.33989">
        <ele>54.400001525879</ele>
        <time>2019-07-11T08:05:23.000Z</time>
      </trkpt>
      <trkpt lat="47.28397" lon="-2.33989">
        <ele>54.799999237061</ele>
        <time>2019-07-11T08:05:24.000Z</time>
      </trkpt>
      <trkpt lat="47.28405" lon="-2.3399">
        <ele>54.799999237061</ele>
        <time>2019-07-11T08:05:29.000Z</time>
      </trkpt>
      <trkpt lat="47.2841" lon="-2.33999">
        <ele>54.799999237061</ele>
        <time>2019-07-11T08:05:33.000Z</time>
      </trkpt>
      <trkpt lat="47.28414" lon="-2.34024">
        <ele>54.799999237061</ele>
        <time>2019-07-11T08:05:39.000Z</time>
      </trkpt>
      <trkpt lat="47.28421" lon="-2.34051">
        <ele>54.799999237061</ele>
        <time>2019-07-11T08:05:45.000Z</time>
      </trkpt>
      <trkpt lat="47.28428" lon="-2.3408">
        <ele>54.799999237061</ele>
        <time>2019-07-11T08:05:51.000Z</time>
      </trkpt>
      <trkpt lat="47.28437" lon="-2.3412">
        <ele>54.799999237061</ele>
        <time>2019-07-11T08:05:59.000Z</time>
      </trkpt>
      <trkpt lat="47.28442" lon="-2.34147">
        <ele>54.799999237061</ele>
        <time>2019-07-11T08:06:05.000Z</time>
      </trkpt>
      <trkpt lat="47.28448" lon="-2.34176">
        <ele>54.799999237061</ele>
        <time>2019-07-11T08:06:12.000Z</time>
      </trkpt>
      <trkpt lat="47.28445" lon="-2.34187">
        <ele>54.799999237061</ele>
        <time>2019-07-11T08:06:15.000Z</time>
      </trkpt>
      <trkpt lat="47.28446" lon="-2.34191">
        <ele>54.799999237061</ele>
        <time>2019-07-11T08:06:16.000Z</time>
      </trkpt>
      <trkpt lat="47.28452" lon="-2.34195">
        <ele>54.799999237061</ele>
        <time>2019-07-11T08:06:19.000Z</time>
      </trkpt>
      <trkpt lat="47.28468" lon="-2.342">
        <ele>54.799999237061</ele>
        <time>2019-07-11T08:06:25.000Z</time>
      </trkpt>
      <trkpt lat="47.2849" lon="-2.34207">
        <ele>54.799999237061</ele>
        <time>2019-07-11T08:06:32.000Z</time>
      </trkpt>
      <trkpt lat="47.28516" lon="-2.34214">
        <ele>54.799999237061</ele>
        <time>2019-07-11T08:06:39.000Z</time>
      </trkpt>
      <trkpt lat="47.28539" lon="-2.34219">
        <ele>55.200000762939</ele>
        <time>2019-07-11T08:06:46.000Z</time>
      </trkpt>
      <trkpt lat="47.28541" lon="-2.34217">
        <ele>55.799999237061</ele>
        <time>2019-07-11T08:06:47.000Z</time>
      </trkpt>
      <trkpt lat="47.28544" lon="-2.34214">
        <ele>56.200000762939</ele>
        <time>2019-07-11T08:06:48.000Z</time>
      </trkpt>
      <trkpt lat="47.28545" lon="-2.3421">
        <ele>56.599998474121</ele>
        <time>2019-07-11T08:06:49.000Z</time>
      </trkpt>
      <trkpt lat="47.28546" lon="-2.34206">
        <ele>57</ele>
        <time>2019-07-11T08:06:50.000Z</time>
      </trkpt>
      <trkpt lat="47.28545" lon="-2.34197">
        <ele>57</ele>
        <time>2019-07-11T08:06:52.000Z</time>
      </trkpt>
      <trkpt lat="47.28544" lon="-2.34191">
        <ele>57</ele>
        <time>2019-07-11T08:06:53.000Z</time>
      </trkpt>
      <trkpt lat="47.28542" lon="-2.3418">
        <ele>57</ele>
        <time>2019-07-11T08:06:55.000Z</time>
      </trkpt>
      <trkpt lat="47.28538" lon="-2.34161">
        <ele>57</ele>
        <time>2019-07-11T08:06:58.000Z</time>
      </trkpt>
      <trkpt lat="47.2853" lon="-2.34128">
        <ele>57</ele>
        <time>2019-07-11T08:07:03.000Z</time>
      </trkpt>
      <trkpt lat="47.28529" lon="-2.3412">
        <ele>57</ele>
        <time>2019-07-11T08:07:04.000Z</time>
      </trkpt>
      <trkpt lat="47.28529" lon="-2.34104">
        <ele>57</ele>
        <time>2019-07-11T08:07:06.000Z</time>
      </trkpt>
      <trkpt lat="47.28528" lon="-2.34091">
        <ele>57</ele>
        <time>2019-07-11T08:07:08.000Z</time>
      </trkpt>
      <trkpt lat="47.28532" lon="-2.34061">
        <ele>57</ele>
        <time>2019-07-11T08:07:12.000Z</time>
      </trkpt>
      <trkpt lat="47.2854" lon="-2.34043">
        <ele>57</ele>
        <time>2019-07-11T08:07:15.000Z</time>
      </trkpt>
      <trkpt lat="47.28545" lon="-2.34033">
        <ele>57</ele>
        <time>2019-07-11T08:07:17.000Z</time>
      </trkpt>
      <trkpt lat="47.28553" lon="-2.34024">
        <ele>57</ele>
        <time>2019-07-11T08:07:21.000Z</time>
      </trkpt>
      <trkpt lat="47.28568" lon="-2.34015">
        <ele>57.400001525879</ele>
        <time>2019-07-11T08:07:26.000Z</time>
      </trkpt>
      <trkpt lat="47.28572" lon="-2.34013">
        <ele>57.799999237061</ele>
        <time>2019-07-11T08:07:27.000Z</time>
      </trkpt>
      <trkpt lat="47.28576" lon="-2.3401">
        <ele>58.200000762939</ele>
        <time>2019-07-11T08:07:28.000Z</time>
      </trkpt>
      <trkpt lat="47.2858" lon="-2.34009">
        <ele>58.599998474121</ele>
        <time>2019-07-11T08:07:29.000Z</time>
      </trkpt>
      <trkpt lat="47.28584" lon="-2.34007">
        <ele>59</ele>
        <time>2019-07-11T08:07:30.000Z</time>
      </trkpt>
      <trkpt lat="47.286" lon="-2.34003">
        <ele>59</ele>
        <time>2019-07-11T08:07:34.000Z</time>
      </trkpt>
      <trkpt lat="47.28605" lon="-2.34">
        <ele>59</ele>
        <time>2019-07-11T08:07:36.000Z</time>
      </trkpt>
      <trkpt lat="47.28607" lon="-2.33997">
        <ele>59</ele>
        <time>2019-07-11T08:07:37.000Z</time>
      </trkpt>
      <trkpt lat="47.28606" lon="-2.33975">
        <ele>59</ele>
        <time>2019-07-11T08:07:41.000Z</time>
      </trkpt>
      <trkpt lat="47.28605" lon="-2.33968">
        <ele>59</ele>
        <time>2019-07-11T08:07:42.000Z</time>
      </trkpt>
      <trkpt lat="47.28596" lon="-2.33927">
        <ele>59</ele>
        <time>2019-07-11T08:07:48.000Z</time>
      </trkpt>
      <trkpt lat="47.28588" lon="-2.33887">
        <ele>59</ele>
        <time>2019-07-11T08:07:53.000Z</time>
      </trkpt>
      <trkpt lat="47.28576" lon="-2.33831">
        <ele>59</ele>
        <time>2019-07-11T08:08:00.000Z</time>
      </trkpt>
      <trkpt lat="47.28574" lon="-2.33823">
        <ele>59</ele>
        <time>2019-07-11T08:08:01.000Z</time>
      </trkpt>
      <trkpt lat="47.28574" lon="-2.33787">
        <ele>59</ele>
        <time>2019-07-11T08:08:05.000Z</time>
      </trkpt>
      <trkpt lat="47.28575" lon="-2.33778">
        <ele>59</ele>
        <time>2019-07-11T08:08:06.000Z</time>
      </trkpt>
      <trkpt lat="47.28583" lon="-2.33754">
        <ele>59</ele>
        <time>2019-07-11T08:08:09.000Z</time>
      </trkpt>
      <trkpt lat="47.28601" lon="-2.3373">
        <ele>59</ele>
        <time>2019-07-11T08:08:13.000Z</time>
      </trkpt>
      <trkpt lat="47.28616" lon="-2.33722">
        <ele>59</ele>
        <time>2019-07-11T08:08:16.000Z</time>
      </trkpt>
      <trkpt lat="47.28632" lon="-2.33717">
        <ele>59</ele>
        <time>2019-07-11T08:08:19.000Z</time>
      </trkpt>
      <trkpt lat="47.28669" lon="-2.337">
        <ele>59</ele>
        <time>2019-07-11T08:08:26.000Z</time>
      </trkpt>
      <trkpt lat="47.28674" lon="-2.33699">
        <ele>59</ele>
        <time>2019-07-11T08:08:27.000Z</time>
      </trkpt>
      <trkpt lat="47.287" lon="-2.33694">
        <ele>59</ele>
        <time>2019-07-11T08:08:32.000Z</time>
      </trkpt>
      <trkpt lat="47.28706" lon="-2.33695">
        <ele>59</ele>
        <time>2019-07-11T08:08:33.000Z</time>
      </trkpt>
      <trkpt lat="47.28721" lon="-2.337">
        <ele>59</ele>
        <time>2019-07-11T08:08:36.000Z</time>
      </trkpt>
      <trkpt lat="47.28727" lon="-2.33703">
        <ele>59</ele>
        <time>2019-07-11T08:08:37.000Z</time>
      </trkpt>
      <trkpt lat="47.2874" lon="-2.33717">
        <ele>59</ele>
        <time>2019-07-11T08:08:40.000Z</time>
      </trkpt>
      <trkpt lat="47.28752" lon="-2.33741">
        <ele>59</ele>
        <time>2019-07-11T08:08:44.000Z</time>
      </trkpt>
      <trkpt lat="47.28754" lon="-2.33747">
        <ele>59</ele>
        <time>2019-07-11T08:08:45.000Z</time>
      </trkpt>
      <trkpt lat="47.28759" lon="-2.33754">
        <ele>59</ele>
        <time>2019-07-11T08:08:47.000Z</time>
      </trkpt>
      <trkpt lat="47.28762" lon="-2.33755">
        <ele>59</ele>
        <time>2019-07-11T08:08:48.000Z</time>
      </trkpt>
      <trkpt lat="47.28765" lon="-2.33745">
        <ele>59</ele>
        <time>2019-07-11T08:08:51.000Z</time>
      </trkpt>
      <trkpt lat="47.28765" lon="-2.3374">
        <ele>59</ele>
        <time>2019-07-11T08:08:52.000Z</time>
      </trkpt>
      <trkpt lat="47.28764" lon="-2.3372">
        <ele>59</ele>
        <time>2019-07-11T08:08:55.000Z</time>
      </trkpt>
      <trkpt lat="47.2876" lon="-2.33669">
        <ele>59</ele>
        <time>2019-07-11T08:09:01.000Z</time>
      </trkpt>
      <trkpt lat="47.28754" lon="-2.33609">
        <ele>59</ele>
        <time>2019-07-11T08:09:07.000Z</time>
      </trkpt>
      <trkpt lat="47.2874" lon="-2.33549">
        <ele>59</ele>
        <time>2019-07-11T08:09:13.000Z</time>
      </trkpt>
      <trkpt lat="47.28725" lon="-2.33508">
        <ele>59</ele>
        <time>2019-07-11T08:09:18.000Z</time>
      </trkpt>
      <trkpt lat="47.28729" lon="-2.3349">
        <ele>59</ele>
        <time>2019-07-11T08:09:21.000Z</time>
      </trkpt>
      <trkpt lat="47.28745" lon="-2.33485">
        <ele>58.599998474121</ele>
        <time>2019-07-11T08:09:24.000Z</time>
      </trkpt>
      <trkpt lat="47.28751" lon="-2.33484">
        <ele>58.200000762939</ele>
        <time>2019-07-11T08:09:25.000Z</time>
      </trkpt>
      <trkpt lat="47.28757" lon="-2.33483">
        <ele>57.400001525879</ele>
        <time>2019-07-11T08:09:26.000Z</time>
      </trkpt>
      <trkpt lat="47.28763" lon="-2.33482">
        <ele>57</ele>
        <time>2019-07-11T08:09:27.000Z</time>
      </trkpt>
      <trkpt lat="47.2879" lon="-2.33478">
        <ele>57</ele>
        <time>2019-07-11T08:09:31.000Z</time>
      </trkpt>
      <trkpt lat="47.2884" lon="-2.3347">
        <ele>57</ele>
        <time>2019-07-11T08:09:38.000Z</time>
      </trkpt>
      <trkpt lat="47.28853" lon="-2.33468">
        <ele>57.400001525879</ele>
        <time>2019-07-11T08:09:40.000Z</time>
      </trkpt>
      <trkpt lat="47.2886" lon="-2.33466">
        <ele>57.799999237061</ele>
        <time>2019-07-11T08:09:41.000Z</time>
      </trkpt>
      <trkpt lat="47.28866" lon="-2.33464">
        <ele>58.200000762939</ele>
        <time>2019-07-11T08:09:42.000Z</time>
      </trkpt>
      <trkpt lat="47.28872" lon="-2.33459">
        <ele>58.599998474121</ele>
        <time>2019-07-11T08:09:43.000Z</time>
      </trkpt>
      <trkpt lat="47.28878" lon="-2.33455">
        <ele>59</ele>
        <time>2019-07-11T08:09:44.000Z</time>
      </trkpt>
      <trkpt lat="47.28884" lon="-2.3345">
        <ele>59</ele>
        <time>2019-07-11T08:09:45.000Z</time>
      </trkpt>
      <trkpt lat="47.28894" lon="-2.33436">
        <ele>59</ele>
        <time>2019-07-11T08:09:47.000Z</time>
      </trkpt>
      <trkpt lat="47.28902" lon="-2.33419">
        <ele>59</ele>
        <time>2019-07-11T08:09:49.000Z</time>
      </trkpt>
      <trkpt lat="47.28906" lon="-2.33409">
        <ele>59</ele>
        <time>2019-07-11T08:09:50.000Z</time>
      </trkpt>
      <trkpt lat="47.28912" lon="-2.3339">
        <ele>59</ele>
        <time>2019-07-11T08:09:52.000Z</time>
      </trkpt>
      <trkpt lat="47.28916" lon="-2.33371">
        <ele>59</ele>
        <time>2019-07-11T08:09:54.000Z</time>
      </trkpt>
      <trkpt lat="47.28924" lon="-2.33334">
        <ele>59</ele>
        <time>2019-07-11T08:09:58.000Z</time>
      </trkpt>
      <trkpt lat="47.28929" lon="-2.33318">
        <ele>59</ele>
        <time>2019-07-11T08:10:00.000Z</time>
      </trkpt>
      <trkpt lat="47.28935" lon="-2.33305">
        <ele>59</ele>
        <time>2019-07-11T08:10:02.000Z</time>
      </trkpt>
      <trkpt lat="47.28954" lon="-2.33262">
        <ele>59</ele>
        <time>2019-07-11T08:10:08.000Z</time>
      </trkpt>
      <trkpt lat="47.28971" lon="-2.33222">
        <ele>59</ele>
        <time>2019-07-11T08:10:13.000Z</time>
      </trkpt>
      <trkpt lat="47.28975" lon="-2.33216">
        <ele>59</ele>
        <time>2019-07-11T08:10:14.000Z</time>
      </trkpt>
      <trkpt lat="47.29001" lon="-2.3319">
        <ele>59</ele>
        <time>2019-07-11T08:10:19.000Z</time>
      </trkpt>
      <trkpt lat="47.29012" lon="-2.33181">
        <ele>59</ele>
        <time>2019-07-11T08:10:21.000Z</time>
      </trkpt>
      <trkpt lat="47.29032" lon="-2.3317">
        <ele>59</ele>
        <time>2019-07-11T08:10:24.000Z</time>
      </trkpt>
      <trkpt lat="47.29038" lon="-2.33165">
        <ele>58.599998474121</ele>
        <time>2019-07-11T08:10:25.000Z</time>
      </trkpt>
      <trkpt lat="47.29044" lon="-2.33159">
        <ele>58.200000762939</ele>
        <time>2019-07-11T08:10:26.000Z</time>
      </trkpt>
      <trkpt lat="47.2905" lon="-2.33153">
        <ele>57.799999237061</ele>
        <time>2019-07-11T08:10:27.000Z</time>
      </trkpt>
      <trkpt lat="47.29056" lon="-2.33148">
        <ele>57.400001525879</ele>
        <time>2019-07-11T08:10:28.000Z</time>
      </trkpt>
      <trkpt lat="47.29062" lon="-2.33141">
        <ele>56.799999237061</ele>
        <time>2019-07-11T08:10:29.000Z</time>
      </trkpt>
      <trkpt lat="47.29074" lon="-2.3313">
        <ele>56.799999237061</ele>
        <time>2019-07-11T08:10:31.000Z</time>
      </trkpt>
      <trkpt lat="47.29108" lon="-2.3309">
        <ele>56.799999237061</ele>
        <time>2019-07-11T08:10:37.000Z</time>
      </trkpt>
      <trkpt lat="47.29147" lon="-2.33033">
        <ele>56.799999237061</ele>
        <time>2019-07-11T08:10:45.000Z</time>
      </trkpt>
      <trkpt lat="47.29151" lon="-2.33027">
        <ele>56.799999237061</ele>
        <time>2019-07-11T08:10:46.000Z</time>
      </trkpt>
      <trkpt lat="47.29168" lon="-2.33002">
        <ele>56.799999237061</ele>
        <time>2019-07-11T08:10:51.000Z</time>
      </trkpt>
      <trkpt lat="47.29175" lon="-2.33002">
        <ele>56.799999237061</ele>
        <time>2019-07-11T08:10:53.000Z</time>
      </trkpt>
      <trkpt lat="47.29187" lon="-2.33021">
        <ele>56.799999237061</ele>
        <time>2019-07-11T08:10:57.000Z</time>
      </trkpt>
      <trkpt lat="47.29204" lon="-2.33054">
        <ele>56.799999237061</ele>
        <time>2019-07-11T08:11:02.000Z</time>
      </trkpt>
      <trkpt lat="47.29231" lon="-2.33103">
        <ele>56.799999237061</ele>
        <time>2019-07-11T08:11:10.000Z</time>
      </trkpt>
      <trkpt lat="47.29258" lon="-2.3316">
        <ele>56.799999237061</ele>
        <time>2019-07-11T08:11:19.000Z</time>
      </trkpt>
      <trkpt lat="47.29279" lon="-2.33196">
        <ele>56.799999237061</ele>
        <time>2019-07-11T08:11:26.000Z</time>
      </trkpt>
      <trkpt lat="47.29283" lon="-2.33195">
        <ele>56.799999237061</ele>
        <time>2019-07-11T08:11:27.000Z</time>
      </trkpt>
      <trkpt lat="47.29288" lon="-2.3319">
        <ele>56.799999237061</ele>
        <time>2019-07-11T08:11:28.000Z</time>
      </trkpt>
      <trkpt lat="47.293" lon="-2.33173">
        <ele>56.799999237061</ele>
        <time>2019-07-11T08:11:31.000Z</time>
      </trkpt>
      <trkpt lat="47.29313" lon="-2.33159">
        <ele>56.799999237061</ele>
        <time>2019-07-11T08:11:34.000Z</time>
      </trkpt>
      <trkpt lat="47.29317" lon="-2.33155">
        <ele>56.799999237061</ele>
        <time>2019-07-11T08:11:35.000Z</time>
      </trkpt>
      <trkpt lat="47.29345" lon="-2.33133">
        <ele>56.799999237061</ele>
        <time>2019-07-11T08:11:41.000Z</time>
      </trkpt>
      <trkpt lat="47.29362" lon="-2.33123">
        <ele>57.200000762939</ele>
        <time>2019-07-11T08:11:45.000Z</time>
      </trkpt>
      <trkpt lat="47.29366" lon="-2.33123">
        <ele>57.799999237061</ele>
        <time>2019-07-11T08:11:46.000Z</time>
      </trkpt>
      <trkpt lat="47.2937" lon="-2.33123">
        <ele>58.200000762939</ele>
        <time>2019-07-11T08:11:47.000Z</time>
      </trkpt>
      <trkpt lat="47.29374" lon="-2.33124">
        <ele>58.599998474121</ele>
        <time>2019-07-11T08:11:48.000Z</time>
      </trkpt>
      <trkpt lat="47.29378" lon="-2.33127">
        <ele>59</ele>
        <time>2019-07-11T08:11:49.000Z</time>
      </trkpt>
      <trkpt lat="47.29381" lon="-2.33131">
        <ele>59</ele>
        <time>2019-07-11T08:11:50.000Z</time>
      </trkpt>
      <trkpt lat="47.29389" lon="-2.33141">
        <ele>59</ele>
        <time>2019-07-11T08:11:52.000Z</time>
      </trkpt>
      <trkpt lat="47.29399" lon="-2.33159">
        <ele>59</ele>
        <time>2019-07-11T08:11:55.000Z</time>
      </trkpt>
      <trkpt lat="47.29415" lon="-2.332">
        <ele>59</ele>
        <time>2019-07-11T08:12:01.000Z</time>
      </trkpt>
      <trkpt lat="47.29424" lon="-2.33248">
        <ele>59</ele>
        <time>2019-07-11T08:12:07.000Z</time>
      </trkpt>
      <trkpt lat="47.29433" lon="-2.33307">
        <ele>59</ele>
        <time>2019-07-11T08:12:14.000Z</time>
      </trkpt>
      <trkpt lat="47.29433" lon="-2.33314">
        <ele>59</ele>
        <time>2019-07-11T08:12:15.000Z</time>
      </trkpt>
      <trkpt lat="47.29433" lon="-2.33345">
        <ele>59</ele>
        <time>2019-07-11T08:12:19.000Z</time>
      </trkpt>
      <trkpt lat="47.29434" lon="-2.33381">
        <ele>59</ele>
        <time>2019-07-11T08:12:23.000Z</time>
      </trkpt>
      <trkpt lat="47.29438" lon="-2.33398">
        <ele>59</ele>
        <time>2019-07-11T08:12:25.000Z</time>
      </trkpt>
      <trkpt lat="47.29447" lon="-2.33421">
        <ele>59</ele>
        <time>2019-07-11T08:12:28.000Z</time>
      </trkpt>
      <trkpt lat="47.29457" lon="-2.33441">
        <ele>59</ele>
        <time>2019-07-11T08:12:31.000Z</time>
      </trkpt>
      <trkpt lat="47.29476" lon="-2.33484">
        <ele>59</ele>
        <time>2019-07-11T08:12:37.000Z</time>
      </trkpt>
      <trkpt lat="47.29483" lon="-2.33499">
        <ele>59</ele>
        <time>2019-07-11T08:12:39.000Z</time>
      </trkpt>
      <trkpt lat="47.29502" lon="-2.33538">
        <ele>59</ele>
        <time>2019-07-11T08:12:44.000Z</time>
      </trkpt>
      <trkpt lat="47.29523" lon="-2.33591">
        <ele>59</ele>
        <time>2019-07-11T08:12:50.000Z</time>
      </trkpt>
      <trkpt lat="47.29544" lon="-2.3367">
        <ele>59</ele>
        <time>2019-07-11T08:12:58.000Z</time>
      </trkpt>
      <trkpt lat="47.29547" lon="-2.3368">
        <ele>59</ele>
        <time>2019-07-11T08:12:59.000Z</time>
      </trkpt>
      <trkpt lat="47.2955" lon="-2.33689">
        <ele>59</ele>
        <time>2019-07-11T08:13:00.000Z</time>
      </trkpt>
      <trkpt lat="47.29555" lon="-2.33698">
        <ele>58.400001525879</ele>
        <time>2019-07-11T08:13:01.000Z</time>
      </trkpt>
      <trkpt lat="47.29559" lon="-2.33705">
        <ele>58</ele>
        <time>2019-07-11T08:13:02.000Z</time>
      </trkpt>
      <trkpt lat="47.29564" lon="-2.33712">
        <ele>57.599998474121</ele>
        <time>2019-07-11T08:13:03.000Z</time>
      </trkpt>
      <trkpt lat="47.29568" lon="-2.33719">
        <ele>57.200000762939</ele>
        <time>2019-07-11T08:13:04.000Z</time>
      </trkpt>
      <trkpt lat="47.29573" lon="-2.33725">
        <ele>56.599998474121</ele>
        <time>2019-07-11T08:13:05.000Z</time>
      </trkpt>
      <trkpt lat="47.29597" lon="-2.33755">
        <ele>56.599998474121</ele>
        <time>2019-07-11T08:13:10.000Z</time>
      </trkpt>
      <trkpt lat="47.29618" lon="-2.33795">
        <ele>56.599998474121</ele>
        <time>2019-07-11T08:13:16.000Z</time>
      </trkpt>
      <trkpt lat="47.29641" lon="-2.3384">
        <ele>56.599998474121</ele>
        <time>2019-07-11T08:13:23.000Z</time>
      </trkpt>
      <trkpt lat="47.29644" lon="-2.33846">
        <ele>56.599998474121</ele>
        <time>2019-07-11T08:13:24.000Z</time>
      </trkpt>
      <trkpt lat="47.29653" lon="-2.33851">
        <ele>56.599998474121</ele>
        <time>2019-07-11T08:13:26.000Z</time>
      </trkpt>
      <trkpt lat="47.29662" lon="-2.33846">
        <ele>57</ele>
        <time>2019-07-11T08:13:28.000Z</time>
      </trkpt>
      <trkpt lat="47.29666" lon="-2.33841">
        <ele>57.599998474121</ele>
        <time>2019-07-11T08:13:29.000Z</time>
      </trkpt>
      <trkpt lat="47.29669" lon="-2.33836">
        <ele>58</ele>
        <time>2019-07-11T08:13:30.000Z</time>
      </trkpt>
      <trkpt lat="47.29674" lon="-2.33831">
        <ele>58.400001525879</ele>
        <time>2019-07-11T08:13:31.000Z</time>
      </trkpt>
      <trkpt lat="47.29678" lon="-2.33826">
        <ele>58.799999237061</ele>
        <time>2019-07-11T08:13:32.000Z</time>
      </trkpt>
      <trkpt lat="47.29697" lon="-2.33805">
        <ele>58.799999237061</ele>
        <time>2019-07-11T08:13:37.000Z</time>
      </trkpt>
      <trkpt lat="47.29707" lon="-2.33794">
        <ele>58.799999237061</ele>
        <time>2019-07-11T08:13:41.000Z</time>
      </trkpt>
      <trkpt lat="47.29711" lon="-2.33787">
        <ele>59.200000762939</ele>
        <time>2019-07-11T08:13:44.000Z</time>
      </trkpt>
      <trkpt lat="47.29713" lon="-2.33783">
        <ele>59.599998474121</ele>
        <time>2019-07-11T08:13:45.000Z</time>
      </trkpt>
      <trkpt lat="47.29714" lon="-2.33781">
        <ele>60</ele>
        <time>2019-07-11T08:13:46.000Z</time>
      </trkpt>
      <trkpt lat="47.29716" lon="-2.33778">
        <ele>60.400001525879</ele>
        <time>2019-07-11T08:13:47.000Z</time>
      </trkpt>
      <trkpt lat="47.29717" lon="-2.33775">
        <ele>60.799999237061</ele>
        <time>2019-07-11T08:13:48.000Z</time>
      </trkpt>
      <trkpt lat="47.2972" lon="-2.3376">
        <ele>60.799999237061</ele>
        <time>2019-07-11T08:13:54.000Z</time>
      </trkpt>
      <trkpt lat="47.29722" lon="-2.33754">
        <ele>60.799999237061</ele>
        <time>2019-07-11T08:14:00.000Z</time>
      </trkpt>
      <trkpt lat="47.29723" lon="-2.33751">
        <ele>60.799999237061</ele>
        <time>2019-07-11T08:14:02.000Z</time>
      </trkpt>
      <trkpt lat="47.29728" lon="-2.3374">
        <ele>60.799999237061</ele>
        <time>2019-07-11T08:14:06.000Z</time>
      </trkpt>
      <trkpt lat="47.29735" lon="-2.33728">
        <ele>60.799999237061</ele>
        <time>2019-07-11T08:14:09.000Z</time>
      </trkpt>
      <trkpt lat="47.2974" lon="-2.33719">
        <ele>60.799999237061</ele>
        <time>2019-07-11T08:14:11.000Z</time>
      </trkpt>
      <trkpt lat="47.29761" lon="-2.33682">
        <ele>60.799999237061</ele>
        <time>2019-07-11T08:14:19.000Z</time>
      </trkpt>
      <trkpt lat="47.29788" lon="-2.33638">
        <ele>60.799999237061</ele>
        <time>2019-07-11T08:14:28.000Z</time>
      </trkpt>
      <trkpt lat="47.29802" lon="-2.33615">
        <ele>60.799999237061</ele>
        <time>2019-07-11T08:14:32.000Z</time>
      </trkpt>
      <trkpt lat="47.29809" lon="-2.33603">
        <ele>60.799999237061</ele>
        <time>2019-07-11T08:14:34.000Z</time>
      </trkpt>
      <trkpt lat="47.29838" lon="-2.33552">
        <ele>60.799999237061</ele>
        <time>2019-07-11T08:14:42.000Z</time>
      </trkpt>
      <trkpt lat="47.29858" lon="-2.3352">
        <ele>60.799999237061</ele>
        <time>2019-07-11T08:14:47.000Z</time>
      </trkpt>
      <trkpt lat="47.29865" lon="-2.33507">
        <ele>60.400001525879</ele>
        <time>2019-07-11T08:14:49.000Z</time>
      </trkpt>
      <trkpt lat="47.29869" lon="-2.33501">
        <ele>59.799999237061</ele>
        <time>2019-07-11T08:14:50.000Z</time>
      </trkpt>
      <trkpt lat="47.29873" lon="-2.33494">
        <ele>59.400001525879</ele>
        <time>2019-07-11T08:14:51.000Z</time>
      </trkpt>
      <trkpt lat="47.29877" lon="-2.33488">
        <ele>59</ele>
        <time>2019-07-11T08:14:52.000Z</time>
      </trkpt>
      <trkpt lat="47.29882" lon="-2.33481">
        <ele>58.599998474121</ele>
        <time>2019-07-11T08:14:53.000Z</time>
      </trkpt>
      <trkpt lat="47.29887" lon="-2.33474">
        <ele>58.599998474121</ele>
        <time>2019-07-11T08:14:54.000Z</time>
      </trkpt>
      <trkpt lat="47.29905" lon="-2.33453">
        <ele>58.599998474121</ele>
        <time>2019-07-11T08:14:58.000Z</time>
      </trkpt>
      <trkpt lat="47.29914" lon="-2.33445">
        <ele>58.599998474121</ele>
        <time>2019-07-11T08:15:00.000Z</time>
      </trkpt>
      <trkpt lat="47.29929" lon="-2.33449">
        <ele>58.599998474121</ele>
        <time>2019-07-11T08:15:03.000Z</time>
      </trkpt>
      <trkpt lat="47.29936" lon="-2.33457">
        <ele>58.599998474121</ele>
        <time>2019-07-11T08:15:05.000Z</time>
      </trkpt>
      <trkpt lat="47.29947" lon="-2.3347">
        <ele>58.599998474121</ele>
        <time>2019-07-11T08:15:08.000Z</time>
      </trkpt>
      <trkpt lat="47.29968" lon="-2.33495">
        <ele>58.599998474121</ele>
        <time>2019-07-11T08:15:13.000Z</time>
      </trkpt>
      <trkpt lat="47.29999" lon="-2.33521">
        <ele>58.599998474121</ele>
        <time>2019-07-11T08:15:20.000Z</time>
      </trkpt>
      <trkpt lat="47.30006" lon="-2.3353">
        <ele>58.599998474121</ele>
        <time>2019-07-11T08:15:22.000Z</time>
      </trkpt>
      <trkpt lat="47.3001" lon="-2.33541">
        <ele>58.599998474121</ele>
        <time>2019-07-11T08:15:24.000Z</time>
      </trkpt>
      <trkpt lat="47.30009" lon="-2.33559">
        <ele>58.599998474121</ele>
        <time>2019-07-11T08:15:27.000Z</time>
      </trkpt>
      <trkpt lat="47.30005" lon="-2.33583">
        <ele>58.599998474121</ele>
        <time>2019-07-11T08:15:32.000Z</time>
      </trkpt>
      <trkpt lat="47.3" lon="-2.33601">
        <ele>58.599998474121</ele>
        <time>2019-07-11T08:15:38.000Z</time>
      </trkpt>
      <trkpt lat="47.30004" lon="-2.33615">
        <ele>58.599998474121</ele>
        <time>2019-07-11T08:15:42.000Z</time>
      </trkpt>
      <trkpt lat="47.30004" lon="-2.33621">
        <ele>58.599998474121</ele>
        <time>2019-07-11T08:15:43.000Z</time>
      </trkpt>
      <trkpt lat="47.30006" lon="-2.33656">
        <ele>58.599998474121</ele>
        <time>2019-07-11T08:15:48.000Z</time>
      </trkpt>
      <trkpt lat="47.30005" lon="-2.33717">
        <ele>59</ele>
        <time>2019-07-11T08:15:55.000Z</time>
      </trkpt>
      <trkpt lat="47.30004" lon="-2.33725">
        <ele>59.400001525879</ele>
        <time>2019-07-11T08:15:56.000Z</time>
      </trkpt>
      <trkpt lat="47.30003" lon="-2.33733">
        <ele>60</ele>
        <time>2019-07-11T08:15:57.000Z</time>
      </trkpt>
      <trkpt lat="47.30002" lon="-2.33741">
        <ele>60.400001525879</ele>
        <time>2019-07-11T08:15:58.000Z</time>
      </trkpt>
      <trkpt lat="47.30001" lon="-2.33749">
        <ele>60.799999237061</ele>
        <time>2019-07-11T08:15:59.000Z</time>
      </trkpt>
      <trkpt lat="47.3" lon="-2.33772">
        <ele>60.799999237061</ele>
        <time>2019-07-11T08:16:02.000Z</time>
      </trkpt>
      <trkpt lat="47.3" lon="-2.33779">
        <ele>60.799999237061</ele>
        <time>2019-07-11T08:16:03.000Z</time>
      </trkpt>
      <trkpt lat="47.30001" lon="-2.33792">
        <ele>60.799999237061</ele>
        <time>2019-07-11T08:16:05.000Z</time>
      </trkpt>
      <trkpt lat="47.30002" lon="-2.33799">
        <ele>60.799999237061</ele>
        <time>2019-07-11T08:16:06.000Z</time>
      </trkpt>
      <trkpt lat="47.30009" lon="-2.3382">
        <ele>61.200000762939</ele>
        <time>2019-07-11T08:16:09.000Z</time>
      </trkpt>
      <trkpt lat="47.30012" lon="-2.33827">
        <ele>61.599998474121</ele>
        <time>2019-07-11T08:16:10.000Z</time>
      </trkpt>
      <trkpt lat="47.30016" lon="-2.33833">
        <ele>62</ele>
        <time>2019-07-11T08:16:11.000Z</time>
      </trkpt>
      <trkpt lat="47.30019" lon="-2.3384">
        <ele>62.400001525879</ele>
        <time>2019-07-11T08:16:12.000Z</time>
      </trkpt>
      <trkpt lat="47.30024" lon="-2.33847">
        <ele>63</ele>
        <time>2019-07-11T08:16:13.000Z</time>
      </trkpt>
      <trkpt lat="47.30035" lon="-2.33868">
        <ele>63</ele>
        <time>2019-07-11T08:16:16.000Z</time>
      </trkpt>
      <trkpt lat="47.3004" lon="-2.33884">
        <ele>63</ele>
        <time>2019-07-11T08:16:18.000Z</time>
      </trkpt>
      <trkpt lat="47.30046" lon="-2.33899">
        <ele>63</ele>
        <time>2019-07-11T08:16:20.000Z</time>
      </trkpt>
      <trkpt lat="47.30066" lon="-2.33944">
        <ele>63</ele>
        <time>2019-07-11T08:16:26.000Z</time>
      </trkpt>
      <trkpt lat="47.30072" lon="-2.33958">
        <ele>63.400001525879</ele>
        <time>2019-07-11T08:16:28.000Z</time>
      </trkpt>
      <trkpt lat="47.30075" lon="-2.33965">
        <ele>63.799999237061</ele>
        <time>2019-07-11T08:16:29.000Z</time>
      </trkpt>
      <trkpt lat="47.30078" lon="-2.33972">
        <ele>64.199996948242</ele>
        <time>2019-07-11T08:16:30.000Z</time>
      </trkpt>
      <trkpt lat="47.3008" lon="-2.33978">
        <ele>64.599998474121</ele>
        <time>2019-07-11T08:16:31.000Z</time>
      </trkpt>
      <trkpt lat="47.30083" lon="-2.33984">
        <ele>65</ele>
        <time>2019-07-11T08:16:32.000Z</time>
      </trkpt>
      <trkpt lat="47.30097" lon="-2.34009">
        <ele>65</ele>
        <time>2019-07-11T08:16:37.000Z</time>
      </trkpt>
      <trkpt lat="47.30107" lon="-2.34005">
        <ele>65</ele>
        <time>2019-07-11T08:16:40.000Z</time>
      </trkpt>
      <trkpt lat="47.30113" lon="-2.33998">
        <ele>65</ele>
        <time>2019-07-11T08:16:42.000Z</time>
      </trkpt>
      <trkpt lat="47.3012" lon="-2.3399">
        <ele>65</ele>
        <time>2019-07-11T08:16:44.000Z</time>
      </trkpt>
      <trkpt lat="47.30124" lon="-2.33986">
        <ele>65</ele>
        <time>2019-07-11T08:16:45.000Z</time>
      </trkpt>
      <trkpt lat="47.30127" lon="-2.33983">
        <ele>65.400001525879</ele>
        <time>2019-07-11T08:16:46.000Z</time>
      </trkpt>
      <trkpt lat="47.30131" lon="-2.33979">
        <ele>65.800003051758</ele>
        <time>2019-07-11T08:16:47.000Z</time>
      </trkpt>
      <trkpt lat="47.30135" lon="-2.33975">
        <ele>66.199996948242</ele>
        <time>2019-07-11T08:16:48.000Z</time>
      </trkpt>
      <trkpt lat="47.30139" lon="-2.33972">
        <ele>66.599998474121</ele>
        <time>2019-07-11T08:16:49.000Z</time>
      </trkpt>
      <trkpt lat="47.30143" lon="-2.33968">
        <ele>67</ele>
        <time>2019-07-11T08:16:50.000Z</time>
      </trkpt>
      <trkpt lat="47.30152" lon="-2.33961">
        <ele>67</ele>
        <time>2019-07-11T08:16:52.000Z</time>
      </trkpt>
      <trkpt lat="47.30156" lon="-2.33958">
        <ele>67</ele>
        <time>2019-07-11T08:16:53.000Z</time>
      </trkpt>
      <trkpt lat="47.30169" lon="-2.33948">
        <ele>67</ele>
        <time>2019-07-11T08:16:56.000Z</time>
      </trkpt>
      <trkpt lat="47.30177" lon="-2.33939">
        <ele>67.599998474121</ele>
        <time>2019-07-11T08:16:58.000Z</time>
      </trkpt>
      <trkpt lat="47.30181" lon="-2.33935">
        <ele>68</ele>
        <time>2019-07-11T08:16:59.000Z</time>
      </trkpt>
      <trkpt lat="47.30185" lon="-2.3393">
        <ele>68.400001525879</ele>
        <time>2019-07-11T08:17:00.000Z</time>
      </trkpt>
      <trkpt lat="47.30189" lon="-2.33925">
        <ele>68.800003051758</ele>
        <time>2019-07-11T08:17:01.000Z</time>
      </trkpt>
      <trkpt lat="47.30194" lon="-2.33921">
        <ele>69.199996948242</ele>
        <time>2019-07-11T08:17:02.000Z</time>
      </trkpt>
      <trkpt lat="47.30202" lon="-2.33912">
        <ele>69.199996948242</ele>
        <time>2019-07-11T08:17:04.000Z</time>
      </trkpt>
      <trkpt lat="47.30224" lon="-2.33891">
        <ele>69.199996948242</ele>
        <time>2019-07-11T08:17:09.000Z</time>
      </trkpt>
      <trkpt lat="47.30232" lon="-2.33886">
        <ele>69.199996948242</ele>
        <time>2019-07-11T08:17:11.000Z</time>
      </trkpt>
      <trkpt lat="47.30241" lon="-2.3388">
        <ele>69.199996948242</ele>
        <time>2019-07-11T08:17:13.000Z</time>
      </trkpt>
      <trkpt lat="47.30252" lon="-2.33871">
        <ele>69.599998474121</ele>
        <time>2019-07-11T08:17:16.000Z</time>
      </trkpt>
      <trkpt lat="47.30256" lon="-2.33868">
        <ele>70.599998474121</ele>
        <time>2019-07-11T08:17:17.000Z</time>
      </trkpt>
      <trkpt lat="47.30261" lon="-2.33865">
        <ele>71</ele>
        <time>2019-07-11T08:17:18.000Z</time>
      </trkpt>
      <trkpt lat="47.30265" lon="-2.33861">
        <ele>71.400001525879</ele>
        <time>2019-07-11T08:17:19.000Z</time>
      </trkpt>
      <trkpt lat="47.30274" lon="-2.33854">
        <ele>71.400001525879</ele>
        <time>2019-07-11T08:17:21.000Z</time>
      </trkpt>
      <trkpt lat="47.30283" lon="-2.33847">
        <ele>71.400001525879</ele>
        <time>2019-07-11T08:17:23.000Z</time>
      </trkpt>
      <trkpt lat="47.30305" lon="-2.33832">
        <ele>71.400001525879</ele>
        <time>2019-07-11T08:17:27.000Z</time>
      </trkpt>
      <trkpt lat="47.3032" lon="-2.33821">
        <ele>71.400001525879</ele>
        <time>2019-07-11T08:17:30.000Z</time>
      </trkpt>
      <trkpt lat="47.30337" lon="-2.33801">
        <ele>71.400001525879</ele>
        <time>2019-07-11T08:17:34.000Z</time>
      </trkpt>
      <trkpt lat="47.30369" lon="-2.33763">
        <ele>71.400001525879</ele>
        <time>2019-07-11T08:17:41.000Z</time>
      </trkpt>
      <trkpt lat="47.30393" lon="-2.33729">
        <ele>71.400001525879</ele>
        <time>2019-07-11T08:17:47.000Z</time>
      </trkpt>
      <trkpt lat="47.30413" lon="-2.33697">
        <ele>71.400001525879</ele>
        <time>2019-07-11T08:17:53.000Z</time>
      </trkpt>
      <trkpt lat="47.30417" lon="-2.33693">
        <ele>71.400001525879</ele>
        <time>2019-07-11T08:17:54.000Z</time>
      </trkpt>
      <trkpt lat="47.30438" lon="-2.33684">
        <ele>71.400001525879</ele>
        <time>2019-07-11T08:17:58.000Z</time>
      </trkpt>
      <trkpt lat="47.30453" lon="-2.33676">
        <ele>71.400001525879</ele>
        <time>2019-07-11T08:18:01.000Z</time>
      </trkpt>
      <trkpt lat="47.30462" lon="-2.33671">
        <ele>71.400001525879</ele>
        <time>2019-07-11T08:18:03.000Z</time>
      </trkpt>
      <trkpt lat="47.30471" lon="-2.33667">
        <ele>71.400001525879</ele>
        <time>2019-07-11T08:18:05.000Z</time>
      </trkpt>
      <trkpt lat="47.30484" lon="-2.33659">
        <ele>71.400001525879</ele>
        <time>2019-07-11T08:18:08.000Z</time>
      </trkpt>
      <trkpt lat="47.30496" lon="-2.33655">
        <ele>71.400001525879</ele>
        <time>2019-07-11T08:18:12.000Z</time>
      </trkpt>
      <trkpt lat="47.305" lon="-2.33654">
        <ele>71.400001525879</ele>
        <time>2019-07-11T08:18:15.000Z</time>
      </trkpt>
      <trkpt lat="47.30503" lon="-2.33653">
        <ele>71.400001525879</ele>
        <time>2019-07-11T08:18:17.000Z</time>
      </trkpt>
      <trkpt lat="47.30505" lon="-2.33652">
        <ele>71.400001525879</ele>
        <time>2019-07-11T08:18:19.000Z</time>
      </trkpt>
      <trkpt lat="47.30511" lon="-2.3365">
        <ele>71.400001525879</ele>
        <time>2019-07-11T08:18:23.000Z</time>
      </trkpt>
      <trkpt lat="47.30512" lon="-2.33649">
        <ele>71.400001525879</ele>
        <time>2019-07-11T08:18:25.000Z</time>
      </trkpt>
      <trkpt lat="47.30514" lon="-2.33649">
        <ele>71.400001525879</ele>
        <time>2019-07-11T08:18:38.000Z</time>
      </trkpt>
      <trkpt lat="47.30515" lon="-2.33649">
        <ele>71.400001525879</ele>
        <time>2019-07-11T08:18:39.000Z</time>
      </trkpt>
      <trkpt lat="47.30528" lon="-2.33648">
        <ele>71.400001525879</ele>
        <time>2019-07-11T08:18:44.000Z</time>
      </trkpt>
      <trkpt lat="47.30546" lon="-2.3365">
        <ele>71.400001525879</ele>
        <time>2019-07-11T08:18:49.000Z</time>
      </trkpt>
      <trkpt lat="47.30553" lon="-2.33663">
        <ele>71.400001525879</ele>
        <time>2019-07-11T08:18:52.000Z</time>
      </trkpt>
      <trkpt lat="47.30555" lon="-2.33669">
        <ele>71.400001525879</ele>
        <time>2019-07-11T08:18:53.000Z</time>
      </trkpt>
      <trkpt lat="47.30563" lon="-2.337">
        <ele>71.400001525879</ele>
        <time>2019-07-11T08:18:58.000Z</time>
      </trkpt>
      <trkpt lat="47.30571" lon="-2.33739">
        <ele>71.400001525879</ele>
        <time>2019-07-11T08:19:04.000Z</time>
      </trkpt>
      <trkpt lat="47.30575" lon="-2.33757">
        <ele>71.800003051758</ele>
        <time>2019-07-11T08:19:07.000Z</time>
      </trkpt>
      <trkpt lat="47.30576" lon="-2.33763">
        <ele>72.199996948242</ele>
        <time>2019-07-11T08:19:08.000Z</time>
      </trkpt>
      <trkpt lat="47.30577" lon="-2.3377">
        <ele>72.599998474121</ele>
        <time>2019-07-11T08:19:09.000Z</time>
      </trkpt>
      <trkpt lat="47.30578" lon="-2.33776">
        <ele>73</ele>
        <time>2019-07-11T08:19:10.000Z</time>
      </trkpt>
      <trkpt lat="47.30579" lon="-2.33782">
        <ele>73.400001525879</ele>
        <time>2019-07-11T08:19:11.000Z</time>
      </trkpt>
      <trkpt lat="47.30582" lon="-2.33795">
        <ele>73.400001525879</ele>
        <time>2019-07-11T08:19:13.000Z</time>
      </trkpt>
      <trkpt lat="47.30585" lon="-2.33809">
        <ele>73.400001525879</ele>
        <time>2019-07-11T08:19:15.000Z</time>
      </trkpt>
      <trkpt lat="47.30592" lon="-2.33836">
        <ele>73.400001525879</ele>
        <time>2019-07-11T08:19:19.000Z</time>
      </trkpt>
      <trkpt lat="47.30597" lon="-2.33846">
        <ele>73.400001525879</ele>
        <time>2019-07-11T08:19:21.000Z</time>
      </trkpt>
      <trkpt lat="47.306" lon="-2.33854">
        <ele>73.400001525879</ele>
        <time>2019-07-11T08:19:23.000Z</time>
      </trkpt>
      <trkpt lat="47.306" lon="-2.3387">
        <ele>73.400001525879</ele>
        <time>2019-07-11T08:19:26.000Z</time>
      </trkpt>
      <trkpt lat="47.30599" lon="-2.33904">
        <ele>73.400001525879</ele>
        <time>2019-07-11T08:19:32.000Z</time>
      </trkpt>
      <trkpt lat="47.30605" lon="-2.3394">
        <ele>73.400001525879</ele>
        <time>2019-07-11T08:19:37.000Z</time>
      </trkpt>
      <trkpt lat="47.30608" lon="-2.33946">
        <ele>73.400001525879</ele>
        <time>2019-07-11T08:19:38.000Z</time>
      </trkpt>
      <trkpt lat="47.30619" lon="-2.33962">
        <ele>73.400001525879</ele>
        <time>2019-07-11T08:19:41.000Z</time>
      </trkpt>
      <trkpt lat="47.30641" lon="-2.33981">
        <ele>73.400001525879</ele>
        <time>2019-07-11T08:19:46.000Z</time>
      </trkpt>
      <trkpt lat="47.3065" lon="-2.3399">
        <ele>73.400001525879</ele>
        <time>2019-07-11T08:19:48.000Z</time>
      </trkpt>
      <trkpt lat="47.30665" lon="-2.33992">
        <ele>73.400001525879</ele>
        <time>2019-07-11T08:19:51.000Z</time>
      </trkpt>
      <trkpt lat="47.30694" lon="-2.3399">
        <ele>73.400001525879</ele>
        <time>2019-07-11T08:19:57.000Z</time>
      </trkpt>
      <trkpt lat="47.30701" lon="-2.33989">
        <ele>73.400001525879</ele>
        <time>2019-07-11T08:19:58.000Z</time>
      </trkpt>
      <trkpt lat="47.30724" lon="-2.33985">
        <ele>73.400001525879</ele>
        <time>2019-07-11T08:20:02.000Z</time>
      </trkpt>
      <trkpt lat="47.30735" lon="-2.33982">
        <ele>73.400001525879</ele>
        <time>2019-07-11T08:20:04.000Z</time>
      </trkpt>
      <trkpt lat="47.30752" lon="-2.33978">
        <ele>73.800003051758</ele>
        <time>2019-07-11T08:20:07.000Z</time>
      </trkpt>
      <trkpt lat="47.30758" lon="-2.33977">
        <ele>74.199996948242</ele>
        <time>2019-07-11T08:20:08.000Z</time>
      </trkpt>
      <trkpt lat="47.30763" lon="-2.33975">
        <ele>75</ele>
        <time>2019-07-11T08:20:09.000Z</time>
      </trkpt>
      <trkpt lat="47.30768" lon="-2.33974">
        <ele>75.400001525879</ele>
        <time>2019-07-11T08:20:10.000Z</time>
      </trkpt>
      <trkpt lat="47.30813" lon="-2.33962">
        <ele>75.400001525879</ele>
        <time>2019-07-11T08:20:18.000Z</time>
      </trkpt>
      <trkpt lat="47.30849" lon="-2.33954">
        <ele>75.400001525879</ele>
        <time>2019-07-11T08:20:24.000Z</time>
      </trkpt>
      <trkpt lat="47.30899" lon="-2.33947">
        <ele>75.400001525879</ele>
        <time>2019-07-11T08:20:32.000Z</time>
      </trkpt>
      <trkpt lat="47.30938" lon="-2.33951">
        <ele>75.400001525879</ele>
        <time>2019-07-11T08:20:38.000Z</time>
      </trkpt>
      <trkpt lat="47.3095" lon="-2.33955">
        <ele>75.400001525879</ele>
        <time>2019-07-11T08:20:40.000Z</time>
      </trkpt>
      <trkpt lat="47.30969" lon="-2.33957">
        <ele>75.400001525879</ele>
        <time>2019-07-11T08:20:43.000Z</time>
      </trkpt>
      <trkpt lat="47.31009" lon="-2.33954">
        <ele>75.400001525879</ele>
        <time>2019-07-11T08:20:49.000Z</time>
      </trkpt>
      <trkpt lat="47.31051" lon="-2.33947">
        <ele>75.400001525879</ele>
        <time>2019-07-11T08:20:56.000Z</time>
      </trkpt>
      <trkpt lat="47.31057" lon="-2.33947">
        <ele>74.599998474121</ele>
        <time>2019-07-11T08:20:59.000Z</time>
      </trkpt>
      <trkpt lat="47.31057" lon="-2.33947">
        <ele>74.199996948242</ele>
        <time>2019-07-11T08:21:00.000Z</time>
      </trkpt>
      <trkpt lat="47.3106" lon="-2.33951">
        <ele>73.400001525879</ele>
        <time>2019-07-11T08:22:07.000Z</time>
      </trkpt>
      <trkpt lat="47.31061" lon="-2.33954">
        <ele>73.400001525879</ele>
        <time>2019-07-11T08:22:08.000Z</time>
      </trkpt>
      <trkpt lat="47.31064" lon="-2.33975">
        <ele>73.400001525879</ele>
        <time>2019-07-11T08:22:12.000Z</time>
      </trkpt>
      <trkpt lat="47.31067" lon="-2.34033">
        <ele>73.400001525879</ele>
        <time>2019-07-11T08:22:20.000Z</time>
      </trkpt>
      <trkpt lat="47.31077" lon="-2.34085">
        <ele>73.400001525879</ele>
        <time>2019-07-11T08:22:27.000Z</time>
      </trkpt>
      <trkpt lat="47.31086" lon="-2.34108">
        <ele>73.400001525879</ele>
        <time>2019-07-11T08:22:30.000Z</time>
      </trkpt>
      <trkpt lat="47.31098" lon="-2.34132">
        <ele>73.400001525879</ele>
        <time>2019-07-11T08:22:33.000Z</time>
      </trkpt>
      <trkpt lat="47.3112" lon="-2.34175">
        <ele>72.400001525879</ele>
        <time>2019-07-11T08:22:38.000Z</time>
      </trkpt>
      <trkpt lat="47.31125" lon="-2.34185">
        <ele>72</ele>
        <time>2019-07-11T08:22:39.000Z</time>
      </trkpt>
      <trkpt lat="47.3113" lon="-2.34194">
        <ele>71.599998474121</ele>
        <time>2019-07-11T08:22:40.000Z</time>
      </trkpt>
      <trkpt lat="47.31135" lon="-2.34204">
        <ele>71.199996948242</ele>
        <time>2019-07-11T08:22:41.000Z</time>
      </trkpt>
      <trkpt lat="47.31147" lon="-2.34226">
        <ele>70.599998474121</ele>
        <time>2019-07-11T08:22:43.000Z</time>
      </trkpt>
      <trkpt lat="47.31153" lon="-2.34237">
        <ele>70.199996948242</ele>
        <time>2019-07-11T08:22:44.000Z</time>
      </trkpt>
      <trkpt lat="47.31159" lon="-2.34248">
        <ele>69.800003051758</ele>
        <time>2019-07-11T08:22:45.000Z</time>
      </trkpt>
      <trkpt lat="47.31164" lon="-2.34259">
        <ele>69.199996948242</ele>
        <time>2019-07-11T08:22:46.000Z</time>
      </trkpt>
      <trkpt lat="47.3117" lon="-2.34271">
        <ele>68.800003051758</ele>
        <time>2019-07-11T08:22:47.000Z</time>
      </trkpt>
      <trkpt lat="47.31185" lon="-2.34302">
        <ele>68.400001525879</ele>
        <time>2019-07-11T08:22:50.000Z</time>
      </trkpt>
      <trkpt lat="47.3119" lon="-2.34312">
        <ele>68</ele>
        <time>2019-07-11T08:22:51.000Z</time>
      </trkpt>
      <trkpt lat="47.31196" lon="-2.34322">
        <ele>67.599998474121</ele>
        <time>2019-07-11T08:22:52.000Z</time>
      </trkpt>
      <trkpt lat="47.31203" lon="-2.3433">
        <ele>67.199996948242</ele>
        <time>2019-07-11T08:22:53.000Z</time>
      </trkpt>
      <trkpt lat="47.3121" lon="-2.34337">
        <ele>66.599998474121</ele>
        <time>2019-07-11T08:22:54.000Z</time>
      </trkpt>
      <trkpt lat="47.31217" lon="-2.34341">
        <ele>66.599998474121</ele>
        <time>2019-07-11T08:22:55.000Z</time>
      </trkpt>
      <trkpt lat="47.31232" lon="-2.34346">
        <ele>66.599998474121</ele>
        <time>2019-07-11T08:22:57.000Z</time>
      </trkpt>
      <trkpt lat="47.31239" lon="-2.34349">
        <ele>66.599998474121</ele>
        <time>2019-07-11T08:22:58.000Z</time>
      </trkpt>
      <trkpt lat="47.31246" lon="-2.34352">
        <ele>66.599998474121</ele>
        <time>2019-07-11T08:22:59.000Z</time>
      </trkpt>
      <trkpt lat="47.3126" lon="-2.34361">
        <ele>66.599998474121</ele>
        <time>2019-07-11T08:23:01.000Z</time>
      </trkpt>
      <trkpt lat="47.31273" lon="-2.34375">
        <ele>66.599998474121</ele>
        <time>2019-07-11T08:23:03.000Z</time>
      </trkpt>
      <trkpt lat="47.31291" lon="-2.34408">
        <ele>66.599998474121</ele>
        <time>2019-07-11T08:23:07.000Z</time>
      </trkpt>
      <trkpt lat="47.31296" lon="-2.34433">
        <ele>66.599998474121</ele>
        <time>2019-07-11T08:23:10.000Z</time>
      </trkpt>
      <trkpt lat="47.31296" lon="-2.34442">
        <ele>67.199996948242</ele>
        <time>2019-07-11T08:23:11.000Z</time>
      </trkpt>
      <trkpt lat="47.31296" lon="-2.34451">
        <ele>67.599998474121</ele>
        <time>2019-07-11T08:23:12.000Z</time>
      </trkpt>
      <trkpt lat="47.31296" lon="-2.3446">
        <ele>68</ele>
        <time>2019-07-11T08:23:13.000Z</time>
      </trkpt>
      <trkpt lat="47.31294" lon="-2.3447">
        <ele>68.400001525879</ele>
        <time>2019-07-11T08:23:14.000Z</time>
      </trkpt>
      <trkpt lat="47.31294" lon="-2.34479">
        <ele>68.800003051758</ele>
        <time>2019-07-11T08:23:15.000Z</time>
      </trkpt>
      <trkpt lat="47.31292" lon="-2.34507">
        <ele>68.800003051758</ele>
        <time>2019-07-11T08:23:18.000Z</time>
      </trkpt>
      <trkpt lat="47.31293" lon="-2.34524">
        <ele>69.199996948242</ele>
        <time>2019-07-11T08:23:20.000Z</time>
      </trkpt>
      <trkpt lat="47.31293" lon="-2.34532">
        <ele>69.599998474121</ele>
        <time>2019-07-11T08:23:21.000Z</time>
      </trkpt>
      <trkpt lat="47.31293" lon="-2.3454">
        <ele>70.199996948242</ele>
        <time>2019-07-11T08:23:22.000Z</time>
      </trkpt>
      <trkpt lat="47.31293" lon="-2.34548">
        <ele>70.599998474121</ele>
        <time>2019-07-11T08:23:23.000Z</time>
      </trkpt>
      <trkpt lat="47.31293" lon="-2.34556">
        <ele>71</ele>
        <time>2019-07-11T08:23:24.000Z</time>
      </trkpt>
      <trkpt lat="47.31294" lon="-2.34572">
        <ele>71</ele>
        <time>2019-07-11T08:23:26.000Z</time>
      </trkpt>
      <trkpt lat="47.31298" lon="-2.34625">
        <ele>71.400001525879</ele>
        <time>2019-07-11T08:23:33.000Z</time>
      </trkpt>
      <trkpt lat="47.31299" lon="-2.34632">
        <ele>71.800003051758</ele>
        <time>2019-07-11T08:23:34.000Z</time>
      </trkpt>
      <trkpt lat="47.313" lon="-2.34639">
        <ele>72.199996948242</ele>
        <time>2019-07-11T08:23:35.000Z</time>
      </trkpt>
      <trkpt lat="47.313" lon="-2.34645">
        <ele>72.599998474121</ele>
        <time>2019-07-11T08:23:36.000Z</time>
      </trkpt>
      <trkpt lat="47.313" lon="-2.34649">
        <ele>73.199996948242</ele>
        <time>2019-07-11T08:23:37.000Z</time>
      </trkpt>
      <trkpt lat="47.31303" lon="-2.34657">
        <ele>73.199996948242</ele>
        <time>2019-07-11T08:23:39.000Z</time>
      </trkpt>
      <trkpt lat="47.31305" lon="-2.34665">
        <ele>73.199996948242</ele>
        <time>2019-07-11T08:23:41.000Z</time>
      </trkpt>
      <trkpt lat="47.31303" lon="-2.34674">
        <ele>73.199996948242</ele>
        <time>2019-07-11T08:23:43.000Z</time>
      </trkpt>
      <trkpt lat="47.31296" lon="-2.34683">
        <ele>73.199996948242</ele>
        <time>2019-07-11T08:23:45.000Z</time>
      </trkpt>
      <trkpt lat="47.31289" lon="-2.34693">
        <ele>73.199996948242</ele>
        <time>2019-07-11T08:23:47.000Z</time>
      </trkpt>
      <trkpt lat="47.31283" lon="-2.34706">
        <ele>73.199996948242</ele>
        <time>2019-07-11T08:23:49.000Z</time>
      </trkpt>
      <trkpt lat="47.31282" lon="-2.34721">
        <ele>73.599998474121</ele>
        <time>2019-07-11T08:23:51.000Z</time>
      </trkpt>
      <trkpt lat="47.31283" lon="-2.34729">
        <ele>74.400001525879</ele>
        <time>2019-07-11T08:23:52.000Z</time>
      </trkpt>
      <trkpt lat="47.31283" lon="-2.34737">
        <ele>74.800003051758</ele>
        <time>2019-07-11T08:23:53.000Z</time>
      </trkpt>
      <trkpt lat="47.31284" lon="-2.34745">
        <ele>75.199996948242</ele>
        <time>2019-07-11T08:23:54.000Z</time>
      </trkpt>
      <trkpt lat="47.31287" lon="-2.34761">
        <ele>75.199996948242</ele>
        <time>2019-07-11T08:23:56.000Z</time>
      </trkpt>
      <trkpt lat="47.31297" lon="-2.34824">
        <ele>75.199996948242</ele>
        <time>2019-07-11T08:24:04.000Z</time>
      </trkpt>
      <trkpt lat="47.31301" lon="-2.34855">
        <ele>75.199996948242</ele>
        <time>2019-07-11T08:24:08.000Z</time>
      </trkpt>
      <trkpt lat="47.31304" lon="-2.34868">
        <ele>75.199996948242</ele>
        <time>2019-07-11T08:24:10.000Z</time>
      </trkpt>
      <trkpt lat="47.3132" lon="-2.34913">
        <ele>75.199996948242</ele>
        <time>2019-07-11T08:24:16.000Z</time>
      </trkpt>
      <trkpt lat="47.31337" lon="-2.34971">
        <ele>75.199996948242</ele>
        <time>2019-07-11T08:24:23.000Z</time>
      </trkpt>
      <trkpt lat="47.31345" lon="-2.3502">
        <ele>75.199996948242</ele>
        <time>2019-07-11T08:24:29.000Z</time>
      </trkpt>
      <trkpt lat="47.31347" lon="-2.35076">
        <ele>75.199996948242</ele>
        <time>2019-07-11T08:24:35.000Z</time>
      </trkpt>
      <trkpt lat="47.31346" lon="-2.35138">
        <ele>75.199996948242</ele>
        <time>2019-07-11T08:24:42.000Z</time>
      </trkpt>
      <trkpt lat="47.31342" lon="-2.35205">
        <ele>75.199996948242</ele>
        <time>2019-07-11T08:24:49.000Z</time>
      </trkpt>
      <trkpt lat="47.3134" lon="-2.35271">
        <ele>75.199996948242</ele>
        <time>2019-07-11T08:24:56.000Z</time>
      </trkpt>
      <trkpt lat="47.31339" lon="-2.35345">
        <ele>75.199996948242</ele>
        <time>2019-07-11T08:25:04.000Z</time>
      </trkpt>
      <trkpt lat="47.31337" lon="-2.35415">
        <ele>75.199996948242</ele>
        <time>2019-07-11T08:25:12.000Z</time>
      </trkpt>
      <trkpt lat="47.31336" lon="-2.35464">
        <ele>75.199996948242</ele>
        <time>2019-07-11T08:25:18.000Z</time>
      </trkpt>
      <trkpt lat="47.31333" lon="-2.35517">
        <ele>75.199996948242</ele>
        <time>2019-07-11T08:25:24.000Z</time>
      </trkpt>
      <trkpt lat="47.31334" lon="-2.35537">
        <ele>75.199996948242</ele>
        <time>2019-07-11T08:25:27.000Z</time>
      </trkpt>
      <trkpt lat="47.31337" lon="-2.35541">
        <ele>75.199996948242</ele>
        <time>2019-07-11T08:25:28.000Z</time>
      </trkpt>
      <trkpt lat="47.31348" lon="-2.35542">
        <ele>75.199996948242</ele>
        <time>2019-07-11T08:25:31.000Z</time>
      </trkpt>
      <trkpt lat="47.31358" lon="-2.35537">
        <ele>75.199996948242</ele>
        <time>2019-07-11T08:25:33.000Z</time>
      </trkpt>
      <trkpt lat="47.31368" lon="-2.35532">
        <ele>75.199996948242</ele>
        <time>2019-07-11T08:25:35.000Z</time>
      </trkpt>
      <trkpt lat="47.31378" lon="-2.35529">
        <ele>75.199996948242</ele>
        <time>2019-07-11T08:25:37.000Z</time>
      </trkpt>
      <trkpt lat="47.31396" lon="-2.35527">
        <ele>75.199996948242</ele>
        <time>2019-07-11T08:25:40.000Z</time>
      </trkpt>
      <trkpt lat="47.31434" lon="-2.35525">
        <ele>75.199996948242</ele>
        <time>2019-07-11T08:25:46.000Z</time>
      </trkpt>
      <trkpt lat="47.31459" lon="-2.35524">
        <ele>75.199996948242</ele>
        <time>2019-07-11T08:25:50.000Z</time>
      </trkpt>
      <trkpt lat="47.31464" lon="-2.35522">
        <ele>75.199996948242</ele>
        <time>2019-07-11T08:25:51.000Z</time>
      </trkpt>
      <trkpt lat="47.31474" lon="-2.3551">
        <ele>75.199996948242</ele>
        <time>2019-07-11T08:25:53.000Z</time>
      </trkpt>
      <trkpt lat="47.31481" lon="-2.35486">
        <ele>75.199996948242</ele>
        <time>2019-07-11T08:25:56.000Z</time>
      </trkpt>
      <trkpt lat="47.31483" lon="-2.35477">
        <ele>75.199996948242</ele>
        <time>2019-07-11T08:25:57.000Z</time>
      </trkpt>
      <trkpt lat="47.3149" lon="-2.35434">
        <ele>75.199996948242</ele>
        <time>2019-07-11T08:26:02.000Z</time>
      </trkpt>
      <trkpt lat="47.31493" lon="-2.35427">
        <ele>75.199996948242</ele>
        <time>2019-07-11T08:26:03.000Z</time>
      </trkpt>
      <trkpt lat="47.31501" lon="-2.35417">
        <ele>75.199996948242</ele>
        <time>2019-07-11T08:26:05.000Z</time>
      </trkpt>
      <trkpt lat="47.31513" lon="-2.35408">
        <ele>75.199996948242</ele>
        <time>2019-07-11T08:26:07.000Z</time>
      </trkpt>
      <trkpt lat="47.31527" lon="-2.35399">
        <ele>75.199996948242</ele>
        <time>2019-07-11T08:26:09.000Z</time>
      </trkpt>
      <trkpt lat="47.31557" lon="-2.3538">
        <ele>75.199996948242</ele>
        <time>2019-07-11T08:26:14.000Z</time>
      </trkpt>
      <trkpt lat="47.31591" lon="-2.35363">
        <ele>75.199996948242</ele>
        <time>2019-07-11T08:26:20.000Z</time>
      </trkpt>
      <trkpt lat="47.31609" lon="-2.35361">
        <ele>75.199996948242</ele>
        <time>2019-07-11T08:26:23.000Z</time>
      </trkpt>
      <trkpt lat="47.31623" lon="-2.35364">
        <ele>75.199996948242</ele>
        <time>2019-07-11T08:26:25.000Z</time>
      </trkpt>
      <trkpt lat="47.31656" lon="-2.35373">
        <ele>75.199996948242</ele>
        <time>2019-07-11T08:26:30.000Z</time>
      </trkpt>
      <trkpt lat="47.31684" lon="-2.35372">
        <ele>75.199996948242</ele>
        <time>2019-07-11T08:26:34.000Z</time>
      </trkpt>
      <trkpt lat="47.31713" lon="-2.35369">
        <ele>75.199996948242</ele>
        <time>2019-07-11T08:26:39.000Z</time>
      </trkpt>
      <trkpt lat="47.31731" lon="-2.35366">
        <ele>75.199996948242</ele>
        <time>2019-07-11T08:26:42.000Z</time>
      </trkpt>
      <trkpt lat="47.31743" lon="-2.35372">
        <ele>75.199996948242</ele>
        <time>2019-07-11T08:26:44.000Z</time>
      </trkpt>
      <trkpt lat="47.31749" lon="-2.35375">
        <ele>74.800003051758</ele>
        <time>2019-07-11T08:26:45.000Z</time>
      </trkpt>
      <trkpt lat="47.31754" lon="-2.3538">
        <ele>74.199996948242</ele>
        <time>2019-07-11T08:26:46.000Z</time>
      </trkpt>
      <trkpt lat="47.31759" lon="-2.35387">
        <ele>73.800003051758</ele>
        <time>2019-07-11T08:26:47.000Z</time>
      </trkpt>
      <trkpt lat="47.31764" lon="-2.35394">
        <ele>73.400001525879</ele>
        <time>2019-07-11T08:26:48.000Z</time>
      </trkpt>
      <trkpt lat="47.31769" lon="-2.35401">
        <ele>73</ele>
        <time>2019-07-11T08:26:49.000Z</time>
      </trkpt>
      <trkpt lat="47.31774" lon="-2.35406">
        <ele>73</ele>
        <time>2019-07-11T08:26:50.000Z</time>
      </trkpt>
      <trkpt lat="47.3179" lon="-2.35424">
        <ele>73</ele>
        <time>2019-07-11T08:26:53.000Z</time>
      </trkpt>
      <trkpt lat="47.31796" lon="-2.35431">
        <ele>72.599998474121</ele>
        <time>2019-07-11T08:26:54.000Z</time>
      </trkpt>
      <trkpt lat="47.31801" lon="-2.35437">
        <ele>72.199996948242</ele>
        <time>2019-07-11T08:26:55.000Z</time>
      </trkpt>
      <trkpt lat="47.31806" lon="-2.35444">
        <ele>71.800003051758</ele>
        <time>2019-07-11T08:26:56.000Z</time>
      </trkpt>
      <trkpt lat="47.31811" lon="-2.35452">
        <ele>71.400001525879</ele>
        <time>2019-07-11T08:26:57.000Z</time>
      </trkpt>
      <trkpt lat="47.31815" lon="-2.35459">
        <ele>71</ele>
        <time>2019-07-11T08:26:58.000Z</time>
      </trkpt>
      <trkpt lat="47.31824" lon="-2.35472">
        <ele>71</ele>
        <time>2019-07-11T08:27:00.000Z</time>
      </trkpt>
      <trkpt lat="47.31827" lon="-2.35479">
        <ele>70.400001525879</ele>
        <time>2019-07-11T08:27:01.000Z</time>
      </trkpt>
      <trkpt lat="47.31831" lon="-2.35487">
        <ele>70</ele>
        <time>2019-07-11T08:27:02.000Z</time>
      </trkpt>
      <trkpt lat="47.31834" lon="-2.35495">
        <ele>69.599998474121</ele>
        <time>2019-07-11T08:27:03.000Z</time>
      </trkpt>
      <trkpt lat="47.31837" lon="-2.35502">
        <ele>69.199996948242</ele>
        <time>2019-07-11T08:27:04.000Z</time>
      </trkpt>
      <trkpt lat="47.31839" lon="-2.3551">
        <ele>68.800003051758</ele>
        <time>2019-07-11T08:27:05.000Z</time>
      </trkpt>
      <trkpt lat="47.31842" lon="-2.35517">
        <ele>68.800003051758</ele>
        <time>2019-07-11T08:27:06.000Z</time>
      </trkpt>
      <trkpt lat="47.31845" lon="-2.35524">
        <ele>68.800003051758</ele>
        <time>2019-07-11T08:27:07.000Z</time>
      </trkpt>
      <trkpt lat="47.31848" lon="-2.35543">
        <ele>68.800003051758</ele>
        <time>2019-07-11T08:27:10.000Z</time>
      </trkpt>
      <trkpt lat="47.31851" lon="-2.35585">
        <ele>68.800003051758</ele>
        <time>2019-07-11T08:27:16.000Z</time>
      </trkpt>
      <trkpt lat="47.31849" lon="-2.35595">
        <ele>68.800003051758</ele>
        <time>2019-07-11T08:27:17.000Z</time>
      </trkpt>
      <trkpt lat="47.31785" lon="-2.35636">
        <ele>68.800003051758</ele>
        <time>2019-07-11T08:27:21.000Z</time>
      </trkpt>
      <trkpt lat="47.31781" lon="-2.35656">
        <ele>69.199996948242</ele>
        <time>2019-07-11T08:27:23.000Z</time>
      </trkpt>
      <trkpt lat="47.3178" lon="-2.35667">
        <ele>69.599998474121</ele>
        <time>2019-07-11T08:27:24.000Z</time>
      </trkpt>
      <trkpt lat="47.3178" lon="-2.35676">
        <ele>70</ele>
        <time>2019-07-11T08:27:25.000Z</time>
      </trkpt>
      <trkpt lat="47.3178" lon="-2.35685">
        <ele>70.400001525879</ele>
        <time>2019-07-11T08:27:26.000Z</time>
      </trkpt>
      <trkpt lat="47.3178" lon="-2.35693">
        <ele>71</ele>
        <time>2019-07-11T08:27:27.000Z</time>
      </trkpt>
      <trkpt lat="47.3178" lon="-2.3573">
        <ele>71</ele>
        <time>2019-07-11T08:27:31.000Z</time>
      </trkpt>
      <trkpt lat="47.3178" lon="-2.3574">
        <ele>71.400001525879</ele>
        <time>2019-07-11T08:27:32.000Z</time>
      </trkpt>
      <trkpt lat="47.3178" lon="-2.3575">
        <ele>71.800003051758</ele>
        <time>2019-07-11T08:27:33.000Z</time>
      </trkpt>
      <trkpt lat="47.3178" lon="-2.35759">
        <ele>72.599998474121</ele>
        <time>2019-07-11T08:27:34.000Z</time>
      </trkpt>
      <trkpt lat="47.3178" lon="-2.35769">
        <ele>73.199996948242</ele>
        <time>2019-07-11T08:27:35.000Z</time>
      </trkpt>
      <trkpt lat="47.3178" lon="-2.35778">
        <ele>73.199996948242</ele>
        <time>2019-07-11T08:27:36.000Z</time>
      </trkpt>
      <trkpt lat="47.31781" lon="-2.35795">
        <ele>73.199996948242</ele>
        <time>2019-07-11T08:27:38.000Z</time>
      </trkpt>
      <trkpt lat="47.3179" lon="-2.3581">
        <ele>73.199996948242</ele>
        <time>2019-07-11T08:27:40.000Z</time>
      </trkpt>
      <trkpt lat="47.31801" lon="-2.35821">
        <ele>73.199996948242</ele>
        <time>2019-07-11T08:27:42.000Z</time>
      </trkpt>
      <trkpt lat="47.31812" lon="-2.35832">
        <ele>73.199996948242</ele>
        <time>2019-07-11T08:27:44.000Z</time>
      </trkpt>
      <trkpt lat="47.31824" lon="-2.35855">
        <ele>73.199996948242</ele>
        <time>2019-07-11T08:27:48.000Z</time>
      </trkpt>
      <trkpt lat="47.31826" lon="-2.35874">
        <ele>73.199996948242</ele>
        <time>2019-07-11T08:27:52.000Z</time>
      </trkpt>
      <trkpt lat="47.31824" lon="-2.35881">
        <ele>73.199996948242</ele>
        <time>2019-07-11T08:27:55.000Z</time>
      </trkpt>
      <trkpt lat="47.31822" lon="-2.35882">
        <ele>73.199996948242</ele>
        <time>2019-07-11T08:27:56.000Z</time>
      </trkpt>
      <trkpt lat="47.3181" lon="-2.35889">
        <ele>73.199996948242</ele>
        <time>2019-07-11T08:28:01.000Z</time>
      </trkpt>
      <trkpt lat="47.31796" lon="-2.35899">
        <ele>73.199996948242</ele>
        <time>2019-07-11T08:28:06.000Z</time>
      </trkpt>
      <trkpt lat="47.31788" lon="-2.35905">
        <ele>73.199996948242</ele>
        <time>2019-07-11T08:28:08.000Z</time>
      </trkpt>
      <trkpt lat="47.31775" lon="-2.35912">
        <ele>73.199996948242</ele>
        <time>2019-07-11T08:28:11.000Z</time>
      </trkpt>
      <trkpt lat="47.31766" lon="-2.35916">
        <ele>73.199996948242</ele>
        <time>2019-07-11T08:28:13.000Z</time>
      </trkpt>
      <trkpt lat="47.31755" lon="-2.35921">
        <ele>73.599998474121</ele>
        <time>2019-07-11T08:28:15.000Z</time>
      </trkpt>
      <trkpt lat="47.3175" lon="-2.35924">
        <ele>74</ele>
        <time>2019-07-11T08:28:16.000Z</time>
      </trkpt>
      <trkpt lat="47.31745" lon="-2.35927">
        <ele>74.400001525879</ele>
        <time>2019-07-11T08:28:17.000Z</time>
      </trkpt>
      <trkpt lat="47.3174" lon="-2.35931">
        <ele>74.800003051758</ele>
        <time>2019-07-11T08:28:18.000Z</time>
      </trkpt>
      <trkpt lat="47.31735" lon="-2.35935">
        <ele>75.199996948242</ele>
        <time>2019-07-11T08:28:19.000Z</time>
      </trkpt>
      <trkpt lat="47.31713" lon="-2.35946">
        <ele>75.199996948242</ele>
        <time>2019-07-11T08:28:23.000Z</time>
      </trkpt>
      <trkpt lat="47.31708" lon="-2.3595">
        <ele>75.599998474121</ele>
        <time>2019-07-11T08:28:24.000Z</time>
      </trkpt>
      <trkpt lat="47.31702" lon="-2.35953">
        <ele>76</ele>
        <time>2019-07-11T08:28:25.000Z</time>
      </trkpt>
      <trkpt lat="47.31697" lon="-2.35956">
        <ele>76.400001525879</ele>
        <time>2019-07-11T08:28:26.000Z</time>
      </trkpt>
      <trkpt lat="47.31691" lon="-2.35958">
        <ele>76.800003051758</ele>
        <time>2019-07-11T08:28:27.000Z</time>
      </trkpt>
      <trkpt lat="47.31685" lon="-2.3596">
        <ele>77.199996948242</ele>
        <time>2019-07-11T08:28:28.000Z</time>
      </trkpt>
      <trkpt lat="47.3168" lon="-2.35964">
        <ele>77.199996948242</ele>
        <time>2019-07-11T08:28:29.000Z</time>
      </trkpt>
      <trkpt lat="47.31665" lon="-2.35973">
        <ele>77.199996948242</ele>
        <time>2019-07-11T08:28:32.000Z</time>
      </trkpt>
      <trkpt lat="47.31655" lon="-2.35979">
        <ele>77.199996948242</ele>
        <time>2019-07-11T08:28:34.000Z</time>
      </trkpt>
      <trkpt lat="47.31626" lon="-2.36006">
        <ele>77.199996948242</ele>
        <time>2019-07-11T08:28:40.000Z</time>
      </trkpt>
      <trkpt lat="47.31613" lon="-2.3602">
        <ele>77.599998474121</ele>
        <time>2019-07-11T08:28:43.000Z</time>
      </trkpt>
      <trkpt lat="47.31608" lon="-2.36025">
        <ele>78</ele>
        <time>2019-07-11T08:28:44.000Z</time>
      </trkpt>
      <trkpt lat="47.31604" lon="-2.3603">
        <ele>78.400001525879</ele>
        <time>2019-07-11T08:28:45.000Z</time>
      </trkpt>
      <trkpt lat="47.316" lon="-2.36034">
        <ele>78.800003051758</ele>
        <time>2019-07-11T08:28:46.000Z</time>
      </trkpt>
      <trkpt lat="47.31595" lon="-2.36038">
        <ele>79.199996948242</ele>
        <time>2019-07-11T08:28:47.000Z</time>
      </trkpt>
      <trkpt lat="47.31582" lon="-2.3605">
        <ele>79.199996948242</ele>
        <time>2019-07-11T08:28:50.000Z</time>
      </trkpt>
      <trkpt lat="47.31565" lon="-2.36068">
        <ele>79.199996948242</ele>
        <time>2019-07-11T08:28:54.000Z</time>
      </trkpt>
      <trkpt lat="47.3156" lon="-2.36071">
        <ele>79.199996948242</ele>
        <time>2019-07-11T08:28:55.000Z</time>
      </trkpt>
      <trkpt lat="47.31551" lon="-2.36078">
        <ele>79.199996948242</ele>
        <time>2019-07-11T08:28:57.000Z</time>
      </trkpt>
      <trkpt lat="47.31543" lon="-2.36086">
        <ele>79.199996948242</ele>
        <time>2019-07-11T08:28:59.000Z</time>
      </trkpt>
      <trkpt lat="47.3154" lon="-2.3609">
        <ele>79.199996948242</ele>
        <time>2019-07-11T08:29:00.000Z</time>
      </trkpt>
      <trkpt lat="47.31519" lon="-2.36113">
        <ele>79.599998474121</ele>
        <time>2019-07-11T08:29:05.000Z</time>
      </trkpt>
      <trkpt lat="47.31515" lon="-2.36118">
        <ele>80</ele>
        <time>2019-07-11T08:29:06.000Z</time>
      </trkpt>
      <trkpt lat="47.31511" lon="-2.36122">
        <ele>80.599998474121</ele>
        <time>2019-07-11T08:29:07.000Z</time>
      </trkpt>
      <trkpt lat="47.31507" lon="-2.36127">
        <ele>81</ele>
        <time>2019-07-11T08:29:08.000Z</time>
      </trkpt>
      <trkpt lat="47.31502" lon="-2.36132">
        <ele>81.400001525879</ele>
        <time>2019-07-11T08:29:09.000Z</time>
      </trkpt>
      <trkpt lat="47.3149" lon="-2.36146">
        <ele>81.400001525879</ele>
        <time>2019-07-11T08:29:12.000Z</time>
      </trkpt>
      <trkpt lat="47.31478" lon="-2.36158">
        <ele>81.400001525879</ele>
        <time>2019-07-11T08:29:15.000Z</time>
      </trkpt>
      <trkpt lat="47.31472" lon="-2.36164">
        <ele>81.400001525879</ele>
        <time>2019-07-11T08:29:17.000Z</time>
      </trkpt>
      <trkpt lat="47.31466" lon="-2.3617">
        <ele>81.400001525879</ele>
        <time>2019-07-11T08:29:19.000Z</time>
      </trkpt>
      <trkpt lat="47.31461" lon="-2.36182">
        <ele>81.400001525879</ele>
        <time>2019-07-11T08:29:22.000Z</time>
      </trkpt>
      <trkpt lat="47.31464" lon="-2.36204">
        <ele>81.400001525879</ele>
        <time>2019-07-11T08:29:26.000Z</time>
      </trkpt>
      <trkpt lat="47.31466" lon="-2.3621">
        <ele>81.400001525879</ele>
        <time>2019-07-11T08:29:27.000Z</time>
      </trkpt>
      <trkpt lat="47.31477" lon="-2.36253">
        <ele>81.400001525879</ele>
        <time>2019-07-11T08:29:33.000Z</time>
      </trkpt>
      <trkpt lat="47.3149" lon="-2.36306">
        <ele>81.400001525879</ele>
        <time>2019-07-11T08:29:40.000Z</time>
      </trkpt>
      <trkpt lat="47.31494" lon="-2.36337">
        <ele>81</ele>
        <time>2019-07-11T08:29:44.000Z</time>
      </trkpt>
      <trkpt lat="47.31494" lon="-2.36345">
        <ele>80.599998474121</ele>
        <time>2019-07-11T08:29:45.000Z</time>
      </trkpt>
      <trkpt lat="47.31494" lon="-2.36353">
        <ele>80.199996948242</ele>
        <time>2019-07-11T08:29:46.000Z</time>
      </trkpt>
      <trkpt lat="47.31494" lon="-2.36361">
        <ele>79.800003051758</ele>
        <time>2019-07-11T08:29:47.000Z</time>
      </trkpt>
      <trkpt lat="47.31493" lon="-2.36369">
        <ele>79.400001525879</ele>
        <time>2019-07-11T08:29:48.000Z</time>
      </trkpt>
      <trkpt lat="47.31493" lon="-2.36403">
        <ele>79.400001525879</ele>
        <time>2019-07-11T08:29:52.000Z</time>
      </trkpt>
      <trkpt lat="47.31494" lon="-2.3642">
        <ele>78.800003051758</ele>
        <time>2019-07-11T08:29:54.000Z</time>
      </trkpt>
      <trkpt lat="47.31494" lon="-2.36429">
        <ele>78.400001525879</ele>
        <time>2019-07-11T08:29:55.000Z</time>
      </trkpt>
      <trkpt lat="47.31494" lon="-2.36437">
        <ele>78</ele>
        <time>2019-07-11T08:29:56.000Z</time>
      </trkpt>
      <trkpt lat="47.31495" lon="-2.36442">
        <ele>77.599998474121</ele>
        <time>2019-07-11T08:29:57.000Z</time>
      </trkpt>
      <trkpt lat="47.31496" lon="-2.36448">
        <ele>77.199996948242</ele>
        <time>2019-07-11T08:29:58.000Z</time>
      </trkpt>
      <trkpt lat="47.31497" lon="-2.36456">
        <ele>76.800003051758</ele>
        <time>2019-07-11T08:30:00.000Z</time>
      </trkpt>
      <trkpt lat="47.31498" lon="-2.36461">
        <ele>75.800003051758</ele>
        <time>2019-07-11T08:30:01.000Z</time>
      </trkpt>
      <trkpt lat="47.31498" lon="-2.36464">
        <ele>75.400001525879</ele>
        <time>2019-07-11T08:30:02.000Z</time>
      </trkpt>
      <trkpt lat="47.31499" lon="-2.36469">
        <ele>75</ele>
        <time>2019-07-11T08:30:03.000Z</time>
      </trkpt>
      <trkpt lat="47.315" lon="-2.36495">
        <ele>75</ele>
        <time>2019-07-11T08:30:08.000Z</time>
      </trkpt>
      <trkpt lat="47.315" lon="-2.36508">
        <ele>75</ele>
        <time>2019-07-11T08:30:10.000Z</time>
      </trkpt>
      <trkpt lat="47.31502" lon="-2.36519">
        <ele>75</ele>
        <time>2019-07-11T08:30:12.000Z</time>
      </trkpt>
      <trkpt lat="47.31503" lon="-2.3655">
        <ele>75</ele>
        <time>2019-07-11T08:30:17.000Z</time>
      </trkpt>
      <trkpt lat="47.31503" lon="-2.36583">
        <ele>75</ele>
        <time>2019-07-11T08:30:22.000Z</time>
      </trkpt>
      <trkpt lat="47.31506" lon="-2.36611">
        <ele>75</ele>
        <time>2019-07-11T08:30:26.000Z</time>
      </trkpt>
      <trkpt lat="47.31508" lon="-2.36618">
        <ele>75</ele>
        <time>2019-07-11T08:30:27.000Z</time>
      </trkpt>
      <trkpt lat="47.31518" lon="-2.36652">
        <ele>75</ele>
        <time>2019-07-11T08:30:32.000Z</time>
      </trkpt>
      <trkpt lat="47.31529" lon="-2.36702">
        <ele>75</ele>
        <time>2019-07-11T08:30:39.000Z</time>
      </trkpt>
      <trkpt lat="47.31538" lon="-2.36746">
        <ele>75</ele>
        <time>2019-07-11T08:30:45.000Z</time>
      </trkpt>
      <trkpt lat="47.31544" lon="-2.36774">
        <ele>75</ele>
        <time>2019-07-11T08:30:49.000Z</time>
      </trkpt>
      <trkpt lat="47.31547" lon="-2.36787">
        <ele>75.800003051758</ele>
        <time>2019-07-11T08:30:51.000Z</time>
      </trkpt>
      <trkpt lat="47.31548" lon="-2.36794">
        <ele>76.199996948242</ele>
        <time>2019-07-11T08:30:52.000Z</time>
      </trkpt>
      <trkpt lat="47.3155" lon="-2.368">
        <ele>76.599998474121</ele>
        <time>2019-07-11T08:30:53.000Z</time>
      </trkpt>
      <trkpt lat="47.31551" lon="-2.36806">
        <ele>77</ele>
        <time>2019-07-11T08:30:54.000Z</time>
      </trkpt>
      <trkpt lat="47.31554" lon="-2.36817">
        <ele>77</ele>
        <time>2019-07-11T08:30:56.000Z</time>
      </trkpt>
      <trkpt lat="47.31559" lon="-2.36842">
        <ele>77.599998474121</ele>
        <time>2019-07-11T08:31:00.000Z</time>
      </trkpt>
      <trkpt lat="47.31561" lon="-2.36848">
        <ele>78</ele>
        <time>2019-07-11T08:31:01.000Z</time>
      </trkpt>
      <trkpt lat="47.31563" lon="-2.36854">
        <ele>78.400001525879</ele>
        <time>2019-07-11T08:31:02.000Z</time>
      </trkpt>
      <trkpt lat="47.31564" lon="-2.3686">
        <ele>78.800003051758</ele>
        <time>2019-07-11T08:31:03.000Z</time>
      </trkpt>
      <trkpt lat="47.31566" lon="-2.36866">
        <ele>79.199996948242</ele>
        <time>2019-07-11T08:31:04.000Z</time>
      </trkpt>
      <trkpt lat="47.31572" lon="-2.36892">
        <ele>79.199996948242</ele>
        <time>2019-07-11T08:31:08.000Z</time>
      </trkpt>
      <trkpt lat="47.31574" lon="-2.36898">
        <ele>79.599998474121</ele>
        <time>2019-07-11T08:31:09.000Z</time>
      </trkpt>
      <trkpt lat="47.31576" lon="-2.36904">
        <ele>80</ele>
        <time>2019-07-11T08:31:10.000Z</time>
      </trkpt>
      <trkpt lat="47.31578" lon="-2.3691">
        <ele>80.599998474121</ele>
        <time>2019-07-11T08:31:11.000Z</time>
      </trkpt>
      <trkpt lat="47.3158" lon="-2.36915">
        <ele>81</ele>
        <time>2019-07-11T08:31:12.000Z</time>
      </trkpt>
      <trkpt lat="47.31582" lon="-2.36921">
        <ele>81.400001525879</ele>
        <time>2019-07-11T08:31:13.000Z</time>
      </trkpt>
      <trkpt lat="47.31583" lon="-2.36927">
        <ele>81.400001525879</ele>
        <time>2019-07-11T08:31:14.000Z</time>
      </trkpt>
      <trkpt lat="47.31587" lon="-2.36939">
        <ele>81.400001525879</ele>
        <time>2019-07-11T08:31:16.000Z</time>
      </trkpt>
      <trkpt lat="47.31593" lon="-2.36956">
        <ele>81.800003051758</ele>
        <time>2019-07-11T08:31:19.000Z</time>
      </trkpt>
      <trkpt lat="47.31594" lon="-2.36961">
        <ele>82.199996948242</ele>
        <time>2019-07-11T08:31:20.000Z</time>
      </trkpt>
      <trkpt lat="47.31596" lon="-2.36968">
        <ele>82.599998474121</ele>
        <time>2019-07-11T08:31:21.000Z</time>
      </trkpt>
      <trkpt lat="47.31598" lon="-2.36973">
        <ele>83</ele>
        <time>2019-07-11T08:31:22.000Z</time>
      </trkpt>
      <trkpt lat="47.31599" lon="-2.36978">
        <ele>83.400001525879</ele>
        <time>2019-07-11T08:31:23.000Z</time>
      </trkpt>
      <trkpt lat="47.3161" lon="-2.37013">
        <ele>83.400001525879</ele>
        <time>2019-07-11T08:31:29.000Z</time>
      </trkpt>
      <trkpt lat="47.31614" lon="-2.37025">
        <ele>83.400001525879</ele>
        <time>2019-07-11T08:31:31.000Z</time>
      </trkpt>
      <trkpt lat="47.31618" lon="-2.37036">
        <ele>83.800003051758</ele>
        <time>2019-07-11T08:31:33.000Z</time>
      </trkpt>
      <trkpt lat="47.3162" lon="-2.37041">
        <ele>84.199996948242</ele>
        <time>2019-07-11T08:31:34.000Z</time>
      </trkpt>
      <trkpt lat="47.31623" lon="-2.37046">
        <ele>84.599998474121</ele>
        <time>2019-07-11T08:31:35.000Z</time>
      </trkpt>
      <trkpt lat="47.31626" lon="-2.37051">
        <ele>85</ele>
        <time>2019-07-11T08:31:36.000Z</time>
      </trkpt>
      <trkpt lat="47.31628" lon="-2.37056">
        <ele>85.599998474121</ele>
        <time>2019-07-11T08:31:37.000Z</time>
      </trkpt>
      <trkpt lat="47.31642" lon="-2.37087">
        <ele>85.599998474121</ele>
        <time>2019-07-11T08:31:43.000Z</time>
      </trkpt>
      <trkpt lat="47.31659" lon="-2.37117">
        <ele>85.599998474121</ele>
        <time>2019-07-11T08:31:49.000Z</time>
      </trkpt>
      <trkpt lat="47.31673" lon="-2.37146">
        <ele>85.599998474121</ele>
        <time>2019-07-11T08:31:55.000Z</time>
      </trkpt>
      <trkpt lat="47.31684" lon="-2.37169">
        <ele>85.599998474121</ele>
        <time>2019-07-11T08:31:59.000Z</time>
      </trkpt>
      <trkpt lat="47.31689" lon="-2.37183">
        <ele>85.599998474121</ele>
        <time>2019-07-11T08:32:01.000Z</time>
      </trkpt>
      <trkpt lat="47.31691" lon="-2.3719">
        <ele>85.599998474121</ele>
        <time>2019-07-11T08:32:02.000Z</time>
      </trkpt>
      <trkpt lat="47.3169" lon="-2.37213">
        <ele>85.599998474121</ele>
        <time>2019-07-11T08:32:05.000Z</time>
      </trkpt>
      <trkpt lat="47.31687" lon="-2.37226">
        <ele>86</ele>
        <time>2019-07-11T08:32:07.000Z</time>
      </trkpt>
      <trkpt lat="47.31685" lon="-2.37232">
        <ele>86.400001525879</ele>
        <time>2019-07-11T08:32:08.000Z</time>
      </trkpt>
      <trkpt lat="47.31682" lon="-2.37238">
        <ele>86.800003051758</ele>
        <time>2019-07-11T08:32:09.000Z</time>
      </trkpt>
      <trkpt lat="47.31679" lon="-2.37243">
        <ele>87.199996948242</ele>
        <time>2019-07-11T08:32:10.000Z</time>
      </trkpt>
      <trkpt lat="47.31675" lon="-2.37247">
        <ele>87.599998474121</ele>
        <time>2019-07-11T08:32:11.000Z</time>
      </trkpt>
      <trkpt lat="47.3167" lon="-2.37252">
        <ele>87.599998474121</ele>
        <time>2019-07-11T08:32:12.000Z</time>
      </trkpt>
      <trkpt lat="47.31661" lon="-2.3726">
        <ele>87.599998474121</ele>
        <time>2019-07-11T08:32:14.000Z</time>
      </trkpt>
      <trkpt lat="47.31633" lon="-2.37284">
        <ele>87.599998474121</ele>
        <time>2019-07-11T08:32:20.000Z</time>
      </trkpt>
      <trkpt lat="47.31623" lon="-2.37312">
        <ele>87.599998474121</ele>
        <time>2019-07-11T08:32:24.000Z</time>
      </trkpt>
      <trkpt lat="47.31624" lon="-2.37343">
        <ele>87.599998474121</ele>
        <time>2019-07-11T08:32:28.000Z</time>
      </trkpt>
      <trkpt lat="47.31628" lon="-2.37358">
        <ele>87.599998474121</ele>
        <time>2019-07-11T08:32:30.000Z</time>
      </trkpt>
      <trkpt lat="47.31635" lon="-2.37393">
        <ele>87.599998474121</ele>
        <time>2019-07-11T08:32:35.000Z</time>
      </trkpt>
      <trkpt lat="47.31638" lon="-2.37443">
        <ele>87.599998474121</ele>
        <time>2019-07-11T08:32:42.000Z</time>
      </trkpt>
      <trkpt lat="47.3164" lon="-2.37485">
        <ele>87.199996948242</ele>
        <time>2019-07-11T08:32:48.000Z</time>
      </trkpt>
      <trkpt lat="47.3164" lon="-2.37492">
        <ele>86.599998474121</ele>
        <time>2019-07-11T08:32:49.000Z</time>
      </trkpt>
      <trkpt lat="47.31639" lon="-2.37498">
        <ele>86.199996948242</ele>
        <time>2019-07-11T08:32:50.000Z</time>
      </trkpt>
      <trkpt lat="47.31639" lon="-2.37503">
        <ele>85.800003051758</ele>
        <time>2019-07-11T08:32:51.000Z</time>
      </trkpt>
      <trkpt lat="47.31637" lon="-2.37509">
        <ele>85.400001525879</ele>
        <time>2019-07-11T08:32:52.000Z</time>
      </trkpt>
      <trkpt lat="47.31631" lon="-2.37527">
        <ele>85.400001525879</ele>
        <time>2019-07-11T08:32:55.000Z</time>
      </trkpt>
      <trkpt lat="47.31618" lon="-2.37562">
        <ele>85.400001525879</ele>
        <time>2019-07-11T08:33:01.000Z</time>
      </trkpt>
      <trkpt lat="47.31616" lon="-2.37576">
        <ele>85.400001525879</ele>
        <time>2019-07-11T08:33:03.000Z</time>
      </trkpt>
      <trkpt lat="47.31615" lon="-2.37596">
        <ele>85.400001525879</ele>
        <time>2019-07-11T08:33:06.000Z</time>
      </trkpt>
      <trkpt lat="47.31616" lon="-2.37613">
        <ele>85.400001525879</ele>
        <time>2019-07-11T08:33:09.000Z</time>
      </trkpt>
      <trkpt lat="47.31621" lon="-2.37642">
        <ele>85.400001525879</ele>
        <time>2019-07-11T08:33:15.000Z</time>
      </trkpt>
      <trkpt lat="47.31623" lon="-2.37643">
        <ele>85.400001525879</ele>
        <time>2019-07-11T08:33:16.000Z</time>
      </trkpt>
      <trkpt lat="47.31623" lon="-2.37643">
        <ele>85.400001525879</ele>
        <time>2019-07-11T08:33:18.000Z</time>
      </trkpt>
      <trkpt lat="47.31626" lon="-2.37647">
        <ele>85.400001525879</ele>
        <time>2019-07-11T08:34:38.000Z</time>
      </trkpt>
      <trkpt lat="47.31629" lon="-2.37649">
        <ele>85.400001525879</ele>
        <time>2019-07-11T08:34:40.000Z</time>
      </trkpt>
      <trkpt lat="47.31632" lon="-2.3765">
        <ele>85.400001525879</ele>
        <time>2019-07-11T08:34:42.000Z</time>
      </trkpt>
      <trkpt lat="47.31634" lon="-2.37652">
        <ele>85.400001525879</ele>
        <time>2019-07-11T08:34:46.000Z</time>
      </trkpt>
      <trkpt lat="47.31636" lon="-2.37653">
        <ele>85.400001525879</ele>
        <time>2019-07-11T08:34:51.000Z</time>
      </trkpt>
      <trkpt lat="47.31642" lon="-2.37657">
        <ele>85.400001525879</ele>
        <time>2019-07-11T08:34:54.000Z</time>
      </trkpt>
      <trkpt lat="47.31655" lon="-2.37667">
        <ele>85.400001525879</ele>
        <time>2019-07-11T08:34:59.000Z</time>
      </trkpt>
      <trkpt lat="47.31672" lon="-2.37687">
        <ele>85.400001525879</ele>
        <time>2019-07-11T08:35:05.000Z</time>
      </trkpt>
      <trkpt lat="47.31675" lon="-2.3769">
        <ele>85.400001525879</ele>
        <time>2019-07-11T08:35:06.000Z</time>
      </trkpt>
      <trkpt lat="47.31688" lon="-2.37705">
        <ele>85.400001525879</ele>
        <time>2019-07-11T08:35:10.000Z</time>
      </trkpt>
      <trkpt lat="47.31697" lon="-2.3771">
        <ele>85.400001525879</ele>
        <time>2019-07-11T08:35:12.000Z</time>
      </trkpt>
      <trkpt lat="47.31706" lon="-2.37714">
        <ele>85.400001525879</ele>
        <time>2019-07-11T08:35:14.000Z</time>
      </trkpt>
      <trkpt lat="47.31711" lon="-2.37714">
        <ele>85.400001525879</ele>
        <time>2019-07-11T08:35:15.000Z</time>
      </trkpt>
      <trkpt lat="47.31722" lon="-2.37712">
        <ele>85.400001525879</ele>
        <time>2019-07-11T08:35:17.000Z</time>
      </trkpt>
      <trkpt lat="47.31752" lon="-2.37697">
        <ele>85.400001525879</ele>
        <time>2019-07-11T08:35:23.000Z</time>
      </trkpt>
      <trkpt lat="47.31781" lon="-2.37669">
        <ele>85.400001525879</ele>
        <time>2019-07-11T08:35:29.000Z</time>
      </trkpt>
      <trkpt lat="47.31793" lon="-2.3766">
        <ele>85.400001525879</ele>
        <time>2019-07-11T08:35:31.000Z</time>
      </trkpt>
      <trkpt lat="47.3181" lon="-2.37651">
        <ele>85.400001525879</ele>
        <time>2019-07-11T08:35:34.000Z</time>
      </trkpt>
      <trkpt lat="47.31816" lon="-2.3765">
        <ele>85.400001525879</ele>
        <time>2019-07-11T08:35:35.000Z</time>
      </trkpt>
      <trkpt lat="47.31823" lon="-2.3766">
        <ele>85.400001525879</ele>
        <time>2019-07-11T08:35:37.000Z</time>
      </trkpt>
      <trkpt lat="47.31823" lon="-2.37684">
        <ele>85.400001525879</ele>
        <time>2019-07-11T08:35:40.000Z</time>
      </trkpt>
      <trkpt lat="47.31818" lon="-2.3771">
        <ele>85.400001525879</ele>
        <time>2019-07-11T08:35:43.000Z</time>
      </trkpt>
      <trkpt lat="47.31817" lon="-2.37719">
        <ele>85.400001525879</ele>
        <time>2019-07-11T08:35:44.000Z</time>
      </trkpt>
      <trkpt lat="47.31812" lon="-2.37778">
        <ele>85.400001525879</ele>
        <time>2019-07-11T08:35:50.000Z</time>
      </trkpt>
      <trkpt lat="47.31802" lon="-2.37858">
        <ele>85.400001525879</ele>
        <time>2019-07-11T08:35:58.000Z</time>
      </trkpt>
      <trkpt lat="47.31796" lon="-2.37919">
        <ele>85</ele>
        <time>2019-07-11T08:36:04.000Z</time>
      </trkpt>
      <trkpt lat="47.31796" lon="-2.37929">
        <ele>84.400001525879</ele>
        <time>2019-07-11T08:36:05.000Z</time>
      </trkpt>
      <trkpt lat="47.31795" lon="-2.37939">
        <ele>84</ele>
        <time>2019-07-11T08:36:06.000Z</time>
      </trkpt>
      <trkpt lat="47.31794" lon="-2.37949">
        <ele>83.599998474121</ele>
        <time>2019-07-11T08:36:07.000Z</time>
      </trkpt>
      <trkpt lat="47.31794" lon="-2.3796">
        <ele>83</ele>
        <time>2019-07-11T08:36:08.000Z</time>
      </trkpt>
      <trkpt lat="47.31794" lon="-2.37982">
        <ele>82.599998474121</ele>
        <time>2019-07-11T08:36:10.000Z</time>
      </trkpt>
      <trkpt lat="47.31794" lon="-2.37994">
        <ele>81.800003051758</ele>
        <time>2019-07-11T08:36:11.000Z</time>
      </trkpt>
      <trkpt lat="47.31794" lon="-2.38005">
        <ele>81.400001525879</ele>
        <time>2019-07-11T08:36:12.000Z</time>
      </trkpt>
      <trkpt lat="47.31794" lon="-2.38016">
        <ele>81</ele>
        <time>2019-07-11T08:36:13.000Z</time>
      </trkpt>
      <trkpt lat="47.31799" lon="-2.38082">
        <ele>81</ele>
        <time>2019-07-11T08:36:19.000Z</time>
      </trkpt>
      <trkpt lat="47.31801" lon="-2.38143">
        <ele>81</ele>
        <time>2019-07-11T08:36:25.000Z</time>
      </trkpt>
      <trkpt lat="47.31805" lon="-2.38204">
        <ele>81</ele>
        <time>2019-07-11T08:36:32.000Z</time>
      </trkpt>
      <trkpt lat="47.31808" lon="-2.38275">
        <ele>81</ele>
        <time>2019-07-11T08:36:40.000Z</time>
      </trkpt>
      <trkpt lat="47.31809" lon="-2.38308">
        <ele>81.400001525879</ele>
        <time>2019-07-11T08:36:44.000Z</time>
      </trkpt>
      <trkpt lat="47.31809" lon="-2.38316">
        <ele>81.800003051758</ele>
        <time>2019-07-11T08:36:45.000Z</time>
      </trkpt>
      <trkpt lat="47.31809" lon="-2.38325">
        <ele>82.199996948242</ele>
        <time>2019-07-11T08:36:46.000Z</time>
      </trkpt>
      <trkpt lat="47.3181" lon="-2.38334">
        <ele>82.599998474121</ele>
        <time>2019-07-11T08:36:47.000Z</time>
      </trkpt>
      <trkpt lat="47.3181" lon="-2.38342">
        <ele>83</ele>
        <time>2019-07-11T08:36:48.000Z</time>
      </trkpt>
      <trkpt lat="47.3181" lon="-2.3835">
        <ele>83</ele>
        <time>2019-07-11T08:36:49.000Z</time>
      </trkpt>
      <trkpt lat="47.31811" lon="-2.38411">
        <ele>83.400001525879</ele>
        <time>2019-07-11T08:36:56.000Z</time>
      </trkpt>
      <trkpt lat="47.31811" lon="-2.3842">
        <ele>83.800003051758</ele>
        <time>2019-07-11T08:36:57.000Z</time>
      </trkpt>
      <trkpt lat="47.31811" lon="-2.38428">
        <ele>84.400001525879</ele>
        <time>2019-07-11T08:36:58.000Z</time>
      </trkpt>
      <trkpt lat="47.31811" lon="-2.38436">
        <ele>84.800003051758</ele>
        <time>2019-07-11T08:36:59.000Z</time>
      </trkpt>
      <trkpt lat="47.3181" lon="-2.38445">
        <ele>85.199996948242</ele>
        <time>2019-07-11T08:37:00.000Z</time>
      </trkpt>
      <trkpt lat="47.3181" lon="-2.38488">
        <ele>85.199996948242</ele>
        <time>2019-07-11T08:37:05.000Z</time>
      </trkpt>
      <trkpt lat="47.31808" lon="-2.38528">
        <ele>85.599998474121</ele>
        <time>2019-07-11T08:37:10.000Z</time>
      </trkpt>
      <trkpt lat="47.31804" lon="-2.38534">
        <ele>86</ele>
        <time>2019-07-11T08:37:11.000Z</time>
      </trkpt>
      <trkpt lat="47.318" lon="-2.38539">
        <ele>86.400001525879</ele>
        <time>2019-07-11T08:37:12.000Z</time>
      </trkpt>
      <trkpt lat="47.31795" lon="-2.38542">
        <ele>86.800003051758</ele>
        <time>2019-07-11T08:37:13.000Z</time>
      </trkpt>
      <trkpt lat="47.3179" lon="-2.38545">
        <ele>87.199996948242</ele>
        <time>2019-07-11T08:37:14.000Z</time>
      </trkpt>
      <trkpt lat="47.31784" lon="-2.38548">
        <ele>87.199996948242</ele>
        <time>2019-07-11T08:37:15.000Z</time>
      </trkpt>
      <trkpt lat="47.31756" lon="-2.38563">
        <ele>87.199996948242</ele>
        <time>2019-07-11T08:37:20.000Z</time>
      </trkpt>
      <trkpt lat="47.31714" lon="-2.38587">
        <ele>87.199996948242</ele>
        <time>2019-07-11T08:37:27.000Z</time>
      </trkpt>
      <trkpt lat="47.31665" lon="-2.3862">
        <ele>87.199996948242</ele>
        <time>2019-07-11T08:37:35.000Z</time>
      </trkpt>
      <trkpt lat="47.31647" lon="-2.38636">
        <ele>87.199996948242</ele>
        <time>2019-07-11T08:37:38.000Z</time>
      </trkpt>
      <trkpt lat="47.31632" lon="-2.38656">
        <ele>87.199996948242</ele>
        <time>2019-07-11T08:37:41.000Z</time>
      </trkpt>
      <trkpt lat="47.316" lon="-2.38706">
        <ele>87.199996948242</ele>
        <time>2019-07-11T08:37:48.000Z</time>
      </trkpt>
      <trkpt lat="47.31582" lon="-2.3873">
        <ele>87.199996948242</ele>
        <time>2019-07-11T08:37:52.000Z</time>
      </trkpt>
      <trkpt lat="47.31573" lon="-2.38744">
        <ele>87.199996948242</ele>
        <time>2019-07-11T08:37:54.000Z</time>
      </trkpt>
      <trkpt lat="47.31544" lon="-2.38791">
        <ele>87.199996948242</ele>
        <time>2019-07-11T08:38:01.000Z</time>
      </trkpt>
      <trkpt lat="47.31522" lon="-2.38833">
        <ele>87.199996948242</ele>
        <time>2019-07-11T08:38:07.000Z</time>
      </trkpt>
      <trkpt lat="47.31501" lon="-2.38877">
        <ele>87.199996948242</ele>
        <time>2019-07-11T08:38:13.000Z</time>
      </trkpt>
      <trkpt lat="47.3147" lon="-2.38934">
        <ele>87.599998474121</ele>
        <time>2019-07-11T08:38:21.000Z</time>
      </trkpt>
      <trkpt lat="47.31466" lon="-2.38942">
        <ele>88</ele>
        <time>2019-07-11T08:38:22.000Z</time>
      </trkpt>
      <trkpt lat="47.31462" lon="-2.38949">
        <ele>88.400001525879</ele>
        <time>2019-07-11T08:38:23.000Z</time>
      </trkpt>
      <trkpt lat="47.31458" lon="-2.38957">
        <ele>88.800003051758</ele>
        <time>2019-07-11T08:38:24.000Z</time>
      </trkpt>
      <trkpt lat="47.31454" lon="-2.38964">
        <ele>89.199996948242</ele>
        <time>2019-07-11T08:38:25.000Z</time>
      </trkpt>
      <trkpt lat="47.31441" lon="-2.38993">
        <ele>89.199996948242</ele>
        <time>2019-07-11T08:38:29.000Z</time>
      </trkpt>
      <trkpt lat="47.31417" lon="-2.39046">
        <ele>89.199996948242</ele>
        <time>2019-07-11T08:38:36.000Z</time>
      </trkpt>
      <trkpt lat="47.31413" lon="-2.39053">
        <ele>89.199996948242</ele>
        <time>2019-07-11T08:38:37.000Z</time>
      </trkpt>
      <trkpt lat="47.31401" lon="-2.39074">
        <ele>89.199996948242</ele>
        <time>2019-07-11T08:38:40.000Z</time>
      </trkpt>
      <trkpt lat="47.31394" lon="-2.39086">
        <ele>89.599998474121</ele>
        <time>2019-07-11T08:38:42.000Z</time>
      </trkpt>
      <trkpt lat="47.3139" lon="-2.39092">
        <ele>90</ele>
        <time>2019-07-11T08:38:43.000Z</time>
      </trkpt>
      <trkpt lat="47.31385" lon="-2.39097">
        <ele>90.400001525879</ele>
        <time>2019-07-11T08:38:44.000Z</time>
      </trkpt>
      <trkpt lat="47.31381" lon="-2.39102">
        <ele>90.800003051758</ele>
        <time>2019-07-11T08:38:45.000Z</time>
      </trkpt>
      <trkpt lat="47.31376" lon="-2.39107">
        <ele>91.199996948242</ele>
        <time>2019-07-11T08:38:46.000Z</time>
      </trkpt>
      <trkpt lat="47.31367" lon="-2.39117">
        <ele>91.199996948242</ele>
        <time>2019-07-11T08:38:48.000Z</time>
      </trkpt>
      <trkpt lat="47.31348" lon="-2.39137">
        <ele>91.199996948242</ele>
        <time>2019-07-11T08:38:52.000Z</time>
      </trkpt>
      <trkpt lat="47.31315" lon="-2.39173">
        <ele>91.199996948242</ele>
        <time>2019-07-11T08:38:59.000Z</time>
      </trkpt>
      <trkpt lat="47.31278" lon="-2.39216">
        <ele>91.199996948242</ele>
        <time>2019-07-11T08:39:07.000Z</time>
      </trkpt>
      <trkpt lat="47.31249" lon="-2.3926">
        <ele>91.199996948242</ele>
        <time>2019-07-11T08:39:14.000Z</time>
      </trkpt>
      <trkpt lat="47.3124" lon="-2.39271">
        <ele>91.199996948242</ele>
        <time>2019-07-11T08:39:16.000Z</time>
      </trkpt>
      <trkpt lat="47.31226" lon="-2.39288">
        <ele>91.199996948242</ele>
        <time>2019-07-11T08:39:19.000Z</time>
      </trkpt>
      <trkpt lat="47.3122" lon="-2.39292">
        <ele>91.199996948242</ele>
        <time>2019-07-11T08:39:20.000Z</time>
      </trkpt>
      <trkpt lat="47.31197" lon="-2.39311">
        <ele>91.199996948242</ele>
        <time>2019-07-11T08:39:24.000Z</time>
      </trkpt>
      <trkpt lat="47.31155" lon="-2.3934">
        <ele>91.199996948242</ele>
        <time>2019-07-11T08:39:31.000Z</time>
      </trkpt>
      <trkpt lat="47.31122" lon="-2.39374">
        <ele>91.199996948242</ele>
        <time>2019-07-11T08:39:37.000Z</time>
      </trkpt>
      <trkpt lat="47.31108" lon="-2.39393">
        <ele>90.800003051758</ele>
        <time>2019-07-11T08:39:40.000Z</time>
      </trkpt>
      <trkpt lat="47.31103" lon="-2.39399">
        <ele>90.400001525879</ele>
        <time>2019-07-11T08:39:41.000Z</time>
      </trkpt>
      <trkpt lat="47.31098" lon="-2.39407">
        <ele>90</ele>
        <time>2019-07-11T08:39:42.000Z</time>
      </trkpt>
      <trkpt lat="47.31093" lon="-2.39413">
        <ele>89.599998474121</ele>
        <time>2019-07-11T08:39:43.000Z</time>
      </trkpt>
      <trkpt lat="47.31089" lon="-2.3942">
        <ele>89.199996948242</ele>
        <time>2019-07-11T08:39:44.000Z</time>
      </trkpt>
      <trkpt lat="47.31084" lon="-2.39427">
        <ele>89.199996948242</ele>
        <time>2019-07-11T08:39:45.000Z</time>
      </trkpt>
      <trkpt lat="47.31079" lon="-2.39433">
        <ele>89.199996948242</ele>
        <time>2019-07-11T08:39:46.000Z</time>
      </trkpt>
      <trkpt lat="47.31069" lon="-2.39445">
        <ele>89.199996948242</ele>
        <time>2019-07-11T08:39:48.000Z</time>
      </trkpt>
      <trkpt lat="47.31058" lon="-2.39457">
        <ele>89.199996948242</ele>
        <time>2019-07-11T08:39:50.000Z</time>
      </trkpt>
      <trkpt lat="47.31049" lon="-2.39467">
        <ele>89.199996948242</ele>
        <time>2019-07-11T08:39:52.000Z</time>
      </trkpt>
      <trkpt lat="47.31047" lon="-2.39485">
        <ele>89.199996948242</ele>
        <time>2019-07-11T08:39:54.000Z</time>
      </trkpt>
      <trkpt lat="47.31056" lon="-2.39509">
        <ele>89.199996948242</ele>
        <time>2019-07-11T08:39:57.000Z</time>
      </trkpt>
      <trkpt lat="47.31063" lon="-2.39533">
        <ele>89.199996948242</ele>
        <time>2019-07-11T08:40:00.000Z</time>
      </trkpt>
      <trkpt lat="47.31069" lon="-2.39549">
        <ele>89.199996948242</ele>
        <time>2019-07-11T08:40:02.000Z</time>
      </trkpt>
      <trkpt lat="47.31091" lon="-2.3961">
        <ele>89.199996948242</ele>
        <time>2019-07-11T08:40:10.000Z</time>
      </trkpt>
      <trkpt lat="47.31094" lon="-2.39619">
        <ele>89.599998474121</ele>
        <time>2019-07-11T08:40:11.000Z</time>
      </trkpt>
      <trkpt lat="47.31097" lon="-2.39628">
        <ele>90</ele>
        <time>2019-07-11T08:40:12.000Z</time>
      </trkpt>
      <trkpt lat="47.311" lon="-2.39636">
        <ele>90.400001525879</ele>
        <time>2019-07-11T08:40:13.000Z</time>
      </trkpt>
      <trkpt lat="47.31103" lon="-2.39644">
        <ele>90.800003051758</ele>
        <time>2019-07-11T08:40:14.000Z</time>
      </trkpt>
      <trkpt lat="47.31106" lon="-2.39653">
        <ele>91.199996948242</ele>
        <time>2019-07-11T08:40:15.000Z</time>
      </trkpt>
      <trkpt lat="47.31116" lon="-2.39679">
        <ele>91.199996948242</ele>
        <time>2019-07-11T08:40:18.000Z</time>
      </trkpt>
      <trkpt lat="47.31142" lon="-2.39756">
        <ele>91.199996948242</ele>
        <time>2019-07-11T08:40:26.000Z</time>
      </trkpt>
      <trkpt lat="47.31146" lon="-2.39765">
        <ele>91.199996948242</ele>
        <time>2019-07-11T08:40:27.000Z</time>
      </trkpt>
      <trkpt lat="47.31148" lon="-2.39773">
        <ele>90.800003051758</ele>
        <time>2019-07-11T08:40:28.000Z</time>
      </trkpt>
      <trkpt lat="47.31151" lon="-2.39782">
        <ele>90.400001525879</ele>
        <time>2019-07-11T08:40:29.000Z</time>
      </trkpt>
      <trkpt lat="47.31154" lon="-2.3979">
        <ele>90</ele>
        <time>2019-07-11T08:40:30.000Z</time>
      </trkpt>
      <trkpt lat="47.31157" lon="-2.39799">
        <ele>89.599998474121</ele>
        <time>2019-07-11T08:40:31.000Z</time>
      </trkpt>
      <trkpt lat="47.31159" lon="-2.39806">
        <ele>89.199996948242</ele>
        <time>2019-07-11T08:40:32.000Z</time>
      </trkpt>
      <trkpt lat="47.31161" lon="-2.39813">
        <ele>89.199996948242</ele>
        <time>2019-07-11T08:40:33.000Z</time>
      </trkpt>
      <trkpt lat="47.31164" lon="-2.3982">
        <ele>89.199996948242</ele>
        <time>2019-07-11T08:40:34.000Z</time>
      </trkpt>
      <trkpt lat="47.31176" lon="-2.39844">
        <ele>89.199996948242</ele>
        <time>2019-07-11T08:40:38.000Z</time>
      </trkpt>
      <trkpt lat="47.31178" lon="-2.3985">
        <ele>88.800003051758</ele>
        <time>2019-07-11T08:40:39.000Z</time>
      </trkpt>
      <trkpt lat="47.31181" lon="-2.39856">
        <ele>88.400001525879</ele>
        <time>2019-07-11T08:40:40.000Z</time>
      </trkpt>
      <trkpt lat="47.31182" lon="-2.39863">
        <ele>88</ele>
        <time>2019-07-11T08:40:41.000Z</time>
      </trkpt>
      <trkpt lat="47.31183" lon="-2.39871">
        <ele>87</ele>
        <time>2019-07-11T08:40:42.000Z</time>
      </trkpt>
      <trkpt lat="47.31186" lon="-2.39877">
        <ele>87</ele>
        <time>2019-07-11T08:40:43.000Z</time>
      </trkpt>
      <trkpt lat="47.31189" lon="-2.39884">
        <ele>87</ele>
        <time>2019-07-11T08:40:45.000Z</time>
      </trkpt>
      <trkpt lat="47.31193" lon="-2.39902">
        <ele>87</ele>
        <time>2019-07-11T08:40:49.000Z</time>
      </trkpt>
      <trkpt lat="47.31195" lon="-2.39905">
        <ele>87</ele>
        <time>2019-07-11T08:40:50.000Z</time>
      </trkpt>
      <trkpt lat="47.31204" lon="-2.39923">
        <ele>87</ele>
        <time>2019-07-11T08:40:55.000Z</time>
      </trkpt>
      <trkpt lat="47.31211" lon="-2.39938">
        <ele>86.599998474121</ele>
        <time>2019-07-11T08:40:59.000Z</time>
      </trkpt>
      <trkpt lat="47.31212" lon="-2.3994">
        <ele>86.199996948242</ele>
        <time>2019-07-11T08:41:00.000Z</time>
      </trkpt>
      <trkpt lat="47.31213" lon="-2.39942">
        <ele>85.800003051758</ele>
        <time>2019-07-11T08:41:01.000Z</time>
      </trkpt>
      <trkpt lat="47.31214" lon="-2.39943">
        <ele>85.400001525879</ele>
        <time>2019-07-11T08:41:02.000Z</time>
      </trkpt>
      <trkpt lat="47.31215" lon="-2.39945">
        <ele>85</ele>
        <time>2019-07-11T08:41:03.000Z</time>
      </trkpt>
      <trkpt lat="47.31217" lon="-2.39952">
        <ele>85</ele>
        <time>2019-07-11T08:41:06.000Z</time>
      </trkpt>
      <trkpt lat="47.31226" lon="-2.39973">
        <ele>85</ele>
        <time>2019-07-11T08:41:12.000Z</time>
      </trkpt>
      <trkpt lat="47.31234" lon="-2.39994">
        <ele>84.599998474121</ele>
        <time>2019-07-11T08:41:16.000Z</time>
      </trkpt>
      <trkpt lat="47.31235" lon="-2.4">
        <ele>84.199996948242</ele>
        <time>2019-07-11T08:41:17.000Z</time>
      </trkpt>
      <trkpt lat="47.31236" lon="-2.40006">
        <ele>83.800003051758</ele>
        <time>2019-07-11T08:41:18.000Z</time>
      </trkpt>
      <trkpt lat="47.31237" lon="-2.4001">
        <ele>83.400001525879</ele>
        <time>2019-07-11T08:41:19.000Z</time>
      </trkpt>
      <trkpt lat="47.31238" lon="-2.40015">
        <ele>83</ele>
        <time>2019-07-11T08:41:20.000Z</time>
      </trkpt>
      <trkpt lat="47.31241" lon="-2.40021">
        <ele>83</ele>
        <time>2019-07-11T08:41:22.000Z</time>
      </trkpt>
      <trkpt lat="47.31242" lon="-2.40032">
        <ele>83</ele>
        <time>2019-07-11T08:41:25.000Z</time>
      </trkpt>
      <trkpt lat="47.31244" lon="-2.40035">
        <ele>83</ele>
        <time>2019-07-11T08:41:26.000Z</time>
      </trkpt>
      <trkpt lat="47.31251" lon="-2.40041">
        <ele>83</ele>
        <time>2019-07-11T08:41:30.000Z</time>
      </trkpt>
      <trkpt lat="47.31252" lon="-2.40044">
        <ele>83</ele>
        <time>2019-07-11T08:41:31.000Z</time>
      </trkpt>
      <trkpt lat="47.3126" lon="-2.40052">
        <ele>83</ele>
        <time>2019-07-11T08:41:34.000Z</time>
      </trkpt>
      <trkpt lat="47.31273" lon="-2.40056">
        <ele>83</ele>
        <time>2019-07-11T08:41:37.000Z</time>
      </trkpt>
      <trkpt lat="47.31286" lon="-2.40062">
        <ele>83</ele>
        <time>2019-07-11T08:41:40.000Z</time>
      </trkpt>
      <trkpt lat="47.31319" lon="-2.40076">
        <ele>83</ele>
        <time>2019-07-11T08:41:47.000Z</time>
      </trkpt>
      <trkpt lat="47.31344" lon="-2.40088">
        <ele>83</ele>
        <time>2019-07-11T08:41:51.000Z</time>
      </trkpt>
      <trkpt lat="47.31354" lon="-2.40094">
        <ele>83</ele>
        <time>2019-07-11T08:41:53.000Z</time>
      </trkpt>
      <trkpt lat="47.31374" lon="-2.40105">
        <ele>83</ele>
        <time>2019-07-11T08:41:57.000Z</time>
      </trkpt>
      <trkpt lat="47.31384" lon="-2.40111">
        <ele>83</ele>
        <time>2019-07-11T08:41:59.000Z</time>
      </trkpt>
      <trkpt lat="47.31414" lon="-2.4013">
        <ele>83</ele>
        <time>2019-07-11T08:42:06.000Z</time>
      </trkpt>
      <trkpt lat="47.31446" lon="-2.40155">
        <ele>83</ele>
        <time>2019-07-11T08:42:13.000Z</time>
      </trkpt>
      <trkpt lat="47.31459" lon="-2.40166">
        <ele>83.400001525879</ele>
        <time>2019-07-11T08:42:16.000Z</time>
      </trkpt>
      <trkpt lat="47.31463" lon="-2.40169">
        <ele>83.800003051758</ele>
        <time>2019-07-11T08:42:17.000Z</time>
      </trkpt>
      <trkpt lat="47.31468" lon="-2.40172">
        <ele>84.199996948242</ele>
        <time>2019-07-11T08:42:18.000Z</time>
      </trkpt>
      <trkpt lat="47.31472" lon="-2.40175">
        <ele>84.599998474121</ele>
        <time>2019-07-11T08:42:19.000Z</time>
      </trkpt>
      <trkpt lat="47.31476" lon="-2.40178">
        <ele>85</ele>
        <time>2019-07-11T08:42:20.000Z</time>
      </trkpt>
      <trkpt lat="47.31489" lon="-2.40186">
        <ele>85</ele>
        <time>2019-07-11T08:42:23.000Z</time>
      </trkpt>
      <trkpt lat="47.31502" lon="-2.40195">
        <ele>85</ele>
        <time>2019-07-11T08:42:26.000Z</time>
      </trkpt>
      <trkpt lat="47.31513" lon="-2.40205">
        <ele>85</ele>
        <time>2019-07-11T08:42:29.000Z</time>
      </trkpt>
      <trkpt lat="47.31521" lon="-2.40211">
        <ele>85</ele>
        <time>2019-07-11T08:42:31.000Z</time>
      </trkpt>
      <trkpt lat="47.31542" lon="-2.40226">
        <ele>85.400001525879</ele>
        <time>2019-07-11T08:42:36.000Z</time>
      </trkpt>
      <trkpt lat="47.31546" lon="-2.40229">
        <ele>85.800003051758</ele>
        <time>2019-07-11T08:42:37.000Z</time>
      </trkpt>
      <trkpt lat="47.3155" lon="-2.40232">
        <ele>86.199996948242</ele>
        <time>2019-07-11T08:42:38.000Z</time>
      </trkpt>
      <trkpt lat="47.31554" lon="-2.40235">
        <ele>86.599998474121</ele>
        <time>2019-07-11T08:42:39.000Z</time>
      </trkpt>
      <trkpt lat="47.31559" lon="-2.40239">
        <ele>87</ele>
        <time>2019-07-11T08:42:40.000Z</time>
      </trkpt>
      <trkpt lat="47.31571" lon="-2.40248">
        <ele>87</ele>
        <time>2019-07-11T08:42:42.000Z</time>
      </trkpt>
      <trkpt lat="47.31577" lon="-2.40253">
        <ele>87</ele>
        <time>2019-07-11T08:42:43.000Z</time>
      </trkpt>
      <trkpt lat="47.316" lon="-2.40269">
        <ele>87</ele>
        <time>2019-07-11T08:42:47.000Z</time>
      </trkpt>
      <trkpt lat="47.3161" lon="-2.40275">
        <ele>87</ele>
        <time>2019-07-11T08:42:49.000Z</time>
      </trkpt>
      <trkpt lat="47.31635" lon="-2.40295">
        <ele>87</ele>
        <time>2019-07-11T08:42:55.000Z</time>
      </trkpt>
      <trkpt lat="47.3166" lon="-2.40314">
        <ele>87</ele>
        <time>2019-07-11T08:43:02.000Z</time>
      </trkpt>
      <trkpt lat="47.31667" lon="-2.40319">
        <ele>87.400001525879</ele>
        <time>2019-07-11T08:43:04.000Z</time>
      </trkpt>
      <trkpt lat="47.31669" lon="-2.40322">
        <ele>88</ele>
        <time>2019-07-11T08:43:05.000Z</time>
      </trkpt>
      <trkpt lat="47.31671" lon="-2.40324">
        <ele>88.400001525879</ele>
        <time>2019-07-11T08:43:06.000Z</time>
      </trkpt>
      <trkpt lat="47.31673" lon="-2.40327">
        <ele>88.800003051758</ele>
        <time>2019-07-11T08:43:07.000Z</time>
      </trkpt>
      <trkpt lat="47.31676" lon="-2.4033">
        <ele>89.199996948242</ele>
        <time>2019-07-11T08:43:08.000Z</time>
      </trkpt>
      <trkpt lat="47.31683" lon="-2.40335">
        <ele>89.199996948242</ele>
        <time>2019-07-11T08:43:10.000Z</time>
      </trkpt>
      <trkpt lat="47.31688" lon="-2.40338">
        <ele>89.199996948242</ele>
        <time>2019-07-11T08:43:11.000Z</time>
      </trkpt>
      <trkpt lat="47.31713" lon="-2.40357">
        <ele>89.199996948242</ele>
        <time>2019-07-11T08:43:17.000Z</time>
      </trkpt>
      <trkpt lat="47.31732" lon="-2.4037">
        <ele>89.199996948242</ele>
        <time>2019-07-11T08:43:22.000Z</time>
      </trkpt>
      <trkpt lat="47.31737" lon="-2.40372">
        <ele>89.199996948242</ele>
        <time>2019-07-11T08:43:23.000Z</time>
      </trkpt>
      <trkpt lat="47.31753" lon="-2.40384">
        <ele>89.199996948242</ele>
        <time>2019-07-11T08:43:27.000Z</time>
      </trkpt>
      <trkpt lat="47.31756" lon="-2.40387">
        <ele>89.599998474121</ele>
        <time>2019-07-11T08:43:28.000Z</time>
      </trkpt>
      <trkpt lat="47.3176" lon="-2.4039">
        <ele>90</ele>
        <time>2019-07-11T08:43:29.000Z</time>
      </trkpt>
      <trkpt lat="47.31763" lon="-2.40392">
        <ele>90.400001525879</ele>
        <time>2019-07-11T08:43:30.000Z</time>
      </trkpt>
      <trkpt lat="47.31767" lon="-2.40397">
        <ele>90.800003051758</ele>
        <time>2019-07-11T08:43:31.000Z</time>
      </trkpt>
      <trkpt lat="47.31772" lon="-2.40401">
        <ele>91.199996948242</ele>
        <time>2019-07-11T08:43:32.000Z</time>
      </trkpt>
      <trkpt lat="47.31781" lon="-2.40409">
        <ele>91.199996948242</ele>
        <time>2019-07-11T08:43:34.000Z</time>
      </trkpt>
      <trkpt lat="47.31786" lon="-2.40412">
        <ele>91.199996948242</ele>
        <time>2019-07-11T08:43:35.000Z</time>
      </trkpt>
      <trkpt lat="47.31816" lon="-2.40434">
        <ele>91.199996948242</ele>
        <time>2019-07-11T08:43:42.000Z</time>
      </trkpt>
      <trkpt lat="47.31831" lon="-2.40445">
        <ele>91.199996948242</ele>
        <time>2019-07-11T08:43:46.000Z</time>
      </trkpt>
      <trkpt lat="47.31855" lon="-2.40464">
        <ele>91.199996948242</ele>
        <time>2019-07-11T08:43:52.000Z</time>
      </trkpt>
      <trkpt lat="47.31865" lon="-2.40472">
        <ele>91.199996948242</ele>
        <time>2019-07-11T08:43:54.000Z</time>
      </trkpt>
      <trkpt lat="47.31875" lon="-2.40478">
        <ele>91.199996948242</ele>
        <time>2019-07-11T08:43:56.000Z</time>
      </trkpt>
      <trkpt lat="47.31879" lon="-2.40482">
        <ele>91.599998474121</ele>
        <time>2019-07-11T08:43:57.000Z</time>
      </trkpt>
      <trkpt lat="47.31884" lon="-2.40485">
        <ele>92.199996948242</ele>
        <time>2019-07-11T08:43:58.000Z</time>
      </trkpt>
      <trkpt lat="47.31888" lon="-2.40488">
        <ele>92.599998474121</ele>
        <time>2019-07-11T08:43:59.000Z</time>
      </trkpt>
      <trkpt lat="47.31893" lon="-2.40492">
        <ele>93.400001525879</ele>
        <time>2019-07-11T08:44:00.000Z</time>
      </trkpt>
      <trkpt lat="47.31914" lon="-2.40508">
        <ele>93.400001525879</ele>
        <time>2019-07-11T08:44:05.000Z</time>
      </trkpt>
      <trkpt lat="47.31938" lon="-2.40525">
        <ele>93.400001525879</ele>
        <time>2019-07-11T08:44:11.000Z</time>
      </trkpt>
      <trkpt lat="47.31958" lon="-2.40541">
        <ele>93.400001525879</ele>
        <time>2019-07-11T08:44:17.000Z</time>
      </trkpt>
      <trkpt lat="47.31974" lon="-2.40554">
        <ele>93.800003051758</ele>
        <time>2019-07-11T08:44:22.000Z</time>
      </trkpt>
      <trkpt lat="47.31977" lon="-2.40557">
        <ele>94.199996948242</ele>
        <time>2019-07-11T08:44:23.000Z</time>
      </trkpt>
      <trkpt lat="47.31982" lon="-2.40562">
        <ele>94.599998474121</ele>
        <time>2019-07-11T08:44:24.000Z</time>
      </trkpt>
      <trkpt lat="47.31987" lon="-2.40566">
        <ele>95.400001525879</ele>
        <time>2019-07-11T08:44:25.000Z</time>
      </trkpt>
      <trkpt lat="47.32004" lon="-2.40583">
        <ele>95.400001525879</ele>
        <time>2019-07-11T08:44:29.000Z</time>
      </trkpt>
      <trkpt lat="47.3203" lon="-2.40605">
        <ele>95.400001525879</ele>
        <time>2019-07-11T08:44:35.000Z</time>
      </trkpt>
      <trkpt lat="47.32035" lon="-2.40609">
        <ele>95.400001525879</ele>
        <time>2019-07-11T08:44:36.000Z</time>
      </trkpt>
      <trkpt lat="47.32051" lon="-2.40621">
        <ele>95.400001525879</ele>
        <time>2019-07-11T08:44:39.000Z</time>
      </trkpt>
      <trkpt lat="47.32057" lon="-2.40626">
        <ele>95.400001525879</ele>
        <time>2019-07-11T08:44:40.000Z</time>
      </trkpt>
      <trkpt lat="47.32082" lon="-2.40648">
        <ele>95.400001525879</ele>
        <time>2019-07-11T08:44:45.000Z</time>
      </trkpt>
      <trkpt lat="47.32091" lon="-2.40659">
        <ele>95.800003051758</ele>
        <time>2019-07-11T08:44:47.000Z</time>
      </trkpt>
      <trkpt lat="47.32096" lon="-2.40663">
        <ele>96.199996948242</ele>
        <time>2019-07-11T08:44:48.000Z</time>
      </trkpt>
      <trkpt lat="47.321" lon="-2.40668">
        <ele>96.599998474121</ele>
        <time>2019-07-11T08:44:49.000Z</time>
      </trkpt>
      <trkpt lat="47.32105" lon="-2.40673">
        <ele>97.599998474121</ele>
        <time>2019-07-11T08:44:50.000Z</time>
      </trkpt>
      <trkpt lat="47.32114" lon="-2.40682">
        <ele>97.599998474121</ele>
        <time>2019-07-11T08:44:52.000Z</time>
      </trkpt>
      <trkpt lat="47.32123" lon="-2.40693">
        <ele>97.599998474121</ele>
        <time>2019-07-11T08:44:54.000Z</time>
      </trkpt>
      <trkpt lat="47.32136" lon="-2.40708">
        <ele>97.599998474121</ele>
        <time>2019-07-11T08:44:57.000Z</time>
      </trkpt>
      <trkpt lat="47.32153" lon="-2.40728">
        <ele>97.599998474121</ele>
        <time>2019-07-11T08:45:01.000Z</time>
      </trkpt>
      <trkpt lat="47.32165" lon="-2.40744">
        <ele>97.599998474121</ele>
        <time>2019-07-11T08:45:04.000Z</time>
      </trkpt>
      <trkpt lat="47.32189" lon="-2.40777">
        <ele>97.599998474121</ele>
        <time>2019-07-11T08:45:11.000Z</time>
      </trkpt>
      <trkpt lat="47.32197" lon="-2.40789">
        <ele>97.599998474121</ele>
        <time>2019-07-11T08:45:15.000Z</time>
      </trkpt>
      <trkpt lat="47.32199" lon="-2.40791">
        <ele>97.599998474121</ele>
        <time>2019-07-11T08:45:16.000Z</time>
      </trkpt>
      <trkpt lat="47.32209" lon="-2.40809">
        <ele>97.599998474121</ele>
        <time>2019-07-11T08:45:20.000Z</time>
      </trkpt>
      <trkpt lat="47.32222" lon="-2.40826">
        <ele>97.599998474121</ele>
        <time>2019-07-11T08:45:24.000Z</time>
      </trkpt>
      <trkpt lat="47.32237" lon="-2.40848">
        <ele>97.599998474121</ele>
        <time>2019-07-11T08:45:28.000Z</time>
      </trkpt>
      <trkpt lat="47.32245" lon="-2.40859">
        <ele>97.599998474121</ele>
        <time>2019-07-11T08:45:30.000Z</time>
      </trkpt>
      <trkpt lat="47.32269" lon="-2.40901">
        <ele>97.599998474121</ele>
        <time>2019-07-11T08:45:37.000Z</time>
      </trkpt>
      <trkpt lat="47.32292" lon="-2.40942">
        <ele>98</ele>
        <time>2019-07-11T08:45:44.000Z</time>
      </trkpt>
      <trkpt lat="47.32296" lon="-2.40948">
        <ele>98.400001525879</ele>
        <time>2019-07-11T08:45:45.000Z</time>
      </trkpt>
      <trkpt lat="47.32299" lon="-2.40954">
        <ele>98.800003051758</ele>
        <time>2019-07-11T08:45:46.000Z</time>
      </trkpt>
      <trkpt lat="47.32303" lon="-2.40961">
        <ele>99.199996948242</ele>
        <time>2019-07-11T08:45:47.000Z</time>
      </trkpt>
      <trkpt lat="47.32306" lon="-2.40967">
        <ele>99.599998474121</ele>
        <time>2019-07-11T08:45:48.000Z</time>
      </trkpt>
      <trkpt lat="47.32318" lon="-2.40992">
        <ele>99.599998474121</ele>
        <time>2019-07-11T08:45:52.000Z</time>
      </trkpt>
      <trkpt lat="47.32348" lon="-2.41046">
        <ele>99.599998474121</ele>
        <time>2019-07-11T08:46:01.000Z</time>
      </trkpt>
      <trkpt lat="47.32361" lon="-2.41071">
        <ele>99.599998474121</ele>
        <time>2019-07-11T08:46:06.000Z</time>
      </trkpt>
      <trkpt lat="47.32367" lon="-2.4108">
        <ele>99.599998474121</ele>
        <time>2019-07-11T08:46:09.000Z</time>
      </trkpt>
      <trkpt lat="47.32369" lon="-2.41084">
        <ele>99.599998474121</ele>
        <time>2019-07-11T08:46:10.000Z</time>
      </trkpt>
      <trkpt lat="47.32382" lon="-2.41111">
        <ele>99.599998474121</ele>
        <time>2019-07-11T08:46:15.000Z</time>
      </trkpt>
      <trkpt lat="47.32393" lon="-2.41132">
        <ele>100</ele>
        <time>2019-07-11T08:46:19.000Z</time>
      </trkpt>
      <trkpt lat="47.32396" lon="-2.41137">
        <ele>100.40000152588</ele>
        <time>2019-07-11T08:46:20.000Z</time>
      </trkpt>
      <trkpt lat="47.32398" lon="-2.41141">
        <ele>100.80000305176</ele>
        <time>2019-07-11T08:46:21.000Z</time>
      </trkpt>
      <trkpt lat="47.32401" lon="-2.41146">
        <ele>101.19999694824</ele>
        <time>2019-07-11T08:46:22.000Z</time>
      </trkpt>
      <trkpt lat="47.32403" lon="-2.4115">
        <ele>101.59999847412</ele>
        <time>2019-07-11T08:46:23.000Z</time>
      </trkpt>
      <trkpt lat="47.32408" lon="-2.4116">
        <ele>101.59999847412</ele>
        <time>2019-07-11T08:46:27.000Z</time>
      </trkpt>
      <trkpt lat="47.3241" lon="-2.41163">
        <ele>101.59999847412</ele>
        <time>2019-07-11T08:46:31.000Z</time>
      </trkpt>
      <trkpt lat="47.32411" lon="-2.41166">
        <ele>101.59999847412</ele>
        <time>2019-07-11T08:46:37.000Z</time>
      </trkpt>
      <trkpt lat="47.32418" lon="-2.41179">
        <ele>101.59999847412</ele>
        <time>2019-07-11T08:46:41.000Z</time>
      </trkpt>
      <trkpt lat="47.32424" lon="-2.4119">
        <ele>101.59999847412</ele>
        <time>2019-07-11T08:46:43.000Z</time>
      </trkpt>
      <trkpt lat="47.32433" lon="-2.41205">
        <ele>101.59999847412</ele>
        <time>2019-07-11T08:46:46.000Z</time>
      </trkpt>
      <trkpt lat="47.32436" lon="-2.41211">
        <ele>101.59999847412</ele>
        <time>2019-07-11T08:46:47.000Z</time>
      </trkpt>
      <trkpt lat="47.32452" lon="-2.41244">
        <ele>101.59999847412</ele>
        <time>2019-07-11T08:46:52.000Z</time>
      </trkpt>
      <trkpt lat="47.32481" lon="-2.41297">
        <ele>101.59999847412</ele>
        <time>2019-07-11T08:47:00.000Z</time>
      </trkpt>
      <trkpt lat="47.3251" lon="-2.41351">
        <ele>101.59999847412</ele>
        <time>2019-07-11T08:47:08.000Z</time>
      </trkpt>
      <trkpt lat="47.3254" lon="-2.41413">
        <ele>101.59999847412</ele>
        <time>2019-07-11T08:47:17.000Z</time>
      </trkpt>
      <trkpt lat="47.32559" lon="-2.41455">
        <ele>101.59999847412</ele>
        <time>2019-07-11T08:47:24.000Z</time>
      </trkpt>
      <trkpt lat="47.32561" lon="-2.41458">
        <ele>101.59999847412</ele>
        <time>2019-07-11T08:47:25.000Z</time>
      </trkpt>
      <trkpt lat="47.32564" lon="-2.41461">
        <ele>101.19999694824</ele>
        <time>2019-07-11T08:47:26.000Z</time>
      </trkpt>
      <trkpt lat="47.32566" lon="-2.41463">
        <ele>100.80000305176</ele>
        <time>2019-07-11T08:47:27.000Z</time>
      </trkpt>
      <trkpt lat="47.32569" lon="-2.41464">
        <ele>100.40000152588</ele>
        <time>2019-07-11T08:47:28.000Z</time>
      </trkpt>
      <trkpt lat="47.32571" lon="-2.41462">
        <ele>100</ele>
        <time>2019-07-11T08:47:29.000Z</time>
      </trkpt>
      <trkpt lat="47.32573" lon="-2.41459">
        <ele>99.400001525879</ele>
        <time>2019-07-11T08:47:30.000Z</time>
      </trkpt>
      <trkpt lat="47.32576" lon="-2.41433">
        <ele>99.400001525879</ele>
        <time>2019-07-11T08:47:34.000Z</time>
      </trkpt>
      <trkpt lat="47.32578" lon="-2.41402">
        <ele>99.400001525879</ele>
        <time>2019-07-11T08:47:38.000Z</time>
      </trkpt>
      <trkpt lat="47.32581" lon="-2.41395">
        <ele>99.400001525879</ele>
        <time>2019-07-11T08:47:39.000Z</time>
      </trkpt>
      <trkpt lat="47.32594" lon="-2.4138">
        <ele>99.400001525879</ele>
        <time>2019-07-11T08:47:42.000Z</time>
      </trkpt>
      <trkpt lat="47.3261" lon="-2.41372">
        <ele>99.400001525879</ele>
        <time>2019-07-11T08:47:45.000Z</time>
      </trkpt>
      <trkpt lat="47.3262" lon="-2.41366">
        <ele>99.400001525879</ele>
        <time>2019-07-11T08:47:47.000Z</time>
      </trkpt>
      <trkpt lat="47.32634" lon="-2.41358">
        <ele>99</ele>
        <time>2019-07-11T08:47:50.000Z</time>
      </trkpt>
      <trkpt lat="47.32639" lon="-2.41355">
        <ele>98.599998474121</ele>
        <time>2019-07-11T08:47:51.000Z</time>
      </trkpt>
      <trkpt lat="47.32643" lon="-2.41353">
        <ele>98.199996948242</ele>
        <time>2019-07-11T08:47:52.000Z</time>
      </trkpt>
      <trkpt lat="47.32648" lon="-2.4135">
        <ele>97.800003051758</ele>
        <time>2019-07-11T08:47:53.000Z</time>
      </trkpt>
      <trkpt lat="47.32652" lon="-2.41347">
        <ele>97.400001525879</ele>
        <time>2019-07-11T08:47:54.000Z</time>
      </trkpt>
      <trkpt lat="47.32689" lon="-2.41319">
        <ele>97.400001525879</ele>
        <time>2019-07-11T08:48:02.000Z</time>
      </trkpt>
      <trkpt lat="47.32698" lon="-2.41311">
        <ele>96.599998474121</ele>
        <time>2019-07-11T08:48:06.000Z</time>
      </trkpt>
      <trkpt lat="47.32699" lon="-2.41309">
        <ele>96.199996948242</ele>
        <time>2019-07-11T08:48:07.000Z</time>
      </trkpt>
      <trkpt lat="47.32701" lon="-2.41307">
        <ele>95.800003051758</ele>
        <time>2019-07-11T08:48:08.000Z</time>
      </trkpt>
      <trkpt lat="47.32702" lon="-2.41305">
        <ele>95.400001525879</ele>
        <time>2019-07-11T08:48:09.000Z</time>
      </trkpt>
      <trkpt lat="47.32705" lon="-2.41298">
        <ele>95.400001525879</ele>
        <time>2019-07-11T08:48:11.000Z</time>
      </trkpt>
      <trkpt lat="47.3271" lon="-2.41288">
        <ele>95.400001525879</ele>
        <time>2019-07-11T08:48:13.000Z</time>
      </trkpt>
      <trkpt lat="47.32718" lon="-2.41282">
        <ele>95.400001525879</ele>
        <time>2019-07-11T08:48:15.000Z</time>
      </trkpt>
      <trkpt lat="47.32732" lon="-2.4128">
        <ele>95.400001525879</ele>
        <time>2019-07-11T08:48:18.000Z</time>
      </trkpt>
      <trkpt lat="47.32737" lon="-2.41279">
        <ele>95.400001525879</ele>
        <time>2019-07-11T08:48:19.000Z</time>
      </trkpt>
      <trkpt lat="47.32742" lon="-2.41277">
        <ele>95.400001525879</ele>
        <time>2019-07-11T08:48:20.000Z</time>
      </trkpt>
      <trkpt lat="47.32782" lon="-2.41268">
        <ele>95.400001525879</ele>
        <time>2019-07-11T08:48:27.000Z</time>
      </trkpt>
      <trkpt lat="47.32809" lon="-2.41264">
        <ele>95.400001525879</ele>
        <time>2019-07-11T08:48:32.000Z</time>
      </trkpt>
      <trkpt lat="47.32813" lon="-2.41261">
        <ele>95.400001525879</ele>
        <time>2019-07-11T08:48:33.000Z</time>
      </trkpt>
      <trkpt lat="47.32827" lon="-2.41255">
        <ele>95.400001525879</ele>
        <time>2019-07-11T08:48:37.000Z</time>
      </trkpt>
      <trkpt lat="47.32835" lon="-2.41259">
        <ele>95.400001525879</ele>
        <time>2019-07-11T08:48:39.000Z</time>
      </trkpt>
      <trkpt lat="47.3284" lon="-2.4126">
        <ele>95.400001525879</ele>
        <time>2019-07-11T08:48:40.000Z</time>
      </trkpt>
      <trkpt lat="47.32846" lon="-2.4126">
        <ele>95.400001525879</ele>
        <time>2019-07-11T08:48:41.000Z</time>
      </trkpt>
      <trkpt lat="47.32896" lon="-2.41255">
        <ele>95.400001525879</ele>
        <time>2019-07-11T08:48:50.000Z</time>
      </trkpt>
      <trkpt lat="47.32919" lon="-2.41247">
        <ele>95.400001525879</ele>
        <time>2019-07-11T08:48:55.000Z</time>
      </trkpt>
      <trkpt lat="47.32927" lon="-2.41244">
        <ele>95.400001525879</ele>
        <time>2019-07-11T08:48:59.000Z</time>
      </trkpt>
      <trkpt lat="47.32934" lon="-2.41246">
        <ele>95.400001525879</ele>
        <time>2019-07-11T08:49:01.000Z</time>
      </trkpt>
      <trkpt lat="47.32941" lon="-2.41252">
        <ele>95.400001525879</ele>
        <time>2019-07-11T08:49:03.000Z</time>
      </trkpt>
      <trkpt lat="47.32945" lon="-2.41253">
        <ele>95.400001525879</ele>
        <time>2019-07-11T08:49:04.000Z</time>
      </trkpt>
      <trkpt lat="47.32954" lon="-2.41251">
        <ele>95.400001525879</ele>
        <time>2019-07-11T08:49:06.000Z</time>
      </trkpt>
      <trkpt lat="47.32968" lon="-2.41244">
        <ele>95.400001525879</ele>
        <time>2019-07-11T08:49:09.000Z</time>
      </trkpt>
      <trkpt lat="47.32981" lon="-2.41232">
        <ele>95.400001525879</ele>
        <time>2019-07-11T08:49:12.000Z</time>
      </trkpt>
      <trkpt lat="47.32988" lon="-2.4122">
        <ele>95.400001525879</ele>
        <time>2019-07-11T08:49:15.000Z</time>
      </trkpt>
      <trkpt lat="47.32989" lon="-2.4122">
        <ele>95.400001525879</ele>
        <time>2019-07-11T08:49:16.000Z</time>
      </trkpt>
      <trkpt lat="47.32989" lon="-2.41217">
        <ele>95.400001525879</ele>
        <time>2019-07-11T08:49:22.000Z</time>
      </trkpt>
      <trkpt lat="47.32991" lon="-2.41214">
        <ele>95.400001525879</ele>
        <time>2019-07-11T08:49:23.000Z</time>
      </trkpt>
      <trkpt lat="47.33" lon="-2.41213">
        <ele>95.400001525879</ele>
        <time>2019-07-11T08:49:26.000Z</time>
      </trkpt>
      <trkpt lat="47.3301" lon="-2.41218">
        <ele>95.400001525879</ele>
        <time>2019-07-11T08:49:29.000Z</time>
      </trkpt>
      <trkpt lat="47.33023" lon="-2.41208">
        <ele>95.400001525879</ele>
        <time>2019-07-11T08:49:32.000Z</time>
      </trkpt>
      <trkpt lat="47.33031" lon="-2.41194">
        <ele>95.400001525879</ele>
        <time>2019-07-11T08:49:34.000Z</time>
      </trkpt>
      <trkpt lat="47.33043" lon="-2.41169">
        <ele>95.400001525879</ele>
        <time>2019-07-11T08:49:37.000Z</time>
      </trkpt>
      <trkpt lat="47.33074" lon="-2.41101">
        <ele>95</ele>
        <time>2019-07-11T08:49:45.000Z</time>
      </trkpt>
      <trkpt lat="47.33077" lon="-2.41093">
        <ele>94.599998474121</ele>
        <time>2019-07-11T08:49:46.000Z</time>
      </trkpt>
      <trkpt lat="47.3308" lon="-2.41084">
        <ele>94.199996948242</ele>
        <time>2019-07-11T08:49:47.000Z</time>
      </trkpt>
      <trkpt lat="47.33083" lon="-2.41075">
        <ele>93.800003051758</ele>
        <time>2019-07-11T08:49:48.000Z</time>
      </trkpt>
      <trkpt lat="47.33086" lon="-2.41066">
        <ele>93.400001525879</ele>
        <time>2019-07-11T08:49:49.000Z</time>
      </trkpt>
      <trkpt lat="47.33092" lon="-2.41047">
        <ele>93.400001525879</ele>
        <time>2019-07-11T08:49:51.000Z</time>
      </trkpt>
      <trkpt lat="47.33116" lon="-2.40975">
        <ele>93.400001525879</ele>
        <time>2019-07-11T08:49:59.000Z</time>
      </trkpt>
      <trkpt lat="47.33141" lon="-2.40922">
        <ele>93.400001525879</ele>
        <time>2019-07-11T08:50:05.000Z</time>
      </trkpt>
      <trkpt lat="47.33167" lon="-2.40875">
        <ele>93.400001525879</ele>
        <time>2019-07-11T08:50:11.000Z</time>
      </trkpt>
      <trkpt lat="47.33182" lon="-2.40852">
        <ele>92.800003051758</ele>
        <time>2019-07-11T08:50:14.000Z</time>
      </trkpt>
      <trkpt lat="47.33187" lon="-2.40844">
        <ele>92.400001525879</ele>
        <time>2019-07-11T08:50:15.000Z</time>
      </trkpt>
      <trkpt lat="47.33192" lon="-2.40836">
        <ele>92</ele>
        <time>2019-07-11T08:50:16.000Z</time>
      </trkpt>
      <trkpt lat="47.33198" lon="-2.40828">
        <ele>91.400001525879</ele>
        <time>2019-07-11T08:50:17.000Z</time>
      </trkpt>
      <trkpt lat="47.33203" lon="-2.4082">
        <ele>91</ele>
        <time>2019-07-11T08:50:18.000Z</time>
      </trkpt>
      <trkpt lat="47.33224" lon="-2.40786">
        <ele>91</ele>
        <time>2019-07-11T08:50:22.000Z</time>
      </trkpt>
      <trkpt lat="47.33228" lon="-2.40776">
        <ele>90.599998474121</ele>
        <time>2019-07-11T08:50:23.000Z</time>
      </trkpt>
      <trkpt lat="47.33231" lon="-2.40766">
        <ele>90.199996948242</ele>
        <time>2019-07-11T08:50:24.000Z</time>
      </trkpt>
      <trkpt lat="47.33233" lon="-2.40756">
        <ele>89.800003051758</ele>
        <time>2019-07-11T08:50:25.000Z</time>
      </trkpt>
      <trkpt lat="47.33234" lon="-2.40744">
        <ele>89.400001525879</ele>
        <time>2019-07-11T08:50:26.000Z</time>
      </trkpt>
      <trkpt lat="47.33235" lon="-2.40733">
        <ele>88.800003051758</ele>
        <time>2019-07-11T08:50:27.000Z</time>
      </trkpt>
      <trkpt lat="47.33236" lon="-2.40721">
        <ele>88.800003051758</ele>
        <time>2019-07-11T08:50:28.000Z</time>
      </trkpt>
      <trkpt lat="47.33248" lon="-2.40654">
        <ele>88.800003051758</ele>
        <time>2019-07-11T08:50:34.000Z</time>
      </trkpt>
      <trkpt lat="47.33255" lon="-2.40631">
        <ele>88.400001525879</ele>
        <time>2019-07-11T08:50:36.000Z</time>
      </trkpt>
      <trkpt lat="47.33259" lon="-2.40618">
        <ele>88</ele>
        <time>2019-07-11T08:50:37.000Z</time>
      </trkpt>
      <trkpt lat="47.33263" lon="-2.40606">
        <ele>87.599998474121</ele>
        <time>2019-07-11T08:50:38.000Z</time>
      </trkpt>
      <trkpt lat="47.33266" lon="-2.40595">
        <ele>87.199996948242</ele>
        <time>2019-07-11T08:50:39.000Z</time>
      </trkpt>
      <trkpt lat="47.33269" lon="-2.40583">
        <ele>86.800003051758</ele>
        <time>2019-07-11T08:50:40.000Z</time>
      </trkpt>
      <trkpt lat="47.33278" lon="-2.40551">
        <ele>86.400001525879</ele>
        <time>2019-07-11T08:50:43.000Z</time>
      </trkpt>
      <trkpt lat="47.33282" lon="-2.40541">
        <ele>85.800003051758</ele>
        <time>2019-07-11T08:50:44.000Z</time>
      </trkpt>
      <trkpt lat="47.33285" lon="-2.40533">
        <ele>85.400001525879</ele>
        <time>2019-07-11T08:50:45.000Z</time>
      </trkpt>
      <trkpt lat="47.33289" lon="-2.40525">
        <ele>85</ele>
        <time>2019-07-11T08:50:46.000Z</time>
      </trkpt>
      <trkpt lat="47.33294" lon="-2.40517">
        <ele>84.400001525879</ele>
        <time>2019-07-11T08:50:47.000Z</time>
      </trkpt>
      <trkpt lat="47.33304" lon="-2.4049">
        <ele>84.400001525879</ele>
        <time>2019-07-11T08:50:50.000Z</time>
      </trkpt>
      <trkpt lat="47.3331" lon="-2.40441">
        <ele>84.400001525879</ele>
        <time>2019-07-11T08:50:55.000Z</time>
      </trkpt>
      <trkpt lat="47.33313" lon="-2.40392">
        <ele>84.400001525879</ele>
        <time>2019-07-11T08:51:00.000Z</time>
      </trkpt>
      <trkpt lat="47.33312" lon="-2.40374">
        <ele>85</ele>
        <time>2019-07-11T08:51:02.000Z</time>
      </trkpt>
      <trkpt lat="47.33313" lon="-2.40365">
        <ele>85.400001525879</ele>
        <time>2019-07-11T08:51:03.000Z</time>
      </trkpt>
      <trkpt lat="47.33314" lon="-2.40357">
        <ele>85.800003051758</ele>
        <time>2019-07-11T08:51:04.000Z</time>
      </trkpt>
      <trkpt lat="47.33316" lon="-2.40349">
        <ele>86.199996948242</ele>
        <time>2019-07-11T08:51:05.000Z</time>
      </trkpt>
      <trkpt lat="47.33318" lon="-2.40341">
        <ele>86.599998474121</ele>
        <time>2019-07-11T08:51:06.000Z</time>
      </trkpt>
      <trkpt lat="47.3332" lon="-2.40334">
        <ele>87</ele>
        <time>2019-07-11T08:51:07.000Z</time>
      </trkpt>
      <trkpt lat="47.33323" lon="-2.40326">
        <ele>87.400001525879</ele>
        <time>2019-07-11T08:51:08.000Z</time>
      </trkpt>
      <trkpt lat="47.33325" lon="-2.40319">
        <ele>87.800003051758</ele>
        <time>2019-07-11T08:51:09.000Z</time>
      </trkpt>
      <trkpt lat="47.33327" lon="-2.40312">
        <ele>88.199996948242</ele>
        <time>2019-07-11T08:51:10.000Z</time>
      </trkpt>
      <trkpt lat="47.33329" lon="-2.40304">
        <ele>88.800003051758</ele>
        <time>2019-07-11T08:51:11.000Z</time>
      </trkpt>
      <trkpt lat="47.33331" lon="-2.40296">
        <ele>89.199996948242</ele>
        <time>2019-07-11T08:51:12.000Z</time>
      </trkpt>
      <trkpt lat="47.33332" lon="-2.40288">
        <ele>89.599998474121</ele>
        <time>2019-07-11T08:51:13.000Z</time>
      </trkpt>
      <trkpt lat="47.33334" lon="-2.40279">
        <ele>90</ele>
        <time>2019-07-11T08:51:14.000Z</time>
      </trkpt>
      <trkpt lat="47.33335" lon="-2.4027">
        <ele>90.400001525879</ele>
        <time>2019-07-11T08:51:15.000Z</time>
      </trkpt>
      <trkpt lat="47.33336" lon="-2.40261">
        <ele>90.800003051758</ele>
        <time>2019-07-11T08:51:16.000Z</time>
      </trkpt>
      <trkpt lat="47.33337" lon="-2.40253">
        <ele>90.800003051758</ele>
        <time>2019-07-11T08:51:17.000Z</time>
      </trkpt>
      <trkpt lat="47.33344" lon="-2.402">
        <ele>90.800003051758</ele>
        <time>2019-07-11T08:51:23.000Z</time>
      </trkpt>
      <trkpt lat="47.33346" lon="-2.40182">
        <ele>91.199996948242</ele>
        <time>2019-07-11T08:51:25.000Z</time>
      </trkpt>
      <trkpt lat="47.33347" lon="-2.40173">
        <ele>91.599998474121</ele>
        <time>2019-07-11T08:51:26.000Z</time>
      </trkpt>
      <trkpt lat="47.33348" lon="-2.40164">
        <ele>92</ele>
        <time>2019-07-11T08:51:27.000Z</time>
      </trkpt>
      <trkpt lat="47.33349" lon="-2.40154">
        <ele>92.400001525879</ele>
        <time>2019-07-11T08:51:28.000Z</time>
      </trkpt>
      <trkpt lat="47.3335" lon="-2.40145">
        <ele>92.800003051758</ele>
        <time>2019-07-11T08:51:29.000Z</time>
      </trkpt>
      <trkpt lat="47.33352" lon="-2.40125">
        <ele>92.800003051758</ele>
        <time>2019-07-11T08:51:31.000Z</time>
      </trkpt>
      <trkpt lat="47.3336" lon="-2.40049">
        <ele>92.800003051758</ele>
        <time>2019-07-11T08:51:39.000Z</time>
      </trkpt>
      <trkpt lat="47.33374" lon="-2.40016">
        <ele>92.800003051758</ele>
        <time>2019-07-11T08:51:43.000Z</time>
      </trkpt>
      <trkpt lat="47.33379" lon="-2.40008">
        <ele>92.800003051758</ele>
        <time>2019-07-11T08:51:44.000Z</time>
      </trkpt>
      <trkpt lat="47.33407" lon="-2.3997">
        <ele>92.400001525879</ele>
        <time>2019-07-11T08:51:49.000Z</time>
      </trkpt>
      <trkpt lat="47.33412" lon="-2.39962">
        <ele>92</ele>
        <time>2019-07-11T08:51:50.000Z</time>
      </trkpt>
      <trkpt lat="47.33417" lon="-2.39954">
        <ele>91.599998474121</ele>
        <time>2019-07-11T08:51:51.000Z</time>
      </trkpt>
      <trkpt lat="47.33422" lon="-2.39946">
        <ele>91.199996948242</ele>
        <time>2019-07-11T08:51:52.000Z</time>
      </trkpt>
      <trkpt lat="47.33427" lon="-2.39936">
        <ele>90.800003051758</ele>
        <time>2019-07-11T08:51:53.000Z</time>
      </trkpt>
      <trkpt lat="47.33437" lon="-2.3992">
        <ele>90.800003051758</ele>
        <time>2019-07-11T08:51:55.000Z</time>
      </trkpt>
      <trkpt lat="47.33454" lon="-2.39897">
        <ele>90.199996948242</ele>
        <time>2019-07-11T08:51:58.000Z</time>
      </trkpt>
      <trkpt lat="47.3346" lon="-2.39889">
        <ele>89.800003051758</ele>
        <time>2019-07-11T08:51:59.000Z</time>
      </trkpt>
      <trkpt lat="47.33466" lon="-2.3988">
        <ele>89.400001525879</ele>
        <time>2019-07-11T08:52:00.000Z</time>
      </trkpt>
      <trkpt lat="47.33473" lon="-2.39872">
        <ele>89</ele>
        <time>2019-07-11T08:52:01.000Z</time>
      </trkpt>
      <trkpt lat="47.33479" lon="-2.39864">
        <ele>88.599998474121</ele>
        <time>2019-07-11T08:52:02.000Z</time>
      </trkpt>
      <trkpt lat="47.33508" lon="-2.39822">
        <ele>88.199996948242</ele>
        <time>2019-07-11T08:52:07.000Z</time>
      </trkpt>
      <trkpt lat="47.33513" lon="-2.39812">
        <ele>87.800003051758</ele>
        <time>2019-07-11T08:52:08.000Z</time>
      </trkpt>
      <trkpt lat="47.33519" lon="-2.39803">
        <ele>87.400001525879</ele>
        <time>2019-07-11T08:52:09.000Z</time>
      </trkpt>
      <trkpt lat="47.33524" lon="-2.39795">
        <ele>87</ele>
        <time>2019-07-11T08:52:10.000Z</time>
      </trkpt>
      <trkpt lat="47.3353" lon="-2.39787">
        <ele>86.400001525879</ele>
        <time>2019-07-11T08:52:11.000Z</time>
      </trkpt>
      <trkpt lat="47.33541" lon="-2.39771">
        <ele>86.400001525879</ele>
        <time>2019-07-11T08:52:13.000Z</time>
      </trkpt>
      <trkpt lat="47.33578" lon="-2.39732">
        <ele>86.400001525879</ele>
        <time>2019-07-11T08:52:19.000Z</time>
      </trkpt>
      <trkpt lat="47.33598" lon="-2.397">
        <ele>86.400001525879</ele>
        <time>2019-07-11T08:52:23.000Z</time>
      </trkpt>
      <trkpt lat="47.33603" lon="-2.39691">
        <ele>86</ele>
        <time>2019-07-11T08:52:24.000Z</time>
      </trkpt>
      <trkpt lat="47.33609" lon="-2.39683">
        <ele>85.599998474121</ele>
        <time>2019-07-11T08:52:25.000Z</time>
      </trkpt>
      <trkpt lat="47.33614" lon="-2.39675">
        <ele>85.199996948242</ele>
        <time>2019-07-11T08:52:26.000Z</time>
      </trkpt>
      <trkpt lat="47.33619" lon="-2.39668">
        <ele>84.800003051758</ele>
        <time>2019-07-11T08:52:27.000Z</time>
      </trkpt>
      <trkpt lat="47.33625" lon="-2.3966">
        <ele>84.400001525879</ele>
        <time>2019-07-11T08:52:28.000Z</time>
      </trkpt>
      <trkpt lat="47.3363" lon="-2.39652">
        <ele>84.400001525879</ele>
        <time>2019-07-11T08:52:29.000Z</time>
      </trkpt>
      <trkpt lat="47.33649" lon="-2.39606">
        <ele>84.400001525879</ele>
        <time>2019-07-11T08:52:34.000Z</time>
      </trkpt>
      <trkpt lat="47.3367" lon="-2.39544">
        <ele>84.800003051758</ele>
        <time>2019-07-11T08:52:41.000Z</time>
      </trkpt>
      <trkpt lat="47.33673" lon="-2.39535">
        <ele>85.199996948242</ele>
        <time>2019-07-11T08:52:42.000Z</time>
      </trkpt>
      <trkpt lat="47.33676" lon="-2.39527">
        <ele>85.800003051758</ele>
        <time>2019-07-11T08:52:43.000Z</time>
      </trkpt>
      <trkpt lat="47.33679" lon="-2.39519">
        <ele>86.199996948242</ele>
        <time>2019-07-11T08:52:44.000Z</time>
      </trkpt>
      <trkpt lat="47.33681" lon="-2.39511">
        <ele>86.599998474121</ele>
        <time>2019-07-11T08:52:45.000Z</time>
      </trkpt>
      <trkpt lat="47.33689" lon="-2.39486">
        <ele>86.599998474121</ele>
        <time>2019-07-11T08:52:48.000Z</time>
      </trkpt>
      <trkpt lat="47.337" lon="-2.39434">
        <ele>86.599998474121</ele>
        <time>2019-07-11T08:52:54.000Z</time>
      </trkpt>
      <trkpt lat="47.33701" lon="-2.39425">
        <ele>86.599998474121</ele>
        <time>2019-07-11T08:52:55.000Z</time>
      </trkpt>
      <trkpt lat="47.33708" lon="-2.39368">
        <ele>86.599998474121</ele>
        <time>2019-07-11T08:53:01.000Z</time>
      </trkpt>
      <trkpt lat="47.33711" lon="-2.39323">
        <ele>86.599998474121</ele>
        <time>2019-07-11T08:53:06.000Z</time>
      </trkpt>
      <trkpt lat="47.33712" lon="-2.39316">
        <ele>86.599998474121</ele>
        <time>2019-07-11T08:53:07.000Z</time>
      </trkpt>
      <trkpt lat="47.33718" lon="-2.39305">
        <ele>86.599998474121</ele>
        <time>2019-07-11T08:53:10.000Z</time>
      </trkpt>
      <trkpt lat="47.33735" lon="-2.39303">
        <ele>86.599998474121</ele>
        <time>2019-07-11T08:53:14.000Z</time>
      </trkpt>
      <trkpt lat="47.33745" lon="-2.39303">
        <ele>86.599998474121</ele>
        <time>2019-07-11T08:53:16.000Z</time>
      </trkpt>
      <trkpt lat="47.33762" lon="-2.39301">
        <ele>86.599998474121</ele>
        <time>2019-07-11T08:53:19.000Z</time>
      </trkpt>
      <trkpt lat="47.33802" lon="-2.39293">
        <ele>86.599998474121</ele>
        <time>2019-07-11T08:53:25.000Z</time>
      </trkpt>
      <trkpt lat="47.33817" lon="-2.39291">
        <ele>85.800003051758</ele>
        <time>2019-07-11T08:53:27.000Z</time>
      </trkpt>
      <trkpt lat="47.33824" lon="-2.3929">
        <ele>85.199996948242</ele>
        <time>2019-07-11T08:53:28.000Z</time>
      </trkpt>
      <trkpt lat="47.33832" lon="-2.39289">
        <ele>84.800003051758</ele>
        <time>2019-07-11T08:53:29.000Z</time>
      </trkpt>
      <trkpt lat="47.33839" lon="-2.39288">
        <ele>84.400001525879</ele>
        <time>2019-07-11T08:53:30.000Z</time>
      </trkpt>
      <trkpt lat="47.33854" lon="-2.39286">
        <ele>84.400001525879</ele>
        <time>2019-07-11T08:53:32.000Z</time>
      </trkpt>
      <trkpt lat="47.33912" lon="-2.39276">
        <ele>84.400001525879</ele>
        <time>2019-07-11T08:53:40.000Z</time>
      </trkpt>
      <trkpt lat="47.33947" lon="-2.39268">
        <ele>84</ele>
        <time>2019-07-11T08:53:45.000Z</time>
      </trkpt>
      <trkpt lat="47.33954" lon="-2.39267">
        <ele>83.599998474121</ele>
        <time>2019-07-11T08:53:46.000Z</time>
      </trkpt>
      <trkpt lat="47.33961" lon="-2.39266">
        <ele>83.199996948242</ele>
        <time>2019-07-11T08:53:47.000Z</time>
      </trkpt>
      <trkpt lat="47.33968" lon="-2.39265">
        <ele>82.800003051758</ele>
        <time>2019-07-11T08:53:48.000Z</time>
      </trkpt>
      <trkpt lat="47.33975" lon="-2.39264">
        <ele>82.400001525879</ele>
        <time>2019-07-11T08:53:49.000Z</time>
      </trkpt>
      <trkpt lat="47.34013" lon="-2.39257">
        <ele>82.400001525879</ele>
        <time>2019-07-11T08:53:54.000Z</time>
      </trkpt>
      <trkpt lat="47.34049" lon="-2.39257">
        <ele>82.400001525879</ele>
        <time>2019-07-11T08:53:59.000Z</time>
      </trkpt>
      <trkpt lat="47.34055" lon="-2.39259">
        <ele>81.800003051758</ele>
        <time>2019-07-11T08:54:00.000Z</time>
      </trkpt>
      <trkpt lat="47.3406" lon="-2.39261">
        <ele>81.400001525879</ele>
        <time>2019-07-11T08:54:01.000Z</time>
      </trkpt>
      <trkpt lat="47.34064" lon="-2.39266">
        <ele>81</ele>
        <time>2019-07-11T08:54:02.000Z</time>
      </trkpt>
      <trkpt lat="47.34066" lon="-2.39271">
        <ele>80.599998474121</ele>
        <time>2019-07-11T08:54:03.000Z</time>
      </trkpt>
      <trkpt lat="47.34067" lon="-2.39278">
        <ele>80.199996948242</ele>
        <time>2019-07-11T08:54:04.000Z</time>
      </trkpt>
      <trkpt lat="47.34069" lon="-2.39286">
        <ele>80.199996948242</ele>
        <time>2019-07-11T08:54:05.000Z</time>
      </trkpt>
      <trkpt lat="47.3407" lon="-2.39294">
        <ele>80.199996948242</ele>
        <time>2019-07-11T08:54:06.000Z</time>
      </trkpt>
      <trkpt lat="47.34076" lon="-2.39333">
        <ele>80.199996948242</ele>
        <time>2019-07-11T08:54:10.000Z</time>
      </trkpt>
      <trkpt lat="47.34087" lon="-2.39399">
        <ele>80.199996948242</ele>
        <time>2019-07-11T08:54:17.000Z</time>
      </trkpt>
      <trkpt lat="47.34091" lon="-2.39417">
        <ele>80.199996948242</ele>
        <time>2019-07-11T08:54:19.000Z</time>
      </trkpt>
      <trkpt lat="47.341" lon="-2.39429">
        <ele>80.199996948242</ele>
        <time>2019-07-11T08:54:21.000Z</time>
      </trkpt>
      <trkpt lat="47.34117" lon="-2.39423">
        <ele>80.199996948242</ele>
        <time>2019-07-11T08:54:24.000Z</time>
      </trkpt>
      <trkpt lat="47.34129" lon="-2.39417">
        <ele>80.199996948242</ele>
        <time>2019-07-11T08:54:26.000Z</time>
      </trkpt>
      <trkpt lat="47.3414" lon="-2.3941">
        <ele>80.599998474121</ele>
        <time>2019-07-11T08:54:28.000Z</time>
      </trkpt>
      <trkpt lat="47.34145" lon="-2.39407">
        <ele>81</ele>
        <time>2019-07-11T08:54:29.000Z</time>
      </trkpt>
      <trkpt lat="47.3415" lon="-2.39403">
        <ele>81.400001525879</ele>
        <time>2019-07-11T08:54:30.000Z</time>
      </trkpt>
      <trkpt lat="47.34156" lon="-2.39399">
        <ele>81.800003051758</ele>
        <time>2019-07-11T08:54:31.000Z</time>
      </trkpt>
      <trkpt lat="47.34162" lon="-2.39395">
        <ele>82.400001525879</ele>
        <time>2019-07-11T08:54:32.000Z</time>
      </trkpt>
      <trkpt lat="47.34173" lon="-2.39386">
        <ele>82.400001525879</ele>
        <time>2019-07-11T08:54:34.000Z</time>
      </trkpt>
      <trkpt lat="47.34209" lon="-2.39365">
        <ele>82.400001525879</ele>
        <time>2019-07-11T08:54:40.000Z</time>
      </trkpt>
      <trkpt lat="47.34244" lon="-2.39343">
        <ele>82.400001525879</ele>
        <time>2019-07-11T08:54:45.000Z</time>
      </trkpt>
      <trkpt lat="47.34273" lon="-2.39324">
        <ele>82.400001525879</ele>
        <time>2019-07-11T08:54:49.000Z</time>
      </trkpt>
      <trkpt lat="47.34287" lon="-2.39317">
        <ele>82.400001525879</ele>
        <time>2019-07-11T08:54:51.000Z</time>
      </trkpt>
      <trkpt lat="47.34331" lon="-2.39295">
        <ele>82.400001525879</ele>
        <time>2019-07-11T08:54:57.000Z</time>
      </trkpt>
      <trkpt lat="47.34338" lon="-2.39291">
        <ele>81.800003051758</ele>
        <time>2019-07-11T08:54:58.000Z</time>
      </trkpt>
      <trkpt lat="47.34346" lon="-2.39287">
        <ele>81.400001525879</ele>
        <time>2019-07-11T08:54:59.000Z</time>
      </trkpt>
      <trkpt lat="47.34353" lon="-2.39283">
        <ele>81</ele>
        <time>2019-07-11T08:55:00.000Z</time>
      </trkpt>
      <trkpt lat="47.3436" lon="-2.3928">
        <ele>80.599998474121</ele>
        <time>2019-07-11T08:55:01.000Z</time>
      </trkpt>
      <trkpt lat="47.34368" lon="-2.39276">
        <ele>80.199996948242</ele>
        <time>2019-07-11T08:55:02.000Z</time>
      </trkpt>
      <trkpt lat="47.34383" lon="-2.39268">
        <ele>79.800003051758</ele>
        <time>2019-07-11T08:55:04.000Z</time>
      </trkpt>
      <trkpt lat="47.3439" lon="-2.39264">
        <ele>79.199996948242</ele>
        <time>2019-07-11T08:55:05.000Z</time>
      </trkpt>
      <trkpt lat="47.34397" lon="-2.39261">
        <ele>78.199996948242</ele>
        <time>2019-07-11T08:55:06.000Z</time>
      </trkpt>
      <trkpt lat="47.34404" lon="-2.39257">
        <ele>77.800003051758</ele>
        <time>2019-07-11T08:55:07.000Z</time>
      </trkpt>
      <trkpt lat="47.34412" lon="-2.39255">
        <ele>77.400001525879</ele>
        <time>2019-07-11T08:55:08.000Z</time>
      </trkpt>
      <trkpt lat="47.34419" lon="-2.39252">
        <ele>77</ele>
        <time>2019-07-11T08:55:09.000Z</time>
      </trkpt>
      <trkpt lat="47.34427" lon="-2.3925">
        <ele>76.599998474121</ele>
        <time>2019-07-11T08:55:10.000Z</time>
      </trkpt>
      <trkpt lat="47.34435" lon="-2.39247">
        <ele>76.199996948242</ele>
        <time>2019-07-11T08:55:11.000Z</time>
      </trkpt>
      <trkpt lat="47.34444" lon="-2.39245">
        <ele>75.599998474121</ele>
        <time>2019-07-11T08:55:12.000Z</time>
      </trkpt>
      <trkpt lat="47.34461" lon="-2.39241">
        <ele>75.199996948242</ele>
        <time>2019-07-11T08:55:14.000Z</time>
      </trkpt>
      <trkpt lat="47.3447" lon="-2.39239">
        <ele>74.800003051758</ele>
        <time>2019-07-11T08:55:15.000Z</time>
      </trkpt>
      <trkpt lat="47.34478" lon="-2.39237">
        <ele>74.400001525879</ele>
        <time>2019-07-11T08:55:16.000Z</time>
      </trkpt>
      <trkpt lat="47.34487" lon="-2.39235">
        <ele>74</ele>
        <time>2019-07-11T08:55:17.000Z</time>
      </trkpt>
      <trkpt lat="47.34495" lon="-2.39232">
        <ele>73.599998474121</ele>
        <time>2019-07-11T08:55:18.000Z</time>
      </trkpt>
      <trkpt lat="47.3454" lon="-2.39227">
        <ele>73.599998474121</ele>
        <time>2019-07-11T08:55:23.000Z</time>
      </trkpt>
      <trkpt lat="47.34549" lon="-2.39229">
        <ele>73.199996948242</ele>
        <time>2019-07-11T08:55:24.000Z</time>
      </trkpt>
      <trkpt lat="47.34558" lon="-2.39232">
        <ele>72.800003051758</ele>
        <time>2019-07-11T08:55:25.000Z</time>
      </trkpt>
      <trkpt lat="47.34568" lon="-2.39236">
        <ele>72.400001525879</ele>
        <time>2019-07-11T08:55:26.000Z</time>
      </trkpt>
      <trkpt lat="47.34576" lon="-2.39241">
        <ele>72</ele>
        <time>2019-07-11T08:55:27.000Z</time>
      </trkpt>
      <trkpt lat="47.34585" lon="-2.39246">
        <ele>71.599998474121</ele>
        <time>2019-07-11T08:55:28.000Z</time>
      </trkpt>
      <trkpt lat="47.34633" lon="-2.39278">
        <ele>71.199996948242</ele>
        <time>2019-07-11T08:55:34.000Z</time>
      </trkpt>
      <trkpt lat="47.34639" lon="-2.39284">
        <ele>70.599998474121</ele>
        <time>2019-07-11T08:55:35.000Z</time>
      </trkpt>
      <trkpt lat="47.34644" lon="-2.3929">
        <ele>70.199996948242</ele>
        <time>2019-07-11T08:55:36.000Z</time>
      </trkpt>
      <trkpt lat="47.34649" lon="-2.39295">
        <ele>69.800003051758</ele>
        <time>2019-07-11T08:55:37.000Z</time>
      </trkpt>
      <trkpt lat="47.34655" lon="-2.39299">
        <ele>69.400001525879</ele>
        <time>2019-07-11T08:55:38.000Z</time>
      </trkpt>
      <trkpt lat="47.34666" lon="-2.39295">
        <ele>69.400001525879</ele>
        <time>2019-07-11T08:55:40.000Z</time>
      </trkpt>
      <trkpt lat="47.3468" lon="-2.39275">
        <ele>69.400001525879</ele>
        <time>2019-07-11T08:55:43.000Z</time>
      </trkpt>
      <trkpt lat="47.34683" lon="-2.39267">
        <ele>69.400001525879</ele>
        <time>2019-07-11T08:55:44.000Z</time>
      </trkpt>
      <trkpt lat="47.34704" lon="-2.3923">
        <ele>69.400001525879</ele>
        <time>2019-07-11T08:55:50.000Z</time>
      </trkpt>
      <trkpt lat="47.34706" lon="-2.39227">
        <ele>69</ele>
        <time>2019-07-11T08:55:51.000Z</time>
      </trkpt>
      <trkpt lat="47.34706" lon="-2.39225">
        <ele>68.400001525879</ele>
        <time>2019-07-11T08:55:52.000Z</time>
      </trkpt>
      <trkpt lat="47.34706" lon="-2.39223">
        <ele>68</ele>
        <time>2019-07-11T08:55:53.000Z</time>
      </trkpt>
      <trkpt lat="47.34705" lon="-2.39222">
        <ele>67.599998474121</ele>
        <time>2019-07-11T08:55:54.000Z</time>
      </trkpt>
      <trkpt lat="47.34703" lon="-2.39221">
        <ele>67.199996948242</ele>
        <time>2019-07-11T08:55:55.000Z</time>
      </trkpt>
      <trkpt lat="47.34699" lon="-2.39214">
        <ele>67.199996948242</ele>
        <time>2019-07-11T08:55:57.000Z</time>
      </trkpt>
      <trkpt lat="47.34697" lon="-2.3921">
        <ele>67.199996948242</ele>
        <time>2019-07-11T08:55:58.000Z</time>
      </trkpt>
      <trkpt lat="47.34691" lon="-2.39189">
        <ele>67.199996948242</ele>
        <time>2019-07-11T08:56:02.000Z</time>
      </trkpt>
      <trkpt lat="47.34688" lon="-2.39162">
        <ele>67.199996948242</ele>
        <time>2019-07-11T08:56:06.000Z</time>
      </trkpt>
      <trkpt lat="47.34687" lon="-2.39156">
        <ele>67.199996948242</ele>
        <time>2019-07-11T08:56:07.000Z</time>
      </trkpt>
      <trkpt lat="47.34688" lon="-2.39142">
        <ele>67.199996948242</ele>
        <time>2019-07-11T08:56:09.000Z</time>
      </trkpt>
      <trkpt lat="47.3469" lon="-2.39109">
        <ele>67.199996948242</ele>
        <time>2019-07-11T08:56:13.000Z</time>
      </trkpt>
      <trkpt lat="47.34695" lon="-2.39053">
        <ele>67.199996948242</ele>
        <time>2019-07-11T08:56:20.000Z</time>
      </trkpt>
      <trkpt lat="47.34701" lon="-2.39013">
        <ele>67.199996948242</ele>
        <time>2019-07-11T08:56:25.000Z</time>
      </trkpt>
      <trkpt lat="47.34703" lon="-2.38998">
        <ele>67.199996948242</ele>
        <time>2019-07-11T08:56:27.000Z</time>
      </trkpt>
      <trkpt lat="47.34703" lon="-2.38982">
        <ele>67.199996948242</ele>
        <time>2019-07-11T08:56:29.000Z</time>
      </trkpt>
      <trkpt lat="47.34703" lon="-2.38975">
        <ele>67.199996948242</ele>
        <time>2019-07-11T08:56:30.000Z</time>
      </trkpt>
      <trkpt lat="47.34703" lon="-2.38963">
        <ele>66.800003051758</ele>
        <time>2019-07-11T08:56:32.000Z</time>
      </trkpt>
      <trkpt lat="47.34704" lon="-2.38959">
        <ele>66.400001525879</ele>
        <time>2019-07-11T08:56:33.000Z</time>
      </trkpt>
      <trkpt lat="47.34704" lon="-2.38955">
        <ele>66</ele>
        <time>2019-07-11T08:56:34.000Z</time>
      </trkpt>
      <trkpt lat="47.34704" lon="-2.3895">
        <ele>65.599998474121</ele>
        <time>2019-07-11T08:56:35.000Z</time>
      </trkpt>
      <trkpt lat="47.34703" lon="-2.38945">
        <ele>65.199996948242</ele>
        <time>2019-07-11T08:56:36.000Z</time>
      </trkpt>
      <trkpt lat="47.34702" lon="-2.38931">
        <ele>65.199996948242</ele>
        <time>2019-07-11T08:56:39.000Z</time>
      </trkpt>
      <trkpt lat="47.347" lon="-2.38904">
        <ele>65.199996948242</ele>
        <time>2019-07-11T08:56:44.000Z</time>
      </trkpt>
      <trkpt lat="47.347" lon="-2.38871">
        <ele>65.199996948242</ele>
        <time>2019-07-11T08:56:50.000Z</time>
      </trkpt>
      <trkpt lat="47.34699" lon="-2.38839">
        <ele>65.199996948242</ele>
        <time>2019-07-11T08:56:56.000Z</time>
      </trkpt>
      <trkpt lat="47.34699" lon="-2.38796">
        <ele>65.199996948242</ele>
        <time>2019-07-11T08:57:03.000Z</time>
      </trkpt>
      <trkpt lat="47.34697" lon="-2.38755">
        <ele>65.199996948242</ele>
        <time>2019-07-11T08:57:09.000Z</time>
      </trkpt>
      <trkpt lat="47.34696" lon="-2.38719">
        <ele>65.199996948242</ele>
        <time>2019-07-11T08:57:15.000Z</time>
      </trkpt>
      <trkpt lat="47.34692" lon="-2.38683">
        <ele>65.199996948242</ele>
        <time>2019-07-11T08:57:21.000Z</time>
      </trkpt>
      <trkpt lat="47.3469" lon="-2.38638">
        <ele>65.199996948242</ele>
        <time>2019-07-11T08:57:28.000Z</time>
      </trkpt>
      <trkpt lat="47.34688" lon="-2.38581">
        <ele>65.199996948242</ele>
        <time>2019-07-11T08:57:35.000Z</time>
      </trkpt>
      <trkpt lat="47.34686" lon="-2.38536">
        <ele>65.199996948242</ele>
        <time>2019-07-11T08:57:41.000Z</time>
      </trkpt>
      <trkpt lat="47.34686" lon="-2.38529">
        <ele>65.199996948242</ele>
        <time>2019-07-11T08:57:42.000Z</time>
      </trkpt>
      <trkpt lat="47.3468" lon="-2.38483">
        <ele>65.199996948242</ele>
        <time>2019-07-11T08:57:48.000Z</time>
      </trkpt>
      <trkpt lat="47.34668" lon="-2.38432">
        <ele>65.199996948242</ele>
        <time>2019-07-11T08:57:55.000Z</time>
      </trkpt>
      <trkpt lat="47.34666" lon="-2.38425">
        <ele>65.599998474121</ele>
        <time>2019-07-11T08:57:56.000Z</time>
      </trkpt>
      <trkpt lat="47.34663" lon="-2.38417">
        <ele>66</ele>
        <time>2019-07-11T08:57:57.000Z</time>
      </trkpt>
      <trkpt lat="47.34661" lon="-2.38411">
        <ele>66.400001525879</ele>
        <time>2019-07-11T08:57:58.000Z</time>
      </trkpt>
      <trkpt lat="47.3466" lon="-2.38403">
        <ele>67.199996948242</ele>
        <time>2019-07-11T08:57:59.000Z</time>
      </trkpt>
      <trkpt lat="47.34656" lon="-2.38381">
        <ele>67.199996948242</ele>
        <time>2019-07-11T08:58:02.000Z</time>
      </trkpt>
      <trkpt lat="47.34654" lon="-2.38357">
        <ele>67.199996948242</ele>
        <time>2019-07-11T08:58:05.000Z</time>
      </trkpt>
      <trkpt lat="47.34654" lon="-2.38335">
        <ele>67.199996948242</ele>
        <time>2019-07-11T08:58:08.000Z</time>
      </trkpt>
      <trkpt lat="47.34652" lon="-2.38284">
        <ele>67.199996948242</ele>
        <time>2019-07-11T08:58:15.000Z</time>
      </trkpt>
      <trkpt lat="47.3465" lon="-2.38223">
        <ele>67.199996948242</ele>
        <time>2019-07-11T08:58:23.000Z</time>
      </trkpt>
      <trkpt lat="47.34649" lon="-2.38169">
        <ele>67.199996948242</ele>
        <time>2019-07-11T08:58:31.000Z</time>
      </trkpt>
      <trkpt lat="47.34647" lon="-2.38139">
        <ele>67.199996948242</ele>
        <time>2019-07-11T08:58:35.000Z</time>
      </trkpt>
      <trkpt lat="47.34643" lon="-2.38124">
        <ele>67.199996948242</ele>
        <time>2019-07-11T08:58:37.000Z</time>
      </trkpt>
      <trkpt lat="47.34633" lon="-2.38106">
        <ele>67.199996948242</ele>
        <time>2019-07-11T08:58:40.000Z</time>
      </trkpt>
      <trkpt lat="47.3463" lon="-2.381">
        <ele>67.199996948242</ele>
        <time>2019-07-11T08:58:41.000Z</time>
      </trkpt>
      <trkpt lat="47.34613" lon="-2.38069">
        <ele>67.199996948242</ele>
        <time>2019-07-11T08:58:47.000Z</time>
      </trkpt>
      <trkpt lat="47.34612" lon="-2.38049">
        <ele>67.599998474121</ele>
        <time>2019-07-11T08:58:51.000Z</time>
      </trkpt>
      <trkpt lat="47.34613" lon="-2.38044">
        <ele>68</ele>
        <time>2019-07-11T08:58:52.000Z</time>
      </trkpt>
      <trkpt lat="47.34615" lon="-2.3804">
        <ele>68.400001525879</ele>
        <time>2019-07-11T08:58:53.000Z</time>
      </trkpt>
      <trkpt lat="47.34617" lon="-2.38035">
        <ele>68.800003051758</ele>
        <time>2019-07-11T08:58:54.000Z</time>
      </trkpt>
      <trkpt lat="47.34621" lon="-2.3803">
        <ele>69.199996948242</ele>
        <time>2019-07-11T08:58:55.000Z</time>
      </trkpt>
      <trkpt lat="47.34624" lon="-2.38025">
        <ele>69.199996948242</ele>
        <time>2019-07-11T08:58:56.000Z</time>
      </trkpt>
      <trkpt lat="47.34632" lon="-2.38016">
        <ele>69.199996948242</ele>
        <time>2019-07-11T08:58:58.000Z</time>
      </trkpt>
      <trkpt lat="47.34637" lon="-2.38012">
        <ele>69.199996948242</ele>
        <time>2019-07-11T08:58:59.000Z</time>
      </trkpt>
      <trkpt lat="47.34658" lon="-2.37994">
        <ele>69.199996948242</ele>
        <time>2019-07-11T08:59:03.000Z</time>
      </trkpt>
      <trkpt lat="47.34664" lon="-2.37989">
        <ele>69.199996948242</ele>
        <time>2019-07-11T08:59:04.000Z</time>
      </trkpt>
      <trkpt lat="47.34701" lon="-2.3795">
        <ele>69.199996948242</ele>
        <time>2019-07-11T08:59:11.000Z</time>
      </trkpt>
      <trkpt lat="47.34732" lon="-2.37911">
        <ele>69.199996948242</ele>
        <time>2019-07-11T08:59:17.000Z</time>
      </trkpt>
      <trkpt lat="47.34736" lon="-2.37903">
        <ele>69.199996948242</ele>
        <time>2019-07-11T08:59:18.000Z</time>
      </trkpt>
      <trkpt lat="47.34747" lon="-2.37875">
        <ele>69.199996948242</ele>
        <time>2019-07-11T08:59:21.000Z</time>
      </trkpt>
      <trkpt lat="47.34761" lon="-2.37828">
        <ele>69.199996948242</ele>
        <time>2019-07-11T08:59:26.000Z</time>
      </trkpt>
      <trkpt lat="47.3477" lon="-2.37801">
        <ele>69.199996948242</ele>
        <time>2019-07-11T08:59:29.000Z</time>
      </trkpt>
      <trkpt lat="47.34781" lon="-2.37775">
        <ele>69.199996948242</ele>
        <time>2019-07-11T08:59:32.000Z</time>
      </trkpt>
      <trkpt lat="47.34799" lon="-2.37735">
        <ele>69.199996948242</ele>
        <time>2019-07-11T08:59:37.000Z</time>
      </trkpt>
      <trkpt lat="47.34823" lon="-2.37703">
        <ele>69.199996948242</ele>
        <time>2019-07-11T08:59:42.000Z</time>
      </trkpt>
      <trkpt lat="47.34853" lon="-2.37671">
        <ele>69.199996948242</ele>
        <time>2019-07-11T08:59:48.000Z</time>
      </trkpt>
      <trkpt lat="47.34877" lon="-2.37655">
        <ele>69.199996948242</ele>
        <time>2019-07-11T08:59:52.000Z</time>
      </trkpt>
      <trkpt lat="47.34883" lon="-2.37653">
        <ele>69.199996948242</ele>
        <time>2019-07-11T08:59:53.000Z</time>
      </trkpt>
      <trkpt lat="47.34925" lon="-2.37637">
        <ele>69.199996948242</ele>
        <time>2019-07-11T08:59:59.000Z</time>
      </trkpt>
      <trkpt lat="47.3497" lon="-2.3762">
        <ele>69.199996948242</ele>
        <time>2019-07-11T09:00:06.000Z</time>
      </trkpt>
      <trkpt lat="47.34996" lon="-2.37603">
        <ele>69.199996948242</ele>
        <time>2019-07-11T09:00:11.000Z</time>
      </trkpt>
      <trkpt lat="47.35026" lon="-2.37574">
        <ele>69.199996948242</ele>
        <time>2019-07-11T09:00:17.000Z</time>
      </trkpt>
      <trkpt lat="47.35047" lon="-2.37556">
        <ele>69.599998474121</ele>
        <time>2019-07-11T09:00:21.000Z</time>
      </trkpt>
      <trkpt lat="47.35052" lon="-2.37551">
        <ele>70</ele>
        <time>2019-07-11T09:00:22.000Z</time>
      </trkpt>
      <trkpt lat="47.35057" lon="-2.37547">
        <ele>70.400001525879</ele>
        <time>2019-07-11T09:00:23.000Z</time>
      </trkpt>
      <trkpt lat="47.35063" lon="-2.37543">
        <ele>70.800003051758</ele>
        <time>2019-07-11T09:00:24.000Z</time>
      </trkpt>
      <trkpt lat="47.3507" lon="-2.37538">
        <ele>71.400001525879</ele>
        <time>2019-07-11T09:00:25.000Z</time>
      </trkpt>
      <trkpt lat="47.35099" lon="-2.37518">
        <ele>71.400001525879</ele>
        <time>2019-07-11T09:00:30.000Z</time>
      </trkpt>
      <trkpt lat="47.35126" lon="-2.37501">
        <ele>71.400001525879</ele>
        <time>2019-07-11T09:00:34.000Z</time>
      </trkpt>
      <trkpt lat="47.35173" lon="-2.37473">
        <ele>71.400001525879</ele>
        <time>2019-07-11T09:00:41.000Z</time>
      </trkpt>
      <trkpt lat="47.35217" lon="-2.37456">
        <ele>71.400001525879</ele>
        <time>2019-07-11T09:00:48.000Z</time>
      </trkpt>
      <trkpt lat="47.35258" lon="-2.3744">
        <ele>71.400001525879</ele>
        <time>2019-07-11T09:00:55.000Z</time>
      </trkpt>
      <trkpt lat="47.35278" lon="-2.37426">
        <ele>71.400001525879</ele>
        <time>2019-07-11T09:00:59.000Z</time>
      </trkpt>
      <trkpt lat="47.35281" lon="-2.3742">
        <ele>71.400001525879</ele>
        <time>2019-07-11T09:01:00.000Z</time>
      </trkpt>
      <trkpt lat="47.35283" lon="-2.37395">
        <ele>71.400001525879</ele>
        <time>2019-07-11T09:01:03.000Z</time>
      </trkpt>
      <trkpt lat="47.35282" lon="-2.37387">
        <ele>71.400001525879</ele>
        <time>2019-07-11T09:01:04.000Z</time>
      </trkpt>
      <trkpt lat="47.35281" lon="-2.37335">
        <ele>71.400001525879</ele>
        <time>2019-07-11T09:01:10.000Z</time>
      </trkpt>
      <trkpt lat="47.3528" lon="-2.37277">
        <ele>71.400001525879</ele>
        <time>2019-07-11T09:01:16.000Z</time>
      </trkpt>
      <trkpt lat="47.35279" lon="-2.3722">
        <ele>71.400001525879</ele>
        <time>2019-07-11T09:01:22.000Z</time>
      </trkpt>
      <trkpt lat="47.35269" lon="-2.37202">
        <ele>71.400001525879</ele>
        <time>2019-07-11T09:01:25.000Z</time>
      </trkpt>
      <trkpt lat="47.3526" lon="-2.37189">
        <ele>71.400001525879</ele>
        <time>2019-07-11T09:01:27.000Z</time>
      </trkpt>
      <trkpt lat="47.35247" lon="-2.37168">
        <ele>71.400001525879</ele>
        <time>2019-07-11T09:01:30.000Z</time>
      </trkpt>
      <trkpt lat="47.35243" lon="-2.37161">
        <ele>71.400001525879</ele>
        <time>2019-07-11T09:01:31.000Z</time>
      </trkpt>
      <trkpt lat="47.3524" lon="-2.37153">
        <ele>71.400001525879</ele>
        <time>2019-07-11T09:01:32.000Z</time>
      </trkpt>
      <trkpt lat="47.35232" lon="-2.37127">
        <ele>71.400001525879</ele>
        <time>2019-07-11T09:01:35.000Z</time>
      </trkpt>
      <trkpt lat="47.35223" lon="-2.37081">
        <ele>72.199996948242</ele>
        <time>2019-07-11T09:01:40.000Z</time>
      </trkpt>
      <trkpt lat="47.35222" lon="-2.3707">
        <ele>72.599998474121</ele>
        <time>2019-07-11T09:01:41.000Z</time>
      </trkpt>
      <trkpt lat="47.35219" lon="-2.3706">
        <ele>73</ele>
        <time>2019-07-11T09:01:42.000Z</time>
      </trkpt>
      <trkpt lat="47.35217" lon="-2.37051">
        <ele>73.400001525879</ele>
        <time>2019-07-11T09:01:43.000Z</time>
      </trkpt>
      <trkpt lat="47.35207" lon="-2.37014">
        <ele>73.400001525879</ele>
        <time>2019-07-11T09:01:47.000Z</time>
      </trkpt>
      <trkpt lat="47.35188" lon="-2.36973">
        <ele>73.400001525879</ele>
        <time>2019-07-11T09:01:52.000Z</time>
      </trkpt>
      <trkpt lat="47.35165" lon="-2.36925">
        <ele>73.400001525879</ele>
        <time>2019-07-11T09:01:58.000Z</time>
      </trkpt>
      <trkpt lat="47.35146" lon="-2.36871">
        <ele>73.400001525879</ele>
        <time>2019-07-11T09:02:04.000Z</time>
      </trkpt>
      <trkpt lat="47.3513" lon="-2.36798">
        <ele>73.400001525879</ele>
        <time>2019-07-11T09:02:12.000Z</time>
      </trkpt>
      <trkpt lat="47.35116" lon="-2.36736">
        <ele>73.400001525879</ele>
        <time>2019-07-11T09:02:19.000Z</time>
      </trkpt>
      <trkpt lat="47.35097" lon="-2.3667">
        <ele>73.400001525879</ele>
        <time>2019-07-11T09:02:26.000Z</time>
      </trkpt>
      <trkpt lat="47.35078" lon="-2.36614">
        <ele>73</ele>
        <time>2019-07-11T09:02:32.000Z</time>
      </trkpt>
      <trkpt lat="47.35075" lon="-2.36604">
        <ele>72.599998474121</ele>
        <time>2019-07-11T09:02:33.000Z</time>
      </trkpt>
      <trkpt lat="47.35071" lon="-2.36594">
        <ele>72.199996948242</ele>
        <time>2019-07-11T09:02:34.000Z</time>
      </trkpt>
      <trkpt lat="47.35068" lon="-2.36584">
        <ele>71.800003051758</ele>
        <time>2019-07-11T09:02:35.000Z</time>
      </trkpt>
      <trkpt lat="47.35064" lon="-2.36574">
        <ele>71.400001525879</ele>
        <time>2019-07-11T09:02:36.000Z</time>
      </trkpt>
      <trkpt lat="47.35044" lon="-2.36529">
        <ele>71.400001525879</ele>
        <time>2019-07-11T09:02:41.000Z</time>
      </trkpt>
      <trkpt lat="47.35034" lon="-2.36512">
        <ele>71</ele>
        <time>2019-07-11T09:02:43.000Z</time>
      </trkpt>
      <trkpt lat="47.35029" lon="-2.36504">
        <ele>70.599998474121</ele>
        <time>2019-07-11T09:02:44.000Z</time>
      </trkpt>
      <trkpt lat="47.35024" lon="-2.36495">
        <ele>70.199996948242</ele>
        <time>2019-07-11T09:02:45.000Z</time>
      </trkpt>
      <trkpt lat="47.35019" lon="-2.36486">
        <ele>69.800003051758</ele>
        <time>2019-07-11T09:02:46.000Z</time>
      </trkpt>
      <trkpt lat="47.35015" lon="-2.36476">
        <ele>69.400001525879</ele>
        <time>2019-07-11T09:02:47.000Z</time>
      </trkpt>
      <trkpt lat="47.35012" lon="-2.36465">
        <ele>69.400001525879</ele>
        <time>2019-07-11T09:02:48.000Z</time>
      </trkpt>
      <trkpt lat="47.34993" lon="-2.3642">
        <ele>69.400001525879</ele>
        <time>2019-07-11T09:02:53.000Z</time>
      </trkpt>
      <trkpt lat="47.34974" lon="-2.36409">
        <ele>69.400001525879</ele>
        <time>2019-07-11T09:02:56.000Z</time>
      </trkpt>
      <trkpt lat="47.34944" lon="-2.3639">
        <ele>69.400001525879</ele>
        <time>2019-07-11T09:03:01.000Z</time>
      </trkpt>
      <trkpt lat="47.3492" lon="-2.36377">
        <ele>69.800003051758</ele>
        <time>2019-07-11T09:03:05.000Z</time>
      </trkpt>
      <trkpt lat="47.34915" lon="-2.36373">
        <ele>70.199996948242</ele>
        <time>2019-07-11T09:03:06.000Z</time>
      </trkpt>
      <trkpt lat="47.34909" lon="-2.36369">
        <ele>70.599998474121</ele>
        <time>2019-07-11T09:03:07.000Z</time>
      </trkpt>
      <trkpt lat="47.34903" lon="-2.36365">
        <ele>71.199996948242</ele>
        <time>2019-07-11T09:03:08.000Z</time>
      </trkpt>
      <trkpt lat="47.34897" lon="-2.36361">
        <ele>71.599998474121</ele>
        <time>2019-07-11T09:03:09.000Z</time>
      </trkpt>
      <trkpt lat="47.34872" lon="-2.36345">
        <ele>72</ele>
        <time>2019-07-11T09:03:13.000Z</time>
      </trkpt>
      <trkpt lat="47.34866" lon="-2.3634">
        <ele>72.400001525879</ele>
        <time>2019-07-11T09:03:14.000Z</time>
      </trkpt>
      <trkpt lat="47.3486" lon="-2.36336">
        <ele>73</ele>
        <time>2019-07-11T09:03:15.000Z</time>
      </trkpt>
      <trkpt lat="47.34854" lon="-2.36332">
        <ele>73.400001525879</ele>
        <time>2019-07-11T09:03:16.000Z</time>
      </trkpt>
      <trkpt lat="47.34849" lon="-2.36328">
        <ele>73.800003051758</ele>
        <time>2019-07-11T09:03:17.000Z</time>
      </trkpt>
      <trkpt lat="47.34844" lon="-2.36324">
        <ele>73.800003051758</ele>
        <time>2019-07-11T09:03:18.000Z</time>
      </trkpt>
      <trkpt lat="47.34841" lon="-2.36321">
        <ele>73.800003051758</ele>
        <time>2019-07-11T09:03:19.000Z</time>
      </trkpt>
      <trkpt lat="47.34841" lon="-2.36312">
        <ele>73.800003051758</ele>
        <time>2019-07-11T09:03:21.000Z</time>
      </trkpt>
      <trkpt lat="47.34854" lon="-2.36299">
        <ele>73.800003051758</ele>
        <time>2019-07-11T09:03:25.000Z</time>
      </trkpt>
      <trkpt lat="47.34859" lon="-2.36295">
        <ele>73.800003051758</ele>
        <time>2019-07-11T09:03:26.000Z</time>
      </trkpt>
      <trkpt lat="47.34881" lon="-2.36279">
        <ele>73.800003051758</ele>
        <time>2019-07-11T09:03:30.000Z</time>
      </trkpt>
      <trkpt lat="47.34924" lon="-2.36243">
        <ele>73.800003051758</ele>
        <time>2019-07-11T09:03:37.000Z</time>
      </trkpt>
      <trkpt lat="47.34959" lon="-2.36199">
        <ele>73.400001525879</ele>
        <time>2019-07-11T09:03:43.000Z</time>
      </trkpt>
      <trkpt lat="47.34965" lon="-2.36192">
        <ele>72.800003051758</ele>
        <time>2019-07-11T09:03:44.000Z</time>
      </trkpt>
      <trkpt lat="47.34971" lon="-2.36185">
        <ele>72.400001525879</ele>
        <time>2019-07-11T09:03:45.000Z</time>
      </trkpt>
      <trkpt lat="47.34978" lon="-2.36179">
        <ele>72</ele>
        <time>2019-07-11T09:03:46.000Z</time>
      </trkpt>
      <trkpt lat="47.34985" lon="-2.36173">
        <ele>71.599998474121</ele>
        <time>2019-07-11T09:03:47.000Z</time>
      </trkpt>
      <trkpt lat="47.34991" lon="-2.36169">
        <ele>71.599998474121</ele>
        <time>2019-07-11T09:03:48.000Z</time>
      </trkpt>
      <trkpt lat="47.35021" lon="-2.36165">
        <ele>71.599998474121</ele>
        <time>2019-07-11T09:03:52.000Z</time>
      </trkpt>
      <trkpt lat="47.35036" lon="-2.36169">
        <ele>71.599998474121</ele>
        <time>2019-07-11T09:03:54.000Z</time>
      </trkpt>
      <trkpt lat="47.35044" lon="-2.36172">
        <ele>71</ele>
        <time>2019-07-11T09:03:55.000Z</time>
      </trkpt>
      <trkpt lat="47.35052" lon="-2.36175">
        <ele>70.599998474121</ele>
        <time>2019-07-11T09:03:56.000Z</time>
      </trkpt>
      <trkpt lat="47.3506" lon="-2.36177">
        <ele>70.199996948242</ele>
        <time>2019-07-11T09:03:57.000Z</time>
      </trkpt>
      <trkpt lat="47.35067" lon="-2.36177">
        <ele>69.599998474121</ele>
        <time>2019-07-11T09:03:58.000Z</time>
      </trkpt>
      <trkpt lat="47.35073" lon="-2.36177">
        <ele>69.199996948242</ele>
        <time>2019-07-11T09:03:59.000Z</time>
      </trkpt>
      <trkpt lat="47.35084" lon="-2.36175">
        <ele>69.199996948242</ele>
        <time>2019-07-11T09:04:01.000Z</time>
      </trkpt>
      <trkpt lat="47.35087" lon="-2.36173">
        <ele>69.199996948242</ele>
        <time>2019-07-11T09:04:02.000Z</time>
      </trkpt>
      <trkpt lat="47.35095" lon="-2.36172">
        <ele>68.800003051758</ele>
        <time>2019-07-11T09:04:04.000Z</time>
      </trkpt>
      <trkpt lat="47.35099" lon="-2.36171">
        <ele>68.400001525879</ele>
        <time>2019-07-11T09:04:05.000Z</time>
      </trkpt>
      <trkpt lat="47.35103" lon="-2.3617">
        <ele>68</ele>
        <time>2019-07-11T09:04:06.000Z</time>
      </trkpt>
      <trkpt lat="47.35108" lon="-2.36168">
        <ele>67.400001525879</ele>
        <time>2019-07-11T09:04:07.000Z</time>
      </trkpt>
      <trkpt lat="47.35114" lon="-2.36165">
        <ele>67</ele>
        <time>2019-07-11T09:04:08.000Z</time>
      </trkpt>
      <trkpt lat="47.35119" lon="-2.36161">
        <ele>67</ele>
        <time>2019-07-11T09:04:09.000Z</time>
      </trkpt>
      <trkpt lat="47.35125" lon="-2.36157">
        <ele>67</ele>
        <time>2019-07-11T09:04:10.000Z</time>
      </trkpt>
      <trkpt lat="47.35157" lon="-2.36133">
        <ele>67</ele>
        <time>2019-07-11T09:04:16.000Z</time>
      </trkpt>
      <trkpt lat="47.35194" lon="-2.36103">
        <ele>67</ele>
        <time>2019-07-11T09:04:22.000Z</time>
      </trkpt>
      <trkpt lat="47.35236" lon="-2.36069">
        <ele>67</ele>
        <time>2019-07-11T09:04:29.000Z</time>
      </trkpt>
      <trkpt lat="47.35275" lon="-2.36037">
        <ele>67</ele>
        <time>2019-07-11T09:04:36.000Z</time>
      </trkpt>
      <trkpt lat="47.35293" lon="-2.36019">
        <ele>66.599998474121</ele>
        <time>2019-07-11T09:04:39.000Z</time>
      </trkpt>
      <trkpt lat="47.35299" lon="-2.36013">
        <ele>66.199996948242</ele>
        <time>2019-07-11T09:04:40.000Z</time>
      </trkpt>
      <trkpt lat="47.35304" lon="-2.36005">
        <ele>65.800003051758</ele>
        <time>2019-07-11T09:04:41.000Z</time>
      </trkpt>
      <trkpt lat="47.35308" lon="-2.35997">
        <ele>65.400001525879</ele>
        <time>2019-07-11T09:04:42.000Z</time>
      </trkpt>
      <trkpt lat="47.35311" lon="-2.35988">
        <ele>65</ele>
        <time>2019-07-11T09:04:43.000Z</time>
      </trkpt>
      <trkpt lat="47.3533" lon="-2.35945">
        <ele>65</ele>
        <time>2019-07-11T09:04:48.000Z</time>
      </trkpt>
      <trkpt lat="47.35351" lon="-2.3591">
        <ele>65</ele>
        <time>2019-07-11T09:04:53.000Z</time>
      </trkpt>
      <trkpt lat="47.3538" lon="-2.35879">
        <ele>65</ele>
        <time>2019-07-11T09:04:59.000Z</time>
      </trkpt>
      <trkpt lat="47.3539" lon="-2.35868">
        <ele>65.400001525879</ele>
        <time>2019-07-11T09:05:01.000Z</time>
      </trkpt>
      <trkpt lat="47.35395" lon="-2.35862">
        <ele>65.800003051758</ele>
        <time>2019-07-11T09:05:02.000Z</time>
      </trkpt>
      <trkpt lat="47.354" lon="-2.35856">
        <ele>66.199996948242</ele>
        <time>2019-07-11T09:05:03.000Z</time>
      </trkpt>
      <trkpt lat="47.35405" lon="-2.35849">
        <ele>66.599998474121</ele>
        <time>2019-07-11T09:05:04.000Z</time>
      </trkpt>
      <trkpt lat="47.3541" lon="-2.35842">
        <ele>67</ele>
        <time>2019-07-11T09:05:05.000Z</time>
      </trkpt>
      <trkpt lat="47.35445" lon="-2.35797">
        <ele>67</ele>
        <time>2019-07-11T09:05:12.000Z</time>
      </trkpt>
      <trkpt lat="47.35459" lon="-2.35777">
        <ele>67.400001525879</ele>
        <time>2019-07-11T09:05:15.000Z</time>
      </trkpt>
      <trkpt lat="47.35464" lon="-2.3577">
        <ele>67.800003051758</ele>
        <time>2019-07-11T09:05:16.000Z</time>
      </trkpt>
      <trkpt lat="47.35469" lon="-2.35763">
        <ele>68.199996948242</ele>
        <time>2019-07-11T09:05:17.000Z</time>
      </trkpt>
      <trkpt lat="47.35473" lon="-2.35756">
        <ele>68.599998474121</ele>
        <time>2019-07-11T09:05:18.000Z</time>
      </trkpt>
      <trkpt lat="47.35478" lon="-2.35748">
        <ele>69</ele>
        <time>2019-07-11T09:05:19.000Z</time>
      </trkpt>
      <trkpt lat="47.3551" lon="-2.35701">
        <ele>69</ele>
        <time>2019-07-11T09:05:26.000Z</time>
      </trkpt>
      <trkpt lat="47.3552" lon="-2.35689">
        <ele>69</ele>
        <time>2019-07-11T09:05:28.000Z</time>
      </trkpt>
      <trkpt lat="47.35537" lon="-2.35674">
        <ele>69</ele>
        <time>2019-07-11T09:05:31.000Z</time>
      </trkpt>
      <trkpt lat="47.35573" lon="-2.35642">
        <ele>69</ele>
        <time>2019-07-11T09:05:37.000Z</time>
      </trkpt>
      <trkpt lat="47.35591" lon="-2.35624">
        <ele>68.599998474121</ele>
        <time>2019-07-11T09:05:40.000Z</time>
      </trkpt>
      <trkpt lat="47.35597" lon="-2.35619">
        <ele>68.199996948242</ele>
        <time>2019-07-11T09:05:41.000Z</time>
      </trkpt>
      <trkpt lat="47.35602" lon="-2.35613">
        <ele>67.800003051758</ele>
        <time>2019-07-11T09:05:42.000Z</time>
      </trkpt>
      <trkpt lat="47.35608" lon="-2.35606">
        <ele>67.400001525879</ele>
        <time>2019-07-11T09:05:43.000Z</time>
      </trkpt>
      <trkpt lat="47.35613" lon="-2.356">
        <ele>67</ele>
        <time>2019-07-11T09:05:44.000Z</time>
      </trkpt>
      <trkpt lat="47.35646" lon="-2.35565">
        <ele>67</ele>
        <time>2019-07-11T09:05:50.000Z</time>
      </trkpt>
      <trkpt lat="47.35681" lon="-2.35537">
        <ele>66.599998474121</ele>
        <time>2019-07-11T09:05:56.000Z</time>
      </trkpt>
      <trkpt lat="47.35687" lon="-2.35533">
        <ele>66.199996948242</ele>
        <time>2019-07-11T09:05:57.000Z</time>
      </trkpt>
      <trkpt lat="47.35693" lon="-2.3553">
        <ele>65.599998474121</ele>
        <time>2019-07-11T09:05:58.000Z</time>
      </trkpt>
      <trkpt lat="47.35698" lon="-2.35528">
        <ele>65.199996948242</ele>
        <time>2019-07-11T09:05:59.000Z</time>
      </trkpt>
      <trkpt lat="47.35704" lon="-2.35525">
        <ele>64.800003051758</ele>
        <time>2019-07-11T09:06:00.000Z</time>
      </trkpt>
      <trkpt lat="47.35716" lon="-2.35519">
        <ele>64.800003051758</ele>
        <time>2019-07-11T09:06:02.000Z</time>
      </trkpt>
      <trkpt lat="47.35752" lon="-2.35502">
        <ele>64.800003051758</ele>
        <time>2019-07-11T09:06:08.000Z</time>
      </trkpt>
      <trkpt lat="47.35762" lon="-2.35495">
        <ele>64.800003051758</ele>
        <time>2019-07-11T09:06:10.000Z</time>
      </trkpt>
      <trkpt lat="47.35781" lon="-2.35488">
        <ele>64.800003051758</ele>
        <time>2019-07-11T09:06:13.000Z</time>
      </trkpt>
      <trkpt lat="47.35824" lon="-2.35469">
        <ele>64.800003051758</ele>
        <time>2019-07-11T09:06:20.000Z</time>
      </trkpt>
      <trkpt lat="47.35859" lon="-2.35452">
        <ele>64.800003051758</ele>
        <time>2019-07-11T09:06:26.000Z</time>
      </trkpt>
      <trkpt lat="47.35897" lon="-2.35422">
        <ele>64.800003051758</ele>
        <time>2019-07-11T09:06:33.000Z</time>
      </trkpt>
      <trkpt lat="47.35915" lon="-2.3541">
        <ele>64.800003051758</ele>
        <time>2019-07-11T09:06:36.000Z</time>
      </trkpt>
      <trkpt lat="47.35926" lon="-2.35405">
        <ele>64.800003051758</ele>
        <time>2019-07-11T09:06:38.000Z</time>
      </trkpt>
      <trkpt lat="47.35932" lon="-2.35401">
        <ele>64.800003051758</ele>
        <time>2019-07-11T09:06:39.000Z</time>
      </trkpt>
      <trkpt lat="47.35946" lon="-2.35382">
        <ele>64.800003051758</ele>
        <time>2019-07-11T09:06:42.000Z</time>
      </trkpt>
      <trkpt lat="47.3595" lon="-2.35375">
        <ele>64.800003051758</ele>
        <time>2019-07-11T09:06:43.000Z</time>
      </trkpt>
      <trkpt lat="47.35976" lon="-2.35336">
        <ele>64.800003051758</ele>
        <time>2019-07-11T09:06:48.000Z</time>
      </trkpt>
      <trkpt lat="47.36009" lon="-2.35291">
        <ele>64.800003051758</ele>
        <time>2019-07-11T09:06:55.000Z</time>
      </trkpt>
      <trkpt lat="47.36043" lon="-2.35246">
        <ele>64.800003051758</ele>
        <time>2019-07-11T09:07:02.000Z</time>
      </trkpt>
      <trkpt lat="47.36077" lon="-2.35199">
        <ele>64.800003051758</ele>
        <time>2019-07-11T09:07:09.000Z</time>
      </trkpt>
      <trkpt lat="47.36085" lon="-2.35184">
        <ele>64.800003051758</ele>
        <time>2019-07-11T09:07:11.000Z</time>
      </trkpt>
      <trkpt lat="47.36089" lon="-2.35165">
        <ele>64.800003051758</ele>
        <time>2019-07-11T09:07:13.000Z</time>
      </trkpt>
      <trkpt lat="47.3609" lon="-2.35137">
        <ele>64.800003051758</ele>
        <time>2019-07-11T09:07:16.000Z</time>
      </trkpt>
      <trkpt lat="47.3609" lon="-2.35127">
        <ele>64.800003051758</ele>
        <time>2019-07-11T09:07:17.000Z</time>
      </trkpt>
      <trkpt lat="47.3609" lon="-2.35118">
        <ele>64.800003051758</ele>
        <time>2019-07-11T09:07:18.000Z</time>
      </trkpt>
      <trkpt lat="47.36094" lon="-2.35063">
        <ele>64.800003051758</ele>
        <time>2019-07-11T09:07:24.000Z</time>
      </trkpt>
      <trkpt lat="47.36097" lon="-2.35008">
        <ele>64.800003051758</ele>
        <time>2019-07-11T09:07:30.000Z</time>
      </trkpt>
      <trkpt lat="47.36096" lon="-2.34998">
        <ele>64.800003051758</ele>
        <time>2019-07-11T09:07:31.000Z</time>
      </trkpt>
      <trkpt lat="47.36087" lon="-2.34943">
        <ele>64.800003051758</ele>
        <time>2019-07-11T09:07:37.000Z</time>
      </trkpt>
      <trkpt lat="47.36086" lon="-2.34896">
        <ele>64.800003051758</ele>
        <time>2019-07-11T09:07:42.000Z</time>
      </trkpt>
      <trkpt lat="47.36083" lon="-2.3488">
        <ele>64.800003051758</ele>
        <time>2019-07-11T09:07:44.000Z</time>
      </trkpt>
      <trkpt lat="47.36079" lon="-2.34875">
        <ele>64.800003051758</ele>
        <time>2019-07-11T09:07:45.000Z</time>
      </trkpt>
      <trkpt lat="47.36067" lon="-2.34872">
        <ele>64.800003051758</ele>
        <time>2019-07-11T09:07:47.000Z</time>
      </trkpt>
      <trkpt lat="47.3606" lon="-2.34872">
        <ele>64.800003051758</ele>
        <time>2019-07-11T09:07:48.000Z</time>
      </trkpt>
      <trkpt lat="47.36033" lon="-2.34869">
        <ele>64.800003051758</ele>
        <time>2019-07-11T09:07:52.000Z</time>
      </trkpt>
      <trkpt lat="47.35977" lon="-2.34866">
        <ele>64.800003051758</ele>
        <time>2019-07-11T09:08:00.000Z</time>
      </trkpt>
      <trkpt lat="47.3594" lon="-2.34862">
        <ele>64.800003051758</ele>
        <time>2019-07-11T09:08:06.000Z</time>
      </trkpt>
      <trkpt lat="47.35922" lon="-2.34855">
        <ele>64.800003051758</ele>
        <time>2019-07-11T09:08:09.000Z</time>
      </trkpt>
      <trkpt lat="47.35916" lon="-2.34848">
        <ele>64.800003051758</ele>
        <time>2019-07-11T09:08:10.000Z</time>
      </trkpt>
      <trkpt lat="47.35904" lon="-2.34821">
        <ele>64.800003051758</ele>
        <time>2019-07-11T09:08:13.000Z</time>
      </trkpt>
      <trkpt lat="47.35879" lon="-2.3476">
        <ele>64.800003051758</ele>
        <time>2019-07-11T09:08:20.000Z</time>
      </trkpt>
      <trkpt lat="47.35856" lon="-2.34703">
        <ele>64.800003051758</ele>
        <time>2019-07-11T09:08:27.000Z</time>
      </trkpt>
      <trkpt lat="47.35832" lon="-2.34645">
        <ele>64.800003051758</ele>
        <time>2019-07-11T09:08:34.000Z</time>
      </trkpt>
      <trkpt lat="47.35807" lon="-2.34587">
        <ele>64.800003051758</ele>
        <time>2019-07-11T09:08:41.000Z</time>
      </trkpt>
      <trkpt lat="47.35797" lon="-2.3455">
        <ele>64.800003051758</ele>
        <time>2019-07-11T09:08:45.000Z</time>
      </trkpt>
      <trkpt lat="47.35796" lon="-2.34541">
        <ele>64.800003051758</ele>
        <time>2019-07-11T09:08:46.000Z</time>
      </trkpt>
      <trkpt lat="47.35787" lon="-2.34459">
        <ele>64.800003051758</ele>
        <time>2019-07-11T09:08:54.000Z</time>
      </trkpt>
      <trkpt lat="47.35776" lon="-2.34373">
        <ele>64.800003051758</ele>
        <time>2019-07-11T09:09:02.000Z</time>
      </trkpt>
      <trkpt lat="47.35768" lon="-2.34313">
        <ele>65.400001525879</ele>
        <time>2019-07-11T09:09:08.000Z</time>
      </trkpt>
      <trkpt lat="47.35766" lon="-2.34303">
        <ele>65.800003051758</ele>
        <time>2019-07-11T09:09:09.000Z</time>
      </trkpt>
      <trkpt lat="47.35766" lon="-2.34293">
        <ele>66.199996948242</ele>
        <time>2019-07-11T09:09:10.000Z</time>
      </trkpt>
      <trkpt lat="47.35765" lon="-2.34284">
        <ele>66.599998474121</ele>
        <time>2019-07-11T09:09:11.000Z</time>
      </trkpt>
      <trkpt lat="47.35765" lon="-2.34274">
        <ele>67.199996948242</ele>
        <time>2019-07-11T09:09:12.000Z</time>
      </trkpt>
      <trkpt lat="47.35765" lon="-2.34238">
        <ele>67.199996948242</ele>
        <time>2019-07-11T09:09:16.000Z</time>
      </trkpt>
      <trkpt lat="47.35764" lon="-2.3421">
        <ele>67.199996948242</ele>
        <time>2019-07-11T09:09:20.000Z</time>
      </trkpt>
      <trkpt lat="47.35762" lon="-2.34205">
        <ele>67.199996948242</ele>
        <time>2019-07-11T09:09:21.000Z</time>
      </trkpt>
      <trkpt lat="47.3575" lon="-2.34204">
        <ele>67.199996948242</ele>
        <time>2019-07-11T09:09:25.000Z</time>
      </trkpt>
      <trkpt lat="47.35742" lon="-2.34207">
        <ele>67.199996948242</ele>
        <time>2019-07-11T09:09:27.000Z</time>
      </trkpt>
      <trkpt lat="47.35724" lon="-2.34213">
        <ele>67.199996948242</ele>
        <time>2019-07-11T09:09:31.000Z</time>
      </trkpt>
      <trkpt lat="47.35708" lon="-2.34214">
        <ele>67.199996948242</ele>
        <time>2019-07-11T09:09:34.000Z</time>
      </trkpt>
      <trkpt lat="47.35692" lon="-2.34211">
        <ele>67.199996948242</ele>
        <time>2019-07-11T09:09:37.000Z</time>
      </trkpt>
      <trkpt lat="47.35657" lon="-2.342">
        <ele>67.199996948242</ele>
        <time>2019-07-11T09:09:43.000Z</time>
      </trkpt>
      <trkpt lat="47.35631" lon="-2.34193">
        <ele>67.199996948242</ele>
        <time>2019-07-11T09:09:47.000Z</time>
      </trkpt>
      <trkpt lat="47.35603" lon="-2.34187">
        <ele>67.199996948242</ele>
        <time>2019-07-11T09:09:51.000Z</time>
      </trkpt>
      <trkpt lat="47.35589" lon="-2.34185">
        <ele>66.800003051758</ele>
        <time>2019-07-11T09:09:53.000Z</time>
      </trkpt>
      <trkpt lat="47.35582" lon="-2.34183">
        <ele>66.400001525879</ele>
        <time>2019-07-11T09:09:54.000Z</time>
      </trkpt>
      <trkpt lat="47.35575" lon="-2.34183">
        <ele>65.800003051758</ele>
        <time>2019-07-11T09:09:55.000Z</time>
      </trkpt>
      <trkpt lat="47.35569" lon="-2.34186">
        <ele>65.400001525879</ele>
        <time>2019-07-11T09:09:56.000Z</time>
      </trkpt>
      <trkpt lat="47.35564" lon="-2.34193">
        <ele>65</ele>
        <time>2019-07-11T09:09:57.000Z</time>
      </trkpt>
      <trkpt lat="47.35561" lon="-2.34202">
        <ele>65</ele>
        <time>2019-07-11T09:09:58.000Z</time>
      </trkpt>
      <trkpt lat="47.35561" lon="-2.34232">
        <ele>65</ele>
        <time>2019-07-11T09:10:01.000Z</time>
      </trkpt>
      <trkpt lat="47.35561" lon="-2.34242">
        <ele>65</ele>
        <time>2019-07-11T09:10:02.000Z</time>
      </trkpt>
      <trkpt lat="47.35559" lon="-2.34294">
        <ele>64.599998474121</ele>
        <time>2019-07-11T09:10:07.000Z</time>
      </trkpt>
      <trkpt lat="47.35558" lon="-2.34304">
        <ele>63.799999237061</ele>
        <time>2019-07-11T09:10:08.000Z</time>
      </trkpt>
      <trkpt lat="47.35558" lon="-2.34315">
        <ele>63.400001525879</ele>
        <time>2019-07-11T09:10:09.000Z</time>
      </trkpt>
      <trkpt lat="47.35556" lon="-2.34325">
        <ele>63</ele>
        <time>2019-07-11T09:10:10.000Z</time>
      </trkpt>
      <trkpt lat="47.3555" lon="-2.34366">
        <ele>63</ele>
        <time>2019-07-11T09:10:14.000Z</time>
      </trkpt>
      <trkpt lat="47.35545" lon="-2.34395">
        <ele>63</ele>
        <time>2019-07-11T09:10:17.000Z</time>
      </trkpt>
      <trkpt lat="47.35538" lon="-2.34433">
        <ele>63</ele>
        <time>2019-07-11T09:10:21.000Z</time>
      </trkpt>
      <trkpt lat="47.35532" lon="-2.34473">
        <ele>62.599998474121</ele>
        <time>2019-07-11T09:10:25.000Z</time>
      </trkpt>
      <trkpt lat="47.3553" lon="-2.34484">
        <ele>62.200000762939</ele>
        <time>2019-07-11T09:10:26.000Z</time>
      </trkpt>
      <trkpt lat="47.35528" lon="-2.34495">
        <ele>61.799999237061</ele>
        <time>2019-07-11T09:10:27.000Z</time>
      </trkpt>
      <trkpt lat="47.35527" lon="-2.34506">
        <ele>61.400001525879</ele>
        <time>2019-07-11T09:10:28.000Z</time>
      </trkpt>
      <trkpt lat="47.35525" lon="-2.34516">
        <ele>61</ele>
        <time>2019-07-11T09:10:29.000Z</time>
      </trkpt>
      <trkpt lat="47.35523" lon="-2.34526">
        <ele>61</ele>
        <time>2019-07-11T09:10:30.000Z</time>
      </trkpt>
      <trkpt lat="47.35517" lon="-2.34545">
        <ele>61</ele>
        <time>2019-07-11T09:10:32.000Z</time>
      </trkpt>
      <trkpt lat="47.35514" lon="-2.34554">
        <ele>61</ele>
        <time>2019-07-11T09:10:33.000Z</time>
      </trkpt>
      <trkpt lat="47.35498" lon="-2.34588">
        <ele>61</ele>
        <time>2019-07-11T09:10:37.000Z</time>
      </trkpt>
      <trkpt lat="47.35473" lon="-2.34642">
        <ele>61</ele>
        <time>2019-07-11T09:10:44.000Z</time>
      </trkpt>
      <trkpt lat="47.35457" lon="-2.34682">
        <ele>61</ele>
        <time>2019-07-11T09:10:49.000Z</time>
      </trkpt>
      <trkpt lat="47.35447" lon="-2.34704">
        <ele>61</ele>
        <time>2019-07-11T09:10:52.000Z</time>
      </trkpt>
      <trkpt lat="47.35438" lon="-2.34706">
        <ele>61</ele>
        <time>2019-07-11T09:10:54.000Z</time>
      </trkpt>
      <trkpt lat="47.35432" lon="-2.34697">
        <ele>61</ele>
        <time>2019-07-11T09:10:56.000Z</time>
      </trkpt>
      <trkpt lat="47.35429" lon="-2.34691">
        <ele>61</ele>
        <time>2019-07-11T09:10:57.000Z</time>
      </trkpt>
      <trkpt lat="47.35417" lon="-2.34671">
        <ele>61</ele>
        <time>2019-07-11T09:11:00.000Z</time>
      </trkpt>
      <trkpt lat="47.35414" lon="-2.34662">
        <ele>61</ele>
        <time>2019-07-11T09:11:01.000Z</time>
      </trkpt>
      <trkpt lat="47.354" lon="-2.34619">
        <ele>61</ele>
        <time>2019-07-11T09:11:06.000Z</time>
      </trkpt>
      <trkpt lat="47.35397" lon="-2.34609">
        <ele>61</ele>
        <time>2019-07-11T09:11:07.000Z</time>
      </trkpt>
      <trkpt lat="47.35371" lon="-2.34549">
        <ele>61</ele>
        <time>2019-07-11T09:11:14.000Z</time>
      </trkpt>
      <trkpt lat="47.35351" lon="-2.34513">
        <ele>61</ele>
        <time>2019-07-11T09:11:19.000Z</time>
      </trkpt>
      <trkpt lat="47.35324" lon="-2.34486">
        <ele>61</ele>
        <time>2019-07-11T09:11:24.000Z</time>
      </trkpt>
      <trkpt lat="47.35306" lon="-2.34476">
        <ele>61</ele>
        <time>2019-07-11T09:11:27.000Z</time>
      </trkpt>
      <trkpt lat="47.35294" lon="-2.34473">
        <ele>61</ele>
        <time>2019-07-11T09:11:29.000Z</time>
      </trkpt>
      <trkpt lat="47.35286" lon="-2.34473">
        <ele>61</ele>
        <time>2019-07-11T09:11:30.000Z</time>
      </trkpt>
      <trkpt lat="47.35266" lon="-2.34479">
        <ele>61</ele>
        <time>2019-07-11T09:11:33.000Z</time>
      </trkpt>
      <trkpt lat="47.35225" lon="-2.34497">
        <ele>61</ele>
        <time>2019-07-11T09:11:39.000Z</time>
      </trkpt>
      <trkpt lat="47.35181" lon="-2.34516">
        <ele>61</ele>
        <time>2019-07-11T09:11:46.000Z</time>
      </trkpt>
      <trkpt lat="47.35147" lon="-2.3453">
        <ele>61</ele>
        <time>2019-07-11T09:11:52.000Z</time>
      </trkpt>
      <trkpt lat="47.35109" lon="-2.34545">
        <ele>61.400001525879</ele>
        <time>2019-07-11T09:11:59.000Z</time>
      </trkpt>
      <trkpt lat="47.35104" lon="-2.34547">
        <ele>61.799999237061</ele>
        <time>2019-07-11T09:12:00.000Z</time>
      </trkpt>
      <trkpt lat="47.35099" lon="-2.34549">
        <ele>62.200000762939</ele>
        <time>2019-07-11T09:12:01.000Z</time>
      </trkpt>
      <trkpt lat="47.35095" lon="-2.34551">
        <ele>62.599998474121</ele>
        <time>2019-07-11T09:12:02.000Z</time>
      </trkpt>
      <trkpt lat="47.35092" lon="-2.34552">
        <ele>63</ele>
        <time>2019-07-11T09:12:03.000Z</time>
      </trkpt>
      <trkpt lat="47.35089" lon="-2.34553">
        <ele>63</ele>
        <time>2019-07-11T09:12:04.000Z</time>
      </trkpt>
      <trkpt lat="47.35086" lon="-2.34551">
        <ele>63</ele>
        <time>2019-07-11T09:12:06.000Z</time>
      </trkpt>
      <trkpt lat="47.35084" lon="-2.34546">
        <ele>63</ele>
        <time>2019-07-11T09:12:08.000Z</time>
      </trkpt>
      <trkpt lat="47.35083" lon="-2.34542">
        <ele>63</ele>
        <time>2019-07-11T09:12:10.000Z</time>
      </trkpt>
      <trkpt lat="47.35081" lon="-2.34534">
        <ele>63</ele>
        <time>2019-07-11T09:12:13.000Z</time>
      </trkpt>
      <trkpt lat="47.35078" lon="-2.34527">
        <ele>62.599998474121</ele>
        <time>2019-07-11T09:12:15.000Z</time>
      </trkpt>
      <trkpt lat="47.35077" lon="-2.34524">
        <ele>62.200000762939</ele>
        <time>2019-07-11T09:12:16.000Z</time>
      </trkpt>
      <trkpt lat="47.35076" lon="-2.34521">
        <ele>61.799999237061</ele>
        <time>2019-07-11T09:12:17.000Z</time>
      </trkpt>
      <trkpt lat="47.35075" lon="-2.34519">
        <ele>61.200000762939</ele>
        <time>2019-07-11T09:12:18.000Z</time>
      </trkpt>
      <trkpt lat="47.35074" lon="-2.34516">
        <ele>60.799999237061</ele>
        <time>2019-07-11T09:12:19.000Z</time>
      </trkpt>
      <trkpt lat="47.35069" lon="-2.34508">
        <ele>60.400001525879</ele>
        <time>2019-07-11T09:12:23.000Z</time>
      </trkpt>
      <trkpt lat="47.35068" lon="-2.34507">
        <ele>60</ele>
        <time>2019-07-11T09:12:24.000Z</time>
      </trkpt>
      <trkpt lat="47.35067" lon="-2.34505">
        <ele>59.599998474121</ele>
        <time>2019-07-11T09:12:25.000Z</time>
      </trkpt>
      <trkpt lat="47.35066" lon="-2.34503">
        <ele>59</ele>
        <time>2019-07-11T09:12:26.000Z</time>
      </trkpt>
      <trkpt lat="47.35065" lon="-2.34502">
        <ele>58.599998474121</ele>
        <time>2019-07-11T09:12:27.000Z</time>
      </trkpt>
      <trkpt lat="47.35062" lon="-2.34499">
        <ele>58.599998474121</ele>
        <time>2019-07-11T09:12:30.000Z</time>
      </trkpt>
      <trkpt lat="47.3506" lon="-2.34499">
        <ele>58.599998474121</ele>
        <time>2019-07-11T09:12:31.000Z</time>
      </trkpt>
      <trkpt lat="47.35054" lon="-2.345">
        <ele>58.599998474121</ele>
        <time>2019-07-11T09:12:34.000Z</time>
      </trkpt>
      <trkpt lat="47.35051" lon="-2.34502">
        <ele>57.799999237061</ele>
        <time>2019-07-11T09:12:36.000Z</time>
      </trkpt>
      <trkpt lat="47.3505" lon="-2.34502">
        <ele>57.400001525879</ele>
        <time>2019-07-11T09:12:37.000Z</time>
      </trkpt>
      <trkpt lat="47.35048" lon="-2.34502">
        <ele>57</ele>
        <time>2019-07-11T09:12:38.000Z</time>
      </trkpt>
      <trkpt lat="47.35047" lon="-2.34501">
        <ele>56.599998474121</ele>
        <time>2019-07-11T09:12:39.000Z</time>
      </trkpt>
      <trkpt lat="47.35042" lon="-2.34492">
        <ele>56.599998474121</ele>
        <time>2019-07-11T09:12:42.000Z</time>
      </trkpt>
      <trkpt lat="47.3503" lon="-2.34482">
        <ele>56.599998474121</ele>
        <time>2019-07-11T09:12:46.000Z</time>
      </trkpt>
      <trkpt lat="47.3502" lon="-2.34478">
        <ele>57</ele>
        <time>2019-07-11T09:12:49.000Z</time>
      </trkpt>
      <trkpt lat="47.35017" lon="-2.34474">
        <ele>57.400001525879</ele>
        <time>2019-07-11T09:12:50.000Z</time>
      </trkpt>
      <trkpt lat="47.35015" lon="-2.3447">
        <ele>58</ele>
        <time>2019-07-11T09:12:51.000Z</time>
      </trkpt>
      <trkpt lat="47.35014" lon="-2.34464">
        <ele>58.400001525879</ele>
        <time>2019-07-11T09:12:52.000Z</time>
      </trkpt>
      <trkpt lat="47.35012" lon="-2.34459">
        <ele>58.799999237061</ele>
        <time>2019-07-11T09:12:53.000Z</time>
      </trkpt>
      <trkpt lat="47.35008" lon="-2.34442">
        <ele>59.200000762939</ele>
        <time>2019-07-11T09:12:56.000Z</time>
      </trkpt>
      <trkpt lat="47.35006" lon="-2.34437">
        <ele>59.799999237061</ele>
        <time>2019-07-11T09:12:57.000Z</time>
      </trkpt>
      <trkpt lat="47.35005" lon="-2.34432">
        <ele>60.200000762939</ele>
        <time>2019-07-11T09:12:58.000Z</time>
      </trkpt>
      <trkpt lat="47.35004" lon="-2.34426">
        <ele>60.599998474121</ele>
        <time>2019-07-11T09:12:59.000Z</time>
      </trkpt>
      <trkpt lat="47.35003" lon="-2.34421">
        <ele>61</ele>
        <time>2019-07-11T09:13:00.000Z</time>
      </trkpt>
      <trkpt lat="47.34999" lon="-2.34401">
        <ele>61</ele>
        <time>2019-07-11T09:13:04.000Z</time>
      </trkpt>
      <trkpt lat="47.34995" lon="-2.34392">
        <ele>61.400001525879</ele>
        <time>2019-07-11T09:13:06.000Z</time>
      </trkpt>
      <trkpt lat="47.34993" lon="-2.34388">
        <ele>61.799999237061</ele>
        <time>2019-07-11T09:13:07.000Z</time>
      </trkpt>
      <trkpt lat="47.3499" lon="-2.34384">
        <ele>62.200000762939</ele>
        <time>2019-07-11T09:13:08.000Z</time>
      </trkpt>
      <trkpt lat="47.34988" lon="-2.34379">
        <ele>62.599998474121</ele>
        <time>2019-07-11T09:13:09.000Z</time>
      </trkpt>
      <trkpt lat="47.34985" lon="-2.34375">
        <ele>63.200000762939</ele>
        <time>2019-07-11T09:13:10.000Z</time>
      </trkpt>
      <trkpt lat="47.34971" lon="-2.34356">
        <ele>63.200000762939</ele>
        <time>2019-07-11T09:13:16.000Z</time>
      </trkpt>
      <trkpt lat="47.34966" lon="-2.34343">
        <ele>63.599998474121</ele>
        <time>2019-07-11T09:13:20.000Z</time>
      </trkpt>
      <trkpt lat="47.34964" lon="-2.3434">
        <ele>64</ele>
        <time>2019-07-11T09:13:21.000Z</time>
      </trkpt>
      <trkpt lat="47.34962" lon="-2.34337">
        <ele>64.400001525879</ele>
        <time>2019-07-11T09:13:22.000Z</time>
      </trkpt>
      <trkpt lat="47.3496" lon="-2.34333">
        <ele>64.800003051758</ele>
        <time>2019-07-11T09:13:23.000Z</time>
      </trkpt>
      <trkpt lat="47.34958" lon="-2.34329">
        <ele>65.199996948242</ele>
        <time>2019-07-11T09:13:24.000Z</time>
      </trkpt>
      <trkpt lat="47.34954" lon="-2.34321">
        <ele>65.199996948242</ele>
        <time>2019-07-11T09:13:26.000Z</time>
      </trkpt>
      <trkpt lat="47.34952" lon="-2.34313">
        <ele>65.599998474121</ele>
        <time>2019-07-11T09:13:28.000Z</time>
      </trkpt>
      <trkpt lat="47.34951" lon="-2.34309">
        <ele>66.199996948242</ele>
        <time>2019-07-11T09:13:29.000Z</time>
      </trkpt>
      <trkpt lat="47.34949" lon="-2.34304">
        <ele>66.599998474121</ele>
        <time>2019-07-11T09:13:30.000Z</time>
      </trkpt>
      <trkpt lat="47.34948" lon="-2.343">
        <ele>67</ele>
        <time>2019-07-11T09:13:31.000Z</time>
      </trkpt>
      <trkpt lat="47.34947" lon="-2.34295">
        <ele>67.599998474121</ele>
        <time>2019-07-11T09:13:32.000Z</time>
      </trkpt>
      <trkpt lat="47.3494" lon="-2.34275">
        <ele>68</ele>
        <time>2019-07-11T09:13:37.000Z</time>
      </trkpt>
      <trkpt lat="47.34938" lon="-2.34271">
        <ele>68.400001525879</ele>
        <time>2019-07-11T09:13:38.000Z</time>
      </trkpt>
      <trkpt lat="47.34937" lon="-2.34267">
        <ele>68.800003051758</ele>
        <time>2019-07-11T09:13:39.000Z</time>
      </trkpt>
      <trkpt lat="47.34936" lon="-2.34263">
        <ele>69.199996948242</ele>
        <time>2019-07-11T09:13:40.000Z</time>
      </trkpt>
      <trkpt lat="47.34934" lon="-2.34259">
        <ele>69.599998474121</ele>
        <time>2019-07-11T09:13:41.000Z</time>
      </trkpt>
      <trkpt lat="47.34926" lon="-2.34235">
        <ele>70</ele>
        <time>2019-07-11T09:13:47.000Z</time>
      </trkpt>
      <trkpt lat="47.34924" lon="-2.34232">
        <ele>70.599998474121</ele>
        <time>2019-07-11T09:13:48.000Z</time>
      </trkpt>
      <trkpt lat="47.34923" lon="-2.34229">
        <ele>71</ele>
        <time>2019-07-11T09:13:49.000Z</time>
      </trkpt>
      <trkpt lat="47.34922" lon="-2.34225">
        <ele>71.800003051758</ele>
        <time>2019-07-11T09:13:50.000Z</time>
      </trkpt>
      <trkpt lat="47.34919" lon="-2.34218">
        <ele>71.800003051758</ele>
        <time>2019-07-11T09:13:52.000Z</time>
      </trkpt>
      <trkpt lat="47.3491" lon="-2.34211">
        <ele>72.199996948242</ele>
        <time>2019-07-11T09:13:56.000Z</time>
      </trkpt>
      <trkpt lat="47.34907" lon="-2.3421">
        <ele>72.599998474121</ele>
        <time>2019-07-11T09:13:57.000Z</time>
      </trkpt>
      <trkpt lat="47.34905" lon="-2.34209">
        <ele>73</ele>
        <time>2019-07-11T09:13:58.000Z</time>
      </trkpt>
      <trkpt lat="47.34902" lon="-2.34207">
        <ele>73.400001525879</ele>
        <time>2019-07-11T09:13:59.000Z</time>
      </trkpt>
      <trkpt lat="47.349" lon="-2.34207">
        <ele>73.800003051758</ele>
        <time>2019-07-11T09:14:00.000Z</time>
      </trkpt>
      <trkpt lat="47.34895" lon="-2.34206">
        <ele>73.800003051758</ele>
        <time>2019-07-11T09:14:02.000Z</time>
      </trkpt>
      <trkpt lat="47.3489" lon="-2.34204">
        <ele>74.400001525879</ele>
        <time>2019-07-11T09:14:05.000Z</time>
      </trkpt>
      <trkpt lat="47.34889" lon="-2.34204">
        <ele>74.800003051758</ele>
        <time>2019-07-11T09:14:06.000Z</time>
      </trkpt>
      <trkpt lat="47.34888" lon="-2.34203">
        <ele>75.199996948242</ele>
        <time>2019-07-11T09:14:07.000Z</time>
      </trkpt>
      <trkpt lat="47.34888" lon="-2.34203">
        <ele>75.599998474121</ele>
        <time>2019-07-11T09:14:08.000Z</time>
      </trkpt>
      <trkpt lat="47.34886" lon="-2.34207">
        <ele>76.199996948242</ele>
        <time>2019-07-11T09:26:40.000Z</time>
      </trkpt>
      <trkpt lat="47.3488" lon="-2.3421">
        <ele>76.199996948242</ele>
        <time>2019-07-11T09:26:43.000Z</time>
      </trkpt>
      <trkpt lat="47.34877" lon="-2.34213">
        <ele>76.199996948242</ele>
        <time>2019-07-11T09:26:44.000Z</time>
      </trkpt>
      <trkpt lat="47.34871" lon="-2.34223">
        <ele>76.199996948242</ele>
        <time>2019-07-11T09:26:46.000Z</time>
      </trkpt>
      <trkpt lat="47.34857" lon="-2.34236">
        <ele>76.199996948242</ele>
        <time>2019-07-11T09:26:51.000Z</time>
      </trkpt>
      <trkpt lat="47.34854" lon="-2.34236">
        <ele>75.599998474121</ele>
        <time>2019-07-11T09:26:52.000Z</time>
      </trkpt>
      <trkpt lat="47.34849" lon="-2.34234">
        <ele>75.199996948242</ele>
        <time>2019-07-11T09:26:53.000Z</time>
      </trkpt>
      <trkpt lat="47.34843" lon="-2.34234">
        <ele>74.800003051758</ele>
        <time>2019-07-11T09:26:54.000Z</time>
      </trkpt>
      <trkpt lat="47.34837" lon="-2.34233">
        <ele>74.400001525879</ele>
        <time>2019-07-11T09:26:55.000Z</time>
      </trkpt>
      <trkpt lat="47.34831" lon="-2.34233">
        <ele>73.800003051758</ele>
        <time>2019-07-11T09:26:56.000Z</time>
      </trkpt>
      <trkpt lat="47.34818" lon="-2.34234">
        <ele>73.400001525879</ele>
        <time>2019-07-11T09:26:58.000Z</time>
      </trkpt>
      <trkpt lat="47.34811" lon="-2.34235">
        <ele>73</ele>
        <time>2019-07-11T09:26:59.000Z</time>
      </trkpt>
      <trkpt lat="47.34804" lon="-2.34236">
        <ele>72.599998474121</ele>
        <time>2019-07-11T09:27:00.000Z</time>
      </trkpt>
      <trkpt lat="47.34797" lon="-2.34237">
        <ele>71.800003051758</ele>
        <time>2019-07-11T09:27:01.000Z</time>
      </trkpt>
      <trkpt lat="47.34768" lon="-2.34245">
        <ele>71.400001525879</ele>
        <time>2019-07-11T09:27:05.000Z</time>
      </trkpt>
      <trkpt lat="47.34762" lon="-2.34247">
        <ele>71</ele>
        <time>2019-07-11T09:27:06.000Z</time>
      </trkpt>
      <trkpt lat="47.34755" lon="-2.34249">
        <ele>70.599998474121</ele>
        <time>2019-07-11T09:27:07.000Z</time>
      </trkpt>
      <trkpt lat="47.34748" lon="-2.34252">
        <ele>70.199996948242</ele>
        <time>2019-07-11T09:27:08.000Z</time>
      </trkpt>
      <trkpt lat="47.34742" lon="-2.34254">
        <ele>69.800003051758</ele>
        <time>2019-07-11T09:27:09.000Z</time>
      </trkpt>
      <trkpt lat="47.34728" lon="-2.34256">
        <ele>69.800003051758</ele>
        <time>2019-07-11T09:27:11.000Z</time>
      </trkpt>
      <trkpt lat="47.34672" lon="-2.34265">
        <ele>69.800003051758</ele>
        <time>2019-07-11T09:27:19.000Z</time>
      </trkpt>
      <trkpt lat="47.34665" lon="-2.34267">
        <ele>69.400001525879</ele>
        <time>2019-07-11T09:27:20.000Z</time>
      </trkpt>
      <trkpt lat="47.34658" lon="-2.3427">
        <ele>69</ele>
        <time>2019-07-11T09:27:21.000Z</time>
      </trkpt>
      <trkpt lat="47.34652" lon="-2.34274">
        <ele>68.599998474121</ele>
        <time>2019-07-11T09:27:22.000Z</time>
      </trkpt>
      <trkpt lat="47.34646" lon="-2.34279">
        <ele>68.199996948242</ele>
        <time>2019-07-11T09:27:23.000Z</time>
      </trkpt>
      <trkpt lat="47.3464" lon="-2.34284">
        <ele>67.800003051758</ele>
        <time>2019-07-11T09:27:24.000Z</time>
      </trkpt>
      <trkpt lat="47.34635" lon="-2.3429">
        <ele>67.800003051758</ele>
        <time>2019-07-11T09:27:25.000Z</time>
      </trkpt>
      <trkpt lat="47.34627" lon="-2.34302">
        <ele>67.800003051758</ele>
        <time>2019-07-11T09:27:27.000Z</time>
      </trkpt>
      <trkpt lat="47.34622" lon="-2.34305">
        <ele>67.800003051758</ele>
        <time>2019-07-11T09:27:28.000Z</time>
      </trkpt>
      <trkpt lat="47.34611" lon="-2.34306">
        <ele>67.800003051758</ele>
        <time>2019-07-11T09:27:30.000Z</time>
      </trkpt>
      <trkpt lat="47.34595" lon="-2.34307">
        <ele>68.199996948242</ele>
        <time>2019-07-11T09:27:33.000Z</time>
      </trkpt>
      <trkpt lat="47.3459" lon="-2.34308">
        <ele>68.599998474121</ele>
        <time>2019-07-11T09:27:34.000Z</time>
      </trkpt>
      <trkpt lat="47.34584" lon="-2.34309">
        <ele>69</ele>
        <time>2019-07-11T09:27:35.000Z</time>
      </trkpt>
      <trkpt lat="47.3458" lon="-2.3431">
        <ele>69.400001525879</ele>
        <time>2019-07-11T09:27:36.000Z</time>
      </trkpt>
      <trkpt lat="47.34575" lon="-2.34312">
        <ele>69.800003051758</ele>
        <time>2019-07-11T09:27:37.000Z</time>
      </trkpt>
      <trkpt lat="47.34555" lon="-2.34325">
        <ele>69.800003051758</ele>
        <time>2019-07-11T09:27:42.000Z</time>
      </trkpt>
      <trkpt lat="47.34537" lon="-2.34337">
        <ele>70.199996948242</ele>
        <time>2019-07-11T09:27:46.000Z</time>
      </trkpt>
      <trkpt lat="47.34533" lon="-2.34342">
        <ele>70.599998474121</ele>
        <time>2019-07-11T09:27:47.000Z</time>
      </trkpt>
      <trkpt lat="47.34529" lon="-2.34346">
        <ele>71</ele>
        <time>2019-07-11T09:27:48.000Z</time>
      </trkpt>
      <trkpt lat="47.34524" lon="-2.34349">
        <ele>71.400001525879</ele>
        <time>2019-07-11T09:27:49.000Z</time>
      </trkpt>
      <trkpt lat="47.3452" lon="-2.34353">
        <ele>71.800003051758</ele>
        <time>2019-07-11T09:27:50.000Z</time>
      </trkpt>
      <trkpt lat="47.34503" lon="-2.3437">
        <ele>71.800003051758</ele>
        <time>2019-07-11T09:27:54.000Z</time>
      </trkpt>
      <trkpt lat="47.34491" lon="-2.34383">
        <ele>71.800003051758</ele>
        <time>2019-07-11T09:27:57.000Z</time>
      </trkpt>
      <trkpt lat="47.34483" lon="-2.34387">
        <ele>71.800003051758</ele>
        <time>2019-07-11T09:27:59.000Z</time>
      </trkpt>
      <trkpt lat="47.34454" lon="-2.344">
        <ele>71.800003051758</ele>
        <time>2019-07-11T09:28:05.000Z</time>
      </trkpt>
      <trkpt lat="47.34425" lon="-2.34411">
        <ele>71.800003051758</ele>
        <time>2019-07-11T09:28:11.000Z</time>
      </trkpt>
      <trkpt lat="47.3442" lon="-2.34414">
        <ele>71.800003051758</ele>
        <time>2019-07-11T09:28:12.000Z</time>
      </trkpt>
      <trkpt lat="47.34391" lon="-2.34428">
        <ele>72.199996948242</ele>
        <time>2019-07-11T09:28:18.000Z</time>
      </trkpt>
      <trkpt lat="47.34386" lon="-2.34431">
        <ele>72.599998474121</ele>
        <time>2019-07-11T09:28:19.000Z</time>
      </trkpt>
      <trkpt lat="47.34381" lon="-2.34433">
        <ele>73</ele>
        <time>2019-07-11T09:28:20.000Z</time>
      </trkpt>
      <trkpt lat="47.34376" lon="-2.34436">
        <ele>73.400001525879</ele>
        <time>2019-07-11T09:28:21.000Z</time>
      </trkpt>
      <trkpt lat="47.34371" lon="-2.34439">
        <ele>73.800003051758</ele>
        <time>2019-07-11T09:28:22.000Z</time>
      </trkpt>
      <trkpt lat="47.3435" lon="-2.34452">
        <ele>73.800003051758</ele>
        <time>2019-07-11T09:28:26.000Z</time>
      </trkpt>
      <trkpt lat="47.34328" lon="-2.34462">
        <ele>73.800003051758</ele>
        <time>2019-07-11T09:28:30.000Z</time>
      </trkpt>
      <trkpt lat="47.34318" lon="-2.34464">
        <ele>73.800003051758</ele>
        <time>2019-07-11T09:28:32.000Z</time>
      </trkpt>
      <trkpt lat="47.34281" lon="-2.34469">
        <ele>73.800003051758</ele>
        <time>2019-07-11T09:28:38.000Z</time>
      </trkpt>
      <trkpt lat="47.34275" lon="-2.34471">
        <ele>73.800003051758</ele>
        <time>2019-07-11T09:28:39.000Z</time>
      </trkpt>
      <trkpt lat="47.34268" lon="-2.34473">
        <ele>73.800003051758</ele>
        <time>2019-07-11T09:28:40.000Z</time>
      </trkpt>
      <trkpt lat="47.34252" lon="-2.34479">
        <ele>73.800003051758</ele>
        <time>2019-07-11T09:28:43.000Z</time>
      </trkpt>
      <trkpt lat="47.34218" lon="-2.34494">
        <ele>73.800003051758</ele>
        <time>2019-07-11T09:28:49.000Z</time>
      </trkpt>
      <trkpt lat="47.3419" lon="-2.34508">
        <ele>73.800003051758</ele>
        <time>2019-07-11T09:28:54.000Z</time>
      </trkpt>
      <trkpt lat="47.34163" lon="-2.34518">
        <ele>73.800003051758</ele>
        <time>2019-07-11T09:28:59.000Z</time>
      </trkpt>
      <trkpt lat="47.34137" lon="-2.34528">
        <ele>74.400001525879</ele>
        <time>2019-07-11T09:29:04.000Z</time>
      </trkpt>
      <trkpt lat="47.34132" lon="-2.3453">
        <ele>75.199996948242</ele>
        <time>2019-07-11T09:29:05.000Z</time>
      </trkpt>
      <trkpt lat="47.34127" lon="-2.34533">
        <ele>75.599998474121</ele>
        <time>2019-07-11T09:29:06.000Z</time>
      </trkpt>
      <trkpt lat="47.34121" lon="-2.34535">
        <ele>76</ele>
        <time>2019-07-11T09:29:07.000Z</time>
      </trkpt>
      <trkpt lat="47.34099" lon="-2.34547">
        <ele>76</ele>
        <time>2019-07-11T09:29:11.000Z</time>
      </trkpt>
      <trkpt lat="47.34088" lon="-2.34556">
        <ele>76</ele>
        <time>2019-07-11T09:29:13.000Z</time>
      </trkpt>
      <trkpt lat="47.34075" lon="-2.34567">
        <ele>76</ele>
        <time>2019-07-11T09:29:16.000Z</time>
      </trkpt>
      <trkpt lat="47.34073" lon="-2.3457">
        <ele>76</ele>
        <time>2019-07-11T09:29:18.000Z</time>
      </trkpt>
      <trkpt lat="47.34072" lon="-2.34569">
        <ele>76</ele>
        <time>2019-07-11T09:29:19.000Z</time>
      </trkpt>
      <trkpt lat="47.34072" lon="-2.34571">
        <ele>76</ele>
        <time>2019-07-11T09:29:23.000Z</time>
      </trkpt>
      <trkpt lat="47.34066" lon="-2.34576">
        <ele>76</ele>
        <time>2019-07-11T09:29:25.000Z</time>
      </trkpt>
      <trkpt lat="47.34053" lon="-2.34585">
        <ele>76</ele>
        <time>2019-07-11T09:29:30.000Z</time>
      </trkpt>
      <trkpt lat="47.34046" lon="-2.34589">
        <ele>76</ele>
        <time>2019-07-11T09:29:32.000Z</time>
      </trkpt>
      <trkpt lat="47.34036" lon="-2.34595">
        <ele>76</ele>
        <time>2019-07-11T09:29:35.000Z</time>
      </trkpt>
      <trkpt lat="47.34016" lon="-2.34596">
        <ele>76</ele>
        <time>2019-07-11T09:29:40.000Z</time>
      </trkpt>
      <trkpt lat="47.33995" lon="-2.34595">
        <ele>76.400001525879</ele>
        <time>2019-07-11T09:29:45.000Z</time>
      </trkpt>
      <trkpt lat="47.33992" lon="-2.34594">
        <ele>76.800003051758</ele>
        <time>2019-07-11T09:29:46.000Z</time>
      </trkpt>
      <trkpt lat="47.33987" lon="-2.34594">
        <ele>77.199996948242</ele>
        <time>2019-07-11T09:29:47.000Z</time>
      </trkpt>
      <trkpt lat="47.33983" lon="-2.34594">
        <ele>77.599998474121</ele>
        <time>2019-07-11T09:29:48.000Z</time>
      </trkpt>
      <trkpt lat="47.33978" lon="-2.34593">
        <ele>78</ele>
        <time>2019-07-11T09:29:49.000Z</time>
      </trkpt>
      <trkpt lat="47.33973" lon="-2.34594">
        <ele>78</ele>
        <time>2019-07-11T09:29:50.000Z</time>
      </trkpt>
      <trkpt lat="47.33957" lon="-2.34593">
        <ele>78</ele>
        <time>2019-07-11T09:29:53.000Z</time>
      </trkpt>
      <trkpt lat="47.33928" lon="-2.34594">
        <ele>78</ele>
        <time>2019-07-11T09:29:59.000Z</time>
      </trkpt>
      <trkpt lat="47.33904" lon="-2.34603">
        <ele>78</ele>
        <time>2019-07-11T09:30:04.000Z</time>
      </trkpt>
      <trkpt lat="47.33897" lon="-2.34612">
        <ele>78</ele>
        <time>2019-07-11T09:30:06.000Z</time>
      </trkpt>
      <trkpt lat="47.33895" lon="-2.34624">
        <ele>78</ele>
        <time>2019-07-11T09:30:08.000Z</time>
      </trkpt>
      <trkpt lat="47.33891" lon="-2.34649">
        <ele>78</ele>
        <time>2019-07-11T09:30:13.000Z</time>
      </trkpt>
      <trkpt lat="47.33888" lon="-2.34668">
        <ele>78</ele>
        <time>2019-07-11T09:30:16.000Z</time>
      </trkpt>
      <trkpt lat="47.33888" lon="-2.34682">
        <ele>78</ele>
        <time>2019-07-11T09:30:18.000Z</time>
      </trkpt>
      <trkpt lat="47.33888" lon="-2.34719">
        <ele>78</ele>
        <time>2019-07-11T09:30:23.000Z</time>
      </trkpt>
      <trkpt lat="47.33887" lon="-2.34728">
        <ele>78</ele>
        <time>2019-07-11T09:30:24.000Z</time>
      </trkpt>
      <trkpt lat="47.33885" lon="-2.34744">
        <ele>77.599998474121</ele>
        <time>2019-07-11T09:30:26.000Z</time>
      </trkpt>
      <trkpt lat="47.33884" lon="-2.34751">
        <ele>77.199996948242</ele>
        <time>2019-07-11T09:30:27.000Z</time>
      </trkpt>
      <trkpt lat="47.33884" lon="-2.34758">
        <ele>76.800003051758</ele>
        <time>2019-07-11T09:30:28.000Z</time>
      </trkpt>
      <trkpt lat="47.33884" lon="-2.34766">
        <ele>76.400001525879</ele>
        <time>2019-07-11T09:30:29.000Z</time>
      </trkpt>
      <trkpt lat="47.33885" lon="-2.34774">
        <ele>76</ele>
        <time>2019-07-11T09:30:30.000Z</time>
      </trkpt>
      <trkpt lat="47.33883" lon="-2.34784">
        <ele>76</ele>
        <time>2019-07-11T09:30:31.000Z</time>
      </trkpt>
      <trkpt lat="47.33875" lon="-2.34817">
        <ele>76</ele>
        <time>2019-07-11T09:30:35.000Z</time>
      </trkpt>
      <trkpt lat="47.3387" lon="-2.34823">
        <ele>76</ele>
        <time>2019-07-11T09:30:36.000Z</time>
      </trkpt>
      <trkpt lat="47.33851" lon="-2.34844">
        <ele>76</ele>
        <time>2019-07-11T09:30:40.000Z</time>
      </trkpt>
      <trkpt lat="47.33846" lon="-2.34849">
        <ele>76</ele>
        <time>2019-07-11T09:30:41.000Z</time>
      </trkpt>
      <trkpt lat="47.33842" lon="-2.34852">
        <ele>76</ele>
        <time>2019-07-11T09:30:42.000Z</time>
      </trkpt>
      <trkpt lat="47.33831" lon="-2.34868">
        <ele>76</ele>
        <time>2019-07-11T09:30:45.000Z</time>
      </trkpt>
      <trkpt lat="47.33818" lon="-2.34895">
        <ele>76</ele>
        <time>2019-07-11T09:30:49.000Z</time>
      </trkpt>
      <trkpt lat="47.33815" lon="-2.349">
        <ele>76</ele>
        <time>2019-07-11T09:30:50.000Z</time>
      </trkpt>
      <trkpt lat="47.33808" lon="-2.34912">
        <ele>76</ele>
        <time>2019-07-11T09:30:52.000Z</time>
      </trkpt>
      <trkpt lat="47.33795" lon="-2.34931">
        <ele>76</ele>
        <time>2019-07-11T09:30:55.000Z</time>
      </trkpt>
      <trkpt lat="47.33773" lon="-2.34958">
        <ele>76</ele>
        <time>2019-07-11T09:31:00.000Z</time>
      </trkpt>
      <trkpt lat="47.33745" lon="-2.34978">
        <ele>76</ele>
        <time>2019-07-11T09:31:06.000Z</time>
      </trkpt>
      <trkpt lat="47.33737" lon="-2.34985">
        <ele>76</ele>
        <time>2019-07-11T09:31:08.000Z</time>
      </trkpt>
      <trkpt lat="47.33722" lon="-2.34997">
        <ele>76</ele>
        <time>2019-07-11T09:31:12.000Z</time>
      </trkpt>
      <trkpt lat="47.33715" lon="-2.35008">
        <ele>76</ele>
        <time>2019-07-11T09:31:16.000Z</time>
      </trkpt>
      <trkpt lat="47.33715" lon="-2.35011">
        <ele>76</ele>
        <time>2019-07-11T09:31:17.000Z</time>
      </trkpt>
      <trkpt lat="47.33717" lon="-2.35016">
        <ele>76</ele>
        <time>2019-07-11T09:31:20.000Z</time>
      </trkpt>
      <trkpt lat="47.33717" lon="-2.35027">
        <ele>76</ele>
        <time>2019-07-11T09:31:25.000Z</time>
      </trkpt>
      <trkpt lat="47.33714" lon="-2.35027">
        <ele>76</ele>
        <time>2019-07-11T09:31:28.000Z</time>
      </trkpt>
      <trkpt lat="47.33714" lon="-2.35025">
        <ele>76</ele>
        <time>2019-07-11T09:31:30.000Z</time>
      </trkpt>
      <trkpt lat="47.33716" lon="-2.35017">
        <ele>76</ele>
        <time>2019-07-11T09:31:36.000Z</time>
      </trkpt>
      <trkpt lat="47.33715" lon="-2.35015">
        <ele>76</ele>
        <time>2019-07-11T09:31:37.000Z</time>
      </trkpt>
      <trkpt lat="47.33709" lon="-2.35006">
        <ele>76</ele>
        <time>2019-07-11T09:31:42.000Z</time>
      </trkpt>
      <trkpt lat="47.33707" lon="-2.35004">
        <ele>76.400001525879</ele>
        <time>2019-07-11T09:31:43.000Z</time>
      </trkpt>
      <trkpt lat="47.33705" lon="-2.35001">
        <ele>76.800003051758</ele>
        <time>2019-07-11T09:31:44.000Z</time>
      </trkpt>
      <trkpt lat="47.33703" lon="-2.34998">
        <ele>77.199996948242</ele>
        <time>2019-07-11T09:31:45.000Z</time>
      </trkpt>
      <trkpt lat="47.33701" lon="-2.34995">
        <ele>77.599998474121</ele>
        <time>2019-07-11T09:31:46.000Z</time>
      </trkpt>
      <trkpt lat="47.33698" lon="-2.34992">
        <ele>78</ele>
        <time>2019-07-11T09:31:47.000Z</time>
      </trkpt>
      <trkpt lat="47.33694" lon="-2.34985">
        <ele>78</ele>
        <time>2019-07-11T09:31:49.000Z</time>
      </trkpt>
      <trkpt lat="47.33681" lon="-2.34967">
        <ele>78</ele>
        <time>2019-07-11T09:31:55.000Z</time>
      </trkpt>
      <trkpt lat="47.33672" lon="-2.3496">
        <ele>78</ele>
        <time>2019-07-11T09:32:00.000Z</time>
      </trkpt>
      <trkpt lat="47.33659" lon="-2.34966">
        <ele>78</ele>
        <time>2019-07-11T09:32:05.000Z</time>
      </trkpt>
      <trkpt lat="47.33644" lon="-2.34967">
        <ele>78</ele>
        <time>2019-07-11T09:32:11.000Z</time>
      </trkpt>
      <trkpt lat="47.33629" lon="-2.34958">
        <ele>78</ele>
        <time>2019-07-11T09:32:16.000Z</time>
      </trkpt>
      <trkpt lat="47.33615" lon="-2.34953">
        <ele>78.400001525879</ele>
        <time>2019-07-11T09:32:20.000Z</time>
      </trkpt>
      <trkpt lat="47.33612" lon="-2.3495">
        <ele>78.800003051758</ele>
        <time>2019-07-11T09:32:21.000Z</time>
      </trkpt>
      <trkpt lat="47.33608" lon="-2.34948">
        <ele>79.400001525879</ele>
        <time>2019-07-11T09:32:22.000Z</time>
      </trkpt>
      <trkpt lat="47.33605" lon="-2.34947">
        <ele>80.199996948242</ele>
        <time>2019-07-11T09:32:23.000Z</time>
      </trkpt>
      <trkpt lat="47.3359" lon="-2.34939">
        <ele>80.199996948242</ele>
        <time>2019-07-11T09:32:27.000Z</time>
      </trkpt>
      <trkpt lat="47.33559" lon="-2.34923">
        <ele>80.199996948242</ele>
        <time>2019-07-11T09:32:34.000Z</time>
      </trkpt>
      <trkpt lat="47.33543" lon="-2.34913">
        <ele>80.599998474121</ele>
        <time>2019-07-11T09:32:37.000Z</time>
      </trkpt>
      <trkpt lat="47.33537" lon="-2.34909">
        <ele>81</ele>
        <time>2019-07-11T09:32:38.000Z</time>
      </trkpt>
      <trkpt lat="47.33533" lon="-2.34906">
        <ele>81.400001525879</ele>
        <time>2019-07-11T09:32:39.000Z</time>
      </trkpt>
      <trkpt lat="47.33528" lon="-2.34904">
        <ele>81.800003051758</ele>
        <time>2019-07-11T09:32:40.000Z</time>
      </trkpt>
      <trkpt lat="47.33524" lon="-2.34901">
        <ele>82.199996948242</ele>
        <time>2019-07-11T09:32:41.000Z</time>
      </trkpt>
      <trkpt lat="47.33503" lon="-2.34892">
        <ele>82.199996948242</ele>
        <time>2019-07-11T09:32:46.000Z</time>
      </trkpt>
      <trkpt lat="47.33479" lon="-2.34897">
        <ele>82.199996948242</ele>
        <time>2019-07-11T09:32:51.000Z</time>
      </trkpt>
      <trkpt lat="47.33454" lon="-2.34907">
        <ele>82.199996948242</ele>
        <time>2019-07-11T09:32:56.000Z</time>
      </trkpt>
      <trkpt lat="47.33414" lon="-2.34927">
        <ele>82.199996948242</ele>
        <time>2019-07-11T09:33:04.000Z</time>
      </trkpt>
      <trkpt lat="47.33393" lon="-2.34936">
        <ele>82.199996948242</ele>
        <time>2019-07-11T09:33:08.000Z</time>
      </trkpt>
      <trkpt lat="47.33387" lon="-2.34936">
        <ele>82.199996948242</ele>
        <time>2019-07-11T09:33:09.000Z</time>
      </trkpt>
      <trkpt lat="47.33371" lon="-2.34936">
        <ele>82.199996948242</ele>
        <time>2019-07-11T09:33:12.000Z</time>
      </trkpt>
      <trkpt lat="47.33366" lon="-2.34938">
        <ele>82.199996948242</ele>
        <time>2019-07-11T09:33:13.000Z</time>
      </trkpt>
      <trkpt lat="47.33361" lon="-2.3494">
        <ele>82.199996948242</ele>
        <time>2019-07-11T09:33:14.000Z</time>
      </trkpt>
      <trkpt lat="47.33341" lon="-2.34942">
        <ele>82.199996948242</ele>
        <time>2019-07-11T09:33:19.000Z</time>
      </trkpt>
      <trkpt lat="47.33339" lon="-2.34942">
        <ele>81.800003051758</ele>
        <time>2019-07-11T09:33:20.000Z</time>
      </trkpt>
      <trkpt lat="47.33336" lon="-2.34943">
        <ele>81.400001525879</ele>
        <time>2019-07-11T09:33:21.000Z</time>
      </trkpt>
      <trkpt lat="47.33334" lon="-2.34943">
        <ele>81</ele>
        <time>2019-07-11T09:33:22.000Z</time>
      </trkpt>
      <trkpt lat="47.33332" lon="-2.34943">
        <ele>80.599998474121</ele>
        <time>2019-07-11T09:33:23.000Z</time>
      </trkpt>
      <trkpt lat="47.3333" lon="-2.34944">
        <ele>80.199996948242</ele>
        <time>2019-07-11T09:33:24.000Z</time>
      </trkpt>
      <trkpt lat="47.33326" lon="-2.34944">
        <ele>80.199996948242</ele>
        <time>2019-07-11T09:33:26.000Z</time>
      </trkpt>
      <trkpt lat="47.33321" lon="-2.34942">
        <ele>80.199996948242</ele>
        <time>2019-07-11T09:33:28.000Z</time>
      </trkpt>
      <trkpt lat="47.33308" lon="-2.34941">
        <ele>80.199996948242</ele>
        <time>2019-07-11T09:33:32.000Z</time>
      </trkpt>
      <trkpt lat="47.33298" lon="-2.3494">
        <ele>80.199996948242</ele>
        <time>2019-07-11T09:33:34.000Z</time>
      </trkpt>
      <trkpt lat="47.33283" lon="-2.3494">
        <ele>80.199996948242</ele>
        <time>2019-07-11T09:33:37.000Z</time>
      </trkpt>
      <trkpt lat="47.33272" lon="-2.3494">
        <ele>80.199996948242</ele>
        <time>2019-07-11T09:33:39.000Z</time>
      </trkpt>
      <trkpt lat="47.33263" lon="-2.34942">
        <ele>80.199996948242</ele>
        <time>2019-07-11T09:33:41.000Z</time>
      </trkpt>
      <trkpt lat="47.33259" lon="-2.34944">
        <ele>80.199996948242</ele>
        <time>2019-07-11T09:33:42.000Z</time>
      </trkpt>
      <trkpt lat="47.3324" lon="-2.3495">
        <ele>80.199996948242</ele>
        <time>2019-07-11T09:33:47.000Z</time>
      </trkpt>
      <trkpt lat="47.33216" lon="-2.34966">
        <ele>80.199996948242</ele>
        <time>2019-07-11T09:33:53.000Z</time>
      </trkpt>
      <trkpt lat="47.33212" lon="-2.34971">
        <ele>80.199996948242</ele>
        <time>2019-07-11T09:33:54.000Z</time>
      </trkpt>
      <trkpt lat="47.33187" lon="-2.35003">
        <ele>80.199996948242</ele>
        <time>2019-07-11T09:34:01.000Z</time>
      </trkpt>
      <trkpt lat="47.33177" lon="-2.3501">
        <ele>80.199996948242</ele>
        <time>2019-07-11T09:34:04.000Z</time>
      </trkpt>
      <trkpt lat="47.33174" lon="-2.35008">
        <ele>80.199996948242</ele>
        <time>2019-07-11T09:34:05.000Z</time>
      </trkpt>
      <trkpt lat="47.33166" lon="-2.35002">
        <ele>80.199996948242</ele>
        <time>2019-07-11T09:34:09.000Z</time>
      </trkpt>
      <trkpt lat="47.3316" lon="-2.35002">
        <ele>80.199996948242</ele>
        <time>2019-07-11T09:34:11.000Z</time>
      </trkpt>
      <trkpt lat="47.33155" lon="-2.35007">
        <ele>80.199996948242</ele>
        <time>2019-07-11T09:34:13.000Z</time>
      </trkpt>
      <trkpt lat="47.33146" lon="-2.3502">
        <ele>80.199996948242</ele>
        <time>2019-07-11T09:34:17.000Z</time>
      </trkpt>
      <trkpt lat="47.33141" lon="-2.35025">
        <ele>80.199996948242</ele>
        <time>2019-07-11T09:34:19.000Z</time>
      </trkpt>
      <trkpt lat="47.33127" lon="-2.35042">
        <ele>80.199996948242</ele>
        <time>2019-07-11T09:34:22.000Z</time>
      </trkpt>
      <trkpt lat="47.33109" lon="-2.35071">
        <ele>80.199996948242</ele>
        <time>2019-07-11T09:34:27.000Z</time>
      </trkpt>
      <trkpt lat="47.33093" lon="-2.35094">
        <ele>80.199996948242</ele>
        <time>2019-07-11T09:34:32.000Z</time>
      </trkpt>
      <trkpt lat="47.33089" lon="-2.35098">
        <ele>80.199996948242</ele>
        <time>2019-07-11T09:34:33.000Z</time>
      </trkpt>
      <trkpt lat="47.33077" lon="-2.35116">
        <ele>80.199996948242</ele>
        <time>2019-07-11T09:34:37.000Z</time>
      </trkpt>
      <trkpt lat="47.33067" lon="-2.3513">
        <ele>80.199996948242</ele>
        <time>2019-07-11T09:34:40.000Z</time>
      </trkpt>
      <trkpt lat="47.33061" lon="-2.35139">
        <ele>80.199996948242</ele>
        <time>2019-07-11T09:34:42.000Z</time>
      </trkpt>
      <trkpt lat="47.33052" lon="-2.35154">
        <ele>80.199996948242</ele>
        <time>2019-07-11T09:34:45.000Z</time>
      </trkpt>
      <trkpt lat="47.33049" lon="-2.35165">
        <ele>80.199996948242</ele>
        <time>2019-07-11T09:34:47.000Z</time>
      </trkpt>
      <trkpt lat="47.33047" lon="-2.35171">
        <ele>80.199996948242</ele>
        <time>2019-07-11T09:34:48.000Z</time>
      </trkpt>
      <trkpt lat="47.33041" lon="-2.35181">
        <ele>80.199996948242</ele>
        <time>2019-07-11T09:34:50.000Z</time>
      </trkpt>
      <trkpt lat="47.33039" lon="-2.35183">
        <ele>80.199996948242</ele>
        <time>2019-07-11T09:34:51.000Z</time>
      </trkpt>
      <trkpt lat="47.33036" lon="-2.35184">
        <ele>80.199996948242</ele>
        <time>2019-07-11T09:34:52.000Z</time>
      </trkpt>
      <trkpt lat="47.33034" lon="-2.35183">
        <ele>80.599998474121</ele>
        <time>2019-07-11T09:34:53.000Z</time>
      </trkpt>
      <trkpt lat="47.33031" lon="-2.35182">
        <ele>81</ele>
        <time>2019-07-11T09:34:54.000Z</time>
      </trkpt>
      <trkpt lat="47.33028" lon="-2.35179">
        <ele>81.400001525879</ele>
        <time>2019-07-11T09:34:55.000Z</time>
      </trkpt>
      <trkpt lat="47.33025" lon="-2.35176">
        <ele>81.800003051758</ele>
        <time>2019-07-11T09:34:56.000Z</time>
      </trkpt>
      <trkpt lat="47.33023" lon="-2.35171">
        <ele>82.199996948242</ele>
        <time>2019-07-11T09:34:57.000Z</time>
      </trkpt>
      <trkpt lat="47.33018" lon="-2.35158">
        <ele>82.199996948242</ele>
        <time>2019-07-11T09:35:00.000Z</time>
      </trkpt>
      <trkpt lat="47.33017" lon="-2.35123">
        <ele>82.199996948242</ele>
        <time>2019-07-11T09:35:05.000Z</time>
      </trkpt>
      <trkpt lat="47.33013" lon="-2.35089">
        <ele>82.199996948242</ele>
        <time>2019-07-11T09:35:11.000Z</time>
      </trkpt>
      <trkpt lat="47.33007" lon="-2.35062">
        <ele>82.199996948242</ele>
        <time>2019-07-11T09:35:16.000Z</time>
      </trkpt>
      <trkpt lat="47.33005" lon="-2.35054">
        <ele>81.800003051758</ele>
        <time>2019-07-11T09:35:18.000Z</time>
      </trkpt>
      <trkpt lat="47.33005" lon="-2.3505">
        <ele>81.400001525879</ele>
        <time>2019-07-11T09:35:19.000Z</time>
      </trkpt>
      <trkpt lat="47.33004" lon="-2.35045">
        <ele>81</ele>
        <time>2019-07-11T09:35:20.000Z</time>
      </trkpt>
      <trkpt lat="47.33003" lon="-2.35041">
        <ele>80.599998474121</ele>
        <time>2019-07-11T09:35:21.000Z</time>
      </trkpt>
      <trkpt lat="47.33002" lon="-2.3504">
        <ele>80.199996948242</ele>
        <time>2019-07-11T09:35:22.000Z</time>
      </trkpt>
      <trkpt lat="47.32991" lon="-2.35025">
        <ele>80.199996948242</ele>
        <time>2019-07-11T09:35:28.000Z</time>
      </trkpt>
      <trkpt lat="47.32987" lon="-2.35011">
        <ele>80.199996948242</ele>
        <time>2019-07-11T09:35:32.000Z</time>
      </trkpt>
      <trkpt lat="47.32985" lon="-2.34997">
        <ele>80.199996948242</ele>
        <time>2019-07-11T09:35:34.000Z</time>
      </trkpt>
      <trkpt lat="47.32977" lon="-2.34963">
        <ele>80.199996948242</ele>
        <time>2019-07-11T09:35:39.000Z</time>
      </trkpt>
      <trkpt lat="47.32976" lon="-2.34955">
        <ele>79.800003051758</ele>
        <time>2019-07-11T09:35:40.000Z</time>
      </trkpt>
      <trkpt lat="47.32973" lon="-2.34945">
        <ele>79</ele>
        <time>2019-07-11T09:35:41.000Z</time>
      </trkpt>
      <trkpt lat="47.32971" lon="-2.34937">
        <ele>78.599998474121</ele>
        <time>2019-07-11T09:35:42.000Z</time>
      </trkpt>
      <trkpt lat="47.32968" lon="-2.34928">
        <ele>78.199996948242</ele>
        <time>2019-07-11T09:35:43.000Z</time>
      </trkpt>
      <trkpt lat="47.32966" lon="-2.34921">
        <ele>78.199996948242</ele>
        <time>2019-07-11T09:35:44.000Z</time>
      </trkpt>
      <trkpt lat="47.32964" lon="-2.34914">
        <ele>78.199996948242</ele>
        <time>2019-07-11T09:35:45.000Z</time>
      </trkpt>
      <trkpt lat="47.32958" lon="-2.34901">
        <ele>78.199996948242</ele>
        <time>2019-07-11T09:35:47.000Z</time>
      </trkpt>
      <trkpt lat="47.32954" lon="-2.34887">
        <ele>78.199996948242</ele>
        <time>2019-07-11T09:35:49.000Z</time>
      </trkpt>
      <trkpt lat="47.32938" lon="-2.34852">
        <ele>78.199996948242</ele>
        <time>2019-07-11T09:35:53.000Z</time>
      </trkpt>
      <trkpt lat="47.32927" lon="-2.34824">
        <ele>78.199996948242</ele>
        <time>2019-07-11T09:35:56.000Z</time>
      </trkpt>
      <trkpt lat="47.32916" lon="-2.3481">
        <ele>78.199996948242</ele>
        <time>2019-07-11T09:35:58.000Z</time>
      </trkpt>
      <trkpt lat="47.32894" lon="-2.34801">
        <ele>78.199996948242</ele>
        <time>2019-07-11T09:36:01.000Z</time>
      </trkpt>
      <trkpt lat="47.32889" lon="-2.34804">
        <ele>78.199996948242</ele>
        <time>2019-07-11T09:36:02.000Z</time>
      </trkpt>
      <trkpt lat="47.32862" lon="-2.34817">
        <ele>78.199996948242</ele>
        <time>2019-07-11T09:36:07.000Z</time>
      </trkpt>
      <trkpt lat="47.32831" lon="-2.34836">
        <ele>78.199996948242</ele>
        <time>2019-07-11T09:36:13.000Z</time>
      </trkpt>
      <trkpt lat="47.32801" lon="-2.34858">
        <ele>78.599998474121</ele>
        <time>2019-07-11T09:36:19.000Z</time>
      </trkpt>
      <trkpt lat="47.32796" lon="-2.34861">
        <ele>79</ele>
        <time>2019-07-11T09:36:20.000Z</time>
      </trkpt>
      <trkpt lat="47.3279" lon="-2.34865">
        <ele>79.400001525879</ele>
        <time>2019-07-11T09:36:21.000Z</time>
      </trkpt>
      <trkpt lat="47.32785" lon="-2.34869">
        <ele>79.800003051758</ele>
        <time>2019-07-11T09:36:22.000Z</time>
      </trkpt>
      <trkpt lat="47.3278" lon="-2.34872">
        <ele>80.199996948242</ele>
        <time>2019-07-11T09:36:23.000Z</time>
      </trkpt>
      <trkpt lat="47.32759" lon="-2.3489">
        <ele>80.199996948242</ele>
        <time>2019-07-11T09:36:27.000Z</time>
      </trkpt>
      <trkpt lat="47.3272" lon="-2.34915">
        <ele>80.199996948242</ele>
        <time>2019-07-11T09:36:34.000Z</time>
      </trkpt>
      <trkpt lat="47.32702" lon="-2.3493">
        <ele>80.199996948242</ele>
        <time>2019-07-11T09:36:38.000Z</time>
      </trkpt>
      <trkpt lat="47.32697" lon="-2.34934">
        <ele>80.199996948242</ele>
        <time>2019-07-11T09:36:39.000Z</time>
      </trkpt>
      <trkpt lat="47.32673" lon="-2.34951">
        <ele>80.199996948242</ele>
        <time>2019-07-11T09:36:45.000Z</time>
      </trkpt>
      <trkpt lat="47.32666" lon="-2.34957">
        <ele>80.199996948242</ele>
        <time>2019-07-11T09:36:49.000Z</time>
      </trkpt>
      <trkpt lat="47.32664" lon="-2.34958">
        <ele>80.199996948242</ele>
        <time>2019-07-11T09:36:51.000Z</time>
      </trkpt>
      <trkpt lat="47.32659" lon="-2.34962">
        <ele>80.199996948242</ele>
        <time>2019-07-11T09:36:58.000Z</time>
      </trkpt>
      <trkpt lat="47.32656" lon="-2.34964">
        <ele>80.199996948242</ele>
        <time>2019-07-11T09:36:59.000Z</time>
      </trkpt>
      <trkpt lat="47.32645" lon="-2.3497">
        <ele>80.199996948242</ele>
        <time>2019-07-11T09:37:02.000Z</time>
      </trkpt>
      <trkpt lat="47.32638" lon="-2.34972">
        <ele>80.199996948242</ele>
        <time>2019-07-11T09:37:04.000Z</time>
      </trkpt>
      <trkpt lat="47.32616" lon="-2.34981">
        <ele>80.199996948242</ele>
        <time>2019-07-11T09:37:08.000Z</time>
      </trkpt>
      <trkpt lat="47.32611" lon="-2.34984">
        <ele>80.800003051758</ele>
        <time>2019-07-11T09:37:09.000Z</time>
      </trkpt>
      <trkpt lat="47.32607" lon="-2.34985">
        <ele>81.199996948242</ele>
        <time>2019-07-11T09:37:10.000Z</time>
      </trkpt>
      <trkpt lat="47.32602" lon="-2.34988">
        <ele>81.599998474121</ele>
        <time>2019-07-11T09:37:11.000Z</time>
      </trkpt>
      <trkpt lat="47.32597" lon="-2.34991">
        <ele>82</ele>
        <time>2019-07-11T09:37:12.000Z</time>
      </trkpt>
      <trkpt lat="47.32592" lon="-2.34994">
        <ele>82.400001525879</ele>
        <time>2019-07-11T09:37:13.000Z</time>
      </trkpt>
      <trkpt lat="47.32586" lon="-2.34996">
        <ele>82.400001525879</ele>
        <time>2019-07-11T09:37:14.000Z</time>
      </trkpt>
      <trkpt lat="47.32567" lon="-2.35003">
        <ele>82.400001525879</ele>
        <time>2019-07-11T09:37:18.000Z</time>
      </trkpt>
      <trkpt lat="47.32539" lon="-2.35016">
        <ele>82.400001525879</ele>
        <time>2019-07-11T09:37:23.000Z</time>
      </trkpt>
      <trkpt lat="47.32518" lon="-2.35024">
        <ele>82.800003051758</ele>
        <time>2019-07-11T09:37:27.000Z</time>
      </trkpt>
      <trkpt lat="47.32513" lon="-2.35026">
        <ele>83.199996948242</ele>
        <time>2019-07-11T09:37:28.000Z</time>
      </trkpt>
      <trkpt lat="47.32507" lon="-2.35027">
        <ele>83.599998474121</ele>
        <time>2019-07-11T09:37:29.000Z</time>
      </trkpt>
      <trkpt lat="47.32503" lon="-2.35028">
        <ele>84</ele>
        <time>2019-07-11T09:37:30.000Z</time>
      </trkpt>
      <trkpt lat="47.32498" lon="-2.35028">
        <ele>84.400001525879</ele>
        <time>2019-07-11T09:37:31.000Z</time>
      </trkpt>
      <trkpt lat="47.32476" lon="-2.35031">
        <ele>84.400001525879</ele>
        <time>2019-07-11T09:37:35.000Z</time>
      </trkpt>
      <trkpt lat="47.32468" lon="-2.35033">
        <ele>84.400001525879</ele>
        <time>2019-07-11T09:37:36.000Z</time>
      </trkpt>
      <trkpt lat="47.32441" lon="-2.35042">
        <ele>84.400001525879</ele>
        <time>2019-07-11T09:37:40.000Z</time>
      </trkpt>
      <trkpt lat="47.32408" lon="-2.35047">
        <ele>84.400001525879</ele>
        <time>2019-07-11T09:37:45.000Z</time>
      </trkpt>
      <trkpt lat="47.32401" lon="-2.35048">
        <ele>84.400001525879</ele>
        <time>2019-07-11T09:37:46.000Z</time>
      </trkpt>
      <trkpt lat="47.32354" lon="-2.35053">
        <ele>84.400001525879</ele>
        <time>2019-07-11T09:37:53.000Z</time>
      </trkpt>
      <trkpt lat="47.3231" lon="-2.35052">
        <ele>84.400001525879</ele>
        <time>2019-07-11T09:37:59.000Z</time>
      </trkpt>
      <trkpt lat="47.32303" lon="-2.35051">
        <ele>84.400001525879</ele>
        <time>2019-07-11T09:38:00.000Z</time>
      </trkpt>
      <trkpt lat="47.32287" lon="-2.3505">
        <ele>84.400001525879</ele>
        <time>2019-07-11T09:38:02.000Z</time>
      </trkpt>
      <trkpt lat="47.32265" lon="-2.3505">
        <ele>84.400001525879</ele>
        <time>2019-07-11T09:38:05.000Z</time>
      </trkpt>
      <trkpt lat="47.32227" lon="-2.35058">
        <ele>84.400001525879</ele>
        <time>2019-07-11T09:38:10.000Z</time>
      </trkpt>
      <trkpt lat="47.32205" lon="-2.35063">
        <ele>84</ele>
        <time>2019-07-11T09:38:13.000Z</time>
      </trkpt>
      <trkpt lat="47.32198" lon="-2.35064">
        <ele>83.599998474121</ele>
        <time>2019-07-11T09:38:14.000Z</time>
      </trkpt>
      <trkpt lat="47.32191" lon="-2.35064">
        <ele>83.199996948242</ele>
        <time>2019-07-11T09:38:15.000Z</time>
      </trkpt>
      <trkpt lat="47.32184" lon="-2.35064">
        <ele>82.800003051758</ele>
        <time>2019-07-11T09:38:16.000Z</time>
      </trkpt>
      <trkpt lat="47.32177" lon="-2.35064">
        <ele>82.400001525879</ele>
        <time>2019-07-11T09:38:17.000Z</time>
      </trkpt>
      <trkpt lat="47.32148" lon="-2.35065">
        <ele>82.400001525879</ele>
        <time>2019-07-11T09:38:21.000Z</time>
      </trkpt>
      <trkpt lat="47.32111" lon="-2.35066">
        <ele>82.400001525879</ele>
        <time>2019-07-11T09:38:26.000Z</time>
      </trkpt>
      <trkpt lat="47.32071" lon="-2.35066">
        <ele>81.800003051758</ele>
        <time>2019-07-11T09:38:32.000Z</time>
      </trkpt>
      <trkpt lat="47.32064" lon="-2.35065">
        <ele>81</ele>
        <time>2019-07-11T09:38:33.000Z</time>
      </trkpt>
      <trkpt lat="47.32058" lon="-2.35064">
        <ele>80.599998474121</ele>
        <time>2019-07-11T09:38:34.000Z</time>
      </trkpt>
      <trkpt lat="47.32052" lon="-2.35064">
        <ele>80.199996948242</ele>
        <time>2019-07-11T09:38:35.000Z</time>
      </trkpt>
      <trkpt lat="47.32026" lon="-2.35063">
        <ele>80.199996948242</ele>
        <time>2019-07-11T09:38:39.000Z</time>
      </trkpt>
      <trkpt lat="47.31986" lon="-2.35057">
        <ele>80.199996948242</ele>
        <time>2019-07-11T09:38:45.000Z</time>
      </trkpt>
      <trkpt lat="47.3196" lon="-2.35049">
        <ele>80.199996948242</ele>
        <time>2019-07-11T09:38:49.000Z</time>
      </trkpt>
      <trkpt lat="47.31948" lon="-2.35042">
        <ele>80.199996948242</ele>
        <time>2019-07-11T09:38:51.000Z</time>
      </trkpt>
      <trkpt lat="47.31925" lon="-2.3503">
        <ele>80.199996948242</ele>
        <time>2019-07-11T09:38:55.000Z</time>
      </trkpt>
      <trkpt lat="47.319" lon="-2.35014">
        <ele>80.199996948242</ele>
        <time>2019-07-11T09:39:01.000Z</time>
      </trkpt>
      <trkpt lat="47.31879" lon="-2.35001">
        <ele>80.199996948242</ele>
        <time>2019-07-11T09:39:08.000Z</time>
      </trkpt>
      <trkpt lat="47.31867" lon="-2.34995">
        <ele>80.599998474121</ele>
        <time>2019-07-11T09:39:11.000Z</time>
      </trkpt>
      <trkpt lat="47.31863" lon="-2.34992">
        <ele>81</ele>
        <time>2019-07-11T09:39:12.000Z</time>
      </trkpt>
      <trkpt lat="47.31858" lon="-2.34989">
        <ele>81.400001525879</ele>
        <time>2019-07-11T09:39:13.000Z</time>
      </trkpt>
      <trkpt lat="47.31854" lon="-2.34987">
        <ele>81.800003051758</ele>
        <time>2019-07-11T09:39:14.000Z</time>
      </trkpt>
      <trkpt lat="47.31849" lon="-2.34985">
        <ele>82.199996948242</ele>
        <time>2019-07-11T09:39:15.000Z</time>
      </trkpt>
      <trkpt lat="47.31823" lon="-2.34976">
        <ele>82.199996948242</ele>
        <time>2019-07-11T09:39:20.000Z</time>
      </trkpt>
      <trkpt lat="47.31818" lon="-2.34974">
        <ele>82.199996948242</ele>
        <time>2019-07-11T09:39:21.000Z</time>
      </trkpt>
      <trkpt lat="47.31794" lon="-2.34969">
        <ele>82.599998474121</ele>
        <time>2019-07-11T09:39:25.000Z</time>
      </trkpt>
      <trkpt lat="47.31789" lon="-2.34967">
        <ele>83</ele>
        <time>2019-07-11T09:39:26.000Z</time>
      </trkpt>
      <trkpt lat="47.31783" lon="-2.34966">
        <ele>83.400001525879</ele>
        <time>2019-07-11T09:39:27.000Z</time>
      </trkpt>
      <trkpt lat="47.31777" lon="-2.34965">
        <ele>83.800003051758</ele>
        <time>2019-07-11T09:39:28.000Z</time>
      </trkpt>
      <trkpt lat="47.31771" lon="-2.34964">
        <ele>84.199996948242</ele>
        <time>2019-07-11T09:39:29.000Z</time>
      </trkpt>
      <trkpt lat="47.31752" lon="-2.34963">
        <ele>84.199996948242</ele>
        <time>2019-07-11T09:39:32.000Z</time>
      </trkpt>
      <trkpt lat="47.31716" lon="-2.34973">
        <ele>84.199996948242</ele>
        <time>2019-07-11T09:39:37.000Z</time>
      </trkpt>
      <trkpt lat="47.31709" lon="-2.34974">
        <ele>84.199996948242</ele>
        <time>2019-07-11T09:39:38.000Z</time>
      </trkpt>
      <trkpt lat="47.31688" lon="-2.34973">
        <ele>84.199996948242</ele>
        <time>2019-07-11T09:39:41.000Z</time>
      </trkpt>
      <trkpt lat="47.31681" lon="-2.34974">
        <ele>84.199996948242</ele>
        <time>2019-07-11T09:39:42.000Z</time>
      </trkpt>
      <trkpt lat="47.31667" lon="-2.34977">
        <ele>84.199996948242</ele>
        <time>2019-07-11T09:39:44.000Z</time>
      </trkpt>
      <trkpt lat="47.31637" lon="-2.3499">
        <ele>84.199996948242</ele>
        <time>2019-07-11T09:39:49.000Z</time>
      </trkpt>
      <trkpt lat="47.31602" lon="-2.35005">
        <ele>84.599998474121</ele>
        <time>2019-07-11T09:39:55.000Z</time>
      </trkpt>
      <trkpt lat="47.31596" lon="-2.35007">
        <ele>85.199996948242</ele>
        <time>2019-07-11T09:39:56.000Z</time>
      </trkpt>
      <trkpt lat="47.3159" lon="-2.35008">
        <ele>85.599998474121</ele>
        <time>2019-07-11T09:39:57.000Z</time>
      </trkpt>
      <trkpt lat="47.31584" lon="-2.35009">
        <ele>86</ele>
        <time>2019-07-11T09:39:58.000Z</time>
      </trkpt>
      <trkpt lat="47.31578" lon="-2.35011">
        <ele>86.400001525879</ele>
        <time>2019-07-11T09:39:59.000Z</time>
      </trkpt>
      <trkpt lat="47.31572" lon="-2.35011">
        <ele>86.400001525879</ele>
        <time>2019-07-11T09:40:00.000Z</time>
      </trkpt>
      <trkpt lat="47.31559" lon="-2.35011">
        <ele>86.400001525879</ele>
        <time>2019-07-11T09:40:02.000Z</time>
      </trkpt>
      <trkpt lat="47.31522" lon="-2.35014">
        <ele>86.400001525879</ele>
        <time>2019-07-11T09:40:08.000Z</time>
      </trkpt>
      <trkpt lat="47.31488" lon="-2.35014">
        <ele>87.199996948242</ele>
        <time>2019-07-11T09:40:13.000Z</time>
      </trkpt>
      <trkpt lat="47.31481" lon="-2.35015">
        <ele>87.599998474121</ele>
        <time>2019-07-11T09:40:14.000Z</time>
      </trkpt>
      <trkpt lat="47.31474" lon="-2.35015">
        <ele>88</ele>
        <time>2019-07-11T09:40:15.000Z</time>
      </trkpt>
      <trkpt lat="47.31467" lon="-2.35015">
        <ele>88.400001525879</ele>
        <time>2019-07-11T09:40:16.000Z</time>
      </trkpt>
      <trkpt lat="47.31448" lon="-2.35014">
        <ele>88.400001525879</ele>
        <time>2019-07-11T09:40:19.000Z</time>
      </trkpt>
      <trkpt lat="47.31435" lon="-2.35012">
        <ele>88.400001525879</ele>
        <time>2019-07-11T09:40:21.000Z</time>
      </trkpt>
      <trkpt lat="47.31403" lon="-2.35004">
        <ele>88.800003051758</ele>
        <time>2019-07-11T09:40:26.000Z</time>
      </trkpt>
      <trkpt lat="47.31397" lon="-2.35003">
        <ele>89.199996948242</ele>
        <time>2019-07-11T09:40:27.000Z</time>
      </trkpt>
      <trkpt lat="47.31391" lon="-2.35001">
        <ele>89.599998474121</ele>
        <time>2019-07-11T09:40:28.000Z</time>
      </trkpt>
      <trkpt lat="47.31384" lon="-2.34999">
        <ele>90</ele>
        <time>2019-07-11T09:40:29.000Z</time>
      </trkpt>
      <trkpt lat="47.31378" lon="-2.34998">
        <ele>90.400001525879</ele>
        <time>2019-07-11T09:40:30.000Z</time>
      </trkpt>
      <trkpt lat="47.31365" lon="-2.34997">
        <ele>90.400001525879</ele>
        <time>2019-07-11T09:40:32.000Z</time>
      </trkpt>
      <trkpt lat="47.31347" lon="-2.34999">
        <ele>90.400001525879</ele>
        <time>2019-07-11T09:40:36.000Z</time>
      </trkpt>
      <trkpt lat="47.3134" lon="-2.34997">
        <ele>90.400001525879</ele>
        <time>2019-07-11T09:40:39.000Z</time>
      </trkpt>
      <trkpt lat="47.31339" lon="-2.34994">
        <ele>90.400001525879</ele>
        <time>2019-07-11T09:40:40.000Z</time>
      </trkpt>
      <trkpt lat="47.31337" lon="-2.34978">
        <ele>90.400001525879</ele>
        <time>2019-07-11T09:40:43.000Z</time>
      </trkpt>
      <trkpt lat="47.31336" lon="-2.34972">
        <ele>90.400001525879</ele>
        <time>2019-07-11T09:40:44.000Z</time>
      </trkpt>
      <trkpt lat="47.31326" lon="-2.34937">
        <ele>90.400001525879</ele>
        <time>2019-07-11T09:40:49.000Z</time>
      </trkpt>
      <trkpt lat="47.31324" lon="-2.3493">
        <ele>90.400001525879</ele>
        <time>2019-07-11T09:40:50.000Z</time>
      </trkpt>
      <trkpt lat="47.31322" lon="-2.34922">
        <ele>90.400001525879</ele>
        <time>2019-07-11T09:40:51.000Z</time>
      </trkpt>
      <trkpt lat="47.3131" lon="-2.34886">
        <ele>90.400001525879</ele>
        <time>2019-07-11T09:40:56.000Z</time>
      </trkpt>
      <trkpt lat="47.31298" lon="-2.34834">
        <ele>90.400001525879</ele>
        <time>2019-07-11T09:41:03.000Z</time>
      </trkpt>
      <trkpt lat="47.31286" lon="-2.34774">
        <ele>90.400001525879</ele>
        <time>2019-07-11T09:41:11.000Z</time>
      </trkpt>
      <trkpt lat="47.31279" lon="-2.34713">
        <ele>90.400001525879</ele>
        <time>2019-07-11T09:41:19.000Z</time>
      </trkpt>
      <trkpt lat="47.31279" lon="-2.34691">
        <ele>90.400001525879</ele>
        <time>2019-07-11T09:41:23.000Z</time>
      </trkpt>
      <trkpt lat="47.3128" lon="-2.34686">
        <ele>90.400001525879</ele>
        <time>2019-07-11T09:41:24.000Z</time>
      </trkpt>
      <trkpt lat="47.31283" lon="-2.3468">
        <ele>90.400001525879</ele>
        <time>2019-07-11T09:41:25.000Z</time>
      </trkpt>
      <trkpt lat="47.31286" lon="-2.34668">
        <ele>90.400001525879</ele>
        <time>2019-07-11T09:41:27.000Z</time>
      </trkpt>
      <trkpt lat="47.31288" lon="-2.34653">
        <ele>90.400001525879</ele>
        <time>2019-07-11T09:41:29.000Z</time>
      </trkpt>
      <trkpt lat="47.31289" lon="-2.34636">
        <ele>90.400001525879</ele>
        <time>2019-07-11T09:41:31.000Z</time>
      </trkpt>
      <trkpt lat="47.31286" lon="-2.34583">
        <ele>90.400001525879</ele>
        <time>2019-07-11T09:41:36.000Z</time>
      </trkpt>
      <trkpt lat="47.31282" lon="-2.34547">
        <ele>90</ele>
        <time>2019-07-11T09:41:39.000Z</time>
      </trkpt>
      <trkpt lat="47.3128" lon="-2.34536">
        <ele>89.599998474121</ele>
        <time>2019-07-11T09:41:40.000Z</time>
      </trkpt>
      <trkpt lat="47.31279" lon="-2.34524">
        <ele>89.199996948242</ele>
        <time>2019-07-11T09:41:41.000Z</time>
      </trkpt>
      <trkpt lat="47.31277" lon="-2.34512">
        <ele>88.800003051758</ele>
        <time>2019-07-11T09:41:42.000Z</time>
      </trkpt>
      <trkpt lat="47.31276" lon="-2.345">
        <ele>88.400001525879</ele>
        <time>2019-07-11T09:41:43.000Z</time>
      </trkpt>
      <trkpt lat="47.31268" lon="-2.34425">
        <ele>88</ele>
        <time>2019-07-11T09:41:49.000Z</time>
      </trkpt>
      <trkpt lat="47.31266" lon="-2.34412">
        <ele>87.599998474121</ele>
        <time>2019-07-11T09:41:50.000Z</time>
      </trkpt>
      <trkpt lat="47.31265" lon="-2.344">
        <ele>87.199996948242</ele>
        <time>2019-07-11T09:41:51.000Z</time>
      </trkpt>
      <trkpt lat="47.31262" lon="-2.34388">
        <ele>86.199996948242</ele>
        <time>2019-07-11T09:41:52.000Z</time>
      </trkpt>
      <trkpt lat="47.31253" lon="-2.34365">
        <ele>86.199996948242</ele>
        <time>2019-07-11T09:41:54.000Z</time>
      </trkpt>
      <trkpt lat="47.3124" lon="-2.34347">
        <ele>85.800003051758</ele>
        <time>2019-07-11T09:41:56.000Z</time>
      </trkpt>
      <trkpt lat="47.31233" lon="-2.34341">
        <ele>85.400001525879</ele>
        <time>2019-07-11T09:41:57.000Z</time>
      </trkpt>
      <trkpt lat="47.31226" lon="-2.34335">
        <ele>85</ele>
        <time>2019-07-11T09:41:58.000Z</time>
      </trkpt>
      <trkpt lat="47.31218" lon="-2.34333">
        <ele>84.599998474121</ele>
        <time>2019-07-11T09:41:59.000Z</time>
      </trkpt>
      <trkpt lat="47.3121" lon="-2.3433">
        <ele>84.199996948242</ele>
        <time>2019-07-11T09:42:00.000Z</time>
      </trkpt>
      <trkpt lat="47.31203" lon="-2.34324">
        <ele>84.199996948242</ele>
        <time>2019-07-11T09:42:01.000Z</time>
      </trkpt>
      <trkpt lat="47.31189" lon="-2.34305">
        <ele>83.599998474121</ele>
        <time>2019-07-11T09:42:03.000Z</time>
      </trkpt>
      <trkpt lat="47.31183" lon="-2.34295">
        <ele>83.199996948242</ele>
        <time>2019-07-11T09:42:04.000Z</time>
      </trkpt>
      <trkpt lat="47.31177" lon="-2.34285">
        <ele>82.599998474121</ele>
        <time>2019-07-11T09:42:05.000Z</time>
      </trkpt>
      <trkpt lat="47.31172" lon="-2.34275">
        <ele>82.199996948242</ele>
        <time>2019-07-11T09:42:06.000Z</time>
      </trkpt>
      <trkpt lat="47.31167" lon="-2.34264">
        <ele>81.599998474121</ele>
        <time>2019-07-11T09:42:07.000Z</time>
      </trkpt>
      <trkpt lat="47.31138" lon="-2.3421">
        <ele>81.599998474121</ele>
        <time>2019-07-11T09:42:13.000Z</time>
      </trkpt>
      <trkpt lat="47.31125" lon="-2.34189">
        <ele>81.599998474121</ele>
        <time>2019-07-11T09:42:16.000Z</time>
      </trkpt>
      <trkpt lat="47.31118" lon="-2.34175">
        <ele>81.599998474121</ele>
        <time>2019-07-11T09:42:18.000Z</time>
      </trkpt>
      <trkpt lat="47.3111" lon="-2.34162">
        <ele>82.199996948242</ele>
        <time>2019-07-11T09:42:20.000Z</time>
      </trkpt>
      <trkpt lat="47.31106" lon="-2.34156">
        <ele>82.599998474121</ele>
        <time>2019-07-11T09:42:21.000Z</time>
      </trkpt>
      <trkpt lat="47.31102" lon="-2.34149">
        <ele>83</ele>
        <time>2019-07-11T09:42:22.000Z</time>
      </trkpt>
      <trkpt lat="47.31099" lon="-2.34142">
        <ele>83.400001525879</ele>
        <time>2019-07-11T09:42:23.000Z</time>
      </trkpt>
      <trkpt lat="47.31095" lon="-2.34135">
        <ele>84</ele>
        <time>2019-07-11T09:42:24.000Z</time>
      </trkpt>
      <trkpt lat="47.31084" lon="-2.34113">
        <ele>84.400001525879</ele>
        <time>2019-07-11T09:42:27.000Z</time>
      </trkpt>
      <trkpt lat="47.31081" lon="-2.34106">
        <ele>84.800003051758</ele>
        <time>2019-07-11T09:42:28.000Z</time>
      </trkpt>
      <trkpt lat="47.31077" lon="-2.34099">
        <ele>85.199996948242</ele>
        <time>2019-07-11T09:42:29.000Z</time>
      </trkpt>
      <trkpt lat="47.31074" lon="-2.34092">
        <ele>85.800003051758</ele>
        <time>2019-07-11T09:42:30.000Z</time>
      </trkpt>
      <trkpt lat="47.31071" lon="-2.34084">
        <ele>86.199996948242</ele>
        <time>2019-07-11T09:42:31.000Z</time>
      </trkpt>
      <trkpt lat="47.31065" lon="-2.3406">
        <ele>86.599998474121</ele>
        <time>2019-07-11T09:42:34.000Z</time>
      </trkpt>
      <trkpt lat="47.31063" lon="-2.34052">
        <ele>87</ele>
        <time>2019-07-11T09:42:35.000Z</time>
      </trkpt>
      <trkpt lat="47.31062" lon="-2.34043">
        <ele>87.400001525879</ele>
        <time>2019-07-11T09:42:36.000Z</time>
      </trkpt>
      <trkpt lat="47.31061" lon="-2.34034">
        <ele>87.800003051758</ele>
        <time>2019-07-11T09:42:37.000Z</time>
      </trkpt>
      <trkpt lat="47.31061" lon="-2.34025">
        <ele>88.400001525879</ele>
        <time>2019-07-11T09:42:38.000Z</time>
      </trkpt>
      <trkpt lat="47.31059" lon="-2.33989">
        <ele>88.400001525879</ele>
        <time>2019-07-11T09:42:42.000Z</time>
      </trkpt>
      <trkpt lat="47.31059" lon="-2.33964">
        <ele>88.400001525879</ele>
        <time>2019-07-11T09:42:45.000Z</time>
      </trkpt>
      <trkpt lat="47.31054" lon="-2.33949">
        <ele>88.400001525879</ele>
        <time>2019-07-11T09:42:47.000Z</time>
      </trkpt>
      <trkpt lat="47.31038" lon="-2.33947">
        <ele>88.400001525879</ele>
        <time>2019-07-11T09:42:50.000Z</time>
      </trkpt>
      <trkpt lat="47.31026" lon="-2.33951">
        <ele>88.400001525879</ele>
        <time>2019-07-11T09:42:52.000Z</time>
      </trkpt>
      <trkpt lat="47.3102" lon="-2.33952">
        <ele>88.800003051758</ele>
        <time>2019-07-11T09:42:53.000Z</time>
      </trkpt>
      <trkpt lat="47.31014" lon="-2.33953">
        <ele>89.199996948242</ele>
        <time>2019-07-11T09:42:54.000Z</time>
      </trkpt>
      <trkpt lat="47.31009" lon="-2.33954">
        <ele>89.599998474121</ele>
        <time>2019-07-11T09:42:55.000Z</time>
      </trkpt>
      <trkpt lat="47.31004" lon="-2.33954">
        <ele>90</ele>
        <time>2019-07-11T09:42:56.000Z</time>
      </trkpt>
      <trkpt lat="47.30998" lon="-2.33954">
        <ele>90.400001525879</ele>
        <time>2019-07-11T09:42:57.000Z</time>
      </trkpt>
      <trkpt lat="47.30983" lon="-2.33955">
        <ele>90.400001525879</ele>
        <time>2019-07-11T09:43:00.000Z</time>
      </trkpt>
      <trkpt lat="47.30949" lon="-2.33953">
        <ele>90.400001525879</ele>
        <time>2019-07-11T09:43:06.000Z</time>
      </trkpt>
      <trkpt lat="47.30915" lon="-2.33948">
        <ele>90.400001525879</ele>
        <time>2019-07-11T09:43:12.000Z</time>
      </trkpt>
      <trkpt lat="47.3091" lon="-2.33948">
        <ele>90.400001525879</ele>
        <time>2019-07-11T09:43:13.000Z</time>
      </trkpt>
      <trkpt lat="47.30887" lon="-2.33949">
        <ele>90.400001525879</ele>
        <time>2019-07-11T09:43:17.000Z</time>
      </trkpt>
      <trkpt lat="47.30835" lon="-2.33959">
        <ele>90.400001525879</ele>
        <time>2019-07-11T09:43:26.000Z</time>
      </trkpt>
      <trkpt lat="47.3083" lon="-2.3396">
        <ele>90.800003051758</ele>
        <time>2019-07-11T09:43:27.000Z</time>
      </trkpt>
      <trkpt lat="47.30824" lon="-2.33961">
        <ele>91.199996948242</ele>
        <time>2019-07-11T09:43:28.000Z</time>
      </trkpt>
      <trkpt lat="47.30818" lon="-2.33962">
        <ele>91.599998474121</ele>
        <time>2019-07-11T09:43:29.000Z</time>
      </trkpt>
      <trkpt lat="47.30813" lon="-2.33963">
        <ele>92</ele>
        <time>2019-07-11T09:43:30.000Z</time>
      </trkpt>
      <trkpt lat="47.30807" lon="-2.33964">
        <ele>92.400001525879</ele>
        <time>2019-07-11T09:43:31.000Z</time>
      </trkpt>
      <trkpt lat="47.30802" lon="-2.33966">
        <ele>92.400001525879</ele>
        <time>2019-07-11T09:43:32.000Z</time>
      </trkpt>
      <trkpt lat="47.30783" lon="-2.33973">
        <ele>92.400001525879</ele>
        <time>2019-07-11T09:43:36.000Z</time>
      </trkpt>
      <trkpt lat="47.30781" lon="-2.33978">
        <ele>92.400001525879</ele>
        <time>2019-07-11T09:43:37.000Z</time>
      </trkpt>
      <trkpt lat="47.3078" lon="-2.33996">
        <ele>92.400001525879</ele>
        <time>2019-07-11T09:43:40.000Z</time>
      </trkpt>
      <trkpt lat="47.30781" lon="-2.34001">
        <ele>92.400001525879</ele>
        <time>2019-07-11T09:43:41.000Z</time>
      </trkpt>
      <trkpt lat="47.3078" lon="-2.34027">
        <ele>92.400001525879</ele>
        <time>2019-07-11T09:43:45.000Z</time>
      </trkpt>
      <trkpt lat="47.3078" lon="-2.34035">
        <ele>92.400001525879</ele>
        <time>2019-07-11T09:43:46.000Z</time>
      </trkpt>
      <trkpt lat="47.3078" lon="-2.34066">
        <ele>92.400001525879</ele>
        <time>2019-07-11T09:43:50.000Z</time>
      </trkpt>
      <trkpt lat="47.30779" lon="-2.34074">
        <ele>92.400001525879</ele>
        <time>2019-07-11T09:43:51.000Z</time>
      </trkpt>
      <trkpt lat="47.30777" lon="-2.34101">
        <ele>92.400001525879</ele>
        <time>2019-07-11T09:43:55.000Z</time>
      </trkpt>
      <trkpt lat="47.30773" lon="-2.34144">
        <ele>92.400001525879</ele>
        <time>2019-07-11T09:44:00.000Z</time>
      </trkpt>
      <trkpt lat="47.30771" lon="-2.34185">
        <ele>92.400001525879</ele>
        <time>2019-07-11T09:44:05.000Z</time>
      </trkpt>
      <trkpt lat="47.30769" lon="-2.342">
        <ele>92.400001525879</ele>
        <time>2019-07-11T09:44:07.000Z</time>
      </trkpt>
      <trkpt lat="47.30765" lon="-2.34207">
        <ele>92.400001525879</ele>
        <time>2019-07-11T09:44:08.000Z</time>
      </trkpt>
      <trkpt lat="47.30749" lon="-2.34215">
        <ele>92.400001525879</ele>
        <time>2019-07-11T09:44:11.000Z</time>
      </trkpt>
      <trkpt lat="47.30735" lon="-2.34222">
        <ele>92.400001525879</ele>
        <time>2019-07-11T09:44:14.000Z</time>
      </trkpt>
      <trkpt lat="47.30733" lon="-2.34227">
        <ele>92.400001525879</ele>
        <time>2019-07-11T09:44:15.000Z</time>
      </trkpt>
      <trkpt lat="47.30732" lon="-2.34243">
        <ele>92.400001525879</ele>
        <time>2019-07-11T09:44:18.000Z</time>
      </trkpt>
      <trkpt lat="47.30732" lon="-2.3425">
        <ele>92.400001525879</ele>
        <time>2019-07-11T09:44:19.000Z</time>
      </trkpt>
      <trkpt lat="47.3072" lon="-2.34283">
        <ele>92.400001525879</ele>
        <time>2019-07-11T09:44:24.000Z</time>
      </trkpt>
      <trkpt lat="47.30717" lon="-2.34289">
        <ele>92.400001525879</ele>
        <time>2019-07-11T09:44:25.000Z</time>
      </trkpt>
      <trkpt lat="47.30696" lon="-2.34329">
        <ele>92.400001525879</ele>
        <time>2019-07-11T09:44:31.000Z</time>
      </trkpt>
      <trkpt lat="47.3068" lon="-2.3436">
        <ele>93</ele>
        <time>2019-07-11T09:44:36.000Z</time>
      </trkpt>
      <trkpt lat="47.30676" lon="-2.34366">
        <ele>93.400001525879</ele>
        <time>2019-07-11T09:44:37.000Z</time>
      </trkpt>
      <trkpt lat="47.30673" lon="-2.34371">
        <ele>93.800003051758</ele>
        <time>2019-07-11T09:44:38.000Z</time>
      </trkpt>
      <trkpt lat="47.3067" lon="-2.34376">
        <ele>94.199996948242</ele>
        <time>2019-07-11T09:44:39.000Z</time>
      </trkpt>
      <trkpt lat="47.30666" lon="-2.34381">
        <ele>94.599998474121</ele>
        <time>2019-07-11T09:44:40.000Z</time>
      </trkpt>
      <trkpt lat="47.30659" lon="-2.34391">
        <ele>94.599998474121</ele>
        <time>2019-07-11T09:44:42.000Z</time>
      </trkpt>
      <trkpt lat="47.30638" lon="-2.34421">
        <ele>94.599998474121</ele>
        <time>2019-07-11T09:44:47.000Z</time>
      </trkpt>
      <trkpt lat="47.30611" lon="-2.34456">
        <ele>94.599998474121</ele>
        <time>2019-07-11T09:44:53.000Z</time>
      </trkpt>
      <trkpt lat="47.30596" lon="-2.34485">
        <ele>94.599998474121</ele>
        <time>2019-07-11T09:44:57.000Z</time>
      </trkpt>
      <trkpt lat="47.30587" lon="-2.34503">
        <ele>94.599998474121</ele>
        <time>2019-07-11T09:44:59.000Z</time>
      </trkpt>
      <trkpt lat="47.30563" lon="-2.34547">
        <ele>94.599998474121</ele>
        <time>2019-07-11T09:45:04.000Z</time>
      </trkpt>
      <trkpt lat="47.30541" lon="-2.34582">
        <ele>94.599998474121</ele>
        <time>2019-07-11T09:45:08.000Z</time>
      </trkpt>
      <trkpt lat="47.30535" lon="-2.34589">
        <ele>94.599998474121</ele>
        <time>2019-07-11T09:45:09.000Z</time>
      </trkpt>
      <trkpt lat="47.30519" lon="-2.3461">
        <ele>94.599998474121</ele>
        <time>2019-07-11T09:45:12.000Z</time>
      </trkpt>
      <trkpt lat="47.30515" lon="-2.34617">
        <ele>94.599998474121</ele>
        <time>2019-07-11T09:45:13.000Z</time>
      </trkpt>
      <trkpt lat="47.30508" lon="-2.34632">
        <ele>94.199996948242</ele>
        <time>2019-07-11T09:45:16.000Z</time>
      </trkpt>
      <trkpt lat="47.30507" lon="-2.34635">
        <ele>93.800003051758</ele>
        <time>2019-07-11T09:45:17.000Z</time>
      </trkpt>
      <trkpt lat="47.30506" lon="-2.34638">
        <ele>93.400001525879</ele>
        <time>2019-07-11T09:45:18.000Z</time>
      </trkpt>
      <trkpt lat="47.30505" lon="-2.3464">
        <ele>93</ele>
        <time>2019-07-11T09:45:19.000Z</time>
      </trkpt>
      <trkpt lat="47.30503" lon="-2.34643">
        <ele>92.599998474121</ele>
        <time>2019-07-11T09:45:20.000Z</time>
      </trkpt>
      <trkpt lat="47.30494" lon="-2.34653">
        <ele>92.599998474121</ele>
        <time>2019-07-11T09:45:23.000Z</time>
      </trkpt>
      <trkpt lat="47.30479" lon="-2.34672">
        <ele>92.599998474121</ele>
        <time>2019-07-11T09:45:27.000Z</time>
      </trkpt>
      <trkpt lat="47.30459" lon="-2.34689">
        <ele>92.599998474121</ele>
        <time>2019-07-11T09:45:31.000Z</time>
      </trkpt>
      <trkpt lat="47.30455" lon="-2.34693">
        <ele>92.599998474121</ele>
        <time>2019-07-11T09:45:32.000Z</time>
      </trkpt>
      <trkpt lat="47.30437" lon="-2.34711">
        <ele>92.599998474121</ele>
        <time>2019-07-11T09:45:36.000Z</time>
      </trkpt>
      <trkpt lat="47.30411" lon="-2.34731">
        <ele>92.599998474121</ele>
        <time>2019-07-11T09:45:41.000Z</time>
      </trkpt>
      <trkpt lat="47.30379" lon="-2.34754">
        <ele>92.599998474121</ele>
        <time>2019-07-11T09:45:47.000Z</time>
      </trkpt>
      <trkpt lat="47.30369" lon="-2.34761">
        <ele>93</ele>
        <time>2019-07-11T09:45:49.000Z</time>
      </trkpt>
      <trkpt lat="47.30364" lon="-2.34765">
        <ele>93.400001525879</ele>
        <time>2019-07-11T09:45:50.000Z</time>
      </trkpt>
      <trkpt lat="47.30358" lon="-2.34768">
        <ele>93.800003051758</ele>
        <time>2019-07-11T09:45:51.000Z</time>
      </trkpt>
      <trkpt lat="47.30352" lon="-2.34773">
        <ele>94.199996948242</ele>
        <time>2019-07-11T09:45:52.000Z</time>
      </trkpt>
      <trkpt lat="47.30347" lon="-2.34777">
        <ele>94.599998474121</ele>
        <time>2019-07-11T09:45:53.000Z</time>
      </trkpt>
      <trkpt lat="47.30343" lon="-2.34783">
        <ele>94.599998474121</ele>
        <time>2019-07-11T09:45:54.000Z</time>
      </trkpt>
      <trkpt lat="47.30323" lon="-2.34817">
        <ele>94.599998474121</ele>
        <time>2019-07-11T09:45:59.000Z</time>
      </trkpt>
      <trkpt lat="47.30298" lon="-2.34847">
        <ele>94.599998474121</ele>
        <time>2019-07-11T09:46:04.000Z</time>
      </trkpt>
      <trkpt lat="47.30268" lon="-2.34867">
        <ele>94.599998474121</ele>
        <time>2019-07-11T09:46:09.000Z</time>
      </trkpt>
      <trkpt lat="47.30237" lon="-2.34887">
        <ele>94.599998474121</ele>
        <time>2019-07-11T09:46:14.000Z</time>
      </trkpt>
      <trkpt lat="47.30232" lon="-2.34892">
        <ele>94.599998474121</ele>
        <time>2019-07-11T09:46:15.000Z</time>
      </trkpt>
      <trkpt lat="47.30212" lon="-2.34915">
        <ele>94.599998474121</ele>
        <time>2019-07-11T09:46:19.000Z</time>
      </trkpt>
      <trkpt lat="47.30211" lon="-2.34943">
        <ele>94.599998474121</ele>
        <time>2019-07-11T09:46:22.000Z</time>
      </trkpt>
      <trkpt lat="47.30211" lon="-2.35008">
        <ele>94.599998474121</ele>
        <time>2019-07-11T09:46:28.000Z</time>
      </trkpt>
      <trkpt lat="47.30211" lon="-2.35054">
        <ele>94.199996948242</ele>
        <time>2019-07-11T09:46:32.000Z</time>
      </trkpt>
      <trkpt lat="47.30211" lon="-2.35065">
        <ele>93.800003051758</ele>
        <time>2019-07-11T09:46:33.000Z</time>
      </trkpt>
      <trkpt lat="47.30211" lon="-2.35076">
        <ele>93.400001525879</ele>
        <time>2019-07-11T09:46:34.000Z</time>
      </trkpt>
      <trkpt lat="47.30211" lon="-2.35087">
        <ele>93</ele>
        <time>2019-07-11T09:46:35.000Z</time>
      </trkpt>
      <trkpt lat="47.30211" lon="-2.35098">
        <ele>92.599998474121</ele>
        <time>2019-07-11T09:46:36.000Z</time>
      </trkpt>
      <trkpt lat="47.30209" lon="-2.3513">
        <ele>92.599998474121</ele>
        <time>2019-07-11T09:46:39.000Z</time>
      </trkpt>
      <trkpt lat="47.30209" lon="-2.35151">
        <ele>92</ele>
        <time>2019-07-11T09:46:41.000Z</time>
      </trkpt>
      <trkpt lat="47.30207" lon="-2.3516">
        <ele>91.599998474121</ele>
        <time>2019-07-11T09:46:42.000Z</time>
      </trkpt>
      <trkpt lat="47.30203" lon="-2.35166">
        <ele>91.199996948242</ele>
        <time>2019-07-11T09:46:43.000Z</time>
      </trkpt>
      <trkpt lat="47.30197" lon="-2.35169">
        <ele>90.800003051758</ele>
        <time>2019-07-11T09:46:44.000Z</time>
      </trkpt>
      <trkpt lat="47.30192" lon="-2.35171">
        <ele>90.400001525879</ele>
        <time>2019-07-11T09:46:45.000Z</time>
      </trkpt>
      <trkpt lat="47.30187" lon="-2.35173">
        <ele>90.400001525879</ele>
        <time>2019-07-11T09:46:46.000Z</time>
      </trkpt>
      <trkpt lat="47.30182" lon="-2.35176">
        <ele>90</ele>
        <time>2019-07-11T09:46:47.000Z</time>
      </trkpt>
      <trkpt lat="47.30176" lon="-2.35178">
        <ele>89</ele>
        <time>2019-07-11T09:46:48.000Z</time>
      </trkpt>
      <trkpt lat="47.30171" lon="-2.35179">
        <ele>88.599998474121</ele>
        <time>2019-07-11T09:46:49.000Z</time>
      </trkpt>
      <trkpt lat="47.30166" lon="-2.35183">
        <ele>88.199996948242</ele>
        <time>2019-07-11T09:46:50.000Z</time>
      </trkpt>
      <trkpt lat="47.30163" lon="-2.35187">
        <ele>88.199996948242</ele>
        <time>2019-07-11T09:46:51.000Z</time>
      </trkpt>
      <trkpt lat="47.30154" lon="-2.35193">
        <ele>88.199996948242</ele>
        <time>2019-07-11T09:46:53.000Z</time>
      </trkpt>
      <trkpt lat="47.30145" lon="-2.35196">
        <ele>88.199996948242</ele>
        <time>2019-07-11T09:46:55.000Z</time>
      </trkpt>
      <trkpt lat="47.30111" lon="-2.35206">
        <ele>88.199996948242</ele>
        <time>2019-07-11T09:47:01.000Z</time>
      </trkpt>
      <trkpt lat="47.30087" lon="-2.35215">
        <ele>88.199996948242</ele>
        <time>2019-07-11T09:47:05.000Z</time>
      </trkpt>
      <trkpt lat="47.30076" lon="-2.3522">
        <ele>88.199996948242</ele>
        <time>2019-07-11T09:47:07.000Z</time>
      </trkpt>
      <trkpt lat="47.30062" lon="-2.35231">
        <ele>88.199996948242</ele>
        <time>2019-07-11T09:47:10.000Z</time>
      </trkpt>
      <trkpt lat="47.30037" lon="-2.35246">
        <ele>88.199996948242</ele>
        <time>2019-07-11T09:47:15.000Z</time>
      </trkpt>
      <trkpt lat="47.30028" lon="-2.35248">
        <ele>88.199996948242</ele>
        <time>2019-07-11T09:47:18.000Z</time>
      </trkpt>
      <trkpt lat="47.30024" lon="-2.35249">
        <ele>88.199996948242</ele>
        <time>2019-07-11T09:47:20.000Z</time>
      </trkpt>
      <trkpt lat="47.30021" lon="-2.35251">
        <ele>87.599998474121</ele>
        <time>2019-07-11T09:47:21.000Z</time>
      </trkpt>
      <trkpt lat="47.30018" lon="-2.35253">
        <ele>87.199996948242</ele>
        <time>2019-07-11T09:47:22.000Z</time>
      </trkpt>
      <trkpt lat="47.30016" lon="-2.35255">
        <ele>86.800003051758</ele>
        <time>2019-07-11T09:47:23.000Z</time>
      </trkpt>
      <trkpt lat="47.30015" lon="-2.35256">
        <ele>86.400001525879</ele>
        <time>2019-07-11T09:47:24.000Z</time>
      </trkpt>
      <trkpt lat="47.30014" lon="-2.35258">
        <ele>86</ele>
        <time>2019-07-11T09:47:25.000Z</time>
      </trkpt>
      <trkpt lat="47.30008" lon="-2.35261">
        <ele>86</ele>
        <time>2019-07-11T09:47:28.000Z</time>
      </trkpt>
      <trkpt lat="47.30004" lon="-2.35261">
        <ele>86</ele>
        <time>2019-07-11T09:47:31.000Z</time>
      </trkpt>
      <trkpt lat="47.30004" lon="-2.35261">
        <ele>86</ele>
        <time>2019-07-11T09:48:31.000Z</time>
      </trkpt>
      <trkpt lat="47.29993" lon="-2.35269">
        <ele>86</ele>
        <time>2019-07-11T09:48:36.000Z</time>
      </trkpt>
      <trkpt lat="47.2999" lon="-2.35272">
        <ele>86</ele>
        <time>2019-07-11T09:48:37.000Z</time>
      </trkpt>
      <trkpt lat="47.29973" lon="-2.35291">
        <ele>86</ele>
        <time>2019-07-11T09:48:44.000Z</time>
      </trkpt>
      <trkpt lat="47.29957" lon="-2.35312">
        <ele>86</ele>
        <time>2019-07-11T09:48:50.000Z</time>
      </trkpt>
      <trkpt lat="47.29932" lon="-2.35344">
        <ele>86</ele>
        <time>2019-07-11T09:48:58.000Z</time>
      </trkpt>
      <trkpt lat="47.29917" lon="-2.35361">
        <ele>86</ele>
        <time>2019-07-11T09:49:02.000Z</time>
      </trkpt>
      <trkpt lat="47.29909" lon="-2.3537">
        <ele>86</ele>
        <time>2019-07-11T09:49:04.000Z</time>
      </trkpt>
      <trkpt lat="47.29873" lon="-2.35408">
        <ele>86</ele>
        <time>2019-07-11T09:49:13.000Z</time>
      </trkpt>
      <trkpt lat="47.29854" lon="-2.3543">
        <ele>86.400001525879</ele>
        <time>2019-07-11T09:49:18.000Z</time>
      </trkpt>
      <trkpt lat="47.2985" lon="-2.35435">
        <ele>86.800003051758</ele>
        <time>2019-07-11T09:49:19.000Z</time>
      </trkpt>
      <trkpt lat="47.29845" lon="-2.35439">
        <ele>87.199996948242</ele>
        <time>2019-07-11T09:49:20.000Z</time>
      </trkpt>
      <trkpt lat="47.29841" lon="-2.35443">
        <ele>87.599998474121</ele>
        <time>2019-07-11T09:49:21.000Z</time>
      </trkpt>
      <trkpt lat="47.29838" lon="-2.35448">
        <ele>88.199996948242</ele>
        <time>2019-07-11T09:49:22.000Z</time>
      </trkpt>
      <trkpt lat="47.29835" lon="-2.35453">
        <ele>88.199996948242</ele>
        <time>2019-07-11T09:49:23.000Z</time>
      </trkpt>
      <trkpt lat="47.2983" lon="-2.35465">
        <ele>88.199996948242</ele>
        <time>2019-07-11T09:49:25.000Z</time>
      </trkpt>
      <trkpt lat="47.29831" lon="-2.35487">
        <ele>88.199996948242</ele>
        <time>2019-07-11T09:49:28.000Z</time>
      </trkpt>
      <trkpt lat="47.29837" lon="-2.35513">
        <ele>88.199996948242</ele>
        <time>2019-07-11T09:49:32.000Z</time>
      </trkpt>
      <trkpt lat="47.29841" lon="-2.35526">
        <ele>88.199996948242</ele>
        <time>2019-07-11T09:49:34.000Z</time>
      </trkpt>
      <trkpt lat="47.29848" lon="-2.35552">
        <ele>88.199996948242</ele>
        <time>2019-07-11T09:49:38.000Z</time>
      </trkpt>
      <trkpt lat="47.29854" lon="-2.35572">
        <ele>89</ele>
        <time>2019-07-11T09:49:41.000Z</time>
      </trkpt>
      <trkpt lat="47.29856" lon="-2.35578">
        <ele>89.400001525879</ele>
        <time>2019-07-11T09:49:42.000Z</time>
      </trkpt>
      <trkpt lat="47.29858" lon="-2.35585">
        <ele>89.800003051758</ele>
        <time>2019-07-11T09:49:43.000Z</time>
      </trkpt>
      <trkpt lat="47.2986" lon="-2.35591">
        <ele>90.199996948242</ele>
        <time>2019-07-11T09:49:44.000Z</time>
      </trkpt>
      <trkpt lat="47.29864" lon="-2.35603">
        <ele>90.199996948242</ele>
        <time>2019-07-11T09:49:46.000Z</time>
      </trkpt>
      <trkpt lat="47.29866" lon="-2.35609">
        <ele>90.199996948242</ele>
        <time>2019-07-11T09:49:47.000Z</time>
      </trkpt>
      <trkpt lat="47.29872" lon="-2.35633">
        <ele>90.199996948242</ele>
        <time>2019-07-11T09:49:51.000Z</time>
      </trkpt>
      <trkpt lat="47.29873" lon="-2.35639">
        <ele>90.199996948242</ele>
        <time>2019-07-11T09:49:52.000Z</time>
      </trkpt>
      <trkpt lat="47.29876" lon="-2.35664">
        <ele>90.199996948242</ele>
        <time>2019-07-11T09:49:56.000Z</time>
      </trkpt>
      <trkpt lat="47.29882" lon="-2.35692">
        <ele>90.199996948242</ele>
        <time>2019-07-11T09:50:01.000Z</time>
      </trkpt>
      <trkpt lat="47.29889" lon="-2.35724">
        <ele>90.199996948242</ele>
        <time>2019-07-11T09:50:07.000Z</time>
      </trkpt>
      <trkpt lat="47.29895" lon="-2.35745">
        <ele>90.199996948242</ele>
        <time>2019-07-11T09:50:13.000Z</time>
      </trkpt>
      <trkpt lat="47.29896" lon="-2.35747">
        <ele>90.199996948242</ele>
        <time>2019-07-11T09:50:15.000Z</time>
      </trkpt>
      <trkpt lat="47.29896" lon="-2.35747">
        <ele>90.199996948242</ele>
        <time>2019-07-11T09:50:18.000Z</time>
      </trkpt>
      <trkpt lat="47.29895" lon="-2.35751">
        <ele>90.199996948242</ele>
        <time>2019-07-11T09:50:19.000Z</time>
      </trkpt>
      <trkpt lat="47.29892" lon="-2.35758">
        <ele>90.199996948242</ele>
        <time>2019-07-11T09:50:21.000Z</time>
      </trkpt>
      <trkpt lat="47.29885" lon="-2.35763">
        <ele>90.199996948242</ele>
        <time>2019-07-11T09:50:23.000Z</time>
      </trkpt>
      <trkpt lat="47.29877" lon="-2.35766">
        <ele>90.199996948242</ele>
        <time>2019-07-11T09:50:25.000Z</time>
      </trkpt>
      <trkpt lat="47.29859" lon="-2.35775">
        <ele>90.199996948242</ele>
        <time>2019-07-11T09:50:29.000Z</time>
      </trkpt>
      <trkpt lat="47.29836" lon="-2.35785">
        <ele>90.199996948242</ele>
        <time>2019-07-11T09:50:34.000Z</time>
      </trkpt>
      <trkpt lat="47.29828" lon="-2.35788">
        <ele>90.199996948242</ele>
        <time>2019-07-11T09:50:36.000Z</time>
      </trkpt>
      <trkpt lat="47.29823" lon="-2.35789">
        <ele>90.599998474121</ele>
        <time>2019-07-11T09:50:37.000Z</time>
      </trkpt>
      <trkpt lat="47.29819" lon="-2.35791">
        <ele>91</ele>
        <time>2019-07-11T09:50:38.000Z</time>
      </trkpt>
      <trkpt lat="47.29815" lon="-2.35792">
        <ele>91.400001525879</ele>
        <time>2019-07-11T09:50:39.000Z</time>
      </trkpt>
      <trkpt lat="47.29811" lon="-2.35794">
        <ele>91.800003051758</ele>
        <time>2019-07-11T09:50:40.000Z</time>
      </trkpt>
      <trkpt lat="47.29807" lon="-2.35795">
        <ele>92.199996948242</ele>
        <time>2019-07-11T09:50:41.000Z</time>
      </trkpt>
      <trkpt lat="47.29795" lon="-2.35798">
        <ele>92.199996948242</ele>
        <time>2019-07-11T09:50:44.000Z</time>
      </trkpt>
      <trkpt lat="47.29761" lon="-2.35809">
        <ele>92.199996948242</ele>
        <time>2019-07-11T09:50:52.000Z</time>
      </trkpt>
      <trkpt lat="47.29732" lon="-2.35824">
        <ele>92.199996948242</ele>
        <time>2019-07-11T09:50:58.000Z</time>
      </trkpt>
      <trkpt lat="47.29697" lon="-2.35843">
        <ele>92.199996948242</ele>
        <time>2019-07-11T09:51:04.000Z</time>
      </trkpt>
      <trkpt lat="47.29691" lon="-2.35845">
        <ele>92.199996948242</ele>
        <time>2019-07-11T09:51:05.000Z</time>
      </trkpt>
      <trkpt lat="47.29676" lon="-2.35849">
        <ele>91.800003051758</ele>
        <time>2019-07-11T09:51:08.000Z</time>
      </trkpt>
      <trkpt lat="47.29671" lon="-2.35852">
        <ele>91.400001525879</ele>
        <time>2019-07-11T09:51:09.000Z</time>
      </trkpt>
      <trkpt lat="47.29667" lon="-2.35857">
        <ele>91</ele>
        <time>2019-07-11T09:51:10.000Z</time>
      </trkpt>
      <trkpt lat="47.29663" lon="-2.35861">
        <ele>90.599998474121</ele>
        <time>2019-07-11T09:51:11.000Z</time>
      </trkpt>
      <trkpt lat="47.29658" lon="-2.35864">
        <ele>90.199996948242</ele>
        <time>2019-07-11T09:51:12.000Z</time>
      </trkpt>
      <trkpt lat="47.29654" lon="-2.35867">
        <ele>90.199996948242</ele>
        <time>2019-07-11T09:51:13.000Z</time>
      </trkpt>
      <trkpt lat="47.29649" lon="-2.3587">
        <ele>90.199996948242</ele>
        <time>2019-07-11T09:51:14.000Z</time>
      </trkpt>
      <trkpt lat="47.29614" lon="-2.35886">
        <ele>90.199996948242</ele>
        <time>2019-07-11T09:51:21.000Z</time>
      </trkpt>
      <trkpt lat="47.29595" lon="-2.35899">
        <ele>90.199996948242</ele>
        <time>2019-07-11T09:51:25.000Z</time>
      </trkpt>
      <trkpt lat="47.29584" lon="-2.35907">
        <ele>90.199996948242</ele>
        <time>2019-07-11T09:51:27.000Z</time>
      </trkpt>
      <trkpt lat="47.29546" lon="-2.35929">
        <ele>90.199996948242</ele>
        <time>2019-07-11T09:51:34.000Z</time>
      </trkpt>
      <trkpt lat="47.29515" lon="-2.35941">
        <ele>90.199996948242</ele>
        <time>2019-07-11T09:51:40.000Z</time>
      </trkpt>
      <trkpt lat="47.29508" lon="-2.35937">
        <ele>90.199996948242</ele>
        <time>2019-07-11T09:51:42.000Z</time>
      </trkpt>
      <trkpt lat="47.29506" lon="-2.35932">
        <ele>90.199996948242</ele>
        <time>2019-07-11T09:51:43.000Z</time>
      </trkpt>
      <trkpt lat="47.29499" lon="-2.35907">
        <ele>90.199996948242</ele>
        <time>2019-07-11T09:51:47.000Z</time>
      </trkpt>
      <trkpt lat="47.29486" lon="-2.35901">
        <ele>90.199996948242</ele>
        <time>2019-07-11T09:51:50.000Z</time>
      </trkpt>
      <trkpt lat="47.29481" lon="-2.359">
        <ele>90.199996948242</ele>
        <time>2019-07-11T09:51:51.000Z</time>
      </trkpt>
      <trkpt lat="47.29468" lon="-2.359">
        <ele>90.199996948242</ele>
        <time>2019-07-11T09:51:54.000Z</time>
      </trkpt>
      <trkpt lat="47.2946" lon="-2.35904">
        <ele>90.199996948242</ele>
        <time>2019-07-11T09:51:56.000Z</time>
      </trkpt>
      <trkpt lat="47.29448" lon="-2.35908">
        <ele>90.199996948242</ele>
        <time>2019-07-11T09:51:59.000Z</time>
      </trkpt>
      <trkpt lat="47.29441" lon="-2.35914">
        <ele>90.199996948242</ele>
        <time>2019-07-11T09:52:01.000Z</time>
      </trkpt>
      <trkpt lat="47.29432" lon="-2.35907">
        <ele>90.199996948242</ele>
        <time>2019-07-11T09:52:04.000Z</time>
      </trkpt>
      <trkpt lat="47.29419" lon="-2.35887">
        <ele>90.199996948242</ele>
        <time>2019-07-11T09:52:08.000Z</time>
      </trkpt>
      <trkpt lat="47.29415" lon="-2.35882">
        <ele>90.199996948242</ele>
        <time>2019-07-11T09:52:09.000Z</time>
      </trkpt>
      <trkpt lat="47.29389" lon="-2.35854">
        <ele>90.199996948242</ele>
        <time>2019-07-11T09:52:15.000Z</time>
      </trkpt>
      <trkpt lat="47.29362" lon="-2.35824">
        <ele>90.199996948242</ele>
        <time>2019-07-11T09:52:21.000Z</time>
      </trkpt>
      <trkpt lat="47.29351" lon="-2.35816">
        <ele>90.199996948242</ele>
        <time>2019-07-11T09:52:23.000Z</time>
      </trkpt>
      <trkpt lat="47.29336" lon="-2.35804">
        <ele>90.199996948242</ele>
        <time>2019-07-11T09:52:26.000Z</time>
      </trkpt>
      <trkpt lat="47.29297" lon="-2.3577">
        <ele>90.199996948242</ele>
        <time>2019-07-11T09:52:33.000Z</time>
      </trkpt>
      <trkpt lat="47.2926" lon="-2.35737">
        <ele>90.199996948242</ele>
        <time>2019-07-11T09:52:40.000Z</time>
      </trkpt>
      <trkpt lat="47.29255" lon="-2.35735">
        <ele>90.199996948242</ele>
        <time>2019-07-11T09:52:41.000Z</time>
      </trkpt>
      <trkpt lat="47.2925" lon="-2.35738">
        <ele>90.199996948242</ele>
        <time>2019-07-11T09:52:42.000Z</time>
      </trkpt>
      <trkpt lat="47.29238" lon="-2.35757">
        <ele>90.199996948242</ele>
        <time>2019-07-11T09:52:45.000Z</time>
      </trkpt>
      <trkpt lat="47.29223" lon="-2.35776">
        <ele>90.199996948242</ele>
        <time>2019-07-11T09:52:48.000Z</time>
      </trkpt>
      <trkpt lat="47.29218" lon="-2.35781">
        <ele>90.199996948242</ele>
        <time>2019-07-11T09:52:49.000Z</time>
      </trkpt>
      <trkpt lat="47.29182" lon="-2.35811">
        <ele>90.199996948242</ele>
        <time>2019-07-11T09:52:55.000Z</time>
      </trkpt>
      <trkpt lat="47.29148" lon="-2.35836">
        <ele>90.199996948242</ele>
        <time>2019-07-11T09:53:01.000Z</time>
      </trkpt>
      <trkpt lat="47.29117" lon="-2.3587">
        <ele>90.199996948242</ele>
        <time>2019-07-11T09:53:07.000Z</time>
      </trkpt>
      <trkpt lat="47.29084" lon="-2.3591">
        <ele>90.199996948242</ele>
        <time>2019-07-11T09:53:14.000Z</time>
      </trkpt>
      <trkpt lat="47.29055" lon="-2.35943">
        <ele>90.199996948242</ele>
        <time>2019-07-11T09:53:20.000Z</time>
      </trkpt>
      <trkpt lat="47.29021" lon="-2.35983">
        <ele>90.199996948242</ele>
        <time>2019-07-11T09:53:27.000Z</time>
      </trkpt>
      <trkpt lat="47.29015" lon="-2.35988">
        <ele>90.199996948242</ele>
        <time>2019-07-11T09:53:28.000Z</time>
      </trkpt>
      <trkpt lat="47.28993" lon="-2.3601">
        <ele>90.199996948242</ele>
        <time>2019-07-11T09:53:32.000Z</time>
      </trkpt>
      <trkpt lat="47.28972" lon="-2.36033">
        <ele>90.199996948242</ele>
        <time>2019-07-11T09:53:36.000Z</time>
      </trkpt>
      <trkpt lat="47.28961" lon="-2.36043">
        <ele>90.199996948242</ele>
        <time>2019-07-11T09:53:38.000Z</time>
      </trkpt>
      <trkpt lat="47.2894" lon="-2.36059">
        <ele>90.199996948242</ele>
        <time>2019-07-11T09:53:42.000Z</time>
      </trkpt>
      <trkpt lat="47.28929" lon="-2.36065">
        <ele>90.199996948242</ele>
        <time>2019-07-11T09:53:44.000Z</time>
      </trkpt>
      <trkpt lat="47.28896" lon="-2.36092">
        <ele>90.199996948242</ele>
        <time>2019-07-11T09:53:50.000Z</time>
      </trkpt>
      <trkpt lat="47.28864" lon="-2.36123">
        <ele>90.199996948242</ele>
        <time>2019-07-11T09:53:56.000Z</time>
      </trkpt>
      <trkpt lat="47.28838" lon="-2.36152">
        <ele>90.199996948242</ele>
        <time>2019-07-11T09:54:01.000Z</time>
      </trkpt>
      <trkpt lat="47.28833" lon="-2.36159">
        <ele>90.199996948242</ele>
        <time>2019-07-11T09:54:02.000Z</time>
      </trkpt>
      <trkpt lat="47.28802" lon="-2.36191">
        <ele>90.199996948242</ele>
        <time>2019-07-11T09:54:08.000Z</time>
      </trkpt>
      <trkpt lat="47.28773" lon="-2.36211">
        <ele>90.199996948242</ele>
        <time>2019-07-11T09:54:14.000Z</time>
      </trkpt>
      <trkpt lat="47.28756" lon="-2.3622">
        <ele>90.199996948242</ele>
        <time>2019-07-11T09:54:19.000Z</time>
      </trkpt>
      <trkpt lat="47.2875" lon="-2.36226">
        <ele>90.199996948242</ele>
        <time>2019-07-11T09:54:23.000Z</time>
      </trkpt>
      <trkpt lat="47.28734" lon="-2.36242">
        <ele>90.199996948242</ele>
        <time>2019-07-11T09:54:29.000Z</time>
      </trkpt>
      <trkpt lat="47.28719" lon="-2.36261">
        <ele>90.199996948242</ele>
        <time>2019-07-11T09:54:35.000Z</time>
      </trkpt>
      <trkpt lat="47.28703" lon="-2.36274">
        <ele>90.199996948242</ele>
        <time>2019-07-11T09:54:41.000Z</time>
      </trkpt>
      <trkpt lat="47.2869" lon="-2.36278">
        <ele>90.599998474121</ele>
        <time>2019-07-11T09:54:46.000Z</time>
      </trkpt>
      <trkpt lat="47.28687" lon="-2.36278">
        <ele>91</ele>
        <time>2019-07-11T09:54:47.000Z</time>
      </trkpt>
      <trkpt lat="47.28684" lon="-2.36277">
        <ele>91.400001525879</ele>
        <time>2019-07-11T09:54:48.000Z</time>
      </trkpt>
      <trkpt lat="47.28682" lon="-2.36277">
        <ele>91.800003051758</ele>
        <time>2019-07-11T09:54:49.000Z</time>
      </trkpt>
      <trkpt lat="47.28679" lon="-2.36275">
        <ele>92.199996948242</ele>
        <time>2019-07-11T09:54:50.000Z</time>
      </trkpt>
      <trkpt lat="47.28677" lon="-2.36274">
        <ele>92.199996948242</ele>
        <time>2019-07-11T09:54:51.000Z</time>
      </trkpt>
      <trkpt lat="47.28675" lon="-2.36267">
        <ele>92.199996948242</ele>
        <time>2019-07-11T09:54:53.000Z</time>
      </trkpt>
      <trkpt lat="47.28674" lon="-2.3625">
        <ele>92.199996948242</ele>
        <time>2019-07-11T09:54:57.000Z</time>
      </trkpt>
      <trkpt lat="47.28674" lon="-2.36245">
        <ele>92.199996948242</ele>
        <time>2019-07-11T09:54:58.000Z</time>
      </trkpt>
      <trkpt lat="47.28673" lon="-2.36236">
        <ele>92.800003051758</ele>
        <time>2019-07-11T09:55:00.000Z</time>
      </trkpt>
      <trkpt lat="47.28673" lon="-2.36232">
        <ele>93.199996948242</ele>
        <time>2019-07-11T09:55:01.000Z</time>
      </trkpt>
      <trkpt lat="47.28672" lon="-2.36227">
        <ele>93.599998474121</ele>
        <time>2019-07-11T09:55:02.000Z</time>
      </trkpt>
      <trkpt lat="47.28672" lon="-2.36223">
        <ele>94.599998474121</ele>
        <time>2019-07-11T09:55:03.000Z</time>
      </trkpt>
      <trkpt lat="47.28671" lon="-2.36213">
        <ele>94.599998474121</ele>
        <time>2019-07-11T09:55:05.000Z</time>
      </trkpt>
      <trkpt lat="47.28662" lon="-2.36192">
        <ele>94.599998474121</ele>
        <time>2019-07-11T09:55:10.000Z</time>
      </trkpt>
      <trkpt lat="47.28649" lon="-2.36178">
        <ele>94.599998474121</ele>
        <time>2019-07-11T09:55:15.000Z</time>
      </trkpt>
      <trkpt lat="47.28646" lon="-2.36174">
        <ele>95</ele>
        <time>2019-07-11T09:55:16.000Z</time>
      </trkpt>
      <trkpt lat="47.28644" lon="-2.3617">
        <ele>95.400001525879</ele>
        <time>2019-07-11T09:55:18.000Z</time>
      </trkpt>
      <trkpt lat="47.28642" lon="-2.36167">
        <ele>95.800003051758</ele>
        <time>2019-07-11T09:55:19.000Z</time>
      </trkpt>
      <trkpt lat="47.28639" lon="-2.36163">
        <ele>96.400001525879</ele>
        <time>2019-07-11T09:55:20.000Z</time>
      </trkpt>
      <trkpt lat="47.28636" lon="-2.36158">
        <ele>96.800003051758</ele>
        <time>2019-07-11T09:55:21.000Z</time>
      </trkpt>
      <trkpt lat="47.2863" lon="-2.36155">
        <ele>96.800003051758</ele>
        <time>2019-07-11T09:55:23.000Z</time>
      </trkpt>
      <trkpt lat="47.28627" lon="-2.36156">
        <ele>96.800003051758</ele>
        <time>2019-07-11T09:55:24.000Z</time>
      </trkpt>
      <trkpt lat="47.28618" lon="-2.36161">
        <ele>96.800003051758</ele>
        <time>2019-07-11T09:55:27.000Z</time>
      </trkpt>
      <trkpt lat="47.28612" lon="-2.36163">
        <ele>96.800003051758</ele>
        <time>2019-07-11T09:55:29.000Z</time>
      </trkpt>
      <trkpt lat="47.28592" lon="-2.36161">
        <ele>96.800003051758</ele>
        <time>2019-07-11T09:55:35.000Z</time>
      </trkpt>
      <trkpt lat="47.28584" lon="-2.36156">
        <ele>96.800003051758</ele>
        <time>2019-07-11T09:55:38.000Z</time>
      </trkpt>
      <trkpt lat="47.2858" lon="-2.36157">
        <ele>96.800003051758</ele>
        <time>2019-07-11T09:55:39.000Z</time>
      </trkpt>
      <trkpt lat="47.2857" lon="-2.36157">
        <ele>96.800003051758</ele>
        <time>2019-07-11T09:55:42.000Z</time>
      </trkpt>
      <trkpt lat="47.28568" lon="-2.36157">
        <ele>96.800003051758</ele>
        <time>2019-07-11T09:55:43.000Z</time>
      </trkpt>
      <trkpt lat="47.2856" lon="-2.36163">
        <ele>96.800003051758</ele>
        <time>2019-07-11T09:55:47.000Z</time>
      </trkpt>
      <trkpt lat="47.28558" lon="-2.36164">
        <ele>96.400001525879</ele>
        <time>2019-07-11T09:55:48.000Z</time>
      </trkpt>
      <trkpt lat="47.28557" lon="-2.36165">
        <ele>96</ele>
        <time>2019-07-11T09:55:49.000Z</time>
      </trkpt>
      <trkpt lat="47.28556" lon="-2.36166">
        <ele>95.599998474121</ele>
        <time>2019-07-11T09:55:50.000Z</time>
      </trkpt>
      <trkpt lat="47.28554" lon="-2.36168">
        <ele>95</ele>
        <time>2019-07-11T09:55:51.000Z</time>
      </trkpt>
      <trkpt lat="47.28552" lon="-2.3617">
        <ele>94.599998474121</ele>
        <time>2019-07-11T09:55:52.000Z</time>
      </trkpt>
      <trkpt lat="47.28549" lon="-2.3617">
        <ele>94.199996948242</ele>
        <time>2019-07-11T09:55:53.000Z</time>
      </trkpt>
      <trkpt lat="47.28546" lon="-2.36169">
        <ele>93.800003051758</ele>
        <time>2019-07-11T09:55:54.000Z</time>
      </trkpt>
      <trkpt lat="47.28544" lon="-2.36168">
        <ele>93.400001525879</ele>
        <time>2019-07-11T09:55:55.000Z</time>
      </trkpt>
      <trkpt lat="47.28543" lon="-2.36167">
        <ele>93</ele>
        <time>2019-07-11T09:55:56.000Z</time>
      </trkpt>
      <trkpt lat="47.28542" lon="-2.36165">
        <ele>92.599998474121</ele>
        <time>2019-07-11T09:55:57.000Z</time>
      </trkpt>
      <trkpt lat="47.28542" lon="-2.36162">
        <ele>92.599998474121</ele>
        <time>2019-07-11T09:56:00.000Z</time>
      </trkpt>
      <trkpt lat="47.28546" lon="-2.36161">
        <ele>92.599998474121</ele>
        <time>2019-07-11T09:56:11.000Z</time>
      </trkpt>
      <trkpt lat="47.28547" lon="-2.3616">
        <ele>92.599998474121</ele>
        <time>2019-07-11T09:56:13.000Z</time>
      </trkpt>
      <trkpt lat="47.28548" lon="-2.36156">
        <ele>92.599998474121</ele>
        <time>2019-07-11T09:56:15.000Z</time>
      </trkpt>
      <trkpt lat="47.28546" lon="-2.36149">
        <ele>92.599998474121</ele>
        <time>2019-07-11T09:56:19.000Z</time>
      </trkpt>
      <trkpt lat="47.28544" lon="-2.36145">
        <ele>92.599998474121</ele>
        <time>2019-07-11T09:56:20.000Z</time>
      </trkpt>
      <trkpt lat="47.28538" lon="-2.36131">
        <ele>92.599998474121</ele>
        <time>2019-07-11T09:56:23.000Z</time>
      </trkpt>
      <trkpt lat="47.28529" lon="-2.36097">
        <ele>92.599998474121</ele>
        <time>2019-07-11T09:56:29.000Z</time>
      </trkpt>
      <trkpt lat="47.28528" lon="-2.36092">
        <ele>93</ele>
        <time>2019-07-11T09:56:30.000Z</time>
      </trkpt>
      <trkpt lat="47.28527" lon="-2.36088">
        <ele>93.400001525879</ele>
        <time>2019-07-11T09:56:31.000Z</time>
      </trkpt>
      <trkpt lat="47.28526" lon="-2.36084">
        <ele>93.800003051758</ele>
        <time>2019-07-11T09:56:32.000Z</time>
      </trkpt>
      <trkpt lat="47.28523" lon="-2.3608">
        <ele>94.199996948242</ele>
        <time>2019-07-11T09:56:33.000Z</time>
      </trkpt>
      <trkpt lat="47.28521" lon="-2.36077">
        <ele>94.599998474121</ele>
        <time>2019-07-11T09:56:34.000Z</time>
      </trkpt>
      <trkpt lat="47.28506" lon="-2.36063">
        <ele>94.599998474121</ele>
        <time>2019-07-11T09:56:38.000Z</time>
      </trkpt>
      <trkpt lat="47.28503" lon="-2.36059">
        <ele>94.599998474121</ele>
        <time>2019-07-11T09:56:39.000Z</time>
      </trkpt>
      <trkpt lat="47.28488" lon="-2.36044">
        <ele>94.599998474121</ele>
        <time>2019-07-11T09:56:44.000Z</time>
      </trkpt>
      <trkpt lat="47.28469" lon="-2.36029">
        <ele>94.599998474121</ele>
        <time>2019-07-11T09:56:49.000Z</time>
      </trkpt>
      <trkpt lat="47.28453" lon="-2.35999">
        <ele>94.599998474121</ele>
        <time>2019-07-11T09:56:54.000Z</time>
      </trkpt>
      <trkpt lat="47.28449" lon="-2.35996">
        <ele>94.599998474121</ele>
        <time>2019-07-11T09:56:55.000Z</time>
      </trkpt>
      <trkpt lat="47.28442" lon="-2.35997">
        <ele>94.599998474121</ele>
        <time>2019-07-11T09:56:57.000Z</time>
      </trkpt>
      <trkpt lat="47.2843" lon="-2.36003">
        <ele>94.599998474121</ele>
        <time>2019-07-11T09:57:00.000Z</time>
      </trkpt>
      <trkpt lat="47.28426" lon="-2.36006">
        <ele>94.599998474121</ele>
        <time>2019-07-11T09:57:01.000Z</time>
      </trkpt>
      <trkpt lat="47.28423" lon="-2.3601">
        <ele>94.599998474121</ele>
        <time>2019-07-11T09:57:02.000Z</time>
      </trkpt>
      <trkpt lat="47.28412" lon="-2.36019">
        <ele>94.599998474121</ele>
        <time>2019-07-11T09:57:05.000Z</time>
      </trkpt>
      <trkpt lat="47.28396" lon="-2.36022">
        <ele>94.599998474121</ele>
        <time>2019-07-11T09:57:08.000Z</time>
      </trkpt>
      <trkpt lat="47.2839" lon="-2.36023">
        <ele>94.599998474121</ele>
        <time>2019-07-11T09:57:09.000Z</time>
      </trkpt>
      <trkpt lat="47.28374" lon="-2.36024">
        <ele>94.199996948242</ele>
        <time>2019-07-11T09:57:11.000Z</time>
      </trkpt>
      <trkpt lat="47.28368" lon="-2.36024">
        <ele>93.800003051758</ele>
        <time>2019-07-11T09:57:12.000Z</time>
      </trkpt>
      <trkpt lat="47.28361" lon="-2.36025">
        <ele>93.400001525879</ele>
        <time>2019-07-11T09:57:13.000Z</time>
      </trkpt>
      <trkpt lat="47.28354" lon="-2.36027">
        <ele>92.599998474121</ele>
        <time>2019-07-11T09:57:14.000Z</time>
      </trkpt>
      <trkpt lat="47.28347" lon="-2.36031">
        <ele>92</ele>
        <time>2019-07-11T09:57:15.000Z</time>
      </trkpt>
      <trkpt lat="47.28342" lon="-2.36036">
        <ele>91.199996948242</ele>
        <time>2019-07-11T09:57:16.000Z</time>
      </trkpt>
      <trkpt lat="47.28336" lon="-2.36041">
        <ele>90.599998474121</ele>
        <time>2019-07-11T09:57:17.000Z</time>
      </trkpt>
      <trkpt lat="47.28331" lon="-2.36047">
        <ele>90</ele>
        <time>2019-07-11T09:57:18.000Z</time>
      </trkpt>
      <trkpt lat="47.28325" lon="-2.36051">
        <ele>89.400001525879</ele>
        <time>2019-07-11T09:57:19.000Z</time>
      </trkpt>
      <trkpt lat="47.28321" lon="-2.36052">
        <ele>88.800003051758</ele>
        <time>2019-07-11T09:57:20.000Z</time>
      </trkpt>
      <trkpt lat="47.28316" lon="-2.36052">
        <ele>88.199996948242</ele>
        <time>2019-07-11T09:57:21.000Z</time>
      </trkpt>
      <trkpt lat="47.28311" lon="-2.36052">
        <ele>87.599998474121</ele>
        <time>2019-07-11T09:57:22.000Z</time>
      </trkpt>
      <trkpt lat="47.28302" lon="-2.36048">
        <ele>87.599998474121</ele>
        <time>2019-07-11T09:57:24.000Z</time>
      </trkpt>
      <trkpt lat="47.28298" lon="-2.36047">
        <ele>87.199996948242</ele>
        <time>2019-07-11T09:57:25.000Z</time>
      </trkpt>
      <trkpt lat="47.28293" lon="-2.36044">
        <ele>86.800003051758</ele>
        <time>2019-07-11T09:57:26.000Z</time>
      </trkpt>
      <trkpt lat="47.28289" lon="-2.36041">
        <ele>86.400001525879</ele>
        <time>2019-07-11T09:57:27.000Z</time>
      </trkpt>
      <trkpt lat="47.28285" lon="-2.36036">
        <ele>85.599998474121</ele>
        <time>2019-07-11T09:57:28.000Z</time>
      </trkpt>
      <trkpt lat="47.28283" lon="-2.3603">
        <ele>85</ele>
        <time>2019-07-11T09:57:29.000Z</time>
      </trkpt>
      <trkpt lat="47.28281" lon="-2.36024">
        <ele>84.400001525879</ele>
        <time>2019-07-11T09:57:30.000Z</time>
      </trkpt>
      <trkpt lat="47.2828" lon="-2.36016">
        <ele>83.599998474121</ele>
        <time>2019-07-11T09:57:31.000Z</time>
      </trkpt>
      <trkpt lat="47.2828" lon="-2.36009">
        <ele>82.199996948242</ele>
        <time>2019-07-11T09:57:32.000Z</time>
      </trkpt>
      <trkpt lat="47.2828" lon="-2.36001">
        <ele>81.400001525879</ele>
        <time>2019-07-11T09:57:33.000Z</time>
      </trkpt>
      <trkpt lat="47.28281" lon="-2.35994">
        <ele>80.800003051758</ele>
        <time>2019-07-11T09:57:34.000Z</time>
      </trkpt>
      <trkpt lat="47.2828" lon="-2.35987">
        <ele>80</ele>
        <time>2019-07-11T09:57:35.000Z</time>
      </trkpt>
      <trkpt lat="47.2828" lon="-2.3598">
        <ele>79.199996948242</ele>
        <time>2019-07-11T09:57:36.000Z</time>
      </trkpt>
      <trkpt lat="47.28278" lon="-2.35973">
        <ele>78.599998474121</ele>
        <time>2019-07-11T09:57:37.000Z</time>
      </trkpt>
      <trkpt lat="47.28275" lon="-2.35961">
        <ele>78.599998474121</ele>
        <time>2019-07-11T09:57:39.000Z</time>
      </trkpt>
      <trkpt lat="47.28272" lon="-2.35955">
        <ele>78.599998474121</ele>
        <time>2019-07-11T09:57:40.000Z</time>
      </trkpt>
      <trkpt lat="47.28269" lon="-2.3595">
        <ele>78.599998474121</ele>
        <time>2019-07-11T09:57:41.000Z</time>
      </trkpt>
      <trkpt lat="47.28259" lon="-2.35932">
        <ele>78.599998474121</ele>
        <time>2019-07-11T09:57:45.000Z</time>
      </trkpt>
      <trkpt lat="47.28252" lon="-2.35917">
        <ele>78.599998474121</ele>
        <time>2019-07-11T09:57:49.000Z</time>
      </trkpt>
      <trkpt lat="47.28249" lon="-2.35915">
        <ele>78.599998474121</ele>
        <time>2019-07-11T09:57:50.000Z</time>
      </trkpt>
      <trkpt lat="47.28236" lon="-2.35916">
        <ele>78.599998474121</ele>
        <time>2019-07-11T09:57:53.000Z</time>
      </trkpt>
      <trkpt lat="47.28226" lon="-2.35914">
        <ele>78.599998474121</ele>
        <time>2019-07-11T09:57:55.000Z</time>
      </trkpt>
      <trkpt lat="47.28211" lon="-2.35907">
        <ele>78.599998474121</ele>
        <time>2019-07-11T09:57:58.000Z</time>
      </trkpt>
      <trkpt lat="47.28198" lon="-2.35905">
        <ele>78.599998474121</ele>
        <time>2019-07-11T09:58:01.000Z</time>
      </trkpt>
      <trkpt lat="47.28186" lon="-2.35902">
        <ele>78.599998474121</ele>
        <time>2019-07-11T09:58:04.000Z</time>
      </trkpt>
      <trkpt lat="47.28175" lon="-2.35893">
        <ele>78.599998474121</ele>
        <time>2019-07-11T09:58:08.000Z</time>
      </trkpt>
      <trkpt lat="47.28158" lon="-2.35888">
        <ele>78.599998474121</ele>
        <time>2019-07-11T09:58:14.000Z</time>
      </trkpt>
      <trkpt lat="47.28145" lon="-2.35879">
        <ele>78.199996948242</ele>
        <time>2019-07-11T09:58:18.000Z</time>
      </trkpt>
      <trkpt lat="47.28142" lon="-2.35875">
        <ele>77.599998474121</ele>
        <time>2019-07-11T09:58:19.000Z</time>
      </trkpt>
      <trkpt lat="47.28139" lon="-2.3587">
        <ele>77.199996948242</ele>
        <time>2019-07-11T09:58:20.000Z</time>
      </trkpt>
      <trkpt lat="47.28137" lon="-2.35866">
        <ele>76.400001525879</ele>
        <time>2019-07-11T09:58:21.000Z</time>
      </trkpt>
      <trkpt lat="47.28133" lon="-2.35859">
        <ele>76.400001525879</ele>
        <time>2019-07-11T09:58:24.000Z</time>
      </trkpt>
      <trkpt lat="47.28131" lon="-2.35857">
        <ele>76.800003051758</ele>
        <time>2019-07-11T09:58:25.000Z</time>
      </trkpt>
      <trkpt lat="47.28128" lon="-2.35855">
        <ele>77.199996948242</ele>
        <time>2019-07-11T09:58:26.000Z</time>
      </trkpt>
      <trkpt lat="47.28126" lon="-2.35854">
        <ele>77.599998474121</ele>
        <time>2019-07-11T09:58:27.000Z</time>
      </trkpt>
      <trkpt lat="47.28123" lon="-2.35854">
        <ele>78</ele>
        <time>2019-07-11T09:58:28.000Z</time>
      </trkpt>
      <trkpt lat="47.28121" lon="-2.35854">
        <ele>78.599998474121</ele>
        <time>2019-07-11T09:58:29.000Z</time>
      </trkpt>
      <trkpt lat="47.28116" lon="-2.35854">
        <ele>78.599998474121</ele>
        <time>2019-07-11T09:58:31.000Z</time>
      </trkpt>
      <trkpt lat="47.28104" lon="-2.35847">
        <ele>78.599998474121</ele>
        <time>2019-07-11T09:58:35.000Z</time>
      </trkpt>
      <trkpt lat="47.28095" lon="-2.35826">
        <ele>78.599998474121</ele>
        <time>2019-07-11T09:58:40.000Z</time>
      </trkpt>
      <trkpt lat="47.28093" lon="-2.35803">
        <ele>78.599998474121</ele>
        <time>2019-07-11T09:58:44.000Z</time>
      </trkpt>
      <trkpt lat="47.28093" lon="-2.35773">
        <ele>78.599998474121</ele>
        <time>2019-07-11T09:58:48.000Z</time>
      </trkpt>
      <trkpt lat="47.28094" lon="-2.35763">
        <ele>79</ele>
        <time>2019-07-11T09:58:49.000Z</time>
      </trkpt>
      <trkpt lat="47.28097" lon="-2.35752">
        <ele>79.400001525879</ele>
        <time>2019-07-11T09:58:50.000Z</time>
      </trkpt>
      <trkpt lat="47.28098" lon="-2.35744">
        <ele>79.800003051758</ele>
        <time>2019-07-11T09:58:51.000Z</time>
      </trkpt>
      <trkpt lat="47.28097" lon="-2.35735">
        <ele>80.199996948242</ele>
        <time>2019-07-11T09:58:52.000Z</time>
      </trkpt>
      <trkpt lat="47.28096" lon="-2.35727">
        <ele>80.599998474121</ele>
        <time>2019-07-11T09:58:53.000Z</time>
      </trkpt>
      <trkpt lat="47.28091" lon="-2.35703">
        <ele>80.599998474121</ele>
        <time>2019-07-11T09:58:56.000Z</time>
      </trkpt>
      <trkpt lat="47.28081" lon="-2.35652">
        <ele>80.599998474121</ele>
        <time>2019-07-11T09:59:03.000Z</time>
      </trkpt>
      <trkpt lat="47.2808" lon="-2.35644">
        <ele>80.199996948242</ele>
        <time>2019-07-11T09:59:04.000Z</time>
      </trkpt>
      <trkpt lat="47.28079" lon="-2.35632">
        <ele>79.599998474121</ele>
        <time>2019-07-11T09:59:05.000Z</time>
      </trkpt>
      <trkpt lat="47.28076" lon="-2.35622">
        <ele>79.199996948242</ele>
        <time>2019-07-11T09:59:06.000Z</time>
      </trkpt>
      <trkpt lat="47.28073" lon="-2.35613">
        <ele>78.599998474121</ele>
        <time>2019-07-11T09:59:07.000Z</time>
      </trkpt>
      <trkpt lat="47.28068" lon="-2.35606">
        <ele>78</ele>
        <time>2019-07-11T09:59:08.000Z</time>
      </trkpt>
      <trkpt lat="47.28064" lon="-2.35601">
        <ele>77.400001525879</ele>
        <time>2019-07-11T09:59:09.000Z</time>
      </trkpt>
      <trkpt lat="47.28058" lon="-2.35596">
        <ele>77</ele>
        <time>2019-07-11T09:59:10.000Z</time>
      </trkpt>
      <trkpt lat="47.28052" lon="-2.35592">
        <ele>75.800003051758</ele>
        <time>2019-07-11T09:59:11.000Z</time>
      </trkpt>
      <trkpt lat="47.28046" lon="-2.35589">
        <ele>75.800003051758</ele>
        <time>2019-07-11T09:59:12.000Z</time>
      </trkpt>
      <trkpt lat="47.28023" lon="-2.35587">
        <ele>75.800003051758</ele>
        <time>2019-07-11T09:59:16.000Z</time>
      </trkpt>
      <trkpt lat="47.28008" lon="-2.35587">
        <ele>75.800003051758</ele>
        <time>2019-07-11T09:59:19.000Z</time>
      </trkpt>
      <trkpt lat="47.27998" lon="-2.35588">
        <ele>75.400001525879</ele>
        <time>2019-07-11T09:59:21.000Z</time>
      </trkpt>
      <trkpt lat="47.27992" lon="-2.35589">
        <ele>75</ele>
        <time>2019-07-11T09:59:22.000Z</time>
      </trkpt>
      <trkpt lat="47.27986" lon="-2.35589">
        <ele>74.599998474121</ele>
        <time>2019-07-11T09:59:23.000Z</time>
      </trkpt>
      <trkpt lat="47.27982" lon="-2.35588">
        <ele>74.199996948242</ele>
        <time>2019-07-11T09:59:24.000Z</time>
      </trkpt>
      <trkpt lat="47.27976" lon="-2.35586">
        <ele>73.800003051758</ele>
        <time>2019-07-11T09:59:25.000Z</time>
      </trkpt>
      <trkpt lat="47.27971" lon="-2.35584">
        <ele>73.800003051758</ele>
        <time>2019-07-11T09:59:26.000Z</time>
      </trkpt>
      <trkpt lat="47.27961" lon="-2.35581">
        <ele>73.800003051758</ele>
        <time>2019-07-11T09:59:28.000Z</time>
      </trkpt>
      <trkpt lat="47.2795" lon="-2.35582">
        <ele>73.800003051758</ele>
        <time>2019-07-11T09:59:30.000Z</time>
      </trkpt>
      <trkpt lat="47.27918" lon="-2.35593">
        <ele>73.800003051758</ele>
        <time>2019-07-11T09:59:36.000Z</time>
      </trkpt>
      <trkpt lat="47.27895" lon="-2.35602">
        <ele>73.800003051758</ele>
        <time>2019-07-11T09:59:40.000Z</time>
      </trkpt>
      <trkpt lat="47.27889" lon="-2.35606">
        <ele>73.800003051758</ele>
        <time>2019-07-11T09:59:41.000Z</time>
      </trkpt>
      <trkpt lat="47.27883" lon="-2.35609">
        <ele>73.800003051758</ele>
        <time>2019-07-11T09:59:42.000Z</time>
      </trkpt>
      <trkpt lat="47.27862" lon="-2.35615">
        <ele>73.400001525879</ele>
        <time>2019-07-11T09:59:45.000Z</time>
      </trkpt>
      <trkpt lat="47.27855" lon="-2.35616">
        <ele>73</ele>
        <time>2019-07-11T09:59:46.000Z</time>
      </trkpt>
      <trkpt lat="47.27849" lon="-2.35617">
        <ele>72.599998474121</ele>
        <time>2019-07-11T09:59:47.000Z</time>
      </trkpt>
      <trkpt lat="47.27842" lon="-2.35618">
        <ele>72</ele>
        <time>2019-07-11T09:59:48.000Z</time>
      </trkpt>
      <trkpt lat="47.27835" lon="-2.35619">
        <ele>71.599998474121</ele>
        <time>2019-07-11T09:59:49.000Z</time>
      </trkpt>
      <trkpt lat="47.27801" lon="-2.35628">
        <ele>71.599998474121</ele>
        <time>2019-07-11T09:59:54.000Z</time>
      </trkpt>
      <trkpt lat="47.27787" lon="-2.35635">
        <ele>71.599998474121</ele>
        <time>2019-07-11T09:59:56.000Z</time>
      </trkpt>
      <trkpt lat="47.27768" lon="-2.3565">
        <ele>71.599998474121</ele>
        <time>2019-07-11T09:59:59.000Z</time>
      </trkpt>
      <trkpt lat="47.27762" lon="-2.35657">
        <ele>70.599998474121</ele>
        <time>2019-07-11T10:00:00.000Z</time>
      </trkpt>
      <trkpt lat="47.27756" lon="-2.35663">
        <ele>70.199996948242</ele>
        <time>2019-07-11T10:00:01.000Z</time>
      </trkpt>
      <trkpt lat="47.2775" lon="-2.3567">
        <ele>69.800003051758</ele>
        <time>2019-07-11T10:00:02.000Z</time>
      </trkpt>
      <trkpt lat="47.27745" lon="-2.35677">
        <ele>69.199996948242</ele>
        <time>2019-07-11T10:00:03.000Z</time>
      </trkpt>
      <trkpt lat="47.27715" lon="-2.3572">
        <ele>68.800003051758</ele>
        <time>2019-07-11T10:00:09.000Z</time>
      </trkpt>
      <trkpt lat="47.27709" lon="-2.35726">
        <ele>68.400001525879</ele>
        <time>2019-07-11T10:00:10.000Z</time>
      </trkpt>
      <trkpt lat="47.27703" lon="-2.3573">
        <ele>68</ele>
        <time>2019-07-11T10:00:11.000Z</time>
      </trkpt>
      <trkpt lat="47.27697" lon="-2.35734">
        <ele>67.599998474121</ele>
        <time>2019-07-11T10:00:12.000Z</time>
      </trkpt>
      <trkpt lat="47.27691" lon="-2.35738">
        <ele>67.199996948242</ele>
        <time>2019-07-11T10:00:13.000Z</time>
      </trkpt>
      <trkpt lat="47.27686" lon="-2.35743">
        <ele>67.199996948242</ele>
        <time>2019-07-11T10:00:14.000Z</time>
      </trkpt>
      <trkpt lat="47.2768" lon="-2.35748">
        <ele>67.199996948242</ele>
        <time>2019-07-11T10:00:15.000Z</time>
      </trkpt>
      <trkpt lat="47.27675" lon="-2.35749">
        <ele>66.800003051758</ele>
        <time>2019-07-11T10:00:16.000Z</time>
      </trkpt>
      <trkpt lat="47.2767" lon="-2.35746">
        <ele>66.199996948242</ele>
        <time>2019-07-11T10:00:17.000Z</time>
      </trkpt>
      <trkpt lat="47.27666" lon="-2.3574">
        <ele>65.800003051758</ele>
        <time>2019-07-11T10:00:18.000Z</time>
      </trkpt>
      <trkpt lat="47.27662" lon="-2.35734">
        <ele>65.400001525879</ele>
        <time>2019-07-11T10:00:19.000Z</time>
      </trkpt>
      <trkpt lat="47.27657" lon="-2.35728">
        <ele>65</ele>
        <time>2019-07-11T10:00:20.000Z</time>
      </trkpt>
      <trkpt lat="47.27637" lon="-2.35719">
        <ele>65</ele>
        <time>2019-07-11T10:00:23.000Z</time>
      </trkpt>
      <trkpt lat="47.27623" lon="-2.35716">
        <ele>65</ele>
        <time>2019-07-11T10:00:25.000Z</time>
      </trkpt>
      <trkpt lat="47.27594" lon="-2.3571">
        <ele>64.599998474121</ele>
        <time>2019-07-11T10:00:29.000Z</time>
      </trkpt>
      <trkpt lat="47.27587" lon="-2.35708">
        <ele>64.199996948242</ele>
        <time>2019-07-11T10:00:30.000Z</time>
      </trkpt>
      <trkpt lat="47.27579" lon="-2.35706">
        <ele>63.799999237061</ele>
        <time>2019-07-11T10:00:31.000Z</time>
      </trkpt>
      <trkpt lat="47.27572" lon="-2.35704">
        <ele>63.400001525879</ele>
        <time>2019-07-11T10:00:32.000Z</time>
      </trkpt>
      <trkpt lat="47.27564" lon="-2.35702">
        <ele>63</ele>
        <time>2019-07-11T10:00:33.000Z</time>
      </trkpt>
      <trkpt lat="47.27542" lon="-2.35697">
        <ele>63</ele>
        <time>2019-07-11T10:00:36.000Z</time>
      </trkpt>
      <trkpt lat="47.27493" lon="-2.35685">
        <ele>62.599998474121</ele>
        <time>2019-07-11T10:00:43.000Z</time>
      </trkpt>
      <trkpt lat="47.27486" lon="-2.35683">
        <ele>62</ele>
        <time>2019-07-11T10:00:44.000Z</time>
      </trkpt>
      <trkpt lat="47.27479" lon="-2.35681">
        <ele>61.599998474121</ele>
        <time>2019-07-11T10:00:45.000Z</time>
      </trkpt>
      <trkpt lat="47.27472" lon="-2.3568">
        <ele>61.200000762939</ele>
        <time>2019-07-11T10:00:46.000Z</time>
      </trkpt>
      <trkpt lat="47.27465" lon="-2.35678">
        <ele>60.599998474121</ele>
        <time>2019-07-11T10:00:47.000Z</time>
      </trkpt>
      <trkpt lat="47.27451" lon="-2.35675">
        <ele>60.599998474121</ele>
        <time>2019-07-11T10:00:49.000Z</time>
      </trkpt>
      <trkpt lat="47.27416" lon="-2.35668">
        <ele>60.599998474121</ele>
        <time>2019-07-11T10:00:55.000Z</time>
      </trkpt>
      <trkpt lat="47.27411" lon="-2.35668">
        <ele>60.200000762939</ele>
        <time>2019-07-11T10:00:56.000Z</time>
      </trkpt>
      <trkpt lat="47.27406" lon="-2.3567">
        <ele>59.799999237061</ele>
        <time>2019-07-11T10:00:57.000Z</time>
      </trkpt>
      <trkpt lat="47.27399" lon="-2.35673">
        <ele>59.400001525879</ele>
        <time>2019-07-11T10:00:58.000Z</time>
      </trkpt>
      <trkpt lat="47.27393" lon="-2.35677">
        <ele>59</ele>
        <time>2019-07-11T10:00:59.000Z</time>
      </trkpt>
      <trkpt lat="47.27386" lon="-2.35681">
        <ele>58.599998474121</ele>
        <time>2019-07-11T10:01:00.000Z</time>
      </trkpt>
      <trkpt lat="47.2738" lon="-2.35684">
        <ele>58.599998474121</ele>
        <time>2019-07-11T10:01:01.000Z</time>
      </trkpt>
      <trkpt lat="47.27356" lon="-2.35702">
        <ele>58.599998474121</ele>
        <time>2019-07-11T10:01:05.000Z</time>
      </trkpt>
      <trkpt lat="47.27329" lon="-2.35726">
        <ele>58.599998474121</ele>
        <time>2019-07-11T10:01:10.000Z</time>
      </trkpt>
      <trkpt lat="47.27326" lon="-2.3573">
        <ele>58.599998474121</ele>
        <time>2019-07-11T10:01:11.000Z</time>
      </trkpt>
      <trkpt lat="47.27319" lon="-2.35739">
        <ele>58.599998474121</ele>
        <time>2019-07-11T10:01:13.000Z</time>
      </trkpt>
      <trkpt lat="47.27312" lon="-2.35743">
        <ele>58.599998474121</ele>
        <time>2019-07-11T10:01:15.000Z</time>
      </trkpt>
      <trkpt lat="47.27303" lon="-2.3573">
        <ele>58.599998474121</ele>
        <time>2019-07-11T10:01:18.000Z</time>
      </trkpt>
      <trkpt lat="47.273" lon="-2.35715">
        <ele>58.599998474121</ele>
        <time>2019-07-11T10:01:20.000Z</time>
      </trkpt>
      <trkpt lat="47.27297" lon="-2.35707">
        <ele>58.599998474121</ele>
        <time>2019-07-11T10:01:21.000Z</time>
      </trkpt>
      <trkpt lat="47.27288" lon="-2.35693">
        <ele>58.599998474121</ele>
        <time>2019-07-11T10:01:23.000Z</time>
      </trkpt>
      <trkpt lat="47.27266" lon="-2.35646">
        <ele>58.599998474121</ele>
        <time>2019-07-11T10:01:29.000Z</time>
      </trkpt>
      <trkpt lat="47.27236" lon="-2.3558">
        <ele>58.599998474121</ele>
        <time>2019-07-11T10:01:37.000Z</time>
      </trkpt>
      <trkpt lat="47.2722" lon="-2.35546">
        <ele>59</ele>
        <time>2019-07-11T10:01:41.000Z</time>
      </trkpt>
      <trkpt lat="47.27216" lon="-2.35538">
        <ele>59.400001525879</ele>
        <time>2019-07-11T10:01:42.000Z</time>
      </trkpt>
      <trkpt lat="47.27213" lon="-2.35529">
        <ele>59.799999237061</ele>
        <time>2019-07-11T10:01:43.000Z</time>
      </trkpt>
      <trkpt lat="47.27209" lon="-2.35521">
        <ele>60.400001525879</ele>
        <time>2019-07-11T10:01:44.000Z</time>
      </trkpt>
      <trkpt lat="47.27205" lon="-2.35513">
        <ele>60.799999237061</ele>
        <time>2019-07-11T10:01:45.000Z</time>
      </trkpt>
      <trkpt lat="47.27174" lon="-2.35449">
        <ele>60.799999237061</ele>
        <time>2019-07-11T10:01:53.000Z</time>
      </trkpt>
      <trkpt lat="47.27145" lon="-2.35393">
        <ele>60.799999237061</ele>
        <time>2019-07-11T10:02:00.000Z</time>
      </trkpt>
      <trkpt lat="47.27113" lon="-2.3534">
        <ele>60.799999237061</ele>
        <time>2019-07-11T10:02:07.000Z</time>
      </trkpt>
      <trkpt lat="47.27079" lon="-2.35286">
        <ele>60.799999237061</ele>
        <time>2019-07-11T10:02:15.000Z</time>
      </trkpt>
      <trkpt lat="47.27043" lon="-2.35228">
        <ele>60.799999237061</ele>
        <time>2019-07-11T10:02:23.000Z</time>
      </trkpt>
      <trkpt lat="47.27002" lon="-2.35164">
        <ele>60.799999237061</ele>
        <time>2019-07-11T10:02:32.000Z</time>
      </trkpt>
      <trkpt lat="47.26998" lon="-2.35158">
        <ele>60.799999237061</ele>
        <time>2019-07-11T10:02:33.000Z</time>
      </trkpt>
      <trkpt lat="47.26958" lon="-2.35097">
        <ele>60.799999237061</ele>
        <time>2019-07-11T10:02:42.000Z</time>
      </trkpt>
      <trkpt lat="47.26919" lon="-2.35035">
        <ele>60.799999237061</ele>
        <time>2019-07-11T10:02:51.000Z</time>
      </trkpt>
      <trkpt lat="47.26914" lon="-2.35028">
        <ele>60.799999237061</ele>
        <time>2019-07-11T10:02:52.000Z</time>
      </trkpt>
      <trkpt lat="47.26882" lon="-2.34982">
        <ele>60.799999237061</ele>
        <time>2019-07-11T10:02:59.000Z</time>
      </trkpt>
      <trkpt lat="47.26846" lon="-2.34929">
        <ele>60.799999237061</ele>
        <time>2019-07-11T10:03:07.000Z</time>
      </trkpt>
      <trkpt lat="47.2681" lon="-2.34876">
        <ele>60.799999237061</ele>
        <time>2019-07-11T10:03:15.000Z</time>
      </trkpt>
      <trkpt lat="47.26781" lon="-2.34833">
        <ele>60.400001525879</ele>
        <time>2019-07-11T10:03:22.000Z</time>
      </trkpt>
      <trkpt lat="47.26779" lon="-2.34831">
        <ele>60</ele>
        <time>2019-07-11T10:03:23.000Z</time>
      </trkpt>
      <trkpt lat="47.26778" lon="-2.34829">
        <ele>59.599998474121</ele>
        <time>2019-07-11T10:03:24.000Z</time>
      </trkpt>
      <trkpt lat="47.26776" lon="-2.34828">
        <ele>59.200000762939</ele>
        <time>2019-07-11T10:03:25.000Z</time>
      </trkpt>
      <trkpt lat="47.26774" lon="-2.34826">
        <ele>58.799999237061</ele>
        <time>2019-07-11T10:03:26.000Z</time>
      </trkpt>
      <trkpt lat="47.26763" lon="-2.34814">
        <ele>58.799999237061</ele>
        <time>2019-07-11T10:03:30.000Z</time>
      </trkpt>
      <trkpt lat="47.2676" lon="-2.34808">
        <ele>58.799999237061</ele>
        <time>2019-07-11T10:03:31.000Z</time>
      </trkpt>
      <trkpt lat="47.26748" lon="-2.34791">
        <ele>58.799999237061</ele>
        <time>2019-07-11T10:03:34.000Z</time>
      </trkpt>
      <trkpt lat="47.26719" lon="-2.34756">
        <ele>58.799999237061</ele>
        <time>2019-07-11T10:03:40.000Z</time>
      </trkpt>
      <trkpt lat="47.26684" lon="-2.34715">
        <ele>58.799999237061</ele>
        <time>2019-07-11T10:03:47.000Z</time>
      </trkpt>
      <trkpt lat="47.26654" lon="-2.34677">
        <ele>58.799999237061</ele>
        <time>2019-07-11T10:03:53.000Z</time>
      </trkpt>
      <trkpt lat="47.26624" lon="-2.3464">
        <ele>58.799999237061</ele>
        <time>2019-07-11T10:03:59.000Z</time>
      </trkpt>
      <trkpt lat="47.26584" lon="-2.34594">
        <ele>58.799999237061</ele>
        <time>2019-07-11T10:04:07.000Z</time>
      </trkpt>
      <trkpt lat="47.26546" lon="-2.34553">
        <ele>58.799999237061</ele>
        <time>2019-07-11T10:04:15.000Z</time>
      </trkpt>
      <trkpt lat="47.26514" lon="-2.34524">
        <ele>58.799999237061</ele>
        <time>2019-07-11T10:04:21.000Z</time>
      </trkpt>
      <trkpt lat="47.26509" lon="-2.3452">
        <ele>58.799999237061</ele>
        <time>2019-07-11T10:04:22.000Z</time>
      </trkpt>
      <trkpt lat="47.2647" lon="-2.34489">
        <ele>58.799999237061</ele>
        <time>2019-07-11T10:04:29.000Z</time>
      </trkpt>
      <trkpt lat="47.26424" lon="-2.34457">
        <ele>58.799999237061</ele>
        <time>2019-07-11T10:04:37.000Z</time>
      </trkpt>
      <trkpt lat="47.2639" lon="-2.34432">
        <ele>58.799999237061</ele>
        <time>2019-07-11T10:04:43.000Z</time>
      </trkpt>
      <trkpt lat="47.26355" lon="-2.344">
        <ele>58.799999237061</ele>
        <time>2019-07-11T10:04:50.000Z</time>
      </trkpt>
      <trkpt lat="47.26334" lon="-2.34384">
        <ele>58.799999237061</ele>
        <time>2019-07-11T10:04:54.000Z</time>
      </trkpt>
      <trkpt lat="47.26322" lon="-2.34378">
        <ele>58.799999237061</ele>
        <time>2019-07-11T10:04:56.000Z</time>
      </trkpt>
      <trkpt lat="47.26308" lon="-2.34358">
        <ele>58.799999237061</ele>
        <time>2019-07-11T10:04:59.000Z</time>
      </trkpt>
      <trkpt lat="47.26298" lon="-2.34347">
        <ele>58.799999237061</ele>
        <time>2019-07-11T10:05:01.000Z</time>
      </trkpt>
      <trkpt lat="47.26281" lon="-2.34331">
        <ele>58.799999237061</ele>
        <time>2019-07-11T10:05:04.000Z</time>
      </trkpt>
      <trkpt lat="47.2624" lon="-2.34286">
        <ele>58.799999237061</ele>
        <time>2019-07-11T10:05:12.000Z</time>
      </trkpt>
      <trkpt lat="47.26204" lon="-2.34247">
        <ele>58.799999237061</ele>
        <time>2019-07-11T10:05:19.000Z</time>
      </trkpt>
      <trkpt lat="47.26166" lon="-2.34209">
        <ele>58.799999237061</ele>
        <time>2019-07-11T10:05:27.000Z</time>
      </trkpt>
      <trkpt lat="47.26143" lon="-2.34188">
        <ele>58.799999237061</ele>
        <time>2019-07-11T10:05:32.000Z</time>
      </trkpt>
      <trkpt lat="47.26133" lon="-2.34185">
        <ele>58.799999237061</ele>
        <time>2019-07-11T10:05:34.000Z</time>
      </trkpt>
      <trkpt lat="47.26129" lon="-2.34181">
        <ele>58.799999237061</ele>
        <time>2019-07-11T10:05:35.000Z</time>
      </trkpt>
      <trkpt lat="47.26121" lon="-2.34173">
        <ele>58.799999237061</ele>
        <time>2019-07-11T10:05:38.000Z</time>
      </trkpt>
      <trkpt lat="47.26119" lon="-2.3417">
        <ele>58.200000762939</ele>
        <time>2019-07-11T10:05:40.000Z</time>
      </trkpt>
      <trkpt lat="47.26117" lon="-2.34168">
        <ele>57.799999237061</ele>
        <time>2019-07-11T10:05:41.000Z</time>
      </trkpt>
      <trkpt lat="47.26114" lon="-2.34166">
        <ele>57.400001525879</ele>
        <time>2019-07-11T10:05:42.000Z</time>
      </trkpt>
      <trkpt lat="47.2611" lon="-2.34165">
        <ele>57</ele>
        <time>2019-07-11T10:05:43.000Z</time>
      </trkpt>
      <trkpt lat="47.26106" lon="-2.34163">
        <ele>56.599998474121</ele>
        <time>2019-07-11T10:05:44.000Z</time>
      </trkpt>
      <trkpt lat="47.26102" lon="-2.3416">
        <ele>56.599998474121</ele>
        <time>2019-07-11T10:05:45.000Z</time>
      </trkpt>
      <trkpt lat="47.26086" lon="-2.34153">
        <ele>56.599998474121</ele>
        <time>2019-07-11T10:05:48.000Z</time>
      </trkpt>
      <trkpt lat="47.26052" lon="-2.34137">
        <ele>56.599998474121</ele>
        <time>2019-07-11T10:05:54.000Z</time>
      </trkpt>
      <trkpt lat="47.25998" lon="-2.3411">
        <ele>56.599998474121</ele>
        <time>2019-07-11T10:06:03.000Z</time>
      </trkpt>
      <trkpt lat="47.25952" lon="-2.34086">
        <ele>56.599998474121</ele>
        <time>2019-07-11T10:06:11.000Z</time>
      </trkpt>
      <trkpt lat="47.25942" lon="-2.34081">
        <ele>56.599998474121</ele>
        <time>2019-07-11T10:06:13.000Z</time>
      </trkpt>
      <trkpt lat="47.2593" lon="-2.34079">
        <ele>56.599998474121</ele>
        <time>2019-07-11T10:06:15.000Z</time>
      </trkpt>
      <trkpt lat="47.25908" lon="-2.34074">
        <ele>56.599998474121</ele>
        <time>2019-07-11T10:06:19.000Z</time>
      </trkpt>
      <trkpt lat="47.25899" lon="-2.34064">
        <ele>56.599998474121</ele>
        <time>2019-07-11T10:06:21.000Z</time>
      </trkpt>
      <trkpt lat="47.25897" lon="-2.34037">
        <ele>56.599998474121</ele>
        <time>2019-07-11T10:06:24.000Z</time>
      </trkpt>
      <trkpt lat="47.25906" lon="-2.34014">
        <ele>56.599998474121</ele>
        <time>2019-07-11T10:06:27.000Z</time>
      </trkpt>
      <trkpt lat="47.2591" lon="-2.34">
        <ele>56.599998474121</ele>
        <time>2019-07-11T10:06:29.000Z</time>
      </trkpt>
      <trkpt lat="47.25916" lon="-2.33981">
        <ele>56.599998474121</ele>
        <time>2019-07-11T10:06:32.000Z</time>
      </trkpt>
      <trkpt lat="47.25918" lon="-2.33976">
        <ele>56.599998474121</ele>
        <time>2019-07-11T10:06:33.000Z</time>
      </trkpt>
      <trkpt lat="47.25929" lon="-2.33953">
        <ele>56.599998474121</ele>
        <time>2019-07-11T10:06:37.000Z</time>
      </trkpt>
      <trkpt lat="47.25942" lon="-2.33933">
        <ele>56.599998474121</ele>
        <time>2019-07-11T10:06:42.000Z</time>
      </trkpt>
      <trkpt lat="47.25946" lon="-2.33927">
        <ele>56.599998474121</ele>
        <time>2019-07-11T10:06:46.000Z</time>
      </trkpt>
      <trkpt lat="47.25946" lon="-2.33927">
        <ele>56.599998474121</ele>
        <time>2019-07-11T10:06:47.000Z</time>
      </trkpt>
      <trkpt lat="47.25946" lon="-2.33926">
        <ele>56.599998474121</ele>
        <time>2019-07-11T10:06:52.000Z</time>
      </trkpt>
      <trkpt lat="47.25945" lon="-2.33922">
        <ele>56.599998474121</ele>
        <time>2019-07-11T10:06:53.000Z</time>
      </trkpt>
      <trkpt lat="47.25943" lon="-2.33914">
        <ele>56.599998474121</ele>
        <time>2019-07-11T10:06:55.000Z</time>
      </trkpt>
      <trkpt lat="47.25936" lon="-2.33908">
        <ele>56.599998474121</ele>
        <time>2019-07-11T10:06:57.000Z</time>
      </trkpt>
      <trkpt lat="47.25926" lon="-2.33902">
        <ele>56.599998474121</ele>
        <time>2019-07-11T10:06:59.000Z</time>
      </trkpt>
      <trkpt lat="47.25912" lon="-2.33894">
        <ele>56.599998474121</ele>
        <time>2019-07-11T10:07:02.000Z</time>
      </trkpt>
      <trkpt lat="47.25903" lon="-2.33889">
        <ele>56.599998474121</ele>
        <time>2019-07-11T10:07:04.000Z</time>
      </trkpt>
      <trkpt lat="47.25886" lon="-2.33882">
        <ele>56.599998474121</ele>
        <time>2019-07-11T10:07:07.000Z</time>
      </trkpt>
      <trkpt lat="47.25851" lon="-2.33868">
        <ele>56.599998474121</ele>
        <time>2019-07-11T10:07:13.000Z</time>
      </trkpt>
      <trkpt lat="47.25814" lon="-2.33853">
        <ele>56.599998474121</ele>
        <time>2019-07-11T10:07:19.000Z</time>
      </trkpt>
      <trkpt lat="47.25781" lon="-2.33833">
        <ele>56.599998474121</ele>
        <time>2019-07-11T10:07:25.000Z</time>
      </trkpt>
      <trkpt lat="47.25762" lon="-2.33825">
        <ele>56.599998474121</ele>
        <time>2019-07-11T10:07:29.000Z</time>
      </trkpt>
      <trkpt lat="47.25758" lon="-2.33823">
        <ele>56.599998474121</ele>
        <time>2019-07-11T10:07:30.000Z</time>
      </trkpt>
      <trkpt lat="47.25755" lon="-2.33817">
        <ele>56.599998474121</ele>
        <time>2019-07-11T10:07:31.000Z</time>
      </trkpt>
      <trkpt lat="47.25755" lon="-2.3381">
        <ele>56.599998474121</ele>
        <time>2019-07-11T10:07:32.000Z</time>
      </trkpt>
      <trkpt lat="47.25756" lon="-2.33798">
        <ele>56.599998474121</ele>
        <time>2019-07-11T10:07:34.000Z</time>
      </trkpt>
      <trkpt lat="47.25759" lon="-2.33779">
        <ele>56.599998474121</ele>
        <time>2019-07-11T10:07:36.000Z</time>
      </trkpt>
      <trkpt lat="47.25762" lon="-2.33752">
        <ele>56.599998474121</ele>
        <time>2019-07-11T10:07:39.000Z</time>
      </trkpt>
      <trkpt lat="47.2576" lon="-2.33734">
        <ele>56.599998474121</ele>
        <time>2019-07-11T10:07:41.000Z</time>
      </trkpt>
      <trkpt lat="47.2575" lon="-2.33661">
        <ele>56.599998474121</ele>
        <time>2019-07-11T10:07:49.000Z</time>
      </trkpt>
      <trkpt lat="47.25744" lon="-2.33624">
        <ele>57</ele>
        <time>2019-07-11T10:07:53.000Z</time>
      </trkpt>
      <trkpt lat="47.25742" lon="-2.33615">
        <ele>57.400001525879</ele>
        <time>2019-07-11T10:07:54.000Z</time>
      </trkpt>
      <trkpt lat="47.25741" lon="-2.33606">
        <ele>57.799999237061</ele>
        <time>2019-07-11T10:07:55.000Z</time>
      </trkpt>
      <trkpt lat="47.25739" lon="-2.33598">
        <ele>58.200000762939</ele>
        <time>2019-07-11T10:07:56.000Z</time>
      </trkpt>
      <trkpt lat="47.25736" lon="-2.3359">
        <ele>58.599998474121</ele>
        <time>2019-07-11T10:07:57.000Z</time>
      </trkpt>
      <trkpt lat="47.25725" lon="-2.33585">
        <ele>58.599998474121</ele>
        <time>2019-07-11T10:07:59.000Z</time>
      </trkpt>
      <trkpt lat="47.25707" lon="-2.33588">
        <ele>58.599998474121</ele>
        <time>2019-07-11T10:08:02.000Z</time>
      </trkpt>
      <trkpt lat="47.2567" lon="-2.33585">
        <ele>58.599998474121</ele>
        <time>2019-07-11T10:08:08.000Z</time>
      </trkpt>
      <trkpt lat="47.25663" lon="-2.33582">
        <ele>58.599998474121</ele>
        <time>2019-07-11T10:08:09.000Z</time>
      </trkpt>
      <trkpt lat="47.25644" lon="-2.33572">
        <ele>58.599998474121</ele>
        <time>2019-07-11T10:08:12.000Z</time>
      </trkpt>
      <trkpt lat="47.25615" lon="-2.33553">
        <ele>58.599998474121</ele>
        <time>2019-07-11T10:08:17.000Z</time>
      </trkpt>
      <trkpt lat="47.25581" lon="-2.33521">
        <ele>58.599998474121</ele>
        <time>2019-07-11T10:08:23.000Z</time>
      </trkpt>
      <trkpt lat="47.25576" lon="-2.33514">
        <ele>58.599998474121</ele>
        <time>2019-07-11T10:08:24.000Z</time>
      </trkpt>
      <trkpt lat="47.25555" lon="-2.33478">
        <ele>58.599998474121</ele>
        <time>2019-07-11T10:08:29.000Z</time>
      </trkpt>
      <trkpt lat="47.2554" lon="-2.33444">
        <ele>58.599998474121</ele>
        <time>2019-07-11T10:08:33.000Z</time>
      </trkpt>
      <trkpt lat="47.25535" lon="-2.33425">
        <ele>58.599998474121</ele>
        <time>2019-07-11T10:08:35.000Z</time>
      </trkpt>
      <trkpt lat="47.25524" lon="-2.33367">
        <ele>58.599998474121</ele>
        <time>2019-07-11T10:08:41.000Z</time>
      </trkpt>
      <trkpt lat="47.25515" lon="-2.33288">
        <ele>58.599998474121</ele>
        <time>2019-07-11T10:08:49.000Z</time>
      </trkpt>
      <trkpt lat="47.25513" lon="-2.33278">
        <ele>58.599998474121</ele>
        <time>2019-07-11T10:08:50.000Z</time>
      </trkpt>
      <trkpt lat="47.25505" lon="-2.33208">
        <ele>58.599998474121</ele>
        <time>2019-07-11T10:08:57.000Z</time>
      </trkpt>
      <trkpt lat="47.25497" lon="-2.33147">
        <ele>58.599998474121</ele>
        <time>2019-07-11T10:09:03.000Z</time>
      </trkpt>
      <trkpt lat="47.25489" lon="-2.33087">
        <ele>58.599998474121</ele>
        <time>2019-07-11T10:09:09.000Z</time>
      </trkpt>
      <trkpt lat="47.25487" lon="-2.33077">
        <ele>58.599998474121</ele>
        <time>2019-07-11T10:09:10.000Z</time>
      </trkpt>
      <trkpt lat="47.25486" lon="-2.33067">
        <ele>58.599998474121</ele>
        <time>2019-07-11T10:09:11.000Z</time>
      </trkpt>
      <trkpt lat="47.25483" lon="-2.33039">
        <ele>58.599998474121</ele>
        <time>2019-07-11T10:09:14.000Z</time>
      </trkpt>
      <trkpt lat="47.25472" lon="-2.32965">
        <ele>58.599998474121</ele>
        <time>2019-07-11T10:09:22.000Z</time>
      </trkpt>
      <trkpt lat="47.25464" lon="-2.32911">
        <ele>58.599998474121</ele>
        <time>2019-07-11T10:09:28.000Z</time>
      </trkpt>
      <trkpt lat="47.25463" lon="-2.32893">
        <ele>58.599998474121</ele>
        <time>2019-07-11T10:09:30.000Z</time>
      </trkpt>
      <trkpt lat="47.2546" lon="-2.32875">
        <ele>59</ele>
        <time>2019-07-11T10:09:32.000Z</time>
      </trkpt>
      <trkpt lat="47.25458" lon="-2.32866">
        <ele>59.400001525879</ele>
        <time>2019-07-11T10:09:33.000Z</time>
      </trkpt>
      <trkpt lat="47.25457" lon="-2.32857">
        <ele>59.799999237061</ele>
        <time>2019-07-11T10:09:34.000Z</time>
      </trkpt>
      <trkpt lat="47.25455" lon="-2.32848">
        <ele>60.200000762939</ele>
        <time>2019-07-11T10:09:35.000Z</time>
      </trkpt>
      <trkpt lat="47.25452" lon="-2.3284">
        <ele>60.599998474121</ele>
        <time>2019-07-11T10:09:36.000Z</time>
      </trkpt>
      <trkpt lat="47.25435" lon="-2.32792">
        <ele>60.599998474121</ele>
        <time>2019-07-11T10:09:42.000Z</time>
      </trkpt>
      <trkpt lat="47.2543" lon="-2.32787">
        <ele>60.599998474121</ele>
        <time>2019-07-11T10:09:43.000Z</time>
      </trkpt>
      <trkpt lat="47.25423" lon="-2.32774">
        <ele>60.599998474121</ele>
        <time>2019-07-11T10:09:45.000Z</time>
      </trkpt>
      <trkpt lat="47.25417" lon="-2.32753">
        <ele>60.599998474121</ele>
        <time>2019-07-11T10:09:48.000Z</time>
      </trkpt>
      <trkpt lat="47.25414" lon="-2.32746">
        <ele>60.599998474121</ele>
        <time>2019-07-11T10:09:49.000Z</time>
      </trkpt>
      <trkpt lat="47.25408" lon="-2.32732">
        <ele>61</ele>
        <time>2019-07-11T10:09:51.000Z</time>
      </trkpt>
      <trkpt lat="47.25405" lon="-2.32725">
        <ele>61.400001525879</ele>
        <time>2019-07-11T10:09:52.000Z</time>
      </trkpt>
      <trkpt lat="47.25402" lon="-2.32718">
        <ele>62.200000762939</ele>
        <time>2019-07-11T10:09:53.000Z</time>
      </trkpt>
      <trkpt lat="47.25398" lon="-2.32711">
        <ele>62.599998474121</ele>
        <time>2019-07-11T10:09:54.000Z</time>
      </trkpt>
      <trkpt lat="47.25388" lon="-2.32691">
        <ele>63.200000762939</ele>
        <time>2019-07-11T10:09:57.000Z</time>
      </trkpt>
      <trkpt lat="47.25384" lon="-2.32685">
        <ele>63.599998474121</ele>
        <time>2019-07-11T10:09:58.000Z</time>
      </trkpt>
      <trkpt lat="47.25381" lon="-2.32679">
        <ele>64</ele>
        <time>2019-07-11T10:09:59.000Z</time>
      </trkpt>
      <trkpt lat="47.25377" lon="-2.32673">
        <ele>64.400001525879</ele>
        <time>2019-07-11T10:10:00.000Z</time>
      </trkpt>
      <trkpt lat="47.25375" lon="-2.32667">
        <ele>65</ele>
        <time>2019-07-11T10:10:01.000Z</time>
      </trkpt>
      <trkpt lat="47.25366" lon="-2.32646">
        <ele>65</ele>
        <time>2019-07-11T10:10:04.000Z</time>
      </trkpt>
      <trkpt lat="47.25363" lon="-2.3264">
        <ele>65.400001525879</ele>
        <time>2019-07-11T10:10:05.000Z</time>
      </trkpt>
      <trkpt lat="47.2536" lon="-2.32633">
        <ele>65.800003051758</ele>
        <time>2019-07-11T10:10:06.000Z</time>
      </trkpt>
      <trkpt lat="47.25357" lon="-2.32626">
        <ele>66.199996948242</ele>
        <time>2019-07-11T10:10:07.000Z</time>
      </trkpt>
      <trkpt lat="47.25353" lon="-2.3262">
        <ele>66.599998474121</ele>
        <time>2019-07-11T10:10:08.000Z</time>
      </trkpt>
      <trkpt lat="47.25349" lon="-2.32614">
        <ele>67</ele>
        <time>2019-07-11T10:10:09.000Z</time>
      </trkpt>
      <trkpt lat="47.25346" lon="-2.32607">
        <ele>67</ele>
        <time>2019-07-11T10:10:10.000Z</time>
      </trkpt>
      <trkpt lat="47.25322" lon="-2.32565">
        <ele>67</ele>
        <time>2019-07-11T10:10:17.000Z</time>
      </trkpt>
      <trkpt lat="47.25312" lon="-2.3255">
        <ele>67</ele>
        <time>2019-07-11T10:10:20.000Z</time>
      </trkpt>
      <trkpt lat="47.25305" lon="-2.32541">
        <ele>67</ele>
        <time>2019-07-11T10:10:22.000Z</time>
      </trkpt>
      <trkpt lat="47.25311" lon="-2.32528">
        <ele>67</ele>
        <time>2019-07-11T10:10:25.000Z</time>
      </trkpt>
      <trkpt lat="47.25324" lon="-2.32517">
        <ele>67</ele>
        <time>2019-07-11T10:10:28.000Z</time>
      </trkpt>
      <trkpt lat="47.25332" lon="-2.32504">
        <ele>67</ele>
        <time>2019-07-11T10:10:30.000Z</time>
      </trkpt>
      <trkpt lat="47.25342" lon="-2.32486">
        <ele>67</ele>
        <time>2019-07-11T10:10:33.000Z</time>
      </trkpt>
      <trkpt lat="47.25347" lon="-2.32481">
        <ele>67</ele>
        <time>2019-07-11T10:10:34.000Z</time>
      </trkpt>
      <trkpt lat="47.25362" lon="-2.32458">
        <ele>67</ele>
        <time>2019-07-11T10:10:38.000Z</time>
      </trkpt>
      <trkpt lat="47.25392" lon="-2.32415">
        <ele>67</ele>
        <time>2019-07-11T10:10:44.000Z</time>
      </trkpt>
      <trkpt lat="47.25403" lon="-2.32402">
        <ele>67</ele>
        <time>2019-07-11T10:10:46.000Z</time>
      </trkpt>
      <trkpt lat="47.25408" lon="-2.32398">
        <ele>66.400001525879</ele>
        <time>2019-07-11T10:10:47.000Z</time>
      </trkpt>
      <trkpt lat="47.25413" lon="-2.32395">
        <ele>66</ele>
        <time>2019-07-11T10:10:48.000Z</time>
      </trkpt>
      <trkpt lat="47.25417" lon="-2.32392">
        <ele>65.599998474121</ele>
        <time>2019-07-11T10:10:49.000Z</time>
      </trkpt>
      <trkpt lat="47.25419" lon="-2.32389">
        <ele>65</ele>
        <time>2019-07-11T10:10:50.000Z</time>
      </trkpt>
      <trkpt lat="47.2542" lon="-2.32386">
        <ele>64.599998474121</ele>
        <time>2019-07-11T10:10:51.000Z</time>
      </trkpt>
      <trkpt lat="47.2542" lon="-2.32382">
        <ele>64.599998474121</ele>
        <time>2019-07-11T10:10:52.000Z</time>
      </trkpt>
      <trkpt lat="47.2542" lon="-2.32378">
        <ele>64.599998474121</ele>
        <time>2019-07-11T10:10:54.000Z</time>
      </trkpt>
      <trkpt lat="47.25415" lon="-2.32362">
        <ele>64.599998474121</ele>
        <time>2019-07-11T10:10:58.000Z</time>
      </trkpt>
      <trkpt lat="47.2541" lon="-2.32358">
        <ele>64.599998474121</ele>
        <time>2019-07-11T10:11:02.000Z</time>
      </trkpt>
      <trkpt lat="47.25412" lon="-2.32361">
        <ele>64.599998474121</ele>
        <time>2019-07-11T10:11:03.000Z</time>
      </trkpt>
      <trkpt lat="47.25414" lon="-2.32369">
        <ele>64.599998474121</ele>
        <time>2019-07-11T10:11:05.000Z</time>
      </trkpt>
      <trkpt lat="47.25417" lon="-2.32371">
        <ele>64.599998474121</ele>
        <time>2019-07-11T10:11:06.000Z</time>
      </trkpt>
      <trkpt lat="47.25423" lon="-2.32367">
        <ele>64.599998474121</ele>
        <time>2019-07-11T10:11:08.000Z</time>
      </trkpt>
      <trkpt lat="47.25435" lon="-2.32359">
        <ele>64.599998474121</ele>
        <time>2019-07-11T10:11:12.000Z</time>
      </trkpt>
      <trkpt lat="47.25439" lon="-2.32355">
        <ele>64.599998474121</ele>
        <time>2019-07-11T10:11:13.000Z</time>
      </trkpt>
      <trkpt lat="47.2545" lon="-2.32344">
        <ele>64.599998474121</ele>
        <time>2019-07-11T10:11:16.000Z</time>
      </trkpt>
      <trkpt lat="47.25454" lon="-2.3234">
        <ele>64.199996948242</ele>
        <time>2019-07-11T10:11:17.000Z</time>
      </trkpt>
      <trkpt lat="47.25458" lon="-2.32336">
        <ele>63.599998474121</ele>
        <time>2019-07-11T10:11:18.000Z</time>
      </trkpt>
      <trkpt lat="47.25464" lon="-2.32331">
        <ele>63.200000762939</ele>
        <time>2019-07-11T10:11:19.000Z</time>
      </trkpt>
      <trkpt lat="47.25469" lon="-2.32324">
        <ele>62.799999237061</ele>
        <time>2019-07-11T10:11:20.000Z</time>
      </trkpt>
      <trkpt lat="47.25476" lon="-2.32318">
        <ele>62.400001525879</ele>
        <time>2019-07-11T10:11:21.000Z</time>
      </trkpt>
      <trkpt lat="47.25484" lon="-2.32312">
        <ele>62.400001525879</ele>
        <time>2019-07-11T10:11:22.000Z</time>
      </trkpt>
      <trkpt lat="47.25494" lon="-2.32307">
        <ele>62</ele>
        <time>2019-07-11T10:11:24.000Z</time>
      </trkpt>
      <trkpt lat="47.25498" lon="-2.32307">
        <ele>61.599998474121</ele>
        <time>2019-07-11T10:11:25.000Z</time>
      </trkpt>
      <trkpt lat="47.255" lon="-2.32315">
        <ele>61.200000762939</ele>
        <time>2019-07-11T10:11:26.000Z</time>
      </trkpt>
      <trkpt lat="47.25502" lon="-2.3232">
        <ele>60.799999237061</ele>
        <time>2019-07-11T10:11:27.000Z</time>
      </trkpt>
      <trkpt lat="47.25504" lon="-2.32325">
        <ele>60.200000762939</ele>
        <time>2019-07-11T10:11:28.000Z</time>
      </trkpt>
      <trkpt lat="47.25514" lon="-2.32351">
        <ele>60.200000762939</ele>
        <time>2019-07-11T10:11:32.000Z</time>
      </trkpt>
      <trkpt lat="47.25528" lon="-2.32395">
        <ele>60.200000762939</ele>
        <time>2019-07-11T10:11:38.000Z</time>
      </trkpt>
      <trkpt lat="47.25527" lon="-2.32403">
        <ele>60.200000762939</ele>
        <time>2019-07-11T10:11:39.000Z</time>
      </trkpt>
      <trkpt lat="47.25529" lon="-2.32431">
        <ele>60.200000762939</ele>
        <time>2019-07-11T10:11:43.000Z</time>
      </trkpt>
      <trkpt lat="47.25541" lon="-2.32446">
        <ele>60.200000762939</ele>
        <time>2019-07-11T10:11:46.000Z</time>
      </trkpt>
      <trkpt lat="47.25548" lon="-2.32457">
        <ele>60.200000762939</ele>
        <time>2019-07-11T10:11:48.000Z</time>
      </trkpt>
      <trkpt lat="47.25559" lon="-2.32475">
        <ele>60.200000762939</ele>
        <time>2019-07-11T10:11:51.000Z</time>
      </trkpt>
      <trkpt lat="47.25562" lon="-2.32479">
        <ele>60.200000762939</ele>
        <time>2019-07-11T10:11:52.000Z</time>
      </trkpt>
      <trkpt lat="47.25569" lon="-2.3248">
        <ele>60.200000762939</ele>
        <time>2019-07-11T10:11:54.000Z</time>
      </trkpt>
      <trkpt lat="47.25581" lon="-2.32467">
        <ele>60.200000762939</ele>
        <time>2019-07-11T10:11:57.000Z</time>
      </trkpt>
      <trkpt lat="47.25585" lon="-2.32462">
        <ele>60.200000762939</ele>
        <time>2019-07-11T10:11:58.000Z</time>
      </trkpt>
      <trkpt lat="47.25606" lon="-2.32438">
        <ele>60.200000762939</ele>
        <time>2019-07-11T10:12:02.000Z</time>
      </trkpt>
      <trkpt lat="47.25618" lon="-2.32426">
        <ele>59.799999237061</ele>
        <time>2019-07-11T10:12:04.000Z</time>
      </trkpt>
      <trkpt lat="47.25624" lon="-2.3242">
        <ele>59.400001525879</ele>
        <time>2019-07-11T10:12:05.000Z</time>
      </trkpt>
      <trkpt lat="47.2563" lon="-2.32414">
        <ele>59</ele>
        <time>2019-07-11T10:12:06.000Z</time>
      </trkpt>
      <trkpt lat="47.25636" lon="-2.32409">
        <ele>58.599998474121</ele>
        <time>2019-07-11T10:12:07.000Z</time>
      </trkpt>
      <trkpt lat="47.25642" lon="-2.32404">
        <ele>58.200000762939</ele>
        <time>2019-07-11T10:12:08.000Z</time>
      </trkpt>
      <trkpt lat="47.25649" lon="-2.32404">
        <ele>58.200000762939</ele>
        <time>2019-07-11T10:12:09.000Z</time>
      </trkpt>
      <trkpt lat="47.25658" lon="-2.32393">
        <ele>58.200000762939</ele>
        <time>2019-07-11T10:12:11.000Z</time>
      </trkpt>
      <trkpt lat="47.25657" lon="-2.32375">
        <ele>58.200000762939</ele>
        <time>2019-07-11T10:12:13.000Z</time>
      </trkpt>
      <trkpt lat="47.25654" lon="-2.32357">
        <ele>58.200000762939</ele>
        <time>2019-07-11T10:12:15.000Z</time>
      </trkpt>
      <trkpt lat="47.25652" lon="-2.3233">
        <ele>58.200000762939</ele>
        <time>2019-07-11T10:12:18.000Z</time>
      </trkpt>
      <trkpt lat="47.25649" lon="-2.32279">
        <ele>58.599998474121</ele>
        <time>2019-07-11T10:12:24.000Z</time>
      </trkpt>
      <trkpt lat="47.25648" lon="-2.32271">
        <ele>59</ele>
        <time>2019-07-11T10:12:25.000Z</time>
      </trkpt>
      <trkpt lat="47.25648" lon="-2.32263">
        <ele>59.400001525879</ele>
        <time>2019-07-11T10:12:26.000Z</time>
      </trkpt>
      <trkpt lat="47.25648" lon="-2.32255">
        <ele>59.799999237061</ele>
        <time>2019-07-11T10:12:27.000Z</time>
      </trkpt>
      <trkpt lat="47.25647" lon="-2.32247">
        <ele>60.200000762939</ele>
        <time>2019-07-11T10:12:28.000Z</time>
      </trkpt>
      <trkpt lat="47.25646" lon="-2.32232">
        <ele>60.599998474121</ele>
        <time>2019-07-11T10:12:30.000Z</time>
      </trkpt>
      <trkpt lat="47.25646" lon="-2.32225">
        <ele>61</ele>
        <time>2019-07-11T10:12:31.000Z</time>
      </trkpt>
      <trkpt lat="47.25645" lon="-2.32217">
        <ele>61.599998474121</ele>
        <time>2019-07-11T10:12:32.000Z</time>
      </trkpt>
      <trkpt lat="47.25644" lon="-2.32211">
        <ele>62</ele>
        <time>2019-07-11T10:12:33.000Z</time>
      </trkpt>
      <trkpt lat="47.25643" lon="-2.32204">
        <ele>62.400001525879</ele>
        <time>2019-07-11T10:12:34.000Z</time>
      </trkpt>
      <trkpt lat="47.25636" lon="-2.32174">
        <ele>62.799999237061</ele>
        <time>2019-07-11T10:12:38.000Z</time>
      </trkpt>
      <trkpt lat="47.25634" lon="-2.32167">
        <ele>63.400001525879</ele>
        <time>2019-07-11T10:12:39.000Z</time>
      </trkpt>
      <trkpt lat="47.25633" lon="-2.32159">
        <ele>63.799999237061</ele>
        <time>2019-07-11T10:12:40.000Z</time>
      </trkpt>
      <trkpt lat="47.25631" lon="-2.32152">
        <ele>64.199996948242</ele>
        <time>2019-07-11T10:12:41.000Z</time>
      </trkpt>
      <trkpt lat="47.25629" lon="-2.32145">
        <ele>64.599998474121</ele>
        <time>2019-07-11T10:12:42.000Z</time>
      </trkpt>
      <trkpt lat="47.25619" lon="-2.32115">
        <ele>64.599998474121</ele>
        <time>2019-07-11T10:12:46.000Z</time>
      </trkpt>
      <trkpt lat="47.256" lon="-2.32065">
        <ele>64.599998474121</ele>
        <time>2019-07-11T10:12:53.000Z</time>
      </trkpt>
      <trkpt lat="47.25586" lon="-2.32029">
        <ele>64.599998474121</ele>
        <time>2019-07-11T10:12:58.000Z</time>
      </trkpt>
      <trkpt lat="47.25583" lon="-2.32022">
        <ele>64.599998474121</ele>
        <time>2019-07-11T10:12:59.000Z</time>
      </trkpt>
      <trkpt lat="47.25569" lon="-2.31968">
        <ele>65</ele>
        <time>2019-07-11T10:13:06.000Z</time>
      </trkpt>
      <trkpt lat="47.25568" lon="-2.3196">
        <ele>65.400001525879</ele>
        <time>2019-07-11T10:13:07.000Z</time>
      </trkpt>
      <trkpt lat="47.25567" lon="-2.31953">
        <ele>65.800003051758</ele>
        <time>2019-07-11T10:13:08.000Z</time>
      </trkpt>
      <trkpt lat="47.25566" lon="-2.31946">
        <ele>66.199996948242</ele>
        <time>2019-07-11T10:13:09.000Z</time>
      </trkpt>
      <trkpt lat="47.25565" lon="-2.31939">
        <ele>66.599998474121</ele>
        <time>2019-07-11T10:13:10.000Z</time>
      </trkpt>
      <trkpt lat="47.25562" lon="-2.31919">
        <ele>66.599998474121</ele>
        <time>2019-07-11T10:13:13.000Z</time>
      </trkpt>
      <trkpt lat="47.25558" lon="-2.31912">
        <ele>66.599998474121</ele>
        <time>2019-07-11T10:13:16.000Z</time>
      </trkpt>
      <trkpt lat="47.25546" lon="-2.31911">
        <ele>66.599998474121</ele>
        <time>2019-07-11T10:13:21.000Z</time>
      </trkpt>
      <trkpt lat="47.25541" lon="-2.31907">
        <ele>67.199996948242</ele>
        <time>2019-07-11T10:13:22.000Z</time>
      </trkpt>
      <trkpt lat="47.25538" lon="-2.31903">
        <ele>67.599998474121</ele>
        <time>2019-07-11T10:13:23.000Z</time>
      </trkpt>
      <trkpt lat="47.25535" lon="-2.31899">
        <ele>68.199996948242</ele>
        <time>2019-07-11T10:13:24.000Z</time>
      </trkpt>
      <trkpt lat="47.25532" lon="-2.31893">
        <ele>68.599998474121</ele>
        <time>2019-07-11T10:13:25.000Z</time>
      </trkpt>
      <trkpt lat="47.2553" lon="-2.31887">
        <ele>69</ele>
        <time>2019-07-11T10:13:26.000Z</time>
      </trkpt>
      <trkpt lat="47.25526" lon="-2.31875">
        <ele>69</ele>
        <time>2019-07-11T10:13:28.000Z</time>
      </trkpt>
      <trkpt lat="47.25525" lon="-2.31869">
        <ele>69</ele>
        <time>2019-07-11T10:13:29.000Z</time>
      </trkpt>
      <trkpt lat="47.25519" lon="-2.31844">
        <ele>69</ele>
        <time>2019-07-11T10:13:34.000Z</time>
      </trkpt>
      <trkpt lat="47.25519" lon="-2.31836">
        <ele>69</ele>
        <time>2019-07-11T10:13:38.000Z</time>
      </trkpt>
      <trkpt lat="47.2552" lon="-2.31829">
        <ele>69</ele>
        <time>2019-07-11T10:15:22.000Z</time>
      </trkpt>
      <trkpt lat="47.25521" lon="-2.31821">
        <ele>69</ele>
        <time>2019-07-11T10:15:25.000Z</time>
      </trkpt>
      <trkpt lat="47.25531" lon="-2.31809">
        <ele>69</ele>
        <time>2019-07-11T10:15:30.000Z</time>
      </trkpt>
      <trkpt lat="47.25551" lon="-2.318">
        <ele>69</ele>
        <time>2019-07-11T10:15:35.000Z</time>
      </trkpt>
      <trkpt lat="47.25555" lon="-2.31799">
        <ele>69</ele>
        <time>2019-07-11T10:15:36.000Z</time>
      </trkpt>
      <trkpt lat="47.25562" lon="-2.31792">
        <ele>69</ele>
        <time>2019-07-11T10:15:38.000Z</time>
      </trkpt>
      <trkpt lat="47.25574" lon="-2.31773">
        <ele>69</ele>
        <time>2019-07-11T10:15:42.000Z</time>
      </trkpt>
      <trkpt lat="47.25577" lon="-2.31766">
        <ele>69</ele>
        <time>2019-07-11T10:15:43.000Z</time>
      </trkpt>
      <trkpt lat="47.25585" lon="-2.31753">
        <ele>69</ele>
        <time>2019-07-11T10:15:45.000Z</time>
      </trkpt>
      <trkpt lat="47.25589" lon="-2.31737">
        <ele>69</ele>
        <time>2019-07-11T10:15:47.000Z</time>
      </trkpt>
      <trkpt lat="47.25591" lon="-2.3173">
        <ele>69</ele>
        <time>2019-07-11T10:15:48.000Z</time>
      </trkpt>
      <trkpt lat="47.25593" lon="-2.31724">
        <ele>69</ele>
        <time>2019-07-11T10:15:49.000Z</time>
      </trkpt>
      <trkpt lat="47.25597" lon="-2.31718">
        <ele>69</ele>
        <time>2019-07-11T10:15:50.000Z</time>
      </trkpt>
      <trkpt lat="47.25606" lon="-2.31711">
        <ele>69</ele>
        <time>2019-07-11T10:15:52.000Z</time>
      </trkpt>
      <trkpt lat="47.25617" lon="-2.31709">
        <ele>69</ele>
        <time>2019-07-11T10:15:54.000Z</time>
      </trkpt>
      <trkpt lat="47.25628" lon="-2.31706">
        <ele>68.599998474121</ele>
        <time>2019-07-11T10:15:56.000Z</time>
      </trkpt>
      <trkpt lat="47.25633" lon="-2.31704">
        <ele>68.199996948242</ele>
        <time>2019-07-11T10:15:57.000Z</time>
      </trkpt>
      <trkpt lat="47.25639" lon="-2.31701">
        <ele>67.800003051758</ele>
        <time>2019-07-11T10:15:58.000Z</time>
      </trkpt>
      <trkpt lat="47.25645" lon="-2.31696">
        <ele>67.400001525879</ele>
        <time>2019-07-11T10:15:59.000Z</time>
      </trkpt>
      <trkpt lat="47.25651" lon="-2.3169">
        <ele>67</ele>
        <time>2019-07-11T10:16:00.000Z</time>
      </trkpt>
      <trkpt lat="47.25659" lon="-2.31672">
        <ele>67</ele>
        <time>2019-07-11T10:16:02.000Z</time>
      </trkpt>
      <trkpt lat="47.25665" lon="-2.31663">
        <ele>66.599998474121</ele>
        <time>2019-07-11T10:16:04.000Z</time>
      </trkpt>
      <trkpt lat="47.2567" lon="-2.31663">
        <ele>66.199996948242</ele>
        <time>2019-07-11T10:16:05.000Z</time>
      </trkpt>
      <trkpt lat="47.25674" lon="-2.31664">
        <ele>65.599998474121</ele>
        <time>2019-07-11T10:16:06.000Z</time>
      </trkpt>
      <trkpt lat="47.25678" lon="-2.31669">
        <ele>65.199996948242</ele>
        <time>2019-07-11T10:16:07.000Z</time>
      </trkpt>
      <trkpt lat="47.25683" lon="-2.31672">
        <ele>64.800003051758</ele>
        <time>2019-07-11T10:16:08.000Z</time>
      </trkpt>
      <trkpt lat="47.25688" lon="-2.31674">
        <ele>64.800003051758</ele>
        <time>2019-07-11T10:16:09.000Z</time>
      </trkpt>
      <trkpt lat="47.25705" lon="-2.31682">
        <ele>64.800003051758</ele>
        <time>2019-07-11T10:16:12.000Z</time>
      </trkpt>
      <trkpt lat="47.25719" lon="-2.31694">
        <ele>64.800003051758</ele>
        <time>2019-07-11T10:16:15.000Z</time>
      </trkpt>
      <trkpt lat="47.25725" lon="-2.31696">
        <ele>64.800003051758</ele>
        <time>2019-07-11T10:16:16.000Z</time>
      </trkpt>
      <trkpt lat="47.25731" lon="-2.31695">
        <ele>64.400001525879</ele>
        <time>2019-07-11T10:16:17.000Z</time>
      </trkpt>
      <trkpt lat="47.25737" lon="-2.31692">
        <ele>63.799999237061</ele>
        <time>2019-07-11T10:16:18.000Z</time>
      </trkpt>
      <trkpt lat="47.25742" lon="-2.31688">
        <ele>63.400001525879</ele>
        <time>2019-07-11T10:16:19.000Z</time>
      </trkpt>
      <trkpt lat="47.25747" lon="-2.31683">
        <ele>63</ele>
        <time>2019-07-11T10:16:20.000Z</time>
      </trkpt>
      <trkpt lat="47.25752" lon="-2.3168">
        <ele>62.599998474121</ele>
        <time>2019-07-11T10:16:21.000Z</time>
      </trkpt>
      <trkpt lat="47.25766" lon="-2.31671">
        <ele>62.599998474121</ele>
        <time>2019-07-11T10:16:24.000Z</time>
      </trkpt>
      <trkpt lat="47.25779" lon="-2.31661">
        <ele>62.599998474121</ele>
        <time>2019-07-11T10:16:27.000Z</time>
      </trkpt>
      <trkpt lat="47.25791" lon="-2.31649">
        <ele>62.599998474121</ele>
        <time>2019-07-11T10:16:30.000Z</time>
      </trkpt>
      <trkpt lat="47.25822" lon="-2.31627">
        <ele>62.599998474121</ele>
        <time>2019-07-11T10:16:37.000Z</time>
      </trkpt>
      <trkpt lat="47.25839" lon="-2.31612">
        <ele>63</ele>
        <time>2019-07-11T10:16:41.000Z</time>
      </trkpt>
      <trkpt lat="47.25843" lon="-2.31608">
        <ele>63.400001525879</ele>
        <time>2019-07-11T10:16:42.000Z</time>
      </trkpt>
      <trkpt lat="47.25848" lon="-2.31604">
        <ele>63.799999237061</ele>
        <time>2019-07-11T10:16:43.000Z</time>
      </trkpt>
      <trkpt lat="47.25852" lon="-2.316">
        <ele>64.199996948242</ele>
        <time>2019-07-11T10:16:44.000Z</time>
      </trkpt>
      <trkpt lat="47.25857" lon="-2.31595">
        <ele>64.599998474121</ele>
        <time>2019-07-11T10:16:45.000Z</time>
      </trkpt>
      <trkpt lat="47.25882" lon="-2.31569">
        <ele>64.599998474121</ele>
        <time>2019-07-11T10:16:50.000Z</time>
      </trkpt>
      <trkpt lat="47.25893" lon="-2.31545">
        <ele>64.199996948242</ele>
        <time>2019-07-11T10:16:53.000Z</time>
      </trkpt>
      <trkpt lat="47.25896" lon="-2.31537">
        <ele>63.599998474121</ele>
        <time>2019-07-11T10:16:54.000Z</time>
      </trkpt>
      <trkpt lat="47.25899" lon="-2.31529">
        <ele>63.200000762939</ele>
        <time>2019-07-11T10:16:55.000Z</time>
      </trkpt>
      <trkpt lat="47.25902" lon="-2.31523">
        <ele>62.599998474121</ele>
        <time>2019-07-11T10:16:56.000Z</time>
      </trkpt>
      <trkpt lat="47.25905" lon="-2.31519">
        <ele>62.200000762939</ele>
        <time>2019-07-11T10:16:57.000Z</time>
      </trkpt>
      <trkpt lat="47.25914" lon="-2.31511">
        <ele>62.200000762939</ele>
        <time>2019-07-11T10:17:00.000Z</time>
      </trkpt>
      <trkpt lat="47.25914" lon="-2.31509">
        <ele>61.799999237061</ele>
        <time>2019-07-11T10:17:01.000Z</time>
      </trkpt>
      <trkpt lat="47.25914" lon="-2.31507">
        <ele>61.400001525879</ele>
        <time>2019-07-11T10:17:02.000Z</time>
      </trkpt>
      <trkpt lat="47.25914" lon="-2.31506">
        <ele>61</ele>
        <time>2019-07-11T10:17:03.000Z</time>
      </trkpt>
      <trkpt lat="47.25913" lon="-2.31504">
        <ele>60.599998474121</ele>
        <time>2019-07-11T10:17:04.000Z</time>
      </trkpt>
      <trkpt lat="47.25914" lon="-2.31502">
        <ele>60</ele>
        <time>2019-07-11T10:17:05.000Z</time>
      </trkpt>
      <trkpt lat="47.25921" lon="-2.31483">
        <ele>60</ele>
        <time>2019-07-11T10:17:09.000Z</time>
      </trkpt>
      <trkpt lat="47.25927" lon="-2.31465">
        <ele>60</ele>
        <time>2019-07-11T10:17:12.000Z</time>
      </trkpt>
      <trkpt lat="47.25934" lon="-2.31459">
        <ele>60</ele>
        <time>2019-07-11T10:17:14.000Z</time>
      </trkpt>
      <trkpt lat="47.25951" lon="-2.31464">
        <ele>60</ele>
        <time>2019-07-11T10:17:18.000Z</time>
      </trkpt>
      <trkpt lat="47.2596" lon="-2.31452">
        <ele>60</ele>
        <time>2019-07-11T10:17:21.000Z</time>
      </trkpt>
      <trkpt lat="47.25963" lon="-2.31446">
        <ele>60</ele>
        <time>2019-07-11T10:17:22.000Z</time>
      </trkpt>
      <trkpt lat="47.25971" lon="-2.3143">
        <ele>60</ele>
        <time>2019-07-11T10:17:25.000Z</time>
      </trkpt>
      <trkpt lat="47.25978" lon="-2.31425">
        <ele>60</ele>
        <time>2019-07-11T10:17:27.000Z</time>
      </trkpt>
      <trkpt lat="47.25992" lon="-2.31429">
        <ele>60</ele>
        <time>2019-07-11T10:17:30.000Z</time>
      </trkpt>
      <trkpt lat="47.25996" lon="-2.31432">
        <ele>60</ele>
        <time>2019-07-11T10:17:31.000Z</time>
      </trkpt>
      <trkpt lat="47.26" lon="-2.31436">
        <ele>60</ele>
        <time>2019-07-11T10:17:32.000Z</time>
      </trkpt>
      <trkpt lat="47.26009" lon="-2.31443">
        <ele>60</ele>
        <time>2019-07-11T10:17:34.000Z</time>
      </trkpt>
      <trkpt lat="47.26017" lon="-2.31449">
        <ele>60</ele>
        <time>2019-07-11T10:17:36.000Z</time>
      </trkpt>
      <trkpt lat="47.26049" lon="-2.31469">
        <ele>60</ele>
        <time>2019-07-11T10:17:43.000Z</time>
      </trkpt>
      <trkpt lat="47.26057" lon="-2.31476">
        <ele>60</ele>
        <time>2019-07-11T10:17:45.000Z</time>
      </trkpt>
      <trkpt lat="47.26059" lon="-2.31488">
        <ele>60</ele>
        <time>2019-07-11T10:17:47.000Z</time>
      </trkpt>
      <trkpt lat="47.26053" lon="-2.31496">
        <ele>60</ele>
        <time>2019-07-11T10:17:49.000Z</time>
      </trkpt>
      <trkpt lat="47.26049" lon="-2.31499">
        <ele>60</ele>
        <time>2019-07-11T10:17:50.000Z</time>
      </trkpt>
      <trkpt lat="47.26045" lon="-2.31502">
        <ele>60</ele>
        <time>2019-07-11T10:17:51.000Z</time>
      </trkpt>
      <trkpt lat="47.26043" lon="-2.31512">
        <ele>60</ele>
        <time>2019-07-11T10:17:53.000Z</time>
      </trkpt>
      <trkpt lat="47.26052" lon="-2.31531">
        <ele>60</ele>
        <time>2019-07-11T10:17:56.000Z</time>
      </trkpt>
      <trkpt lat="47.26059" lon="-2.31543">
        <ele>60</ele>
        <time>2019-07-11T10:17:58.000Z</time>
      </trkpt>
      <trkpt lat="47.26062" lon="-2.31549">
        <ele>59.599998474121</ele>
        <time>2019-07-11T10:17:59.000Z</time>
      </trkpt>
      <trkpt lat="47.26065" lon="-2.31555">
        <ele>59.200000762939</ele>
        <time>2019-07-11T10:18:00.000Z</time>
      </trkpt>
      <trkpt lat="47.26068" lon="-2.31561">
        <ele>58.799999237061</ele>
        <time>2019-07-11T10:18:01.000Z</time>
      </trkpt>
      <trkpt lat="47.26071" lon="-2.31567">
        <ele>58.400001525879</ele>
        <time>2019-07-11T10:18:02.000Z</time>
      </trkpt>
      <trkpt lat="47.26074" lon="-2.31573">
        <ele>58</ele>
        <time>2019-07-11T10:18:03.000Z</time>
      </trkpt>
      <trkpt lat="47.26079" lon="-2.31577">
        <ele>58</ele>
        <time>2019-07-11T10:18:05.000Z</time>
      </trkpt>
      <trkpt lat="47.26089" lon="-2.31584">
        <ele>58</ele>
        <time>2019-07-11T10:18:09.000Z</time>
      </trkpt>
      <trkpt lat="47.26094" lon="-2.31594">
        <ele>58</ele>
        <time>2019-07-11T10:18:11.000Z</time>
      </trkpt>
      <trkpt lat="47.26103" lon="-2.3161">
        <ele>58</ele>
        <time>2019-07-11T10:18:14.000Z</time>
      </trkpt>
      <trkpt lat="47.26118" lon="-2.31616">
        <ele>58</ele>
        <time>2019-07-11T10:18:17.000Z</time>
      </trkpt>
      <trkpt lat="47.26127" lon="-2.31615">
        <ele>58</ele>
        <time>2019-07-11T10:18:19.000Z</time>
      </trkpt>
      <trkpt lat="47.26139" lon="-2.31612">
        <ele>58</ele>
        <time>2019-07-11T10:18:22.000Z</time>
      </trkpt>
      <trkpt lat="47.26164" lon="-2.31599">
        <ele>58</ele>
        <time>2019-07-11T10:18:28.000Z</time>
      </trkpt>
      <trkpt lat="47.26202" lon="-2.31589">
        <ele>58</ele>
        <time>2019-07-11T10:18:36.000Z</time>
      </trkpt>
      <trkpt lat="47.26211" lon="-2.3159">
        <ele>58</ele>
        <time>2019-07-11T10:18:38.000Z</time>
      </trkpt>
      <trkpt lat="47.2622" lon="-2.31593">
        <ele>58</ele>
        <time>2019-07-11T10:18:41.000Z</time>
      </trkpt>
      <trkpt lat="47.26222" lon="-2.31594">
        <ele>58</ele>
        <time>2019-07-11T10:18:42.000Z</time>
      </trkpt>
      <trkpt lat="47.26223" lon="-2.31595">
        <ele>57.599998474121</ele>
        <time>2019-07-11T10:18:43.000Z</time>
      </trkpt>
      <trkpt lat="47.26223" lon="-2.31595">
        <ele>57.200000762939</ele>
        <time>2019-07-11T10:18:44.000Z</time>
      </trkpt>
      <trkpt lat="47.26223" lon="-2.31595">
        <ele>56.799999237061</ele>
        <time>2019-07-11T10:18:45.000Z</time>
      </trkpt>
      <trkpt lat="47.26224" lon="-2.31596">
        <ele>55.799999237061</ele>
        <time>2019-07-11T10:19:01.000Z</time>
      </trkpt>
      <trkpt lat="47.26231" lon="-2.316">
        <ele>55.799999237061</ele>
        <time>2019-07-11T10:19:05.000Z</time>
      </trkpt>
      <trkpt lat="47.26237" lon="-2.31606">
        <ele>55.799999237061</ele>
        <time>2019-07-11T10:19:10.000Z</time>
      </trkpt>
      <trkpt lat="47.2624" lon="-2.31609">
        <ele>55.799999237061</ele>
        <time>2019-07-11T10:19:17.000Z</time>
      </trkpt>
      <trkpt lat="47.26251" lon="-2.31622">
        <ele>55.799999237061</ele>
        <time>2019-07-11T10:19:22.000Z</time>
      </trkpt>
      <trkpt lat="47.26261" lon="-2.31646">
        <ele>55.799999237061</ele>
        <time>2019-07-11T10:19:27.000Z</time>
      </trkpt>
      <trkpt lat="47.26278" lon="-2.3168">
        <ele>55.799999237061</ele>
        <time>2019-07-11T10:19:34.000Z</time>
      </trkpt>
      <trkpt lat="47.26292" lon="-2.31704">
        <ele>55.799999237061</ele>
        <time>2019-07-11T10:19:39.000Z</time>
      </trkpt>
      <trkpt lat="47.26297" lon="-2.31708">
        <ele>55.799999237061</ele>
        <time>2019-07-11T10:19:40.000Z</time>
      </trkpt>
      <trkpt lat="47.26313" lon="-2.31711">
        <ele>55.799999237061</ele>
        <time>2019-07-11T10:19:44.000Z</time>
      </trkpt>
      <trkpt lat="47.26317" lon="-2.3171">
        <ele>55.799999237061</ele>
        <time>2019-07-11T10:19:45.000Z</time>
      </trkpt>
      <trkpt lat="47.26328" lon="-2.31702">
        <ele>55.799999237061</ele>
        <time>2019-07-11T10:19:48.000Z</time>
      </trkpt>
      <trkpt lat="47.26331" lon="-2.31696">
        <ele>55.799999237061</ele>
        <time>2019-07-11T10:19:49.000Z</time>
      </trkpt>
      <trkpt lat="47.26333" lon="-2.31691">
        <ele>56.400001525879</ele>
        <time>2019-07-11T10:19:50.000Z</time>
      </trkpt>
      <trkpt lat="47.26336" lon="-2.31689">
        <ele>56.799999237061</ele>
        <time>2019-07-11T10:19:51.000Z</time>
      </trkpt>
      <trkpt lat="47.2634" lon="-2.31687">
        <ele>57.200000762939</ele>
        <time>2019-07-11T10:19:52.000Z</time>
      </trkpt>
      <trkpt lat="47.26343" lon="-2.31685">
        <ele>57.599998474121</ele>
        <time>2019-07-11T10:19:53.000Z</time>
      </trkpt>
      <trkpt lat="47.26346" lon="-2.31683">
        <ele>58</ele>
        <time>2019-07-11T10:19:54.000Z</time>
      </trkpt>
      <trkpt lat="47.26365" lon="-2.31671">
        <ele>58.400001525879</ele>
        <time>2019-07-11T10:20:00.000Z</time>
      </trkpt>
      <trkpt lat="47.26368" lon="-2.3167">
        <ele>58.799999237061</ele>
        <time>2019-07-11T10:20:01.000Z</time>
      </trkpt>
      <trkpt lat="47.26371" lon="-2.31668">
        <ele>59.200000762939</ele>
        <time>2019-07-11T10:20:02.000Z</time>
      </trkpt>
      <trkpt lat="47.26374" lon="-2.31666">
        <ele>59.799999237061</ele>
        <time>2019-07-11T10:20:03.000Z</time>
      </trkpt>
      <trkpt lat="47.26377" lon="-2.31664">
        <ele>60.200000762939</ele>
        <time>2019-07-11T10:20:04.000Z</time>
      </trkpt>
      <trkpt lat="47.26388" lon="-2.31659">
        <ele>60.200000762939</ele>
        <time>2019-07-11T10:20:07.000Z</time>
      </trkpt>
      <trkpt lat="47.26403" lon="-2.31647">
        <ele>60.200000762939</ele>
        <time>2019-07-11T10:20:12.000Z</time>
      </trkpt>
      <trkpt lat="47.26404" lon="-2.31643">
        <ele>60.200000762939</ele>
        <time>2019-07-11T10:20:13.000Z</time>
      </trkpt>
      <trkpt lat="47.26406" lon="-2.31633">
        <ele>60.200000762939</ele>
        <time>2019-07-11T10:20:15.000Z</time>
      </trkpt>
      <trkpt lat="47.2641" lon="-2.31597">
        <ele>60.200000762939</ele>
        <time>2019-07-11T10:20:22.000Z</time>
      </trkpt>
      <trkpt lat="47.2641" lon="-2.3157">
        <ele>60.200000762939</ele>
        <time>2019-07-11T10:20:28.000Z</time>
      </trkpt>
      <trkpt lat="47.26412" lon="-2.31554">
        <ele>60.200000762939</ele>
        <time>2019-07-11T10:20:32.000Z</time>
      </trkpt>
      <trkpt lat="47.26413" lon="-2.31552">
        <ele>60.200000762939</ele>
        <time>2019-07-11T10:20:33.000Z</time>
      </trkpt>
      <trkpt lat="47.26417" lon="-2.31552">
        <ele>60.599998474121</ele>
        <time>2019-07-11T10:20:36.000Z</time>
      </trkpt>
      <trkpt lat="47.26418" lon="-2.31552">
        <ele>61</ele>
        <time>2019-07-11T10:20:37.000Z</time>
      </trkpt>
    </trkseg>
  </trk>
</gpx>